<?xml version="1.0" encoding="UTF-8" standalone="no" ?>
<gpx xmlns="http://www.topografix.com/GPX/1/1" xmlns:xsi="http://www.w3.org/2001/XMLSchema-instance" xsi:schemaLocation="http://www.topografix.com/GPX/1/1 http://www.topografix.com/GPX/1/1/gpx.xsd" version="1.1" creator="VisuGPX - https://www.visugpx.com">
  <metadata>
    <name>Circuit 6 autour du lac de Paladru</name>
    <desc><![CDATA[Joli balade, rien de difficile mais de jolis paysages]]></desc>
  </metadata>
  <trk>
    <name><![CDATA[2011-03-27-01_Petit tour du lac de Paladru]]></name>
    <trkseg>
      <trkpt lat="45.43301" lon="5.51624">
        <ele>494.6</ele>
        <time>2011-03-27T09:16:37Z</time>
      </trkpt>
      <trkpt lat="45.43295" lon="5.51629">
        <ele>484.4</ele>
        <time>2011-03-27T09:17:05Z</time>
      </trkpt>
      <trkpt lat="45.43288" lon="5.5163">
        <ele>484.1</ele>
        <time>2011-03-27T09:17:08Z</time>
      </trkpt>
      <trkpt lat="45.43281" lon="5.51631">
        <ele>483.7</ele>
        <time>2011-03-27T09:17:11Z</time>
      </trkpt>
      <trkpt lat="45.43274" lon="5.51631">
        <ele>483.4</ele>
        <time>2011-03-27T09:17:14Z</time>
      </trkpt>
      <trkpt lat="45.43265" lon="5.51629">
        <ele>483.2</ele>
        <time>2011-03-27T09:17:19Z</time>
      </trkpt>
      <trkpt lat="45.43268" lon="5.51639">
        <ele>483.2</ele>
        <time>2011-03-27T09:17:24Z</time>
      </trkpt>
      <trkpt lat="45.43269" lon="5.51641">
        <ele>483.3</ele>
        <time>2011-03-27T09:17:25Z</time>
      </trkpt>
      <trkpt lat="45.43283" lon="5.5165">
        <ele>483.7</ele>
        <time>2011-03-27T09:17:31Z</time>
      </trkpt>
      <trkpt lat="45.43291" lon="5.51655">
        <ele>483.9</ele>
        <time>2011-03-27T09:17:34Z</time>
      </trkpt>
      <trkpt lat="45.43297" lon="5.51659">
        <ele>483.9</ele>
        <time>2011-03-27T09:17:36Z</time>
      </trkpt>
      <trkpt lat="45.43305" lon="5.51666">
        <ele>483.9</ele>
        <time>2011-03-27T09:17:39Z</time>
      </trkpt>
      <trkpt lat="45.43312" lon="5.51669">
        <ele>484.2</ele>
        <time>2011-03-27T09:17:43Z</time>
      </trkpt>
      <trkpt lat="45.43315" lon="5.5168">
        <ele>484.7</ele>
        <time>2011-03-27T09:17:47Z</time>
      </trkpt>
      <trkpt lat="45.43315" lon="5.5169">
        <ele>485.3</ele>
        <time>2011-03-27T09:17:50Z</time>
      </trkpt>
      <trkpt lat="45.43315" lon="5.51702">
        <ele>485.9</ele>
        <time>2011-03-27T09:17:53Z</time>
      </trkpt>
      <trkpt lat="45.43311" lon="5.51712">
        <ele>486.4</ele>
        <time>2011-03-27T09:17:56Z</time>
      </trkpt>
      <trkpt lat="45.43305" lon="5.51713">
        <ele>486.7</ele>
        <time>2011-03-27T09:17:58Z</time>
      </trkpt>
      <trkpt lat="45.43297" lon="5.51715">
        <ele>486.8</ele>
        <time>2011-03-27T09:18:00Z</time>
      </trkpt>
      <trkpt lat="45.43289" lon="5.51715">
        <ele>486.8</ele>
        <time>2011-03-27T09:18:02Z</time>
      </trkpt>
      <trkpt lat="45.43281" lon="5.51716">
        <ele>486.8</ele>
        <time>2011-03-27T09:18:04Z</time>
      </trkpt>
      <trkpt lat="45.43273" lon="5.51715">
        <ele>486.9</ele>
        <time>2011-03-27T09:18:06Z</time>
      </trkpt>
      <trkpt lat="45.43265" lon="5.51714">
        <ele>487.1</ele>
        <time>2011-03-27T09:18:08Z</time>
      </trkpt>
      <trkpt lat="45.43258" lon="5.51712">
        <ele>487.2</ele>
        <time>2011-03-27T09:18:10Z</time>
      </trkpt>
      <trkpt lat="45.4325" lon="5.51709">
        <ele>487.3</ele>
        <time>2011-03-27T09:18:12Z</time>
      </trkpt>
      <trkpt lat="45.43243" lon="5.51707">
        <ele>487.1</ele>
        <time>2011-03-27T09:18:14Z</time>
      </trkpt>
      <trkpt lat="45.43236" lon="5.51705">
        <ele>487.1</ele>
        <time>2011-03-27T09:18:16Z</time>
      </trkpt>
      <trkpt lat="45.43229" lon="5.51702">
        <ele>487</ele>
        <time>2011-03-27T09:18:18Z</time>
      </trkpt>
      <trkpt lat="45.43222" lon="5.517">
        <ele>486.9</ele>
        <time>2011-03-27T09:18:20Z</time>
      </trkpt>
      <trkpt lat="45.43215" lon="5.51698">
        <ele>486.8</ele>
        <time>2011-03-27T09:18:22Z</time>
      </trkpt>
      <trkpt lat="45.43208" lon="5.51695">
        <ele>486.6</ele>
        <time>2011-03-27T09:18:24Z</time>
      </trkpt>
      <trkpt lat="45.43201" lon="5.51692">
        <ele>486.5</ele>
        <time>2011-03-27T09:18:26Z</time>
      </trkpt>
      <trkpt lat="45.43197" lon="5.51691">
        <ele>486.3</ele>
        <time>2011-03-27T09:18:27Z</time>
      </trkpt>
      <trkpt lat="45.43186" lon="5.51687">
        <ele>486</ele>
        <time>2011-03-27T09:18:30Z</time>
      </trkpt>
      <trkpt lat="45.43179" lon="5.51683">
        <ele>485.9</ele>
        <time>2011-03-27T09:18:32Z</time>
      </trkpt>
      <trkpt lat="45.43172" lon="5.51681">
        <ele>485.7</ele>
        <time>2011-03-27T09:18:34Z</time>
      </trkpt>
      <trkpt lat="45.43165" lon="5.51678">
        <ele>485.7</ele>
        <time>2011-03-27T09:18:36Z</time>
      </trkpt>
      <trkpt lat="45.43157" lon="5.51675">
        <ele>485.6</ele>
        <time>2011-03-27T09:18:38Z</time>
      </trkpt>
      <trkpt lat="45.43149" lon="5.51673">
        <ele>485.6</ele>
        <time>2011-03-27T09:18:40Z</time>
      </trkpt>
      <trkpt lat="45.43141" lon="5.5167">
        <ele>485.5</ele>
        <time>2011-03-27T09:18:42Z</time>
      </trkpt>
      <trkpt lat="45.43134" lon="5.51667">
        <ele>485.4</ele>
        <time>2011-03-27T09:18:44Z</time>
      </trkpt>
      <trkpt lat="45.43126" lon="5.51664">
        <ele>485.5</ele>
        <time>2011-03-27T09:18:46Z</time>
      </trkpt>
      <trkpt lat="45.43117" lon="5.51661">
        <ele>485.6</ele>
        <time>2011-03-27T09:18:48Z</time>
      </trkpt>
      <trkpt lat="45.43109" lon="5.51658">
        <ele>485.7</ele>
        <time>2011-03-27T09:18:50Z</time>
      </trkpt>
      <trkpt lat="45.43101" lon="5.51655">
        <ele>485.7</ele>
        <time>2011-03-27T09:18:52Z</time>
      </trkpt>
      <trkpt lat="45.43092" lon="5.51652">
        <ele>485.7</ele>
        <time>2011-03-27T09:18:54Z</time>
      </trkpt>
      <trkpt lat="45.43084" lon="5.51648">
        <ele>485.7</ele>
        <time>2011-03-27T09:18:56Z</time>
      </trkpt>
      <trkpt lat="45.43075" lon="5.51645">
        <ele>485.7</ele>
        <time>2011-03-27T09:18:58Z</time>
      </trkpt>
      <trkpt lat="45.43067" lon="5.51641">
        <ele>485.8</ele>
        <time>2011-03-27T09:19:00Z</time>
      </trkpt>
      <trkpt lat="45.43058" lon="5.51638">
        <ele>485.9</ele>
        <time>2011-03-27T09:19:02Z</time>
      </trkpt>
      <trkpt lat="45.43049" lon="5.51635">
        <ele>486.1</ele>
        <time>2011-03-27T09:19:04Z</time>
      </trkpt>
      <trkpt lat="45.43041" lon="5.51632">
        <ele>486.3</ele>
        <time>2011-03-27T09:19:06Z</time>
      </trkpt>
      <trkpt lat="45.43032" lon="5.51629">
        <ele>486.5</ele>
        <time>2011-03-27T09:19:08Z</time>
      </trkpt>
      <trkpt lat="45.43023" lon="5.51626">
        <ele>486.5</ele>
        <time>2011-03-27T09:19:10Z</time>
      </trkpt>
      <trkpt lat="45.43019" lon="5.51625">
        <ele>486.4</ele>
        <time>2011-03-27T09:19:11Z</time>
      </trkpt>
      <trkpt lat="45.43014" lon="5.51623">
        <ele>486.4</ele>
        <time>2011-03-27T09:19:12Z</time>
      </trkpt>
      <trkpt lat="45.4301" lon="5.51622">
        <ele>486.3</ele>
        <time>2011-03-27T09:19:13Z</time>
      </trkpt>
      <trkpt lat="45.43005" lon="5.51622">
        <ele>486.3</ele>
        <time>2011-03-27T09:19:14Z</time>
      </trkpt>
      <trkpt lat="45.43" lon="5.51621">
        <ele>486.3</ele>
        <time>2011-03-27T09:19:15Z</time>
      </trkpt>
      <trkpt lat="45.42996" lon="5.5162">
        <ele>486.3</ele>
        <time>2011-03-27T09:19:16Z</time>
      </trkpt>
      <trkpt lat="45.42991" lon="5.5162">
        <ele>486.3</ele>
        <time>2011-03-27T09:19:17Z</time>
      </trkpt>
      <trkpt lat="45.42986" lon="5.51619">
        <ele>486.4</ele>
        <time>2011-03-27T09:19:18Z</time>
      </trkpt>
      <trkpt lat="45.42981" lon="5.51619">
        <ele>486.5</ele>
        <time>2011-03-27T09:19:19Z</time>
      </trkpt>
      <trkpt lat="45.42976" lon="5.5162">
        <ele>486.6</ele>
        <time>2011-03-27T09:19:20Z</time>
      </trkpt>
      <trkpt lat="45.42972" lon="5.5162">
        <ele>486.8</ele>
        <time>2011-03-27T09:19:21Z</time>
      </trkpt>
      <trkpt lat="45.42967" lon="5.5162">
        <ele>486.9</ele>
        <time>2011-03-27T09:19:22Z</time>
      </trkpt>
      <trkpt lat="45.42962" lon="5.51621">
        <ele>487</ele>
        <time>2011-03-27T09:19:23Z</time>
      </trkpt>
      <trkpt lat="45.42957" lon="5.51623">
        <ele>487.1</ele>
        <time>2011-03-27T09:19:24Z</time>
      </trkpt>
      <trkpt lat="45.42953" lon="5.51624">
        <ele>487.2</ele>
        <time>2011-03-27T09:19:25Z</time>
      </trkpt>
      <trkpt lat="45.42948" lon="5.51625">
        <ele>487.3</ele>
        <time>2011-03-27T09:19:26Z</time>
      </trkpt>
      <trkpt lat="45.42943" lon="5.51627">
        <ele>487.4</ele>
        <time>2011-03-27T09:19:27Z</time>
      </trkpt>
      <trkpt lat="45.42939" lon="5.51629">
        <ele>487.5</ele>
        <time>2011-03-27T09:19:28Z</time>
      </trkpt>
      <trkpt lat="45.42934" lon="5.5163">
        <ele>487.5</ele>
        <time>2011-03-27T09:19:29Z</time>
      </trkpt>
      <trkpt lat="45.42926" lon="5.51634">
        <ele>487.7</ele>
        <time>2011-03-27T09:19:31Z</time>
      </trkpt>
      <trkpt lat="45.42918" lon="5.51637">
        <ele>488</ele>
        <time>2011-03-27T09:19:33Z</time>
      </trkpt>
      <trkpt lat="45.4291" lon="5.51641">
        <ele>488.4</ele>
        <time>2011-03-27T09:19:35Z</time>
      </trkpt>
      <trkpt lat="45.42903" lon="5.51648">
        <ele>488.7</ele>
        <time>2011-03-27T09:19:37Z</time>
      </trkpt>
      <trkpt lat="45.42899" lon="5.51652">
        <ele>488.8</ele>
        <time>2011-03-27T09:19:38Z</time>
      </trkpt>
      <trkpt lat="45.42895" lon="5.51657">
        <ele>488.7</ele>
        <time>2011-03-27T09:19:39Z</time>
      </trkpt>
      <trkpt lat="45.42891" lon="5.51662">
        <ele>488.6</ele>
        <time>2011-03-27T09:19:40Z</time>
      </trkpt>
      <trkpt lat="45.42887" lon="5.51666">
        <ele>488.5</ele>
        <time>2011-03-27T09:19:41Z</time>
      </trkpt>
      <trkpt lat="45.42884" lon="5.51671">
        <ele>488.3</ele>
        <time>2011-03-27T09:19:42Z</time>
      </trkpt>
      <trkpt lat="45.4288" lon="5.51676">
        <ele>488</ele>
        <time>2011-03-27T09:19:43Z</time>
      </trkpt>
      <trkpt lat="45.42877" lon="5.5168">
        <ele>487.7</ele>
        <time>2011-03-27T09:19:44Z</time>
      </trkpt>
      <trkpt lat="45.42873" lon="5.51685">
        <ele>487.4</ele>
        <time>2011-03-27T09:19:45Z</time>
      </trkpt>
      <trkpt lat="45.4287" lon="5.51689">
        <ele>487.1</ele>
        <time>2011-03-27T09:19:46Z</time>
      </trkpt>
      <trkpt lat="45.42867" lon="5.51694">
        <ele>486.9</ele>
        <time>2011-03-27T09:19:47Z</time>
      </trkpt>
      <trkpt lat="45.42863" lon="5.51698">
        <ele>486.6</ele>
        <time>2011-03-27T09:19:48Z</time>
      </trkpt>
      <trkpt lat="45.4286" lon="5.51703">
        <ele>486.4</ele>
        <time>2011-03-27T09:19:49Z</time>
      </trkpt>
      <trkpt lat="45.42857" lon="5.51707">
        <ele>486.3</ele>
        <time>2011-03-27T09:19:50Z</time>
      </trkpt>
      <trkpt lat="45.42851" lon="5.51717">
        <ele>486.1</ele>
        <time>2011-03-27T09:19:52Z</time>
      </trkpt>
      <trkpt lat="45.42848" lon="5.51722">
        <ele>486</ele>
        <time>2011-03-27T09:19:53Z</time>
      </trkpt>
      <trkpt lat="45.42846" lon="5.51727">
        <ele>486</ele>
        <time>2011-03-27T09:19:54Z</time>
      </trkpt>
      <trkpt lat="45.42843" lon="5.51733">
        <ele>486</ele>
        <time>2011-03-27T09:19:55Z</time>
      </trkpt>
      <trkpt lat="45.42841" lon="5.51739">
        <ele>486</ele>
        <time>2011-03-27T09:19:56Z</time>
      </trkpt>
      <trkpt lat="45.42839" lon="5.51746">
        <ele>486</ele>
        <time>2011-03-27T09:19:57Z</time>
      </trkpt>
      <trkpt lat="45.42837" lon="5.51752">
        <ele>486</ele>
        <time>2011-03-27T09:19:58Z</time>
      </trkpt>
      <trkpt lat="45.42835" lon="5.51758">
        <ele>486</ele>
        <time>2011-03-27T09:19:59Z</time>
      </trkpt>
      <trkpt lat="45.42833" lon="5.51764">
        <ele>486.1</ele>
        <time>2011-03-27T09:20:00Z</time>
      </trkpt>
      <trkpt lat="45.42831" lon="5.5177">
        <ele>486.1</ele>
        <time>2011-03-27T09:20:01Z</time>
      </trkpt>
      <trkpt lat="45.42828" lon="5.51782">
        <ele>486.2</ele>
        <time>2011-03-27T09:20:03Z</time>
      </trkpt>
      <trkpt lat="45.42825" lon="5.51794">
        <ele>486.4</ele>
        <time>2011-03-27T09:20:05Z</time>
      </trkpt>
      <trkpt lat="45.42822" lon="5.51805">
        <ele>486.5</ele>
        <time>2011-03-27T09:20:07Z</time>
      </trkpt>
      <trkpt lat="45.42819" lon="5.51816">
        <ele>486.8</ele>
        <time>2011-03-27T09:20:09Z</time>
      </trkpt>
      <trkpt lat="45.42815" lon="5.51827">
        <ele>487.1</ele>
        <time>2011-03-27T09:20:11Z</time>
      </trkpt>
      <trkpt lat="45.42812" lon="5.51838">
        <ele>487.4</ele>
        <time>2011-03-27T09:20:13Z</time>
      </trkpt>
      <trkpt lat="45.42809" lon="5.51849">
        <ele>487.8</ele>
        <time>2011-03-27T09:20:15Z</time>
      </trkpt>
      <trkpt lat="45.42806" lon="5.51861">
        <ele>488.1</ele>
        <time>2011-03-27T09:20:17Z</time>
      </trkpt>
      <trkpt lat="45.42804" lon="5.51867">
        <ele>488.2</ele>
        <time>2011-03-27T09:20:18Z</time>
      </trkpt>
      <trkpt lat="45.42801" lon="5.51873">
        <ele>488.3</ele>
        <time>2011-03-27T09:20:19Z</time>
      </trkpt>
      <trkpt lat="45.42798" lon="5.51878">
        <ele>488.4</ele>
        <time>2011-03-27T09:20:20Z</time>
      </trkpt>
      <trkpt lat="45.42795" lon="5.51883">
        <ele>488.4</ele>
        <time>2011-03-27T09:20:21Z</time>
      </trkpt>
      <trkpt lat="45.42792" lon="5.51889">
        <ele>488.5</ele>
        <time>2011-03-27T09:20:22Z</time>
      </trkpt>
      <trkpt lat="45.42789" lon="5.51894">
        <ele>488.5</ele>
        <time>2011-03-27T09:20:23Z</time>
      </trkpt>
      <trkpt lat="45.42783" lon="5.51902">
        <ele>488.7</ele>
        <time>2011-03-27T09:20:25Z</time>
      </trkpt>
      <trkpt lat="45.42777" lon="5.5191">
        <ele>488.7</ele>
        <time>2011-03-27T09:20:27Z</time>
      </trkpt>
      <trkpt lat="45.42771" lon="5.51917">
        <ele>488.8</ele>
        <time>2011-03-27T09:20:29Z</time>
      </trkpt>
      <trkpt lat="45.42768" lon="5.5192">
        <ele>488.8</ele>
        <time>2011-03-27T09:20:30Z</time>
      </trkpt>
      <trkpt lat="45.42758" lon="5.51931">
        <ele>488.7</ele>
        <time>2011-03-27T09:20:33Z</time>
      </trkpt>
      <trkpt lat="45.42752" lon="5.51936">
        <ele>488.7</ele>
        <time>2011-03-27T09:20:35Z</time>
      </trkpt>
      <trkpt lat="45.42746" lon="5.51942">
        <ele>488.7</ele>
        <time>2011-03-27T09:20:37Z</time>
      </trkpt>
      <trkpt lat="45.42739" lon="5.51947">
        <ele>488.7</ele>
        <time>2011-03-27T09:20:39Z</time>
      </trkpt>
      <trkpt lat="45.42731" lon="5.5195">
        <ele>488.7</ele>
        <time>2011-03-27T09:20:41Z</time>
      </trkpt>
      <trkpt lat="45.42724" lon="5.51952">
        <ele>488.6</ele>
        <time>2011-03-27T09:20:43Z</time>
      </trkpt>
      <trkpt lat="45.42716" lon="5.51954">
        <ele>488.6</ele>
        <time>2011-03-27T09:20:45Z</time>
      </trkpt>
      <trkpt lat="45.42708" lon="5.51956">
        <ele>488.6</ele>
        <time>2011-03-27T09:20:47Z</time>
      </trkpt>
      <trkpt lat="45.427" lon="5.51956">
        <ele>488.5</ele>
        <time>2011-03-27T09:20:49Z</time>
      </trkpt>
      <trkpt lat="45.42691" lon="5.51956">
        <ele>488.4</ele>
        <time>2011-03-27T09:20:51Z</time>
      </trkpt>
      <trkpt lat="45.42683" lon="5.51955">
        <ele>488.3</ele>
        <time>2011-03-27T09:20:53Z</time>
      </trkpt>
      <trkpt lat="45.42674" lon="5.51953">
        <ele>488.2</ele>
        <time>2011-03-27T09:20:55Z</time>
      </trkpt>
      <trkpt lat="45.4267" lon="5.51951">
        <ele>488.2</ele>
        <time>2011-03-27T09:20:56Z</time>
      </trkpt>
      <trkpt lat="45.42665" lon="5.5195">
        <ele>488.2</ele>
        <time>2011-03-27T09:20:57Z</time>
      </trkpt>
      <trkpt lat="45.42661" lon="5.51948">
        <ele>488.1</ele>
        <time>2011-03-27T09:20:58Z</time>
      </trkpt>
      <trkpt lat="45.42652" lon="5.51944">
        <ele>488.1</ele>
        <time>2011-03-27T09:21:00Z</time>
      </trkpt>
      <trkpt lat="45.42645" lon="5.51939">
        <ele>488.1</ele>
        <time>2011-03-27T09:21:02Z</time>
      </trkpt>
      <trkpt lat="45.42637" lon="5.51937">
        <ele>488.5</ele>
        <time>2011-03-27T09:21:05Z</time>
      </trkpt>
      <trkpt lat="45.42633" lon="5.51945">
        <ele>489</ele>
        <time>2011-03-27T09:21:08Z</time>
      </trkpt>
      <trkpt lat="45.4263" lon="5.51956">
        <ele>489.5</ele>
        <time>2011-03-27T09:21:11Z</time>
      </trkpt>
      <trkpt lat="45.42629" lon="5.51965">
        <ele>489.8</ele>
        <time>2011-03-27T09:21:13Z</time>
      </trkpt>
      <trkpt lat="45.42628" lon="5.51974">
        <ele>490</ele>
        <time>2011-03-27T09:21:15Z</time>
      </trkpt>
      <trkpt lat="45.42627" lon="5.51983">
        <ele>490.1</ele>
        <time>2011-03-27T09:21:17Z</time>
      </trkpt>
      <trkpt lat="45.42626" lon="5.51991">
        <ele>490.2</ele>
        <time>2011-03-27T09:21:19Z</time>
      </trkpt>
      <trkpt lat="45.42622" lon="5.52003">
        <ele>490.4</ele>
        <time>2011-03-27T09:21:22Z</time>
      </trkpt>
      <trkpt lat="45.42618" lon="5.52013">
        <ele>490.6</ele>
        <time>2011-03-27T09:21:25Z</time>
      </trkpt>
      <trkpt lat="45.42613" lon="5.52022">
        <ele>491</ele>
        <time>2011-03-27T09:21:28Z</time>
      </trkpt>
      <trkpt lat="45.42608" lon="5.52032">
        <ele>491.6</ele>
        <time>2011-03-27T09:21:31Z</time>
      </trkpt>
      <trkpt lat="45.42606" lon="5.52035">
        <ele>491.9</ele>
        <time>2011-03-27T09:21:32Z</time>
      </trkpt>
      <trkpt lat="45.42597" lon="5.5205">
        <ele>493.6</ele>
        <time>2011-03-27T09:21:37Z</time>
      </trkpt>
      <trkpt lat="45.42591" lon="5.52057">
        <ele>494.8</ele>
        <time>2011-03-27T09:21:40Z</time>
      </trkpt>
      <trkpt lat="45.42586" lon="5.52065">
        <ele>496</ele>
        <time>2011-03-27T09:21:43Z</time>
      </trkpt>
      <trkpt lat="45.42582" lon="5.52074">
        <ele>497.1</ele>
        <time>2011-03-27T09:21:46Z</time>
      </trkpt>
      <trkpt lat="45.42577" lon="5.52081">
        <ele>498.2</ele>
        <time>2011-03-27T09:21:49Z</time>
      </trkpt>
      <trkpt lat="45.42572" lon="5.52089">
        <ele>499.2</ele>
        <time>2011-03-27T09:21:52Z</time>
      </trkpt>
      <trkpt lat="45.42567" lon="5.52097">
        <ele>500.2</ele>
        <time>2011-03-27T09:21:55Z</time>
      </trkpt>
      <trkpt lat="45.42562" lon="5.52104">
        <ele>501.1</ele>
        <time>2011-03-27T09:21:58Z</time>
      </trkpt>
      <trkpt lat="45.42556" lon="5.52113">
        <ele>502.3</ele>
        <time>2011-03-27T09:22:02Z</time>
      </trkpt>
      <trkpt lat="45.42549" lon="5.52119">
        <ele>503.2</ele>
        <time>2011-03-27T09:22:06Z</time>
      </trkpt>
      <trkpt lat="45.42541" lon="5.52124">
        <ele>504.1</ele>
        <time>2011-03-27T09:22:10Z</time>
      </trkpt>
      <trkpt lat="45.42533" lon="5.52128">
        <ele>505.1</ele>
        <time>2011-03-27T09:22:14Z</time>
      </trkpt>
      <trkpt lat="45.42525" lon="5.5213">
        <ele>506.2</ele>
        <time>2011-03-27T09:22:18Z</time>
      </trkpt>
      <trkpt lat="45.42516" lon="5.52132">
        <ele>507.1</ele>
        <time>2011-03-27T09:22:22Z</time>
      </trkpt>
      <trkpt lat="45.42507" lon="5.52135">
        <ele>508.1</ele>
        <time>2011-03-27T09:22:26Z</time>
      </trkpt>
      <trkpt lat="45.425" lon="5.52138">
        <ele>508.9</ele>
        <time>2011-03-27T09:22:30Z</time>
      </trkpt>
      <trkpt lat="45.42493" lon="5.5214">
        <ele>509.8</ele>
        <time>2011-03-27T09:22:34Z</time>
      </trkpt>
      <trkpt lat="45.42491" lon="5.52141">
        <ele>510</ele>
        <time>2011-03-27T09:22:35Z</time>
      </trkpt>
      <trkpt lat="45.42478" lon="5.52149">
        <ele>511.9</ele>
        <time>2011-03-27T09:22:42Z</time>
      </trkpt>
      <trkpt lat="45.42471" lon="5.52156">
        <ele>512.8</ele>
        <time>2011-03-27T09:22:46Z</time>
      </trkpt>
      <trkpt lat="45.42465" lon="5.52161">
        <ele>513.6</ele>
        <time>2011-03-27T09:22:49Z</time>
      </trkpt>
      <trkpt lat="45.42458" lon="5.52168">
        <ele>514.5</ele>
        <time>2011-03-27T09:22:53Z</time>
      </trkpt>
      <trkpt lat="45.42452" lon="5.52176">
        <ele>515.9</ele>
        <time>2011-03-27T09:22:57Z</time>
      </trkpt>
      <trkpt lat="45.42445" lon="5.52183">
        <ele>517</ele>
        <time>2011-03-27T09:23:01Z</time>
      </trkpt>
      <trkpt lat="45.4244" lon="5.52189">
        <ele>517.7</ele>
        <time>2011-03-27T09:23:04Z</time>
      </trkpt>
      <trkpt lat="45.42434" lon="5.52195">
        <ele>518.3</ele>
        <time>2011-03-27T09:23:07Z</time>
      </trkpt>
      <trkpt lat="45.42429" lon="5.52202">
        <ele>518.7</ele>
        <time>2011-03-27T09:23:10Z</time>
      </trkpt>
      <trkpt lat="45.42424" lon="5.52208">
        <ele>519</ele>
        <time>2011-03-27T09:23:13Z</time>
      </trkpt>
      <trkpt lat="45.42418" lon="5.52215">
        <ele>519.1</ele>
        <time>2011-03-27T09:23:16Z</time>
      </trkpt>
      <trkpt lat="45.42412" lon="5.52223">
        <ele>519.2</ele>
        <time>2011-03-27T09:23:19Z</time>
      </trkpt>
      <trkpt lat="45.42407" lon="5.52232">
        <ele>519.3</ele>
        <time>2011-03-27T09:23:22Z</time>
      </trkpt>
      <trkpt lat="45.424" lon="5.52239">
        <ele>519.3</ele>
        <time>2011-03-27T09:23:25Z</time>
      </trkpt>
      <trkpt lat="45.42394" lon="5.52248">
        <ele>519.4</ele>
        <time>2011-03-27T09:23:28Z</time>
      </trkpt>
      <trkpt lat="45.42389" lon="5.52258">
        <ele>519.5</ele>
        <time>2011-03-27T09:23:31Z</time>
      </trkpt>
      <trkpt lat="45.42384" lon="5.52268">
        <ele>519.7</ele>
        <time>2011-03-27T09:23:34Z</time>
      </trkpt>
      <trkpt lat="45.4238" lon="5.52274">
        <ele>519.9</ele>
        <time>2011-03-27T09:23:36Z</time>
      </trkpt>
      <trkpt lat="45.42378" lon="5.52278">
        <ele>519.9</ele>
        <time>2011-03-27T09:23:37Z</time>
      </trkpt>
      <trkpt lat="45.4237" lon="5.52291">
        <ele>520.3</ele>
        <time>2011-03-27T09:23:41Z</time>
      </trkpt>
      <trkpt lat="45.42365" lon="5.523">
        <ele>520.6</ele>
        <time>2011-03-27T09:23:44Z</time>
      </trkpt>
      <trkpt lat="45.42358" lon="5.52306">
        <ele>520.8</ele>
        <time>2011-03-27T09:23:47Z</time>
      </trkpt>
      <trkpt lat="45.42352" lon="5.52306">
        <ele>520.7</ele>
        <time>2011-03-27T09:23:49Z</time>
      </trkpt>
      <trkpt lat="45.42344" lon="5.52303">
        <ele>520.3</ele>
        <time>2011-03-27T09:23:51Z</time>
      </trkpt>
      <trkpt lat="45.42339" lon="5.52302">
        <ele>520</ele>
        <time>2011-03-27T09:23:52Z</time>
      </trkpt>
      <trkpt lat="45.42334" lon="5.523">
        <ele>519.7</ele>
        <time>2011-03-27T09:23:53Z</time>
      </trkpt>
      <trkpt lat="45.42329" lon="5.52299">
        <ele>519.4</ele>
        <time>2011-03-27T09:23:54Z</time>
      </trkpt>
      <trkpt lat="45.42324" lon="5.52298">
        <ele>519.1</ele>
        <time>2011-03-27T09:23:55Z</time>
      </trkpt>
      <trkpt lat="45.42319" lon="5.52296">
        <ele>518.8</ele>
        <time>2011-03-27T09:23:56Z</time>
      </trkpt>
      <trkpt lat="45.42313" lon="5.52296">
        <ele>518.5</ele>
        <time>2011-03-27T09:23:57Z</time>
      </trkpt>
      <trkpt lat="45.42308" lon="5.52296">
        <ele>518.3</ele>
        <time>2011-03-27T09:23:58Z</time>
      </trkpt>
      <trkpt lat="45.42303" lon="5.52298">
        <ele>518</ele>
        <time>2011-03-27T09:23:59Z</time>
      </trkpt>
      <trkpt lat="45.42298" lon="5.523">
        <ele>517.8</ele>
        <time>2011-03-27T09:24:00Z</time>
      </trkpt>
      <trkpt lat="45.42293" lon="5.52304">
        <ele>517.6</ele>
        <time>2011-03-27T09:24:01Z</time>
      </trkpt>
      <trkpt lat="45.42289" lon="5.52307">
        <ele>517.4</ele>
        <time>2011-03-27T09:24:02Z</time>
      </trkpt>
      <trkpt lat="45.42285" lon="5.5231">
        <ele>517.3</ele>
        <time>2011-03-27T09:24:03Z</time>
      </trkpt>
      <trkpt lat="45.4228" lon="5.52314">
        <ele>517.2</ele>
        <time>2011-03-27T09:24:04Z</time>
      </trkpt>
      <trkpt lat="45.42276" lon="5.52317">
        <ele>517</ele>
        <time>2011-03-27T09:24:05Z</time>
      </trkpt>
      <trkpt lat="45.42269" lon="5.52324">
        <ele>516.8</ele>
        <time>2011-03-27T09:24:07Z</time>
      </trkpt>
      <trkpt lat="45.42263" lon="5.52331">
        <ele>516.6</ele>
        <time>2011-03-27T09:24:09Z</time>
      </trkpt>
      <trkpt lat="45.42256" lon="5.52338">
        <ele>516.6</ele>
        <time>2011-03-27T09:24:11Z</time>
      </trkpt>
      <trkpt lat="45.42252" lon="5.52342">
        <ele>516.6</ele>
        <time>2011-03-27T09:24:12Z</time>
      </trkpt>
      <trkpt lat="45.42248" lon="5.52345">
        <ele>516.6</ele>
        <time>2011-03-27T09:24:13Z</time>
      </trkpt>
      <trkpt lat="45.42243" lon="5.52348">
        <ele>516.5</ele>
        <time>2011-03-27T09:24:14Z</time>
      </trkpt>
      <trkpt lat="45.42239" lon="5.52352">
        <ele>516.5</ele>
        <time>2011-03-27T09:24:15Z</time>
      </trkpt>
      <trkpt lat="45.42235" lon="5.52356">
        <ele>516.4</ele>
        <time>2011-03-27T09:24:16Z</time>
      </trkpt>
      <trkpt lat="45.4223" lon="5.5236">
        <ele>516.4</ele>
        <time>2011-03-27T09:24:17Z</time>
      </trkpt>
      <trkpt lat="45.42226" lon="5.52364">
        <ele>516.4</ele>
        <time>2011-03-27T09:24:18Z</time>
      </trkpt>
      <trkpt lat="45.42221" lon="5.52368">
        <ele>516.3</ele>
        <time>2011-03-27T09:24:19Z</time>
      </trkpt>
      <trkpt lat="45.42217" lon="5.52372">
        <ele>516.2</ele>
        <time>2011-03-27T09:24:20Z</time>
      </trkpt>
      <trkpt lat="45.42213" lon="5.52377">
        <ele>516.1</ele>
        <time>2011-03-27T09:24:21Z</time>
      </trkpt>
      <trkpt lat="45.42208" lon="5.52381">
        <ele>516.1</ele>
        <time>2011-03-27T09:24:22Z</time>
      </trkpt>
      <trkpt lat="45.42204" lon="5.52385">
        <ele>516</ele>
        <time>2011-03-27T09:24:23Z</time>
      </trkpt>
      <trkpt lat="45.422" lon="5.52389">
        <ele>515.9</ele>
        <time>2011-03-27T09:24:24Z</time>
      </trkpt>
      <trkpt lat="45.42196" lon="5.52393">
        <ele>515.9</ele>
        <time>2011-03-27T09:24:25Z</time>
      </trkpt>
      <trkpt lat="45.42192" lon="5.52397">
        <ele>515.8</ele>
        <time>2011-03-27T09:24:26Z</time>
      </trkpt>
      <trkpt lat="45.42188" lon="5.52402">
        <ele>515.7</ele>
        <time>2011-03-27T09:24:27Z</time>
      </trkpt>
      <trkpt lat="45.42184" lon="5.52406">
        <ele>515.6</ele>
        <time>2011-03-27T09:24:28Z</time>
      </trkpt>
      <trkpt lat="45.4218" lon="5.5241">
        <ele>515.5</ele>
        <time>2011-03-27T09:24:29Z</time>
      </trkpt>
      <trkpt lat="45.42176" lon="5.52414">
        <ele>515.4</ele>
        <time>2011-03-27T09:24:30Z</time>
      </trkpt>
      <trkpt lat="45.42173" lon="5.52419">
        <ele>515.3</ele>
        <time>2011-03-27T09:24:31Z</time>
      </trkpt>
      <trkpt lat="45.42169" lon="5.52423">
        <ele>515.2</ele>
        <time>2011-03-27T09:24:32Z</time>
      </trkpt>
      <trkpt lat="45.42165" lon="5.52427">
        <ele>515.1</ele>
        <time>2011-03-27T09:24:33Z</time>
      </trkpt>
      <trkpt lat="45.42161" lon="5.52432">
        <ele>515</ele>
        <time>2011-03-27T09:24:34Z</time>
      </trkpt>
      <trkpt lat="45.42157" lon="5.52436">
        <ele>515</ele>
        <time>2011-03-27T09:24:35Z</time>
      </trkpt>
      <trkpt lat="45.42154" lon="5.5244">
        <ele>514.9</ele>
        <time>2011-03-27T09:24:36Z</time>
      </trkpt>
      <trkpt lat="45.4215" lon="5.52444">
        <ele>514.9</ele>
        <time>2011-03-27T09:24:37Z</time>
      </trkpt>
      <trkpt lat="45.42146" lon="5.52448">
        <ele>514.8</ele>
        <time>2011-03-27T09:24:38Z</time>
      </trkpt>
      <trkpt lat="45.42142" lon="5.52453">
        <ele>514.7</ele>
        <time>2011-03-27T09:24:39Z</time>
      </trkpt>
      <trkpt lat="45.42138" lon="5.52457">
        <ele>514.7</ele>
        <time>2011-03-27T09:24:40Z</time>
      </trkpt>
      <trkpt lat="45.42134" lon="5.52461">
        <ele>514.6</ele>
        <time>2011-03-27T09:24:41Z</time>
      </trkpt>
      <trkpt lat="45.4213" lon="5.52465">
        <ele>514.5</ele>
        <time>2011-03-27T09:24:42Z</time>
      </trkpt>
      <trkpt lat="45.42126" lon="5.52469">
        <ele>514.4</ele>
        <time>2011-03-27T09:24:43Z</time>
      </trkpt>
      <trkpt lat="45.42122" lon="5.52473">
        <ele>514.3</ele>
        <time>2011-03-27T09:24:44Z</time>
      </trkpt>
      <trkpt lat="45.42117" lon="5.52477">
        <ele>513.3</ele>
        <time>2011-03-27T09:24:45Z</time>
      </trkpt>
      <trkpt lat="45.42113" lon="5.52481">
        <ele>512.5</ele>
        <time>2011-03-27T09:24:46Z</time>
      </trkpt>
      <trkpt lat="45.42109" lon="5.52486">
        <ele>511.9</ele>
        <time>2011-03-27T09:24:47Z</time>
      </trkpt>
      <trkpt lat="45.42104" lon="5.5249">
        <ele>511.1</ele>
        <time>2011-03-27T09:24:48Z</time>
      </trkpt>
      <trkpt lat="45.421" lon="5.52494">
        <ele>510.6</ele>
        <time>2011-03-27T09:24:49Z</time>
      </trkpt>
      <trkpt lat="45.42095" lon="5.52499">
        <ele>510.1</ele>
        <time>2011-03-27T09:24:50Z</time>
      </trkpt>
      <trkpt lat="45.4209" lon="5.52503">
        <ele>509.7</ele>
        <time>2011-03-27T09:24:51Z</time>
      </trkpt>
      <trkpt lat="45.42086" lon="5.52507">
        <ele>509.4</ele>
        <time>2011-03-27T09:24:52Z</time>
      </trkpt>
      <trkpt lat="45.42082" lon="5.52512">
        <ele>509.1</ele>
        <time>2011-03-27T09:24:53Z</time>
      </trkpt>
      <trkpt lat="45.42077" lon="5.52516">
        <ele>508.5</ele>
        <time>2011-03-27T09:24:54Z</time>
      </trkpt>
      <trkpt lat="45.42073" lon="5.52521">
        <ele>508.1</ele>
        <time>2011-03-27T09:24:55Z</time>
      </trkpt>
      <trkpt lat="45.42068" lon="5.52525">
        <ele>507.7</ele>
        <time>2011-03-27T09:24:56Z</time>
      </trkpt>
      <trkpt lat="45.42064" lon="5.52529">
        <ele>507.5</ele>
        <time>2011-03-27T09:24:57Z</time>
      </trkpt>
      <trkpt lat="45.4206" lon="5.52533">
        <ele>507</ele>
        <time>2011-03-27T09:24:58Z</time>
      </trkpt>
      <trkpt lat="45.42056" lon="5.52538">
        <ele>506.7</ele>
        <time>2011-03-27T09:24:59Z</time>
      </trkpt>
      <trkpt lat="45.42051" lon="5.52542">
        <ele>506.5</ele>
        <time>2011-03-27T09:25:00Z</time>
      </trkpt>
      <trkpt lat="45.42047" lon="5.52547">
        <ele>506.7</ele>
        <time>2011-03-27T09:25:01Z</time>
      </trkpt>
      <trkpt lat="45.42043" lon="5.52552">
        <ele>506.8</ele>
        <time>2011-03-27T09:25:02Z</time>
      </trkpt>
      <trkpt lat="45.42039" lon="5.52556">
        <ele>506.9</ele>
        <time>2011-03-27T09:25:03Z</time>
      </trkpt>
      <trkpt lat="45.42035" lon="5.52561">
        <ele>506.9</ele>
        <time>2011-03-27T09:25:04Z</time>
      </trkpt>
      <trkpt lat="45.4203" lon="5.52566">
        <ele>506.8</ele>
        <time>2011-03-27T09:25:05Z</time>
      </trkpt>
      <trkpt lat="45.42026" lon="5.52571">
        <ele>506.8</ele>
        <time>2011-03-27T09:25:06Z</time>
      </trkpt>
      <trkpt lat="45.42021" lon="5.52575">
        <ele>506.6</ele>
        <time>2011-03-27T09:25:07Z</time>
      </trkpt>
      <trkpt lat="45.42016" lon="5.5258">
        <ele>506.5</ele>
        <time>2011-03-27T09:25:08Z</time>
      </trkpt>
      <trkpt lat="45.42012" lon="5.52585">
        <ele>506.4</ele>
        <time>2011-03-27T09:25:09Z</time>
      </trkpt>
      <trkpt lat="45.42007" lon="5.52589">
        <ele>506.1</ele>
        <time>2011-03-27T09:25:10Z</time>
      </trkpt>
      <trkpt lat="45.42002" lon="5.52594">
        <ele>505.8</ele>
        <time>2011-03-27T09:25:11Z</time>
      </trkpt>
      <trkpt lat="45.41998" lon="5.52598">
        <ele>505.6</ele>
        <time>2011-03-27T09:25:12Z</time>
      </trkpt>
      <trkpt lat="45.41993" lon="5.52602">
        <ele>505.5</ele>
        <time>2011-03-27T09:25:13Z</time>
      </trkpt>
      <trkpt lat="45.41989" lon="5.52607">
        <ele>505.4</ele>
        <time>2011-03-27T09:25:14Z</time>
      </trkpt>
      <trkpt lat="45.41984" lon="5.52611">
        <ele>505.3</ele>
        <time>2011-03-27T09:25:15Z</time>
      </trkpt>
      <trkpt lat="45.41979" lon="5.52615">
        <ele>505.2</ele>
        <time>2011-03-27T09:25:16Z</time>
      </trkpt>
      <trkpt lat="45.41974" lon="5.52619">
        <ele>505</ele>
        <time>2011-03-27T09:25:17Z</time>
      </trkpt>
      <trkpt lat="45.41969" lon="5.52623">
        <ele>504.9</ele>
        <time>2011-03-27T09:25:18Z</time>
      </trkpt>
      <trkpt lat="45.41965" lon="5.52627">
        <ele>504.7</ele>
        <time>2011-03-27T09:25:19Z</time>
      </trkpt>
      <trkpt lat="45.4196" lon="5.5263">
        <ele>504.4</ele>
        <time>2011-03-27T09:25:20Z</time>
      </trkpt>
      <trkpt lat="45.41955" lon="5.52634">
        <ele>504.2</ele>
        <time>2011-03-27T09:25:21Z</time>
      </trkpt>
      <trkpt lat="45.4195" lon="5.52638">
        <ele>504</ele>
        <time>2011-03-27T09:25:22Z</time>
      </trkpt>
      <trkpt lat="45.41945" lon="5.52642">
        <ele>503.5</ele>
        <time>2011-03-27T09:25:23Z</time>
      </trkpt>
      <trkpt lat="45.4194" lon="5.52645">
        <ele>503.1</ele>
        <time>2011-03-27T09:25:24Z</time>
      </trkpt>
      <trkpt lat="45.41935" lon="5.52649">
        <ele>502.8</ele>
        <time>2011-03-27T09:25:25Z</time>
      </trkpt>
      <trkpt lat="45.4193" lon="5.52653">
        <ele>502.9</ele>
        <time>2011-03-27T09:25:26Z</time>
      </trkpt>
      <trkpt lat="45.41925" lon="5.52657">
        <ele>503</ele>
        <time>2011-03-27T09:25:27Z</time>
      </trkpt>
      <trkpt lat="45.4192" lon="5.5266">
        <ele>503</ele>
        <time>2011-03-27T09:25:28Z</time>
      </trkpt>
      <trkpt lat="45.41915" lon="5.52664">
        <ele>502.9</ele>
        <time>2011-03-27T09:25:29Z</time>
      </trkpt>
      <trkpt lat="45.4191" lon="5.52668">
        <ele>502.8</ele>
        <time>2011-03-27T09:25:30Z</time>
      </trkpt>
      <trkpt lat="45.41904" lon="5.52671">
        <ele>502.7</ele>
        <time>2011-03-27T09:25:31Z</time>
      </trkpt>
      <trkpt lat="45.41899" lon="5.52675">
        <ele>502.8</ele>
        <time>2011-03-27T09:25:32Z</time>
      </trkpt>
      <trkpt lat="45.41894" lon="5.52678">
        <ele>502.8</ele>
        <time>2011-03-27T09:25:33Z</time>
      </trkpt>
      <trkpt lat="45.41888" lon="5.52681">
        <ele>502.8</ele>
        <time>2011-03-27T09:25:34Z</time>
      </trkpt>
      <trkpt lat="45.41883" lon="5.52684">
        <ele>502.8</ele>
        <time>2011-03-27T09:25:35Z</time>
      </trkpt>
      <trkpt lat="45.41878" lon="5.52688">
        <ele>502.6</ele>
        <time>2011-03-27T09:25:36Z</time>
      </trkpt>
      <trkpt lat="45.41873" lon="5.52691">
        <ele>502.5</ele>
        <time>2011-03-27T09:25:37Z</time>
      </trkpt>
      <trkpt lat="45.41869" lon="5.52695">
        <ele>502.3</ele>
        <time>2011-03-27T09:25:38Z</time>
      </trkpt>
      <trkpt lat="45.41864" lon="5.527">
        <ele>502</ele>
        <time>2011-03-27T09:25:39Z</time>
      </trkpt>
      <trkpt lat="45.41859" lon="5.52704">
        <ele>501.8</ele>
        <time>2011-03-27T09:25:40Z</time>
      </trkpt>
      <trkpt lat="45.41854" lon="5.52709">
        <ele>501.6</ele>
        <time>2011-03-27T09:25:41Z</time>
      </trkpt>
      <trkpt lat="45.41849" lon="5.52714">
        <ele>501.6</ele>
        <time>2011-03-27T09:25:42Z</time>
      </trkpt>
      <trkpt lat="45.41845" lon="5.52719">
        <ele>501.6</ele>
        <time>2011-03-27T09:25:43Z</time>
      </trkpt>
      <trkpt lat="45.4184" lon="5.52725">
        <ele>501.6</ele>
        <time>2011-03-27T09:25:44Z</time>
      </trkpt>
      <trkpt lat="45.41835" lon="5.5273">
        <ele>501.4</ele>
        <time>2011-03-27T09:25:45Z</time>
      </trkpt>
      <trkpt lat="45.41831" lon="5.52736">
        <ele>501.2</ele>
        <time>2011-03-27T09:25:46Z</time>
      </trkpt>
      <trkpt lat="45.41827" lon="5.52742">
        <ele>501.1</ele>
        <time>2011-03-27T09:25:47Z</time>
      </trkpt>
      <trkpt lat="45.41823" lon="5.52747">
        <ele>501.4</ele>
        <time>2011-03-27T09:25:48Z</time>
      </trkpt>
      <trkpt lat="45.41819" lon="5.52752">
        <ele>501.6</ele>
        <time>2011-03-27T09:25:49Z</time>
      </trkpt>
      <trkpt lat="45.41815" lon="5.52757">
        <ele>501.8</ele>
        <time>2011-03-27T09:25:50Z</time>
      </trkpt>
      <trkpt lat="45.41811" lon="5.52762">
        <ele>501.6</ele>
        <time>2011-03-27T09:25:51Z</time>
      </trkpt>
      <trkpt lat="45.41807" lon="5.52767">
        <ele>501.5</ele>
        <time>2011-03-27T09:25:52Z</time>
      </trkpt>
      <trkpt lat="45.41804" lon="5.52773">
        <ele>501.5</ele>
        <time>2011-03-27T09:25:53Z</time>
      </trkpt>
      <trkpt lat="45.418" lon="5.52778">
        <ele>501.4</ele>
        <time>2011-03-27T09:25:54Z</time>
      </trkpt>
      <trkpt lat="45.41797" lon="5.52783">
        <ele>501.5</ele>
        <time>2011-03-27T09:25:55Z</time>
      </trkpt>
      <trkpt lat="45.41793" lon="5.52788">
        <ele>501.5</ele>
        <time>2011-03-27T09:25:56Z</time>
      </trkpt>
      <trkpt lat="45.4179" lon="5.52794">
        <ele>501.6</ele>
        <time>2011-03-27T09:25:57Z</time>
      </trkpt>
      <trkpt lat="45.41786" lon="5.52799">
        <ele>501.5</ele>
        <time>2011-03-27T09:25:58Z</time>
      </trkpt>
      <trkpt lat="45.41783" lon="5.52804">
        <ele>501.5</ele>
        <time>2011-03-27T09:25:59Z</time>
      </trkpt>
      <trkpt lat="45.41779" lon="5.5281">
        <ele>501.5</ele>
        <time>2011-03-27T09:26:00Z</time>
      </trkpt>
      <trkpt lat="45.41776" lon="5.52815">
        <ele>501.3</ele>
        <time>2011-03-27T09:26:01Z</time>
      </trkpt>
      <trkpt lat="45.41772" lon="5.52819">
        <ele>501.2</ele>
        <time>2011-03-27T09:26:02Z</time>
      </trkpt>
      <trkpt lat="45.41768" lon="5.52824">
        <ele>501.1</ele>
        <time>2011-03-27T09:26:03Z</time>
      </trkpt>
      <trkpt lat="45.41765" lon="5.52828">
        <ele>501</ele>
        <time>2011-03-27T09:26:04Z</time>
      </trkpt>
      <trkpt lat="45.41761" lon="5.52832">
        <ele>500.9</ele>
        <time>2011-03-27T09:26:05Z</time>
      </trkpt>
      <trkpt lat="45.41758" lon="5.52837">
        <ele>500.9</ele>
        <time>2011-03-27T09:26:06Z</time>
      </trkpt>
      <trkpt lat="45.41755" lon="5.52841">
        <ele>500.8</ele>
        <time>2011-03-27T09:26:07Z</time>
      </trkpt>
      <trkpt lat="45.41752" lon="5.52846">
        <ele>500.8</ele>
        <time>2011-03-27T09:26:08Z</time>
      </trkpt>
      <trkpt lat="45.41748" lon="5.52851">
        <ele>500.8</ele>
        <time>2011-03-27T09:26:09Z</time>
      </trkpt>
      <trkpt lat="45.41744" lon="5.52856">
        <ele>500.7</ele>
        <time>2011-03-27T09:26:10Z</time>
      </trkpt>
      <trkpt lat="45.41741" lon="5.52861">
        <ele>500.9</ele>
        <time>2011-03-27T09:26:11Z</time>
      </trkpt>
      <trkpt lat="45.41737" lon="5.52866">
        <ele>500.9</ele>
        <time>2011-03-27T09:26:12Z</time>
      </trkpt>
      <trkpt lat="45.41733" lon="5.52871">
        <ele>501</ele>
        <time>2011-03-27T09:26:13Z</time>
      </trkpt>
      <trkpt lat="45.41729" lon="5.52877">
        <ele>500.7</ele>
        <time>2011-03-27T09:26:14Z</time>
      </trkpt>
      <trkpt lat="45.41726" lon="5.52882">
        <ele>500.4</ele>
        <time>2011-03-27T09:26:15Z</time>
      </trkpt>
      <trkpt lat="45.41722" lon="5.52888">
        <ele>500.2</ele>
        <time>2011-03-27T09:26:16Z</time>
      </trkpt>
      <trkpt lat="45.41718" lon="5.52893">
        <ele>500.1</ele>
        <time>2011-03-27T09:26:17Z</time>
      </trkpt>
      <trkpt lat="45.41715" lon="5.52898">
        <ele>500</ele>
        <time>2011-03-27T09:26:18Z</time>
      </trkpt>
      <trkpt lat="45.41712" lon="5.52903">
        <ele>499.9</ele>
        <time>2011-03-27T09:26:19Z</time>
      </trkpt>
      <trkpt lat="45.41709" lon="5.52908">
        <ele>499.9</ele>
        <time>2011-03-27T09:26:20Z</time>
      </trkpt>
      <trkpt lat="45.41705" lon="5.52913">
        <ele>499.9</ele>
        <time>2011-03-27T09:26:21Z</time>
      </trkpt>
      <trkpt lat="45.41702" lon="5.52918">
        <ele>499.9</ele>
        <time>2011-03-27T09:26:22Z</time>
      </trkpt>
      <trkpt lat="45.41699" lon="5.52923">
        <ele>500.1</ele>
        <time>2011-03-27T09:26:23Z</time>
      </trkpt>
      <trkpt lat="45.41693" lon="5.52932">
        <ele>500.4</ele>
        <time>2011-03-27T09:26:25Z</time>
      </trkpt>
      <trkpt lat="45.41694" lon="5.52943">
        <ele>499.4</ele>
        <time>2011-03-27T09:26:28Z</time>
      </trkpt>
      <trkpt lat="45.41701" lon="5.52949">
        <ele>501.5</ele>
        <time>2011-03-27T09:26:32Z</time>
      </trkpt>
      <trkpt lat="45.41709" lon="5.52953">
        <ele>501.8</ele>
        <time>2011-03-27T09:26:35Z</time>
      </trkpt>
      <trkpt lat="45.41715" lon="5.52958">
        <ele>501.4</ele>
        <time>2011-03-27T09:26:37Z</time>
      </trkpt>
      <trkpt lat="45.41721" lon="5.52963">
        <ele>501.6</ele>
        <time>2011-03-27T09:26:39Z</time>
      </trkpt>
      <trkpt lat="45.41723" lon="5.52965">
        <ele>501.7</ele>
        <time>2011-03-27T09:26:40Z</time>
      </trkpt>
      <trkpt lat="45.4173" lon="5.52975">
        <ele>502.5</ele>
        <time>2011-03-27T09:26:43Z</time>
      </trkpt>
      <trkpt lat="45.41734" lon="5.52982">
        <ele>502.4</ele>
        <time>2011-03-27T09:26:45Z</time>
      </trkpt>
      <trkpt lat="45.41736" lon="5.5299">
        <ele>502.1</ele>
        <time>2011-03-27T09:26:47Z</time>
      </trkpt>
      <trkpt lat="45.41739" lon="5.53002">
        <ele>502.4</ele>
        <time>2011-03-27T09:26:50Z</time>
      </trkpt>
      <trkpt lat="45.41741" lon="5.53012">
        <ele>503.3</ele>
        <time>2011-03-27T09:26:53Z</time>
      </trkpt>
      <trkpt lat="45.41744" lon="5.53021">
        <ele>503.8</ele>
        <time>2011-03-27T09:26:56Z</time>
      </trkpt>
      <trkpt lat="45.41749" lon="5.53032">
        <ele>503.8</ele>
        <time>2011-03-27T09:27:00Z</time>
      </trkpt>
      <trkpt lat="45.41751" lon="5.53044">
        <ele>505.1</ele>
        <time>2011-03-27T09:27:04Z</time>
      </trkpt>
      <trkpt lat="45.41754" lon="5.53054">
        <ele>505.7</ele>
        <time>2011-03-27T09:27:08Z</time>
      </trkpt>
      <trkpt lat="45.41757" lon="5.53064">
        <ele>506.4</ele>
        <time>2011-03-27T09:27:13Z</time>
      </trkpt>
      <trkpt lat="45.4176" lon="5.53076">
        <ele>509.7</ele>
        <time>2011-03-27T09:33:05Z</time>
      </trkpt>
      <trkpt lat="45.4176" lon="5.53077">
        <ele>510.1</ele>
        <time>2011-03-27T09:33:06Z</time>
      </trkpt>
      <trkpt lat="45.41767" lon="5.53098">
        <ele>512.7</ele>
        <time>2011-03-27T09:33:22Z</time>
      </trkpt>
      <trkpt lat="45.4177" lon="5.53109">
        <ele>514</ele>
        <time>2011-03-27T09:33:30Z</time>
      </trkpt>
      <trkpt lat="45.41771" lon="5.53121">
        <ele>514.4</ele>
        <time>2011-03-27T09:33:38Z</time>
      </trkpt>
      <trkpt lat="45.41775" lon="5.53131">
        <ele>516.3</ele>
        <time>2011-03-27T09:33:46Z</time>
      </trkpt>
      <trkpt lat="45.41779" lon="5.53142">
        <ele>519.8</ele>
        <time>2011-03-27T09:34:02Z</time>
      </trkpt>
      <trkpt lat="45.41784" lon="5.53152">
        <ele>520.3</ele>
        <time>2011-03-27T09:34:14Z</time>
      </trkpt>
      <trkpt lat="45.41785" lon="5.53153">
        <ele>520.3</ele>
        <time>2011-03-27T09:34:15Z</time>
      </trkpt>
      <trkpt lat="45.41796" lon="5.53167">
        <ele>522.9</ele>
        <time>2011-03-27T09:34:25Z</time>
      </trkpt>
      <trkpt lat="45.41804" lon="5.53173">
        <ele>523.8</ele>
        <time>2011-03-27T09:34:30Z</time>
      </trkpt>
      <trkpt lat="45.41811" lon="5.53178">
        <ele>524.4</ele>
        <time>2011-03-27T09:34:35Z</time>
      </trkpt>
      <trkpt lat="45.41818" lon="5.53183">
        <ele>525.4</ele>
        <time>2011-03-27T09:34:40Z</time>
      </trkpt>
      <trkpt lat="45.41825" lon="5.53189">
        <ele>527.3</ele>
        <time>2011-03-27T09:34:45Z</time>
      </trkpt>
      <trkpt lat="45.41832" lon="5.53196">
        <ele>527.4</ele>
        <time>2011-03-27T09:34:50Z</time>
      </trkpt>
      <trkpt lat="45.41839" lon="5.53203">
        <ele>528.3</ele>
        <time>2011-03-27T09:34:55Z</time>
      </trkpt>
      <trkpt lat="45.41847" lon="5.53209">
        <ele>528.7</ele>
        <time>2011-03-27T09:35:00Z</time>
      </trkpt>
      <trkpt lat="45.41853" lon="5.53214">
        <ele>529</ele>
        <time>2011-03-27T09:35:03Z</time>
      </trkpt>
      <trkpt lat="45.41858" lon="5.53221">
        <ele>529.9</ele>
        <time>2011-03-27T09:35:06Z</time>
      </trkpt>
      <trkpt lat="45.41866" lon="5.53223">
        <ele>529</ele>
        <time>2011-03-27T09:35:10Z</time>
      </trkpt>
      <trkpt lat="45.41875" lon="5.53222">
        <ele>530</ele>
        <time>2011-03-27T09:35:15Z</time>
      </trkpt>
      <trkpt lat="45.41876" lon="5.53221">
        <ele>530.1</ele>
        <time>2011-03-27T09:35:16Z</time>
      </trkpt>
      <trkpt lat="45.41891" lon="5.53215">
        <ele>531.6</ele>
        <time>2011-03-27T09:35:25Z</time>
      </trkpt>
      <trkpt lat="45.41899" lon="5.53214">
        <ele>533</ele>
        <time>2011-03-27T09:35:30Z</time>
      </trkpt>
      <trkpt lat="45.41907" lon="5.53213">
        <ele>533.2</ele>
        <time>2011-03-27T09:35:35Z</time>
      </trkpt>
      <trkpt lat="45.41915" lon="5.53214">
        <ele>534.4</ele>
        <time>2011-03-27T09:35:41Z</time>
      </trkpt>
      <trkpt lat="45.41923" lon="5.53217">
        <ele>536.5</ele>
        <time>2011-03-27T09:35:46Z</time>
      </trkpt>
      <trkpt lat="45.4193" lon="5.5322">
        <ele>537.8</ele>
        <time>2011-03-27T09:35:51Z</time>
      </trkpt>
      <trkpt lat="45.41938" lon="5.53226">
        <ele>537.8</ele>
        <time>2011-03-27T09:35:57Z</time>
      </trkpt>
      <trkpt lat="45.41945" lon="5.53231">
        <ele>540.5</ele>
        <time>2011-03-27T09:36:03Z</time>
      </trkpt>
      <trkpt lat="45.41952" lon="5.53237">
        <ele>540.2</ele>
        <time>2011-03-27T09:36:08Z</time>
      </trkpt>
      <trkpt lat="45.41958" lon="5.53244">
        <ele>540.6</ele>
        <time>2011-03-27T09:36:13Z</time>
      </trkpt>
      <trkpt lat="45.41966" lon="5.53249">
        <ele>540.7</ele>
        <time>2011-03-27T09:36:19Z</time>
      </trkpt>
      <trkpt lat="45.41968" lon="5.5325">
        <ele>540.9</ele>
        <time>2011-03-27T09:36:20Z</time>
      </trkpt>
      <trkpt lat="45.4198" lon="5.53259">
        <ele>541.5</ele>
        <time>2011-03-27T09:36:29Z</time>
      </trkpt>
      <trkpt lat="45.41988" lon="5.53264">
        <ele>541.2</ele>
        <time>2011-03-27T09:36:34Z</time>
      </trkpt>
      <trkpt lat="45.41995" lon="5.53266">
        <ele>542.3</ele>
        <time>2011-03-27T09:36:38Z</time>
      </trkpt>
      <trkpt lat="45.42003" lon="5.53271">
        <ele>543.3</ele>
        <time>2011-03-27T09:36:43Z</time>
      </trkpt>
      <trkpt lat="45.42011" lon="5.53273">
        <ele>544.9</ele>
        <time>2011-03-27T09:36:49Z</time>
      </trkpt>
      <trkpt lat="45.4202" lon="5.53277">
        <ele>545.6</ele>
        <time>2011-03-27T09:36:55Z</time>
      </trkpt>
      <trkpt lat="45.42027" lon="5.53282">
        <ele>544.7</ele>
        <time>2011-03-27T09:37:13Z</time>
      </trkpt>
      <trkpt lat="45.42034" lon="5.53289">
        <ele>546.6</ele>
        <time>2011-03-27T09:37:21Z</time>
      </trkpt>
      <trkpt lat="45.42034" lon="5.53291">
        <ele>546.6</ele>
        <time>2011-03-27T09:37:22Z</time>
      </trkpt>
      <trkpt lat="45.4204" lon="5.53312">
        <ele>547.5</ele>
        <time>2011-03-27T09:39:08Z</time>
      </trkpt>
      <trkpt lat="45.42039" lon="5.53312">
        <ele>547.8</ele>
        <time>2011-03-27T09:39:09Z</time>
      </trkpt>
      <trkpt lat="45.42044" lon="5.53326">
        <ele>547.8</ele>
        <time>2011-03-27T09:42:53Z</time>
      </trkpt>
      <trkpt lat="45.42041" lon="5.53346">
        <ele>548.2</ele>
        <time>2011-03-27T09:43:00Z</time>
      </trkpt>
      <trkpt lat="45.42038" lon="5.53357">
        <ele>547.7</ele>
        <time>2011-03-27T09:43:04Z</time>
      </trkpt>
      <trkpt lat="45.42036" lon="5.53368">
        <ele>547.4</ele>
        <time>2011-03-27T09:43:08Z</time>
      </trkpt>
      <trkpt lat="45.42035" lon="5.53378">
        <ele>547.1</ele>
        <time>2011-03-27T09:43:11Z</time>
      </trkpt>
      <trkpt lat="45.42036" lon="5.53388">
        <ele>547.1</ele>
        <time>2011-03-27T09:43:14Z</time>
      </trkpt>
      <trkpt lat="45.42038" lon="5.53397">
        <ele>547.5</ele>
        <time>2011-03-27T09:43:17Z</time>
      </trkpt>
      <trkpt lat="45.42042" lon="5.53406">
        <ele>548</ele>
        <time>2011-03-27T09:43:20Z</time>
      </trkpt>
      <trkpt lat="45.42046" lon="5.53413">
        <ele>548.7</ele>
        <time>2011-03-27T09:43:23Z</time>
      </trkpt>
      <trkpt lat="45.4205" lon="5.53421">
        <ele>549.6</ele>
        <time>2011-03-27T09:43:26Z</time>
      </trkpt>
      <trkpt lat="45.42055" lon="5.53429">
        <ele>550.6</ele>
        <time>2011-03-27T09:43:29Z</time>
      </trkpt>
      <trkpt lat="45.4206" lon="5.53437">
        <ele>551</ele>
        <time>2011-03-27T09:43:32Z</time>
      </trkpt>
      <trkpt lat="45.42066" lon="5.53443">
        <ele>550.8</ele>
        <time>2011-03-27T09:43:35Z</time>
      </trkpt>
      <trkpt lat="45.42072" lon="5.53449">
        <ele>550.5</ele>
        <time>2011-03-27T09:43:38Z</time>
      </trkpt>
      <trkpt lat="45.42079" lon="5.53454">
        <ele>550.6</ele>
        <time>2011-03-27T09:43:41Z</time>
      </trkpt>
      <trkpt lat="45.42083" lon="5.53462">
        <ele>551</ele>
        <time>2011-03-27T09:43:44Z</time>
      </trkpt>
      <trkpt lat="45.42088" lon="5.5347">
        <ele>551.2</ele>
        <time>2011-03-27T09:43:47Z</time>
      </trkpt>
      <trkpt lat="45.42094" lon="5.53479">
        <ele>551</ele>
        <time>2011-03-27T09:43:50Z</time>
      </trkpt>
      <trkpt lat="45.42101" lon="5.53486">
        <ele>551.2</ele>
        <time>2011-03-27T09:43:53Z</time>
      </trkpt>
      <trkpt lat="45.42103" lon="5.53488">
        <ele>551.2</ele>
        <time>2011-03-27T09:43:54Z</time>
      </trkpt>
      <trkpt lat="45.42116" lon="5.53495">
        <ele>550.9</ele>
        <time>2011-03-27T09:43:59Z</time>
      </trkpt>
      <trkpt lat="45.42124" lon="5.53498">
        <ele>551</ele>
        <time>2011-03-27T09:44:02Z</time>
      </trkpt>
      <trkpt lat="45.42131" lon="5.53501">
        <ele>552.3</ele>
        <time>2011-03-27T09:44:05Z</time>
      </trkpt>
      <trkpt lat="45.42138" lon="5.53505">
        <ele>552.9</ele>
        <time>2011-03-27T09:44:08Z</time>
      </trkpt>
      <trkpt lat="45.42145" lon="5.53509">
        <ele>552.6</ele>
        <time>2011-03-27T09:44:11Z</time>
      </trkpt>
      <trkpt lat="45.42153" lon="5.53512">
        <ele>552.9</ele>
        <time>2011-03-27T09:44:14Z</time>
      </trkpt>
      <trkpt lat="45.42161" lon="5.53514">
        <ele>553.3</ele>
        <time>2011-03-27T09:44:17Z</time>
      </trkpt>
      <trkpt lat="45.42167" lon="5.53519">
        <ele>554</ele>
        <time>2011-03-27T09:44:21Z</time>
      </trkpt>
      <trkpt lat="45.42168" lon="5.5353">
        <ele>555.2</ele>
        <time>2011-03-27T09:44:24Z</time>
      </trkpt>
      <trkpt lat="45.42168" lon="5.5354">
        <ele>554.9</ele>
        <time>2011-03-27T09:44:27Z</time>
      </trkpt>
      <trkpt lat="45.42167" lon="5.53552">
        <ele>554.4</ele>
        <time>2011-03-27T09:44:31Z</time>
      </trkpt>
      <trkpt lat="45.42168" lon="5.53565">
        <ele>555.8</ele>
        <time>2011-03-27T09:44:35Z</time>
      </trkpt>
      <trkpt lat="45.42169" lon="5.53574">
        <ele>556.6</ele>
        <time>2011-03-27T09:44:38Z</time>
      </trkpt>
      <trkpt lat="45.4217" lon="5.53587">
        <ele>556.8</ele>
        <time>2011-03-27T09:44:42Z</time>
      </trkpt>
      <trkpt lat="45.42172" lon="5.53599">
        <ele>557.3</ele>
        <time>2011-03-27T09:44:46Z</time>
      </trkpt>
      <trkpt lat="45.42174" lon="5.53608">
        <ele>558</ele>
        <time>2011-03-27T09:44:49Z</time>
      </trkpt>
      <trkpt lat="45.42178" lon="5.53616">
        <ele>558.7</ele>
        <time>2011-03-27T09:44:52Z</time>
      </trkpt>
      <trkpt lat="45.42182" lon="5.53625">
        <ele>558.6</ele>
        <time>2011-03-27T09:44:55Z</time>
      </trkpt>
      <trkpt lat="45.42183" lon="5.53627">
        <ele>558.5</ele>
        <time>2011-03-27T09:44:56Z</time>
      </trkpt>
      <trkpt lat="45.42189" lon="5.53644">
        <ele>559.5</ele>
        <time>2011-03-27T09:45:02Z</time>
      </trkpt>
      <trkpt lat="45.42192" lon="5.53653">
        <ele>559.3</ele>
        <time>2011-03-27T09:45:05Z</time>
      </trkpt>
      <trkpt lat="45.42196" lon="5.53664">
        <ele>559.7</ele>
        <time>2011-03-27T09:45:09Z</time>
      </trkpt>
      <trkpt lat="45.42199" lon="5.53674">
        <ele>559.7</ele>
        <time>2011-03-27T09:45:12Z</time>
      </trkpt>
      <trkpt lat="45.42201" lon="5.53684">
        <ele>560</ele>
        <time>2011-03-27T09:45:15Z</time>
      </trkpt>
      <trkpt lat="45.42203" lon="5.53694">
        <ele>561.3</ele>
        <time>2011-03-27T09:45:18Z</time>
      </trkpt>
      <trkpt lat="45.42205" lon="5.53705">
        <ele>560.5</ele>
        <time>2011-03-27T09:45:21Z</time>
      </trkpt>
      <trkpt lat="45.42208" lon="5.53713">
        <ele>560.2</ele>
        <time>2011-03-27T09:45:23Z</time>
      </trkpt>
      <trkpt lat="45.42211" lon="5.53721">
        <ele>560</ele>
        <time>2011-03-27T09:45:25Z</time>
      </trkpt>
      <trkpt lat="45.42214" lon="5.53729">
        <ele>560.6</ele>
        <time>2011-03-27T09:45:27Z</time>
      </trkpt>
      <trkpt lat="45.42217" lon="5.53738">
        <ele>560.8</ele>
        <time>2011-03-27T09:45:29Z</time>
      </trkpt>
      <trkpt lat="45.42221" lon="5.5375">
        <ele>560.6</ele>
        <time>2011-03-27T09:45:34Z</time>
      </trkpt>
      <trkpt lat="45.42218" lon="5.5374">
        <ele>560.3</ele>
        <time>2011-03-27T09:45:40Z</time>
      </trkpt>
      <trkpt lat="45.42214" lon="5.5373">
        <ele>560</ele>
        <time>2011-03-27T09:45:43Z</time>
      </trkpt>
      <trkpt lat="45.42219" lon="5.53738">
        <ele>561</ele>
        <time>2011-03-27T09:45:50Z</time>
      </trkpt>
      <trkpt lat="45.42222" lon="5.5375">
        <ele>560.4</ele>
        <time>2011-03-27T09:45:54Z</time>
      </trkpt>
      <trkpt lat="45.42223" lon="5.53758">
        <ele>560.7</ele>
        <time>2011-03-27T09:45:56Z</time>
      </trkpt>
      <trkpt lat="45.42223" lon="5.53763">
        <ele>560.8</ele>
        <time>2011-03-27T09:45:57Z</time>
      </trkpt>
      <trkpt lat="45.42222" lon="5.53776">
        <ele>559.8</ele>
        <time>2011-03-27T09:45:59Z</time>
      </trkpt>
      <trkpt lat="45.42221" lon="5.53783">
        <ele>559.5</ele>
        <time>2011-03-27T09:46:00Z</time>
      </trkpt>
      <trkpt lat="45.42219" lon="5.5379">
        <ele>559.2</ele>
        <time>2011-03-27T09:46:01Z</time>
      </trkpt>
      <trkpt lat="45.42218" lon="5.53797">
        <ele>559</ele>
        <time>2011-03-27T09:46:02Z</time>
      </trkpt>
      <trkpt lat="45.42215" lon="5.53804">
        <ele>558.8</ele>
        <time>2011-03-27T09:46:03Z</time>
      </trkpt>
      <trkpt lat="45.42213" lon="5.53811">
        <ele>558</ele>
        <time>2011-03-27T09:46:04Z</time>
      </trkpt>
      <trkpt lat="45.42211" lon="5.53818">
        <ele>557.4</ele>
        <time>2011-03-27T09:46:05Z</time>
      </trkpt>
      <trkpt lat="45.42208" lon="5.53824">
        <ele>556.9</ele>
        <time>2011-03-27T09:46:06Z</time>
      </trkpt>
      <trkpt lat="45.42205" lon="5.5383">
        <ele>557.3</ele>
        <time>2011-03-27T09:46:07Z</time>
      </trkpt>
      <trkpt lat="45.42201" lon="5.53841">
        <ele>557.7</ele>
        <time>2011-03-27T09:46:09Z</time>
      </trkpt>
      <trkpt lat="45.42197" lon="5.5385">
        <ele>558.1</ele>
        <time>2011-03-27T09:46:11Z</time>
      </trkpt>
      <trkpt lat="45.42194" lon="5.5386">
        <ele>558.3</ele>
        <time>2011-03-27T09:46:13Z</time>
      </trkpt>
      <trkpt lat="45.42192" lon="5.5387">
        <ele>558.4</ele>
        <time>2011-03-27T09:46:15Z</time>
      </trkpt>
      <trkpt lat="45.4219" lon="5.5388">
        <ele>558.3</ele>
        <time>2011-03-27T09:46:17Z</time>
      </trkpt>
      <trkpt lat="45.42188" lon="5.5389">
        <ele>558.2</ele>
        <time>2011-03-27T09:46:19Z</time>
      </trkpt>
      <trkpt lat="45.42187" lon="5.53899">
        <ele>558.7</ele>
        <time>2011-03-27T09:46:21Z</time>
      </trkpt>
      <trkpt lat="45.42187" lon="5.53908">
        <ele>559</ele>
        <time>2011-03-27T09:46:23Z</time>
      </trkpt>
      <trkpt lat="45.42186" lon="5.53918">
        <ele>559.2</ele>
        <time>2011-03-27T09:46:25Z</time>
      </trkpt>
      <trkpt lat="45.42185" lon="5.53927">
        <ele>559.5</ele>
        <time>2011-03-27T09:46:27Z</time>
      </trkpt>
      <trkpt lat="45.42185" lon="5.53936">
        <ele>560.1</ele>
        <time>2011-03-27T09:46:29Z</time>
      </trkpt>
      <trkpt lat="45.42184" lon="5.53945">
        <ele>560.7</ele>
        <time>2011-03-27T09:46:31Z</time>
      </trkpt>
      <trkpt lat="45.42184" lon="5.53957">
        <ele>560</ele>
        <time>2011-03-27T09:46:34Z</time>
      </trkpt>
      <trkpt lat="45.42184" lon="5.53969">
        <ele>561.1</ele>
        <time>2011-03-27T09:46:37Z</time>
      </trkpt>
      <trkpt lat="45.42191" lon="5.53972">
        <ele>561.5</ele>
        <time>2011-03-27T09:46:40Z</time>
      </trkpt>
      <trkpt lat="45.42199" lon="5.53969">
        <ele>562.4</ele>
        <time>2011-03-27T09:46:43Z</time>
      </trkpt>
      <trkpt lat="45.42205" lon="5.53967">
        <ele>562.7</ele>
        <time>2011-03-27T09:46:45Z</time>
      </trkpt>
      <trkpt lat="45.42213" lon="5.53962">
        <ele>562.6</ele>
        <time>2011-03-27T09:46:48Z</time>
      </trkpt>
      <trkpt lat="45.42221" lon="5.53956">
        <ele>562.8</ele>
        <time>2011-03-27T09:46:51Z</time>
      </trkpt>
      <trkpt lat="45.42227" lon="5.53953">
        <ele>563.3</ele>
        <time>2011-03-27T09:46:53Z</time>
      </trkpt>
      <trkpt lat="45.42233" lon="5.53951">
        <ele>563</ele>
        <time>2011-03-27T09:46:55Z</time>
      </trkpt>
      <trkpt lat="45.42241" lon="5.53954">
        <ele>562.8</ele>
        <time>2011-03-27T09:46:58Z</time>
      </trkpt>
      <trkpt lat="45.42244" lon="5.53956">
        <ele>563</ele>
        <time>2011-03-27T09:46:59Z</time>
      </trkpt>
      <trkpt lat="45.42251" lon="5.53969">
        <ele>564.1</ele>
        <time>2011-03-27T09:47:03Z</time>
      </trkpt>
      <trkpt lat="45.42255" lon="5.53976">
        <ele>564.8</ele>
        <time>2011-03-27T09:47:05Z</time>
      </trkpt>
      <trkpt lat="45.42259" lon="5.53987">
        <ele>565.4</ele>
        <time>2011-03-27T09:47:08Z</time>
      </trkpt>
      <trkpt lat="45.42264" lon="5.53998">
        <ele>565.3</ele>
        <time>2011-03-27T09:47:11Z</time>
      </trkpt>
      <trkpt lat="45.42268" lon="5.54008">
        <ele>565.5</ele>
        <time>2011-03-27T09:47:14Z</time>
      </trkpt>
      <trkpt lat="45.42273" lon="5.54018">
        <ele>566</ele>
        <time>2011-03-27T09:47:17Z</time>
      </trkpt>
      <trkpt lat="45.42278" lon="5.54028">
        <ele>566.5</ele>
        <time>2011-03-27T09:47:20Z</time>
      </trkpt>
      <trkpt lat="45.42284" lon="5.54038">
        <ele>567.4</ele>
        <time>2011-03-27T09:47:23Z</time>
      </trkpt>
      <trkpt lat="45.42289" lon="5.54048">
        <ele>568</ele>
        <time>2011-03-27T09:47:26Z</time>
      </trkpt>
      <trkpt lat="45.42294" lon="5.54057">
        <ele>568.4</ele>
        <time>2011-03-27T09:47:29Z</time>
      </trkpt>
      <trkpt lat="45.42298" lon="5.54067">
        <ele>567.8</ele>
        <time>2011-03-27T09:47:32Z</time>
      </trkpt>
      <trkpt lat="45.42303" lon="5.54076">
        <ele>568.7</ele>
        <time>2011-03-27T09:47:35Z</time>
      </trkpt>
      <trkpt lat="45.42307" lon="5.54086">
        <ele>569.5</ele>
        <time>2011-03-27T09:47:38Z</time>
      </trkpt>
      <trkpt lat="45.42312" lon="5.54096">
        <ele>570.1</ele>
        <time>2011-03-27T09:47:41Z</time>
      </trkpt>
      <trkpt lat="45.42317" lon="5.54105">
        <ele>571</ele>
        <time>2011-03-27T09:47:44Z</time>
      </trkpt>
      <trkpt lat="45.42321" lon="5.54114">
        <ele>571.2</ele>
        <time>2011-03-27T09:47:47Z</time>
      </trkpt>
      <trkpt lat="45.42326" lon="5.54122">
        <ele>571.4</ele>
        <time>2011-03-27T09:47:50Z</time>
      </trkpt>
      <trkpt lat="45.42331" lon="5.5413">
        <ele>571.2</ele>
        <time>2011-03-27T09:47:53Z</time>
      </trkpt>
      <trkpt lat="45.42337" lon="5.54138">
        <ele>572</ele>
        <time>2011-03-27T09:47:56Z</time>
      </trkpt>
      <trkpt lat="45.42343" lon="5.54146">
        <ele>572.5</ele>
        <time>2011-03-27T09:47:59Z</time>
      </trkpt>
      <trkpt lat="45.42345" lon="5.54149">
        <ele>572.6</ele>
        <time>2011-03-27T09:48:00Z</time>
      </trkpt>
      <trkpt lat="45.42355" lon="5.54163">
        <ele>573.5</ele>
        <time>2011-03-27T09:48:05Z</time>
      </trkpt>
      <trkpt lat="45.42361" lon="5.54172">
        <ele>573.9</ele>
        <time>2011-03-27T09:48:08Z</time>
      </trkpt>
      <trkpt lat="45.42367" lon="5.5418">
        <ele>574.1</ele>
        <time>2011-03-27T09:48:11Z</time>
      </trkpt>
      <trkpt lat="45.42373" lon="5.54189">
        <ele>574.8</ele>
        <time>2011-03-27T09:48:14Z</time>
      </trkpt>
      <trkpt lat="45.42379" lon="5.54198">
        <ele>575.9</ele>
        <time>2011-03-27T09:48:17Z</time>
      </trkpt>
      <trkpt lat="45.42385" lon="5.54206">
        <ele>575.9</ele>
        <time>2011-03-27T09:48:20Z</time>
      </trkpt>
      <trkpt lat="45.42391" lon="5.54213">
        <ele>576.1</ele>
        <time>2011-03-27T09:48:23Z</time>
      </trkpt>
      <trkpt lat="45.42397" lon="5.5422">
        <ele>577</ele>
        <time>2011-03-27T09:48:26Z</time>
      </trkpt>
      <trkpt lat="45.42403" lon="5.54227">
        <ele>577.4</ele>
        <time>2011-03-27T09:48:29Z</time>
      </trkpt>
      <trkpt lat="45.42409" lon="5.54233">
        <ele>577.8</ele>
        <time>2011-03-27T09:48:32Z</time>
      </trkpt>
      <trkpt lat="45.42416" lon="5.54239">
        <ele>578.8</ele>
        <time>2011-03-27T09:48:35Z</time>
      </trkpt>
      <trkpt lat="45.42424" lon="5.54245">
        <ele>578.1</ele>
        <time>2011-03-27T09:48:38Z</time>
      </trkpt>
      <trkpt lat="45.42431" lon="5.5425">
        <ele>578.7</ele>
        <time>2011-03-27T09:48:41Z</time>
      </trkpt>
      <trkpt lat="45.42439" lon="5.54255">
        <ele>579.7</ele>
        <time>2011-03-27T09:48:44Z</time>
      </trkpt>
      <trkpt lat="45.42446" lon="5.5426">
        <ele>580</ele>
        <time>2011-03-27T09:48:47Z</time>
      </trkpt>
      <trkpt lat="45.42454" lon="5.54267">
        <ele>579.9</ele>
        <time>2011-03-27T09:48:50Z</time>
      </trkpt>
      <trkpt lat="45.42461" lon="5.54273">
        <ele>580.7</ele>
        <time>2011-03-27T09:48:53Z</time>
      </trkpt>
      <trkpt lat="45.42468" lon="5.5428">
        <ele>580.8</ele>
        <time>2011-03-27T09:48:56Z</time>
      </trkpt>
      <trkpt lat="45.42475" lon="5.54287">
        <ele>581.3</ele>
        <time>2011-03-27T09:48:59Z</time>
      </trkpt>
      <trkpt lat="45.42482" lon="5.54294">
        <ele>581.7</ele>
        <time>2011-03-27T09:49:02Z</time>
      </trkpt>
      <trkpt lat="45.42484" lon="5.54296">
        <ele>581.8</ele>
        <time>2011-03-27T09:49:03Z</time>
      </trkpt>
      <trkpt lat="45.42496" lon="5.54307">
        <ele>582.7</ele>
        <time>2011-03-27T09:49:08Z</time>
      </trkpt>
      <trkpt lat="45.42503" lon="5.54313">
        <ele>582.9</ele>
        <time>2011-03-27T09:49:11Z</time>
      </trkpt>
      <trkpt lat="45.4251" lon="5.54319">
        <ele>583.6</ele>
        <time>2011-03-27T09:49:14Z</time>
      </trkpt>
      <trkpt lat="45.42517" lon="5.54325">
        <ele>584.4</ele>
        <time>2011-03-27T09:49:17Z</time>
      </trkpt>
      <trkpt lat="45.42524" lon="5.54329">
        <ele>584.5</ele>
        <time>2011-03-27T09:49:20Z</time>
      </trkpt>
      <trkpt lat="45.42531" lon="5.54332">
        <ele>583.7</ele>
        <time>2011-03-27T09:49:23Z</time>
      </trkpt>
      <trkpt lat="45.42537" lon="5.54334">
        <ele>584.6</ele>
        <time>2011-03-27T09:49:26Z</time>
      </trkpt>
      <trkpt lat="45.42544" lon="5.54335">
        <ele>585.5</ele>
        <time>2011-03-27T09:49:29Z</time>
      </trkpt>
      <trkpt lat="45.42551" lon="5.54335">
        <ele>586</ele>
        <time>2011-03-27T09:49:32Z</time>
      </trkpt>
      <trkpt lat="45.4256" lon="5.54336">
        <ele>586</ele>
        <time>2011-03-27T09:49:36Z</time>
      </trkpt>
      <trkpt lat="45.42568" lon="5.54337">
        <ele>586.5</ele>
        <time>2011-03-27T09:49:40Z</time>
      </trkpt>
      <trkpt lat="45.42575" lon="5.54338">
        <ele>587.8</ele>
        <time>2011-03-27T09:49:44Z</time>
      </trkpt>
      <trkpt lat="45.42584" lon="5.5434">
        <ele>588.9</ele>
        <time>2011-03-27T09:49:49Z</time>
      </trkpt>
      <trkpt lat="45.42591" lon="5.54343">
        <ele>589.5</ele>
        <time>2011-03-27T09:49:53Z</time>
      </trkpt>
      <trkpt lat="45.42598" lon="5.54346">
        <ele>590.4</ele>
        <time>2011-03-27T09:49:57Z</time>
      </trkpt>
      <trkpt lat="45.42605" lon="5.5435">
        <ele>591</ele>
        <time>2011-03-27T09:50:01Z</time>
      </trkpt>
      <trkpt lat="45.42612" lon="5.54353">
        <ele>592.1</ele>
        <time>2011-03-27T09:50:05Z</time>
      </trkpt>
      <trkpt lat="45.42614" lon="5.54354">
        <ele>592.1</ele>
        <time>2011-03-27T09:50:06Z</time>
      </trkpt>
      <trkpt lat="45.42627" lon="5.54361">
        <ele>593.1</ele>
        <time>2011-03-27T09:50:14Z</time>
      </trkpt>
      <trkpt lat="45.42634" lon="5.54364">
        <ele>594.4</ele>
        <time>2011-03-27T09:50:18Z</time>
      </trkpt>
      <trkpt lat="45.42641" lon="5.54368">
        <ele>594.2</ele>
        <time>2011-03-27T09:50:22Z</time>
      </trkpt>
      <trkpt lat="45.4265" lon="5.54371">
        <ele>594.9</ele>
        <time>2011-03-27T09:50:27Z</time>
      </trkpt>
      <trkpt lat="45.42658" lon="5.54375">
        <ele>595.5</ele>
        <time>2011-03-27T09:50:32Z</time>
      </trkpt>
      <trkpt lat="45.42666" lon="5.54378">
        <ele>596.9</ele>
        <time>2011-03-27T09:50:37Z</time>
      </trkpt>
      <trkpt lat="45.42674" lon="5.54381">
        <ele>597.4</ele>
        <time>2011-03-27T09:50:42Z</time>
      </trkpt>
      <trkpt lat="45.42682" lon="5.54383">
        <ele>598.1</ele>
        <time>2011-03-27T09:50:47Z</time>
      </trkpt>
      <trkpt lat="45.4269" lon="5.54386">
        <ele>598.8</ele>
        <time>2011-03-27T09:50:52Z</time>
      </trkpt>
      <trkpt lat="45.42698" lon="5.54388">
        <ele>599.6</ele>
        <time>2011-03-27T09:50:57Z</time>
      </trkpt>
      <trkpt lat="45.42707" lon="5.5439">
        <ele>600.3</ele>
        <time>2011-03-27T09:51:55Z</time>
      </trkpt>
      <trkpt lat="45.42707" lon="5.5439">
        <ele>600.3</ele>
        <time>2011-03-27T09:51:56Z</time>
      </trkpt>
      <trkpt lat="45.42715" lon="5.54393">
        <ele>601.4</ele>
        <time>2011-03-27T09:54:55Z</time>
      </trkpt>
      <trkpt lat="45.4273" lon="5.54394">
        <ele>602.7</ele>
        <time>2011-03-27T09:55:05Z</time>
      </trkpt>
      <trkpt lat="45.42738" lon="5.54396">
        <ele>603.1</ele>
        <time>2011-03-27T09:55:11Z</time>
      </trkpt>
      <trkpt lat="45.42746" lon="5.54397">
        <ele>603.9</ele>
        <time>2011-03-27T09:55:17Z</time>
      </trkpt>
      <trkpt lat="45.42754" lon="5.54399">
        <ele>605.9</ele>
        <time>2011-03-27T09:55:24Z</time>
      </trkpt>
      <trkpt lat="45.42763" lon="5.54402">
        <ele>607.3</ele>
        <time>2011-03-27T09:55:32Z</time>
      </trkpt>
      <trkpt lat="45.42772" lon="5.54402">
        <ele>607.7</ele>
        <time>2011-03-27T09:55:40Z</time>
      </trkpt>
      <trkpt lat="45.4278" lon="5.54403">
        <ele>609.6</ele>
        <time>2011-03-27T09:55:48Z</time>
      </trkpt>
      <trkpt lat="45.42789" lon="5.54405">
        <ele>609.9</ele>
        <time>2011-03-27T09:55:55Z</time>
      </trkpt>
      <trkpt lat="45.4279" lon="5.54406">
        <ele>610</ele>
        <time>2011-03-27T09:55:56Z</time>
      </trkpt>
      <trkpt lat="45.42805" lon="5.54409">
        <ele>611.7</ele>
        <time>2011-03-27T09:56:06Z</time>
      </trkpt>
      <trkpt lat="45.42813" lon="5.54411">
        <ele>612.1</ele>
        <time>2011-03-27T09:56:12Z</time>
      </trkpt>
      <trkpt lat="45.42822" lon="5.54413">
        <ele>612.9</ele>
        <time>2011-03-27T09:56:18Z</time>
      </trkpt>
      <trkpt lat="45.42831" lon="5.54415">
        <ele>613.3</ele>
        <time>2011-03-27T09:56:24Z</time>
      </trkpt>
      <trkpt lat="45.42838" lon="5.54416">
        <ele>614</ele>
        <time>2011-03-27T09:56:29Z</time>
      </trkpt>
      <trkpt lat="45.42846" lon="5.54416">
        <ele>615.4</ele>
        <time>2011-03-27T09:56:34Z</time>
      </trkpt>
      <trkpt lat="45.42853" lon="5.54416">
        <ele>616.9</ele>
        <time>2011-03-27T09:56:39Z</time>
      </trkpt>
      <trkpt lat="45.42861" lon="5.54413">
        <ele>616.7</ele>
        <time>2011-03-27T09:56:44Z</time>
      </trkpt>
      <trkpt lat="45.4287" lon="5.54409">
        <ele>618.1</ele>
        <time>2011-03-27T09:56:49Z</time>
      </trkpt>
      <trkpt lat="45.42877" lon="5.54403">
        <ele>618.7</ele>
        <time>2011-03-27T09:56:54Z</time>
      </trkpt>
      <trkpt lat="45.42884" lon="5.54396">
        <ele>619.1</ele>
        <time>2011-03-27T09:56:59Z</time>
      </trkpt>
      <trkpt lat="45.42885" lon="5.54395">
        <ele>619.3</ele>
        <time>2011-03-27T09:57:00Z</time>
      </trkpt>
      <trkpt lat="45.42896" lon="5.54382">
        <ele>622.4</ele>
        <time>2011-03-27T09:57:09Z</time>
      </trkpt>
      <trkpt lat="45.42904" lon="5.54377">
        <ele>623.2</ele>
        <time>2011-03-27T09:57:15Z</time>
      </trkpt>
      <trkpt lat="45.42913" lon="5.54373">
        <ele>624.7</ele>
        <time>2011-03-27T09:57:38Z</time>
      </trkpt>
      <trkpt lat="45.42921" lon="5.54374">
        <ele>625.7</ele>
        <time>2011-03-27T09:58:26Z</time>
      </trkpt>
      <trkpt lat="45.42922" lon="5.54374">
        <ele>625.7</ele>
        <time>2011-03-27T09:58:27Z</time>
      </trkpt>
      <trkpt lat="45.42938" lon="5.54371">
        <ele>626.7</ele>
        <time>2011-03-27T09:59:02Z</time>
      </trkpt>
      <trkpt lat="45.42947" lon="5.54371">
        <ele>627.3</ele>
        <time>2011-03-27T09:59:07Z</time>
      </trkpt>
      <trkpt lat="45.42954" lon="5.5437">
        <ele>628.3</ele>
        <time>2011-03-27T09:59:11Z</time>
      </trkpt>
      <trkpt lat="45.42961" lon="5.54369">
        <ele>629.2</ele>
        <time>2011-03-27T09:59:16Z</time>
      </trkpt>
      <trkpt lat="45.42969" lon="5.54368">
        <ele>629.7</ele>
        <time>2011-03-27T09:59:20Z</time>
      </trkpt>
      <trkpt lat="45.42978" lon="5.54367">
        <ele>631</ele>
        <time>2011-03-27T09:59:24Z</time>
      </trkpt>
      <trkpt lat="45.42985" lon="5.54367">
        <ele>631.8</ele>
        <time>2011-03-27T09:59:28Z</time>
      </trkpt>
      <trkpt lat="45.42987" lon="5.54367">
        <ele>631.9</ele>
        <time>2011-03-27T09:59:29Z</time>
      </trkpt>
      <trkpt lat="45.43001" lon="5.54363">
        <ele>633.3</ele>
        <time>2011-03-27T09:59:36Z</time>
      </trkpt>
      <trkpt lat="45.4301" lon="5.54361">
        <ele>633.7</ele>
        <time>2011-03-27T09:59:40Z</time>
      </trkpt>
      <trkpt lat="45.43017" lon="5.54359">
        <ele>634.7</ele>
        <time>2011-03-27T09:59:44Z</time>
      </trkpt>
      <trkpt lat="45.43025" lon="5.54356">
        <ele>635.6</ele>
        <time>2011-03-27T09:59:48Z</time>
      </trkpt>
      <trkpt lat="45.43034" lon="5.54351">
        <ele>636.6</ele>
        <time>2011-03-27T09:59:52Z</time>
      </trkpt>
      <trkpt lat="45.43042" lon="5.54347">
        <ele>638</ele>
        <time>2011-03-27T09:59:56Z</time>
      </trkpt>
      <trkpt lat="45.43049" lon="5.54344">
        <ele>638.3</ele>
        <time>2011-03-27T09:59:59Z</time>
      </trkpt>
      <trkpt lat="45.43057" lon="5.54339">
        <ele>638.5</ele>
        <time>2011-03-27T10:00:03Z</time>
      </trkpt>
      <trkpt lat="45.43065" lon="5.54335">
        <ele>639.2</ele>
        <time>2011-03-27T10:00:07Z</time>
      </trkpt>
      <trkpt lat="45.43072" lon="5.54332">
        <ele>639.9</ele>
        <time>2011-03-27T10:00:11Z</time>
      </trkpt>
      <trkpt lat="45.4308" lon="5.54327">
        <ele>640.6</ele>
        <time>2011-03-27T10:00:14Z</time>
      </trkpt>
      <trkpt lat="45.43086" lon="5.54322">
        <ele>640.8</ele>
        <time>2011-03-27T10:00:16Z</time>
      </trkpt>
      <trkpt lat="45.43092" lon="5.54319">
        <ele>640.5</ele>
        <time>2011-03-27T10:00:18Z</time>
      </trkpt>
      <trkpt lat="45.431" lon="5.54314">
        <ele>639.8</ele>
        <time>2011-03-27T10:00:21Z</time>
      </trkpt>
      <trkpt lat="45.43107" lon="5.54309">
        <ele>639.5</ele>
        <time>2011-03-27T10:00:24Z</time>
      </trkpt>
      <trkpt lat="45.43115" lon="5.54303">
        <ele>639.8</ele>
        <time>2011-03-27T10:00:27Z</time>
      </trkpt>
      <trkpt lat="45.43122" lon="5.54298">
        <ele>640.1</ele>
        <time>2011-03-27T10:00:30Z</time>
      </trkpt>
      <trkpt lat="45.43124" lon="5.54296">
        <ele>640.4</ele>
        <time>2011-03-27T10:00:31Z</time>
      </trkpt>
      <trkpt lat="45.43135" lon="5.5429">
        <ele>641.3</ele>
        <time>2011-03-27T10:00:36Z</time>
      </trkpt>
      <trkpt lat="45.43141" lon="5.54284">
        <ele>641.4</ele>
        <time>2011-03-27T10:00:39Z</time>
      </trkpt>
      <trkpt lat="45.43148" lon="5.54278">
        <ele>642.3</ele>
        <time>2011-03-27T10:00:42Z</time>
      </trkpt>
      <trkpt lat="45.43154" lon="5.54273">
        <ele>642.2</ele>
        <time>2011-03-27T10:00:45Z</time>
      </trkpt>
      <trkpt lat="45.4316" lon="5.54268">
        <ele>643</ele>
        <time>2011-03-27T10:00:48Z</time>
      </trkpt>
      <trkpt lat="45.43168" lon="5.54262">
        <ele>643.6</ele>
        <time>2011-03-27T10:00:52Z</time>
      </trkpt>
      <trkpt lat="45.43175" lon="5.54258">
        <ele>643.5</ele>
        <time>2011-03-27T10:00:56Z</time>
      </trkpt>
      <trkpt lat="45.43183" lon="5.54252">
        <ele>645.6</ele>
        <time>2011-03-27T10:01:01Z</time>
      </trkpt>
      <trkpt lat="45.4319" lon="5.54247">
        <ele>646</ele>
        <time>2011-03-27T10:01:05Z</time>
      </trkpt>
      <trkpt lat="45.43198" lon="5.54243">
        <ele>646.9</ele>
        <time>2011-03-27T10:01:10Z</time>
      </trkpt>
      <trkpt lat="45.43206" lon="5.54238">
        <ele>647.8</ele>
        <time>2011-03-27T10:01:15Z</time>
      </trkpt>
      <trkpt lat="45.43213" lon="5.54231">
        <ele>648.4</ele>
        <time>2011-03-27T10:01:20Z</time>
      </trkpt>
      <trkpt lat="45.4322" lon="5.54224">
        <ele>649</ele>
        <time>2011-03-27T10:01:25Z</time>
      </trkpt>
      <trkpt lat="45.43226" lon="5.54217">
        <ele>649.3</ele>
        <time>2011-03-27T10:01:30Z</time>
      </trkpt>
      <trkpt lat="45.43232" lon="5.5421">
        <ele>651</ele>
        <time>2011-03-27T10:01:35Z</time>
      </trkpt>
      <trkpt lat="45.43233" lon="5.54209">
        <ele>651.4</ele>
        <time>2011-03-27T10:01:36Z</time>
      </trkpt>
      <trkpt lat="45.43244" lon="5.54196">
        <ele>652.2</ele>
        <time>2011-03-27T10:01:45Z</time>
      </trkpt>
      <trkpt lat="45.4325" lon="5.54189">
        <ele>652.7</ele>
        <time>2011-03-27T10:01:51Z</time>
      </trkpt>
      <trkpt lat="45.43257" lon="5.54181">
        <ele>654.2</ele>
        <time>2011-03-27T10:01:57Z</time>
      </trkpt>
      <trkpt lat="45.43264" lon="5.54174">
        <ele>655.7</ele>
        <time>2011-03-27T10:02:04Z</time>
      </trkpt>
      <trkpt lat="45.43271" lon="5.54167">
        <ele>655.1</ele>
        <time>2011-03-27T10:02:11Z</time>
      </trkpt>
      <trkpt lat="45.43278" lon="5.5416">
        <ele>656.4</ele>
        <time>2011-03-27T10:02:17Z</time>
      </trkpt>
      <trkpt lat="45.43285" lon="5.54156">
        <ele>658.5</ele>
        <time>2011-03-27T10:02:25Z</time>
      </trkpt>
      <trkpt lat="45.43293" lon="5.54152">
        <ele>660.1</ele>
        <time>2011-03-27T10:02:32Z</time>
      </trkpt>
      <trkpt lat="45.43301" lon="5.54148">
        <ele>661.6</ele>
        <time>2011-03-27T10:02:39Z</time>
      </trkpt>
      <trkpt lat="45.43303" lon="5.54148">
        <ele>662</ele>
        <time>2011-03-27T10:02:40Z</time>
      </trkpt>
      <trkpt lat="45.43317" lon="5.54142">
        <ele>664</ele>
        <time>2011-03-27T10:02:53Z</time>
      </trkpt>
      <trkpt lat="45.43325" lon="5.54138">
        <ele>664.9</ele>
        <time>2011-03-27T10:03:00Z</time>
      </trkpt>
      <trkpt lat="45.43334" lon="5.54137">
        <ele>667.8</ele>
        <time>2011-03-27T10:03:08Z</time>
      </trkpt>
      <trkpt lat="45.43343" lon="5.54135">
        <ele>668.8</ele>
        <time>2011-03-27T10:03:16Z</time>
      </trkpt>
      <trkpt lat="45.43351" lon="5.54134">
        <ele>670</ele>
        <time>2011-03-27T10:03:22Z</time>
      </trkpt>
      <trkpt lat="45.43359" lon="5.54134">
        <ele>670.4</ele>
        <time>2011-03-27T10:03:28Z</time>
      </trkpt>
      <trkpt lat="45.43368" lon="5.54134">
        <ele>671.7</ele>
        <time>2011-03-27T10:03:34Z</time>
      </trkpt>
      <trkpt lat="45.43376" lon="5.54136">
        <ele>672.6</ele>
        <time>2011-03-27T10:03:41Z</time>
      </trkpt>
      <trkpt lat="45.43377" lon="5.54137">
        <ele>672.8</ele>
        <time>2011-03-27T10:03:42Z</time>
      </trkpt>
      <trkpt lat="45.43392" lon="5.54143">
        <ele>675.9</ele>
        <time>2011-03-27T10:03:56Z</time>
      </trkpt>
      <trkpt lat="45.43399" lon="5.54148">
        <ele>676.7</ele>
        <time>2011-03-27T10:04:04Z</time>
      </trkpt>
      <trkpt lat="45.43407" lon="5.54153">
        <ele>677.8</ele>
        <time>2011-03-27T10:04:11Z</time>
      </trkpt>
      <trkpt lat="45.43415" lon="5.54157">
        <ele>679.1</ele>
        <time>2011-03-27T10:04:18Z</time>
      </trkpt>
      <trkpt lat="45.43423" lon="5.54159">
        <ele>680.3</ele>
        <time>2011-03-27T10:04:24Z</time>
      </trkpt>
      <trkpt lat="45.4343" lon="5.54161">
        <ele>681</ele>
        <time>2011-03-27T10:04:29Z</time>
      </trkpt>
      <trkpt lat="45.43438" lon="5.54165">
        <ele>682.3</ele>
        <time>2011-03-27T10:04:34Z</time>
      </trkpt>
      <trkpt lat="45.43445" lon="5.54169">
        <ele>683.9</ele>
        <time>2011-03-27T10:04:41Z</time>
      </trkpt>
      <trkpt lat="45.43454" lon="5.54173">
        <ele>685.8</ele>
        <time>2011-03-27T10:04:54Z</time>
      </trkpt>
      <trkpt lat="45.43455" lon="5.54173">
        <ele>685.9</ele>
        <time>2011-03-27T10:04:55Z</time>
      </trkpt>
      <trkpt lat="45.4347" lon="5.54175">
        <ele>687.7</ele>
        <time>2011-03-27T10:05:12Z</time>
      </trkpt>
      <trkpt lat="45.43478" lon="5.54176">
        <ele>688.5</ele>
        <time>2011-03-27T10:05:18Z</time>
      </trkpt>
      <trkpt lat="45.43486" lon="5.54177">
        <ele>689.6</ele>
        <time>2011-03-27T10:05:25Z</time>
      </trkpt>
      <trkpt lat="45.43495" lon="5.5418">
        <ele>691.5</ele>
        <time>2011-03-27T10:05:32Z</time>
      </trkpt>
      <trkpt lat="45.43503" lon="5.54182">
        <ele>693.2</ele>
        <time>2011-03-27T10:05:39Z</time>
      </trkpt>
      <trkpt lat="45.43512" lon="5.54187">
        <ele>693.9</ele>
        <time>2011-03-27T10:05:46Z</time>
      </trkpt>
      <trkpt lat="45.43519" lon="5.54192">
        <ele>695.2</ele>
        <time>2011-03-27T10:05:53Z</time>
      </trkpt>
      <trkpt lat="45.43527" lon="5.54195">
        <ele>697</ele>
        <time>2011-03-27T10:05:59Z</time>
      </trkpt>
      <trkpt lat="45.43528" lon="5.54196">
        <ele>696.9</ele>
        <time>2011-03-27T10:06:00Z</time>
      </trkpt>
      <trkpt lat="45.43542" lon="5.54204">
        <ele>697</ele>
        <time>2011-03-27T10:06:10Z</time>
      </trkpt>
      <trkpt lat="45.4355" lon="5.54208">
        <ele>696.4</ele>
        <time>2011-03-27T10:06:15Z</time>
      </trkpt>
      <trkpt lat="45.43558" lon="5.54212">
        <ele>697.9</ele>
        <time>2011-03-27T10:06:20Z</time>
      </trkpt>
      <trkpt lat="45.43566" lon="5.54216">
        <ele>699.6</ele>
        <time>2011-03-27T10:06:25Z</time>
      </trkpt>
      <trkpt lat="45.43574" lon="5.54219">
        <ele>700.2</ele>
        <time>2011-03-27T10:06:30Z</time>
      </trkpt>
      <trkpt lat="45.43581" lon="5.54222">
        <ele>701</ele>
        <time>2011-03-27T10:06:35Z</time>
      </trkpt>
      <trkpt lat="45.43589" lon="5.54225">
        <ele>701.7</ele>
        <time>2011-03-27T10:06:40Z</time>
      </trkpt>
      <trkpt lat="45.43597" lon="5.54229">
        <ele>703</ele>
        <time>2011-03-27T10:06:46Z</time>
      </trkpt>
      <trkpt lat="45.43605" lon="5.54232">
        <ele>703.3</ele>
        <time>2011-03-27T10:06:51Z</time>
      </trkpt>
      <trkpt lat="45.43612" lon="5.54236">
        <ele>703.7</ele>
        <time>2011-03-27T10:06:55Z</time>
      </trkpt>
      <trkpt lat="45.43619" lon="5.54238">
        <ele>704.4</ele>
        <time>2011-03-27T10:06:59Z</time>
      </trkpt>
      <trkpt lat="45.43628" lon="5.54241">
        <ele>704.3</ele>
        <time>2011-03-27T10:07:03Z</time>
      </trkpt>
      <trkpt lat="45.4363" lon="5.54241">
        <ele>704.5</ele>
        <time>2011-03-27T10:07:04Z</time>
      </trkpt>
      <trkpt lat="45.43642" lon="5.54242">
        <ele>704.4</ele>
        <time>2011-03-27T10:07:09Z</time>
      </trkpt>
      <trkpt lat="45.4365" lon="5.54241">
        <ele>705</ele>
        <time>2011-03-27T10:07:12Z</time>
      </trkpt>
      <trkpt lat="45.43658" lon="5.54241">
        <ele>705.1</ele>
        <time>2011-03-27T10:07:15Z</time>
      </trkpt>
      <trkpt lat="45.43666" lon="5.54241">
        <ele>705.7</ele>
        <time>2011-03-27T10:07:18Z</time>
      </trkpt>
      <trkpt lat="45.43674" lon="5.54241">
        <ele>706.4</ele>
        <time>2011-03-27T10:07:21Z</time>
      </trkpt>
      <trkpt lat="45.43682" lon="5.54241">
        <ele>705.7</ele>
        <time>2011-03-27T10:07:24Z</time>
      </trkpt>
      <trkpt lat="45.4369" lon="5.54241">
        <ele>705.5</ele>
        <time>2011-03-27T10:07:27Z</time>
      </trkpt>
      <trkpt lat="45.43699" lon="5.5424">
        <ele>705.1</ele>
        <time>2011-03-27T10:07:30Z</time>
      </trkpt>
      <trkpt lat="45.43707" lon="5.5424">
        <ele>705.5</ele>
        <time>2011-03-27T10:07:33Z</time>
      </trkpt>
      <trkpt lat="45.43716" lon="5.54239">
        <ele>706.1</ele>
        <time>2011-03-27T10:07:36Z</time>
      </trkpt>
      <trkpt lat="45.43724" lon="5.54239">
        <ele>706.7</ele>
        <time>2011-03-27T10:07:39Z</time>
      </trkpt>
      <trkpt lat="45.43733" lon="5.54239">
        <ele>707</ele>
        <time>2011-03-27T10:07:42Z</time>
      </trkpt>
      <trkpt lat="45.43741" lon="5.54239">
        <ele>707</ele>
        <time>2011-03-27T10:07:45Z</time>
      </trkpt>
      <trkpt lat="45.43749" lon="5.54239">
        <ele>706.9</ele>
        <time>2011-03-27T10:07:48Z</time>
      </trkpt>
      <trkpt lat="45.43757" lon="5.54238">
        <ele>707.3</ele>
        <time>2011-03-27T10:07:51Z</time>
      </trkpt>
      <trkpt lat="45.43765" lon="5.54237">
        <ele>708.2</ele>
        <time>2011-03-27T10:07:54Z</time>
      </trkpt>
      <trkpt lat="45.43772" lon="5.54235">
        <ele>708.1</ele>
        <time>2011-03-27T10:07:57Z</time>
      </trkpt>
      <trkpt lat="45.4378" lon="5.54232">
        <ele>709.4</ele>
        <time>2011-03-27T10:08:01Z</time>
      </trkpt>
      <trkpt lat="45.43788" lon="5.54229">
        <ele>710.3</ele>
        <time>2011-03-27T10:08:05Z</time>
      </trkpt>
      <trkpt lat="45.43789" lon="5.54228">
        <ele>710.5</ele>
        <time>2011-03-27T10:08:06Z</time>
      </trkpt>
      <trkpt lat="45.43802" lon="5.5422">
        <ele>712.2</ele>
        <time>2011-03-27T10:08:13Z</time>
      </trkpt>
      <trkpt lat="45.43809" lon="5.54215">
        <ele>712.2</ele>
        <time>2011-03-27T10:08:17Z</time>
      </trkpt>
      <trkpt lat="45.43815" lon="5.54208">
        <ele>712.5</ele>
        <time>2011-03-27T10:08:21Z</time>
      </trkpt>
      <trkpt lat="45.43821" lon="5.54201">
        <ele>713.5</ele>
        <time>2011-03-27T10:08:25Z</time>
      </trkpt>
      <trkpt lat="45.43827" lon="5.54192">
        <ele>714.3</ele>
        <time>2011-03-27T10:08:29Z</time>
      </trkpt>
      <trkpt lat="45.43833" lon="5.54184">
        <ele>715.2</ele>
        <time>2011-03-27T10:08:33Z</time>
      </trkpt>
      <trkpt lat="45.43839" lon="5.54178">
        <ele>716.3</ele>
        <time>2011-03-27T10:08:36Z</time>
      </trkpt>
      <trkpt lat="45.43846" lon="5.54171">
        <ele>717.4</ele>
        <time>2011-03-27T10:08:40Z</time>
      </trkpt>
      <trkpt lat="45.43854" lon="5.54165">
        <ele>718.2</ele>
        <time>2011-03-27T10:08:44Z</time>
      </trkpt>
      <trkpt lat="45.43862" lon="5.54159">
        <ele>719.7</ele>
        <time>2011-03-27T10:08:48Z</time>
      </trkpt>
      <trkpt lat="45.43868" lon="5.54154">
        <ele>720.5</ele>
        <time>2011-03-27T10:08:51Z</time>
      </trkpt>
      <trkpt lat="45.43874" lon="5.5415">
        <ele>720.2</ele>
        <time>2011-03-27T10:08:54Z</time>
      </trkpt>
      <trkpt lat="45.43881" lon="5.54144">
        <ele>719.7</ele>
        <time>2011-03-27T10:08:58Z</time>
      </trkpt>
      <trkpt lat="45.43888" lon="5.54138">
        <ele>720.2</ele>
        <time>2011-03-27T10:09:02Z</time>
      </trkpt>
      <trkpt lat="45.43895" lon="5.54133">
        <ele>720.9</ele>
        <time>2011-03-27T10:09:06Z</time>
      </trkpt>
      <trkpt lat="45.43896" lon="5.54131">
        <ele>721</ele>
        <time>2011-03-27T10:09:07Z</time>
      </trkpt>
      <trkpt lat="45.4391" lon="5.54123">
        <ele>723.1</ele>
        <time>2011-03-27T10:10:39Z</time>
      </trkpt>
      <trkpt lat="45.4391" lon="5.54123">
        <ele>722.8</ele>
        <time>2011-03-27T10:10:40Z</time>
      </trkpt>
      <trkpt lat="45.43927" lon="5.54125">
        <ele>722.8</ele>
        <time>2011-03-27T10:10:58Z</time>
      </trkpt>
      <trkpt lat="45.43935" lon="5.54129">
        <ele>722.1</ele>
        <time>2011-03-27T10:11:01Z</time>
      </trkpt>
      <trkpt lat="45.43926" lon="5.54127">
        <ele>722</ele>
        <time>2011-03-27T10:11:29Z</time>
      </trkpt>
      <trkpt lat="45.43918" lon="5.54125">
        <ele>723</ele>
        <time>2011-03-27T10:11:36Z</time>
      </trkpt>
      <trkpt lat="45.4392" lon="5.54137">
        <ele>722.9</ele>
        <time>2011-03-27T10:11:55Z</time>
      </trkpt>
      <trkpt lat="45.43921" lon="5.5414">
        <ele>723.2</ele>
        <time>2011-03-27T10:11:56Z</time>
      </trkpt>
      <trkpt lat="45.43923" lon="5.54162">
        <ele>724</ele>
        <time>2011-03-27T10:12:03Z</time>
      </trkpt>
      <trkpt lat="45.43923" lon="5.54175">
        <ele>723.5</ele>
        <time>2011-03-27T10:12:07Z</time>
      </trkpt>
      <trkpt lat="45.43923" lon="5.54184">
        <ele>725.9</ele>
        <time>2011-03-27T10:12:10Z</time>
      </trkpt>
      <trkpt lat="45.43922" lon="5.54195">
        <ele>725.8</ele>
        <time>2011-03-27T10:12:13Z</time>
      </trkpt>
      <trkpt lat="45.43922" lon="5.54205">
        <ele>726.5</ele>
        <time>2011-03-27T10:12:16Z</time>
      </trkpt>
      <trkpt lat="45.43921" lon="5.54217">
        <ele>726.8</ele>
        <time>2011-03-27T10:12:19Z</time>
      </trkpt>
      <trkpt lat="45.43921" lon="5.54226">
        <ele>726.7</ele>
        <time>2011-03-27T10:12:21Z</time>
      </trkpt>
      <trkpt lat="45.4392" lon="5.54238">
        <ele>726.7</ele>
        <time>2011-03-27T10:12:24Z</time>
      </trkpt>
      <trkpt lat="45.4392" lon="5.5425">
        <ele>727.2</ele>
        <time>2011-03-27T10:12:27Z</time>
      </trkpt>
      <trkpt lat="45.43921" lon="5.54263">
        <ele>728</ele>
        <time>2011-03-27T10:12:30Z</time>
      </trkpt>
      <trkpt lat="45.43921" lon="5.54271">
        <ele>728.5</ele>
        <time>2011-03-27T10:12:32Z</time>
      </trkpt>
      <trkpt lat="45.43923" lon="5.54284">
        <ele>728.5</ele>
        <time>2011-03-27T10:12:35Z</time>
      </trkpt>
      <trkpt lat="45.43923" lon="5.54293">
        <ele>728.3</ele>
        <time>2011-03-27T10:12:37Z</time>
      </trkpt>
      <trkpt lat="45.43923" lon="5.54302">
        <ele>728.2</ele>
        <time>2011-03-27T10:12:39Z</time>
      </trkpt>
      <trkpt lat="45.43923" lon="5.54311">
        <ele>729.2</ele>
        <time>2011-03-27T10:12:41Z</time>
      </trkpt>
      <trkpt lat="45.43924" lon="5.54319">
        <ele>729.5</ele>
        <time>2011-03-27T10:12:43Z</time>
      </trkpt>
      <trkpt lat="45.43925" lon="5.54328">
        <ele>729.6</ele>
        <time>2011-03-27T10:12:45Z</time>
      </trkpt>
      <trkpt lat="45.43927" lon="5.54338">
        <ele>729.4</ele>
        <time>2011-03-27T10:12:47Z</time>
      </trkpt>
      <trkpt lat="45.43929" lon="5.54347">
        <ele>729.2</ele>
        <time>2011-03-27T10:12:49Z</time>
      </trkpt>
      <trkpt lat="45.4393" lon="5.54357">
        <ele>729.1</ele>
        <time>2011-03-27T10:12:51Z</time>
      </trkpt>
      <trkpt lat="45.43932" lon="5.54369">
        <ele>729.5</ele>
        <time>2011-03-27T10:12:53Z</time>
      </trkpt>
      <trkpt lat="45.43933" lon="5.54375">
        <ele>729.9</ele>
        <time>2011-03-27T10:12:54Z</time>
      </trkpt>
      <trkpt lat="45.43934" lon="5.54382">
        <ele>730.2</ele>
        <time>2011-03-27T10:12:55Z</time>
      </trkpt>
      <trkpt lat="45.43935" lon="5.5439">
        <ele>729.6</ele>
        <time>2011-03-27T10:12:56Z</time>
      </trkpt>
      <trkpt lat="45.43936" lon="5.54397">
        <ele>729.1</ele>
        <time>2011-03-27T10:12:57Z</time>
      </trkpt>
      <trkpt lat="45.43936" lon="5.54405">
        <ele>728.7</ele>
        <time>2011-03-27T10:12:58Z</time>
      </trkpt>
      <trkpt lat="45.43936" lon="5.54414">
        <ele>727.6</ele>
        <time>2011-03-27T10:12:59Z</time>
      </trkpt>
      <trkpt lat="45.43936" lon="5.54422">
        <ele>726.8</ele>
        <time>2011-03-27T10:13:00Z</time>
      </trkpt>
      <trkpt lat="45.43935" lon="5.54431">
        <ele>726.2</ele>
        <time>2011-03-27T10:13:01Z</time>
      </trkpt>
      <trkpt lat="45.43935" lon="5.5444">
        <ele>725.3</ele>
        <time>2011-03-27T10:13:02Z</time>
      </trkpt>
      <trkpt lat="45.43935" lon="5.5445">
        <ele>724.7</ele>
        <time>2011-03-27T10:13:03Z</time>
      </trkpt>
      <trkpt lat="45.43935" lon="5.54459">
        <ele>724.2</ele>
        <time>2011-03-27T10:13:04Z</time>
      </trkpt>
      <trkpt lat="45.43936" lon="5.54469">
        <ele>723.9</ele>
        <time>2011-03-27T10:13:05Z</time>
      </trkpt>
      <trkpt lat="45.43937" lon="5.54479">
        <ele>723.4</ele>
        <time>2011-03-27T10:13:06Z</time>
      </trkpt>
      <trkpt lat="45.43937" lon="5.5449">
        <ele>723</ele>
        <time>2011-03-27T10:13:07Z</time>
      </trkpt>
      <trkpt lat="45.43937" lon="5.54501">
        <ele>722.7</ele>
        <time>2011-03-27T10:13:08Z</time>
      </trkpt>
      <trkpt lat="45.43937" lon="5.54513">
        <ele>721.4</ele>
        <time>2011-03-27T10:13:09Z</time>
      </trkpt>
      <trkpt lat="45.43936" lon="5.54525">
        <ele>720.4</ele>
        <time>2011-03-27T10:13:10Z</time>
      </trkpt>
      <trkpt lat="45.43935" lon="5.54537">
        <ele>719.7</ele>
        <time>2011-03-27T10:13:11Z</time>
      </trkpt>
      <trkpt lat="45.43934" lon="5.54548">
        <ele>718.1</ele>
        <time>2011-03-27T10:13:12Z</time>
      </trkpt>
      <trkpt lat="45.43933" lon="5.54558">
        <ele>717</ele>
        <time>2011-03-27T10:13:13Z</time>
      </trkpt>
      <trkpt lat="45.43932" lon="5.54569">
        <ele>716.1</ele>
        <time>2011-03-27T10:13:14Z</time>
      </trkpt>
      <trkpt lat="45.43933" lon="5.54582">
        <ele>715</ele>
        <time>2011-03-27T10:13:15Z</time>
      </trkpt>
      <trkpt lat="45.43934" lon="5.54596">
        <ele>714.2</ele>
        <time>2011-03-27T10:13:16Z</time>
      </trkpt>
      <trkpt lat="45.43937" lon="5.54609">
        <ele>713.6</ele>
        <time>2011-03-27T10:13:17Z</time>
      </trkpt>
      <trkpt lat="45.43939" lon="5.54623">
        <ele>711.5</ele>
        <time>2011-03-27T10:13:18Z</time>
      </trkpt>
      <trkpt lat="45.4394" lon="5.54637">
        <ele>709.9</ele>
        <time>2011-03-27T10:13:19Z</time>
      </trkpt>
      <trkpt lat="45.43941" lon="5.54652">
        <ele>708.7</ele>
        <time>2011-03-27T10:13:20Z</time>
      </trkpt>
      <trkpt lat="45.43943" lon="5.54667">
        <ele>707.1</ele>
        <time>2011-03-27T10:13:21Z</time>
      </trkpt>
      <trkpt lat="45.43944" lon="5.54682">
        <ele>706</ele>
        <time>2011-03-27T10:13:22Z</time>
      </trkpt>
      <trkpt lat="45.43944" lon="5.54697">
        <ele>705.1</ele>
        <time>2011-03-27T10:13:23Z</time>
      </trkpt>
      <trkpt lat="45.43944" lon="5.54712">
        <ele>704.4</ele>
        <time>2011-03-27T10:13:24Z</time>
      </trkpt>
      <trkpt lat="45.43944" lon="5.54726">
        <ele>703.5</ele>
        <time>2011-03-27T10:13:25Z</time>
      </trkpt>
      <trkpt lat="45.43944" lon="5.54741">
        <ele>702.9</ele>
        <time>2011-03-27T10:13:26Z</time>
      </trkpt>
      <trkpt lat="45.43944" lon="5.54755">
        <ele>702.4</ele>
        <time>2011-03-27T10:13:27Z</time>
      </trkpt>
      <trkpt lat="45.43944" lon="5.54769">
        <ele>701.4</ele>
        <time>2011-03-27T10:13:28Z</time>
      </trkpt>
      <trkpt lat="45.43945" lon="5.54783">
        <ele>700.7</ele>
        <time>2011-03-27T10:13:29Z</time>
      </trkpt>
      <trkpt lat="45.43945" lon="5.54797">
        <ele>700.2</ele>
        <time>2011-03-27T10:13:30Z</time>
      </trkpt>
      <trkpt lat="45.43946" lon="5.54811">
        <ele>699.3</ele>
        <time>2011-03-27T10:13:31Z</time>
      </trkpt>
      <trkpt lat="45.43947" lon="5.54824">
        <ele>698.6</ele>
        <time>2011-03-27T10:13:32Z</time>
      </trkpt>
      <trkpt lat="45.43949" lon="5.54836">
        <ele>698.1</ele>
        <time>2011-03-27T10:13:33Z</time>
      </trkpt>
      <trkpt lat="45.43951" lon="5.54844">
        <ele>697.1</ele>
        <time>2011-03-27T10:13:34Z</time>
      </trkpt>
      <trkpt lat="45.43954" lon="5.54856">
        <ele>695.8</ele>
        <time>2011-03-27T10:13:36Z</time>
      </trkpt>
      <trkpt lat="45.43959" lon="5.54866">
        <ele>694.4</ele>
        <time>2011-03-27T10:13:38Z</time>
      </trkpt>
      <trkpt lat="45.43963" lon="5.54871">
        <ele>693.9</ele>
        <time>2011-03-27T10:13:39Z</time>
      </trkpt>
      <trkpt lat="45.43968" lon="5.54878">
        <ele>693.5</ele>
        <time>2011-03-27T10:13:40Z</time>
      </trkpt>
      <trkpt lat="45.43972" lon="5.54886">
        <ele>692.7</ele>
        <time>2011-03-27T10:13:41Z</time>
      </trkpt>
      <trkpt lat="45.43976" lon="5.54895">
        <ele>692.2</ele>
        <time>2011-03-27T10:13:42Z</time>
      </trkpt>
      <trkpt lat="45.43981" lon="5.54904">
        <ele>691.7</ele>
        <time>2011-03-27T10:13:43Z</time>
      </trkpt>
      <trkpt lat="45.43985" lon="5.54914">
        <ele>690.4</ele>
        <time>2011-03-27T10:13:44Z</time>
      </trkpt>
      <trkpt lat="45.4399" lon="5.54924">
        <ele>689.4</ele>
        <time>2011-03-27T10:13:45Z</time>
      </trkpt>
      <trkpt lat="45.43995" lon="5.54934">
        <ele>688.6</ele>
        <time>2011-03-27T10:13:46Z</time>
      </trkpt>
      <trkpt lat="45.44001" lon="5.54943">
        <ele>686.5</ele>
        <time>2011-03-27T10:13:47Z</time>
      </trkpt>
      <trkpt lat="45.44009" lon="5.54949">
        <ele>685</ele>
        <time>2011-03-27T10:13:48Z</time>
      </trkpt>
      <trkpt lat="45.44016" lon="5.54954">
        <ele>683.8</ele>
        <time>2011-03-27T10:13:49Z</time>
      </trkpt>
      <trkpt lat="45.44022" lon="5.54958">
        <ele>681.8</ele>
        <time>2011-03-27T10:13:50Z</time>
      </trkpt>
      <trkpt lat="45.44029" lon="5.54962">
        <ele>680.4</ele>
        <time>2011-03-27T10:13:51Z</time>
      </trkpt>
      <trkpt lat="45.44036" lon="5.54966">
        <ele>679.2</ele>
        <time>2011-03-27T10:13:52Z</time>
      </trkpt>
      <trkpt lat="45.44045" lon="5.5497">
        <ele>677.3</ele>
        <time>2011-03-27T10:13:53Z</time>
      </trkpt>
      <trkpt lat="45.44053" lon="5.54975">
        <ele>675.8</ele>
        <time>2011-03-27T10:13:54Z</time>
      </trkpt>
      <trkpt lat="45.44063" lon="5.54981">
        <ele>674.6</ele>
        <time>2011-03-27T10:13:55Z</time>
      </trkpt>
      <trkpt lat="45.44072" lon="5.54988">
        <ele>672.4</ele>
        <time>2011-03-27T10:13:56Z</time>
      </trkpt>
      <trkpt lat="45.44082" lon="5.54996">
        <ele>670.7</ele>
        <time>2011-03-27T10:13:57Z</time>
      </trkpt>
      <trkpt lat="45.44092" lon="5.55004">
        <ele>669.4</ele>
        <time>2011-03-27T10:13:58Z</time>
      </trkpt>
      <trkpt lat="45.44102" lon="5.55013">
        <ele>668.5</ele>
        <time>2011-03-27T10:13:59Z</time>
      </trkpt>
      <trkpt lat="45.44112" lon="5.55021">
        <ele>665.9</ele>
        <time>2011-03-27T10:14:00Z</time>
      </trkpt>
      <trkpt lat="45.44123" lon="5.5503">
        <ele>664</ele>
        <time>2011-03-27T10:14:01Z</time>
      </trkpt>
      <trkpt lat="45.44132" lon="5.55039">
        <ele>662.6</ele>
        <time>2011-03-27T10:14:02Z</time>
      </trkpt>
      <trkpt lat="45.44141" lon="5.55049">
        <ele>660.1</ele>
        <time>2011-03-27T10:14:03Z</time>
      </trkpt>
      <trkpt lat="45.44149" lon="5.5506">
        <ele>658.3</ele>
        <time>2011-03-27T10:14:04Z</time>
      </trkpt>
      <trkpt lat="45.44157" lon="5.55071">
        <ele>656.9</ele>
        <time>2011-03-27T10:14:05Z</time>
      </trkpt>
      <trkpt lat="45.44166" lon="5.55082">
        <ele>654.9</ele>
        <time>2011-03-27T10:14:06Z</time>
      </trkpt>
      <trkpt lat="45.44173" lon="5.55094">
        <ele>653.3</ele>
        <time>2011-03-27T10:14:07Z</time>
      </trkpt>
      <trkpt lat="45.44181" lon="5.55105">
        <ele>652.2</ele>
        <time>2011-03-27T10:14:08Z</time>
      </trkpt>
      <trkpt lat="45.44187" lon="5.55115">
        <ele>650.2</ele>
        <time>2011-03-27T10:14:09Z</time>
      </trkpt>
      <trkpt lat="45.44192" lon="5.55123">
        <ele>648.7</ele>
        <time>2011-03-27T10:14:10Z</time>
      </trkpt>
      <trkpt lat="45.44196" lon="5.5513">
        <ele>647.6</ele>
        <time>2011-03-27T10:14:11Z</time>
      </trkpt>
      <trkpt lat="45.44204" lon="5.55132">
        <ele>645.7</ele>
        <time>2011-03-27T10:14:17Z</time>
      </trkpt>
      <trkpt lat="45.44212" lon="5.55125">
        <ele>643.6</ele>
        <time>2011-03-27T10:14:26Z</time>
      </trkpt>
      <trkpt lat="45.44217" lon="5.55121">
        <ele>643.3</ele>
        <time>2011-03-27T10:14:28Z</time>
      </trkpt>
      <trkpt lat="45.4422" lon="5.55119">
        <ele>643.1</ele>
        <time>2011-03-27T10:14:29Z</time>
      </trkpt>
      <trkpt lat="45.44225" lon="5.55115">
        <ele>642.9</ele>
        <time>2011-03-27T10:14:30Z</time>
      </trkpt>
      <trkpt lat="45.44229" lon="5.55111">
        <ele>642</ele>
        <time>2011-03-27T10:14:31Z</time>
      </trkpt>
      <trkpt lat="45.44235" lon="5.55106">
        <ele>641.4</ele>
        <time>2011-03-27T10:14:32Z</time>
      </trkpt>
      <trkpt lat="45.44241" lon="5.55102">
        <ele>640.8</ele>
        <time>2011-03-27T10:14:33Z</time>
      </trkpt>
      <trkpt lat="45.44247" lon="5.55097">
        <ele>639.8</ele>
        <time>2011-03-27T10:14:34Z</time>
      </trkpt>
      <trkpt lat="45.44254" lon="5.55091">
        <ele>639</ele>
        <time>2011-03-27T10:14:35Z</time>
      </trkpt>
      <trkpt lat="45.44261" lon="5.55086">
        <ele>638.4</ele>
        <time>2011-03-27T10:14:36Z</time>
      </trkpt>
      <trkpt lat="45.44268" lon="5.55082">
        <ele>638</ele>
        <time>2011-03-27T10:14:37Z</time>
      </trkpt>
      <trkpt lat="45.44275" lon="5.55077">
        <ele>637.2</ele>
        <time>2011-03-27T10:14:38Z</time>
      </trkpt>
      <trkpt lat="45.44283" lon="5.55075">
        <ele>636.6</ele>
        <time>2011-03-27T10:14:39Z</time>
      </trkpt>
      <trkpt lat="45.4429" lon="5.55073">
        <ele>636.2</ele>
        <time>2011-03-27T10:14:40Z</time>
      </trkpt>
      <trkpt lat="45.44296" lon="5.55071">
        <ele>635.4</ele>
        <time>2011-03-27T10:14:41Z</time>
      </trkpt>
      <trkpt lat="45.44302" lon="5.5507">
        <ele>634.7</ele>
        <time>2011-03-27T10:14:42Z</time>
      </trkpt>
      <trkpt lat="45.44307" lon="5.55069">
        <ele>634.3</ele>
        <time>2011-03-27T10:14:43Z</time>
      </trkpt>
      <trkpt lat="45.44316" lon="5.55066">
        <ele>635.5</ele>
        <time>2011-03-27T10:14:45Z</time>
      </trkpt>
      <trkpt lat="45.44322" lon="5.5506">
        <ele>636.2</ele>
        <time>2011-03-27T10:14:47Z</time>
      </trkpt>
      <trkpt lat="45.44327" lon="5.55053">
        <ele>636.7</ele>
        <time>2011-03-27T10:14:49Z</time>
      </trkpt>
      <trkpt lat="45.44331" lon="5.55045">
        <ele>638.2</ele>
        <time>2011-03-27T10:14:51Z</time>
      </trkpt>
      <trkpt lat="45.44336" lon="5.55038">
        <ele>639</ele>
        <time>2011-03-27T10:14:53Z</time>
      </trkpt>
      <trkpt lat="45.44341" lon="5.5503">
        <ele>639.4</ele>
        <time>2011-03-27T10:14:55Z</time>
      </trkpt>
      <trkpt lat="45.44346" lon="5.55023">
        <ele>639.5</ele>
        <time>2011-03-27T10:14:57Z</time>
      </trkpt>
      <trkpt lat="45.44352" lon="5.55016">
        <ele>639.5</ele>
        <time>2011-03-27T10:14:59Z</time>
      </trkpt>
      <trkpt lat="45.44356" lon="5.55013">
        <ele>639.5</ele>
        <time>2011-03-27T10:15:00Z</time>
      </trkpt>
      <trkpt lat="45.44365" lon="5.55009">
        <ele>639.4</ele>
        <time>2011-03-27T10:15:02Z</time>
      </trkpt>
      <trkpt lat="45.44369" lon="5.55008">
        <ele>639.2</ele>
        <time>2011-03-27T10:15:03Z</time>
      </trkpt>
      <trkpt lat="45.44378" lon="5.5501">
        <ele>638.9</ele>
        <time>2011-03-27T10:15:05Z</time>
      </trkpt>
      <trkpt lat="45.44386" lon="5.55014">
        <ele>638.5</ele>
        <time>2011-03-27T10:15:07Z</time>
      </trkpt>
      <trkpt lat="45.4439" lon="5.55017">
        <ele>638.4</ele>
        <time>2011-03-27T10:15:08Z</time>
      </trkpt>
      <trkpt lat="45.44394" lon="5.5502">
        <ele>638.5</ele>
        <time>2011-03-27T10:15:09Z</time>
      </trkpt>
      <trkpt lat="45.44399" lon="5.55023">
        <ele>638.6</ele>
        <time>2011-03-27T10:15:10Z</time>
      </trkpt>
      <trkpt lat="45.44403" lon="5.55028">
        <ele>638.7</ele>
        <time>2011-03-27T10:15:11Z</time>
      </trkpt>
      <trkpt lat="45.44407" lon="5.55033">
        <ele>638.8</ele>
        <time>2011-03-27T10:15:12Z</time>
      </trkpt>
      <trkpt lat="45.44411" lon="5.55038">
        <ele>638.2</ele>
        <time>2011-03-27T10:15:13Z</time>
      </trkpt>
      <trkpt lat="45.44416" lon="5.55044">
        <ele>637.8</ele>
        <time>2011-03-27T10:15:14Z</time>
      </trkpt>
      <trkpt lat="45.4442" lon="5.5505">
        <ele>637.5</ele>
        <time>2011-03-27T10:15:15Z</time>
      </trkpt>
      <trkpt lat="45.44424" lon="5.55056">
        <ele>637.2</ele>
        <time>2011-03-27T10:15:16Z</time>
      </trkpt>
      <trkpt lat="45.44428" lon="5.55062">
        <ele>636.9</ele>
        <time>2011-03-27T10:15:17Z</time>
      </trkpt>
      <trkpt lat="45.44433" lon="5.55067">
        <ele>636.7</ele>
        <time>2011-03-27T10:15:18Z</time>
      </trkpt>
      <trkpt lat="45.44437" lon="5.55073">
        <ele>636.9</ele>
        <time>2011-03-27T10:15:19Z</time>
      </trkpt>
      <trkpt lat="45.44441" lon="5.5508">
        <ele>637</ele>
        <time>2011-03-27T10:15:20Z</time>
      </trkpt>
      <trkpt lat="45.44445" lon="5.55086">
        <ele>637</ele>
        <time>2011-03-27T10:15:21Z</time>
      </trkpt>
      <trkpt lat="45.44449" lon="5.55093">
        <ele>636.8</ele>
        <time>2011-03-27T10:15:22Z</time>
      </trkpt>
      <trkpt lat="45.44452" lon="5.551">
        <ele>636.6</ele>
        <time>2011-03-27T10:15:23Z</time>
      </trkpt>
      <trkpt lat="45.44456" lon="5.55108">
        <ele>636.5</ele>
        <time>2011-03-27T10:15:24Z</time>
      </trkpt>
      <trkpt lat="45.44459" lon="5.55115">
        <ele>635.9</ele>
        <time>2011-03-27T10:15:25Z</time>
      </trkpt>
      <trkpt lat="45.44463" lon="5.55123">
        <ele>635.4</ele>
        <time>2011-03-27T10:15:26Z</time>
      </trkpt>
      <trkpt lat="45.44466" lon="5.55132">
        <ele>635.1</ele>
        <time>2011-03-27T10:15:27Z</time>
      </trkpt>
      <trkpt lat="45.44469" lon="5.5514">
        <ele>634.1</ele>
        <time>2011-03-27T10:15:28Z</time>
      </trkpt>
      <trkpt lat="45.44473" lon="5.55149">
        <ele>633.3</ele>
        <time>2011-03-27T10:15:29Z</time>
      </trkpt>
      <trkpt lat="45.44477" lon="5.55157">
        <ele>632.8</ele>
        <time>2011-03-27T10:15:30Z</time>
      </trkpt>
      <trkpt lat="45.4448" lon="5.55166">
        <ele>632.3</ele>
        <time>2011-03-27T10:15:31Z</time>
      </trkpt>
      <trkpt lat="45.44485" lon="5.55175">
        <ele>632.1</ele>
        <time>2011-03-27T10:15:32Z</time>
      </trkpt>
      <trkpt lat="45.44491" lon="5.55185">
        <ele>631.9</ele>
        <time>2011-03-27T10:15:33Z</time>
      </trkpt>
      <trkpt lat="45.44497" lon="5.55193">
        <ele>631.8</ele>
        <time>2011-03-27T10:15:34Z</time>
      </trkpt>
      <trkpt lat="45.44505" lon="5.55202">
        <ele>630.6</ele>
        <time>2011-03-27T10:15:35Z</time>
      </trkpt>
      <trkpt lat="45.44513" lon="5.55209">
        <ele>629.8</ele>
        <time>2011-03-27T10:15:36Z</time>
      </trkpt>
      <trkpt lat="45.44522" lon="5.55213">
        <ele>629.1</ele>
        <time>2011-03-27T10:15:37Z</time>
      </trkpt>
      <trkpt lat="45.44532" lon="5.55216">
        <ele>627.9</ele>
        <time>2011-03-27T10:15:38Z</time>
      </trkpt>
      <trkpt lat="45.44542" lon="5.55216">
        <ele>626.9</ele>
        <time>2011-03-27T10:15:39Z</time>
      </trkpt>
      <trkpt lat="45.44552" lon="5.55213">
        <ele>626.3</ele>
        <time>2011-03-27T10:15:40Z</time>
      </trkpt>
      <trkpt lat="45.44561" lon="5.55207">
        <ele>625</ele>
        <time>2011-03-27T10:15:41Z</time>
      </trkpt>
      <trkpt lat="45.44571" lon="5.55201">
        <ele>624</ele>
        <time>2011-03-27T10:15:42Z</time>
      </trkpt>
      <trkpt lat="45.44579" lon="5.55194">
        <ele>623.3</ele>
        <time>2011-03-27T10:15:43Z</time>
      </trkpt>
      <trkpt lat="45.44587" lon="5.55185">
        <ele>622</ele>
        <time>2011-03-27T10:15:44Z</time>
      </trkpt>
      <trkpt lat="45.44595" lon="5.55175">
        <ele>621.1</ele>
        <time>2011-03-27T10:15:45Z</time>
      </trkpt>
      <trkpt lat="45.44604" lon="5.55166">
        <ele>620.4</ele>
        <time>2011-03-27T10:15:46Z</time>
      </trkpt>
      <trkpt lat="45.44612" lon="5.55156">
        <ele>618.9</ele>
        <time>2011-03-27T10:15:47Z</time>
      </trkpt>
      <trkpt lat="45.44621" lon="5.55148">
        <ele>617.7</ele>
        <time>2011-03-27T10:15:48Z</time>
      </trkpt>
      <trkpt lat="45.44632" lon="5.55144">
        <ele>616.9</ele>
        <time>2011-03-27T10:15:49Z</time>
      </trkpt>
      <trkpt lat="45.44642" lon="5.55143">
        <ele>616.2</ele>
        <time>2011-03-27T10:15:50Z</time>
      </trkpt>
      <trkpt lat="45.44653" lon="5.55145">
        <ele>615.4</ele>
        <time>2011-03-27T10:15:51Z</time>
      </trkpt>
      <trkpt lat="45.44663" lon="5.55145">
        <ele>614.7</ele>
        <time>2011-03-27T10:15:52Z</time>
      </trkpt>
      <trkpt lat="45.44672" lon="5.5514">
        <ele>614.2</ele>
        <time>2011-03-27T10:15:53Z</time>
      </trkpt>
      <trkpt lat="45.4468" lon="5.55133">
        <ele>613.9</ele>
        <time>2011-03-27T10:15:54Z</time>
      </trkpt>
      <trkpt lat="45.44688" lon="5.55124">
        <ele>613.6</ele>
        <time>2011-03-27T10:15:55Z</time>
      </trkpt>
      <trkpt lat="45.44697" lon="5.55117">
        <ele>613.4</ele>
        <time>2011-03-27T10:15:56Z</time>
      </trkpt>
      <trkpt lat="45.44706" lon="5.55111">
        <ele>612.3</ele>
        <time>2011-03-27T10:15:57Z</time>
      </trkpt>
      <trkpt lat="45.44716" lon="5.55108">
        <ele>611.5</ele>
        <time>2011-03-27T10:15:58Z</time>
      </trkpt>
      <trkpt lat="45.44726" lon="5.55103">
        <ele>611</ele>
        <time>2011-03-27T10:15:59Z</time>
      </trkpt>
      <trkpt lat="45.44735" lon="5.55096">
        <ele>609.5</ele>
        <time>2011-03-27T10:16:00Z</time>
      </trkpt>
      <trkpt lat="45.44744" lon="5.55085">
        <ele>608.4</ele>
        <time>2011-03-27T10:16:01Z</time>
      </trkpt>
      <trkpt lat="45.44751" lon="5.55073">
        <ele>607.6</ele>
        <time>2011-03-27T10:16:02Z</time>
      </trkpt>
      <trkpt lat="45.4476" lon="5.5506">
        <ele>605.6</ele>
        <time>2011-03-27T10:16:03Z</time>
      </trkpt>
      <trkpt lat="45.44769" lon="5.55049">
        <ele>604.1</ele>
        <time>2011-03-27T10:16:04Z</time>
      </trkpt>
      <trkpt lat="45.44779" lon="5.55039">
        <ele>603</ele>
        <time>2011-03-27T10:16:05Z</time>
      </trkpt>
      <trkpt lat="45.44789" lon="5.55029">
        <ele>602.2</ele>
        <time>2011-03-27T10:16:06Z</time>
      </trkpt>
      <trkpt lat="45.44799" lon="5.5502">
        <ele>600.6</ele>
        <time>2011-03-27T10:16:07Z</time>
      </trkpt>
      <trkpt lat="45.44809" lon="5.55013">
        <ele>599.3</ele>
        <time>2011-03-27T10:16:08Z</time>
      </trkpt>
      <trkpt lat="45.44819" lon="5.55009">
        <ele>598.4</ele>
        <time>2011-03-27T10:16:09Z</time>
      </trkpt>
      <trkpt lat="45.4483" lon="5.55007">
        <ele>597.2</ele>
        <time>2011-03-27T10:16:10Z</time>
      </trkpt>
      <trkpt lat="45.44841" lon="5.55008">
        <ele>596.3</ele>
        <time>2011-03-27T10:16:11Z</time>
      </trkpt>
      <trkpt lat="45.44851" lon="5.55009">
        <ele>595.6</ele>
        <time>2011-03-27T10:16:12Z</time>
      </trkpt>
      <trkpt lat="45.44861" lon="5.55012">
        <ele>594.9</ele>
        <time>2011-03-27T10:16:13Z</time>
      </trkpt>
      <trkpt lat="45.4487" lon="5.55014">
        <ele>594.4</ele>
        <time>2011-03-27T10:16:14Z</time>
      </trkpt>
      <trkpt lat="45.44878" lon="5.55017">
        <ele>594</ele>
        <time>2011-03-27T10:16:15Z</time>
      </trkpt>
      <trkpt lat="45.44885" lon="5.5502">
        <ele>594</ele>
        <time>2011-03-27T10:16:16Z</time>
      </trkpt>
      <trkpt lat="45.44893" lon="5.55022">
        <ele>594</ele>
        <time>2011-03-27T10:16:17Z</time>
      </trkpt>
      <trkpt lat="45.44898" lon="5.55024">
        <ele>594</ele>
        <time>2011-03-27T10:16:18Z</time>
      </trkpt>
      <trkpt lat="45.44903" lon="5.55026">
        <ele>594.3</ele>
        <time>2011-03-27T10:16:19Z</time>
      </trkpt>
      <trkpt lat="45.44911" lon="5.5503">
        <ele>594.7</ele>
        <time>2011-03-27T10:16:21Z</time>
      </trkpt>
      <trkpt lat="45.4491" lon="5.55042">
        <ele>595.5</ele>
        <time>2011-03-27T10:16:26Z</time>
      </trkpt>
      <trkpt lat="45.44919" lon="5.55044">
        <ele>594.9</ele>
        <time>2011-03-27T10:16:36Z</time>
      </trkpt>
      <trkpt lat="45.44918" lon="5.55056">
        <ele>595.8</ele>
        <time>2011-03-27T10:16:40Z</time>
      </trkpt>
      <trkpt lat="45.44915" lon="5.55068">
        <ele>597.2</ele>
        <time>2011-03-27T10:16:43Z</time>
      </trkpt>
      <trkpt lat="45.44913" lon="5.55077">
        <ele>597.1</ele>
        <time>2011-03-27T10:16:45Z</time>
      </trkpt>
      <trkpt lat="45.44911" lon="5.55086">
        <ele>596.5</ele>
        <time>2011-03-27T10:16:47Z</time>
      </trkpt>
      <trkpt lat="45.4491" lon="5.55096">
        <ele>596.7</ele>
        <time>2011-03-27T10:16:49Z</time>
      </trkpt>
      <trkpt lat="45.44908" lon="5.55104">
        <ele>597.1</ele>
        <time>2011-03-27T10:16:51Z</time>
      </trkpt>
      <trkpt lat="45.44906" lon="5.55113">
        <ele>597.4</ele>
        <time>2011-03-27T10:16:53Z</time>
      </trkpt>
      <trkpt lat="45.44904" lon="5.55123">
        <ele>598</ele>
        <time>2011-03-27T10:16:55Z</time>
      </trkpt>
      <trkpt lat="45.44901" lon="5.55134">
        <ele>598.6</ele>
        <time>2011-03-27T10:16:57Z</time>
      </trkpt>
      <trkpt lat="45.44898" lon="5.55144">
        <ele>599.1</ele>
        <time>2011-03-27T10:16:59Z</time>
      </trkpt>
      <trkpt lat="45.44895" lon="5.55155">
        <ele>598.8</ele>
        <time>2011-03-27T10:17:01Z</time>
      </trkpt>
      <trkpt lat="45.44893" lon="5.5516">
        <ele>598.7</ele>
        <time>2011-03-27T10:17:02Z</time>
      </trkpt>
      <trkpt lat="45.44888" lon="5.55174">
        <ele>598.5</ele>
        <time>2011-03-27T10:17:05Z</time>
      </trkpt>
      <trkpt lat="45.44885" lon="5.55183">
        <ele>598.5</ele>
        <time>2011-03-27T10:17:07Z</time>
      </trkpt>
      <trkpt lat="45.44883" lon="5.55192">
        <ele>598.6</ele>
        <time>2011-03-27T10:17:09Z</time>
      </trkpt>
      <trkpt lat="45.44883" lon="5.55203">
        <ele>599.6</ele>
        <time>2011-03-27T10:17:11Z</time>
      </trkpt>
      <trkpt lat="45.44885" lon="5.55213">
        <ele>599.8</ele>
        <time>2011-03-27T10:17:13Z</time>
      </trkpt>
      <trkpt lat="45.4489" lon="5.55222">
        <ele>599.6</ele>
        <time>2011-03-27T10:17:15Z</time>
      </trkpt>
      <trkpt lat="45.44894" lon="5.55232">
        <ele>599.7</ele>
        <time>2011-03-27T10:17:17Z</time>
      </trkpt>
      <trkpt lat="45.449" lon="5.5524">
        <ele>600</ele>
        <time>2011-03-27T10:17:19Z</time>
      </trkpt>
      <trkpt lat="45.44905" lon="5.55249">
        <ele>600.3</ele>
        <time>2011-03-27T10:17:21Z</time>
      </trkpt>
      <trkpt lat="45.44909" lon="5.55257">
        <ele>600.7</ele>
        <time>2011-03-27T10:17:23Z</time>
      </trkpt>
      <trkpt lat="45.44913" lon="5.55265">
        <ele>601</ele>
        <time>2011-03-27T10:17:25Z</time>
      </trkpt>
      <trkpt lat="45.44917" lon="5.55276">
        <ele>601.5</ele>
        <time>2011-03-27T10:17:28Z</time>
      </trkpt>
      <trkpt lat="45.4492" lon="5.55285">
        <ele>602</ele>
        <time>2011-03-27T10:17:31Z</time>
      </trkpt>
      <trkpt lat="45.44921" lon="5.55295">
        <ele>603.2</ele>
        <time>2011-03-27T10:17:34Z</time>
      </trkpt>
      <trkpt lat="45.44921" lon="5.55304">
        <ele>604.1</ele>
        <time>2011-03-27T10:17:37Z</time>
      </trkpt>
      <trkpt lat="45.44922" lon="5.55314">
        <ele>604.8</ele>
        <time>2011-03-27T10:17:40Z</time>
      </trkpt>
      <trkpt lat="45.44922" lon="5.55324">
        <ele>605.1</ele>
        <time>2011-03-27T10:17:43Z</time>
      </trkpt>
      <trkpt lat="45.44923" lon="5.55334">
        <ele>605.5</ele>
        <time>2011-03-27T10:17:46Z</time>
      </trkpt>
      <trkpt lat="45.44924" lon="5.55344">
        <ele>606.3</ele>
        <time>2011-03-27T10:17:49Z</time>
      </trkpt>
      <trkpt lat="45.44926" lon="5.55354">
        <ele>606.6</ele>
        <time>2011-03-27T10:17:52Z</time>
      </trkpt>
      <trkpt lat="45.44928" lon="5.55364">
        <ele>607.6</ele>
        <time>2011-03-27T10:17:55Z</time>
      </trkpt>
      <trkpt lat="45.44929" lon="5.55375">
        <ele>608.3</ele>
        <time>2011-03-27T10:17:58Z</time>
      </trkpt>
      <trkpt lat="45.44929" lon="5.55381">
        <ele>608.4</ele>
        <time>2011-03-27T10:17:59Z</time>
      </trkpt>
      <trkpt lat="45.44929" lon="5.55388">
        <ele>608.5</ele>
        <time>2011-03-27T10:18:00Z</time>
      </trkpt>
      <trkpt lat="45.44927" lon="5.55397">
        <ele>607.6</ele>
        <time>2011-03-27T10:18:01Z</time>
      </trkpt>
      <trkpt lat="45.44924" lon="5.55405">
        <ele>607</ele>
        <time>2011-03-27T10:18:02Z</time>
      </trkpt>
      <trkpt lat="45.44921" lon="5.55415">
        <ele>606.5</ele>
        <time>2011-03-27T10:18:03Z</time>
      </trkpt>
      <trkpt lat="45.44918" lon="5.55426">
        <ele>605.3</ele>
        <time>2011-03-27T10:18:04Z</time>
      </trkpt>
      <trkpt lat="45.44915" lon="5.55437">
        <ele>604.4</ele>
        <time>2011-03-27T10:18:05Z</time>
      </trkpt>
      <trkpt lat="45.44914" lon="5.55449">
        <ele>603.8</ele>
        <time>2011-03-27T10:18:06Z</time>
      </trkpt>
      <trkpt lat="45.44914" lon="5.55463">
        <ele>602</ele>
        <time>2011-03-27T10:18:07Z</time>
      </trkpt>
      <trkpt lat="45.44918" lon="5.55476">
        <ele>600.8</ele>
        <time>2011-03-27T10:18:08Z</time>
      </trkpt>
      <trkpt lat="45.44923" lon="5.55489">
        <ele>599.8</ele>
        <time>2011-03-27T10:18:09Z</time>
      </trkpt>
      <trkpt lat="45.44928" lon="5.55503">
        <ele>598.3</ele>
        <time>2011-03-27T10:18:10Z</time>
      </trkpt>
      <trkpt lat="45.44933" lon="5.55516">
        <ele>597.2</ele>
        <time>2011-03-27T10:18:11Z</time>
      </trkpt>
      <trkpt lat="45.44937" lon="5.55528">
        <ele>596.4</ele>
        <time>2011-03-27T10:18:12Z</time>
      </trkpt>
      <trkpt lat="45.44939" lon="5.55542">
        <ele>595</ele>
        <time>2011-03-27T10:18:13Z</time>
      </trkpt>
      <trkpt lat="45.4494" lon="5.55556">
        <ele>594</ele>
        <time>2011-03-27T10:18:14Z</time>
      </trkpt>
      <trkpt lat="45.44938" lon="5.55571">
        <ele>593.2</ele>
        <time>2011-03-27T10:18:15Z</time>
      </trkpt>
      <trkpt lat="45.44935" lon="5.55585">
        <ele>592.6</ele>
        <time>2011-03-27T10:18:16Z</time>
      </trkpt>
      <trkpt lat="45.44933" lon="5.556">
        <ele>590.9</ele>
        <time>2011-03-27T10:18:17Z</time>
      </trkpt>
      <trkpt lat="45.44932" lon="5.55613">
        <ele>589.6</ele>
        <time>2011-03-27T10:18:18Z</time>
      </trkpt>
      <trkpt lat="45.44932" lon="5.55624">
        <ele>588.7</ele>
        <time>2011-03-27T10:18:19Z</time>
      </trkpt>
      <trkpt lat="45.44933" lon="5.55634">
        <ele>587.5</ele>
        <time>2011-03-27T10:18:20Z</time>
      </trkpt>
      <trkpt lat="45.44935" lon="5.55644">
        <ele>586.6</ele>
        <time>2011-03-27T10:18:21Z</time>
      </trkpt>
      <trkpt lat="45.44937" lon="5.55652">
        <ele>586</ele>
        <time>2011-03-27T10:18:22Z</time>
      </trkpt>
      <trkpt lat="45.4494" lon="5.55662">
        <ele>585.6</ele>
        <time>2011-03-27T10:18:24Z</time>
      </trkpt>
      <trkpt lat="45.44944" lon="5.55673">
        <ele>586.8</ele>
        <time>2011-03-27T10:18:29Z</time>
      </trkpt>
      <trkpt lat="45.44948" lon="5.55682">
        <ele>587.1</ele>
        <time>2011-03-27T10:18:33Z</time>
      </trkpt>
      <trkpt lat="45.44952" lon="5.55689">
        <ele>587.1</ele>
        <time>2011-03-27T10:18:36Z</time>
      </trkpt>
      <trkpt lat="45.44956" lon="5.55698">
        <ele>587</ele>
        <time>2011-03-27T10:18:39Z</time>
      </trkpt>
      <trkpt lat="45.4496" lon="5.55704">
        <ele>586.9</ele>
        <time>2011-03-27T10:18:41Z</time>
      </trkpt>
      <trkpt lat="45.44965" lon="5.55712">
        <ele>586.2</ele>
        <time>2011-03-27T10:18:43Z</time>
      </trkpt>
      <trkpt lat="45.4497" lon="5.5572">
        <ele>586.2</ele>
        <time>2011-03-27T10:18:45Z</time>
      </trkpt>
      <trkpt lat="45.44975" lon="5.55727">
        <ele>586.4</ele>
        <time>2011-03-27T10:18:47Z</time>
      </trkpt>
      <trkpt lat="45.44979" lon="5.55735">
        <ele>586.5</ele>
        <time>2011-03-27T10:18:49Z</time>
      </trkpt>
      <trkpt lat="45.44984" lon="5.55742">
        <ele>586.6</ele>
        <time>2011-03-27T10:18:51Z</time>
      </trkpt>
      <trkpt lat="45.44989" lon="5.55749">
        <ele>586.7</ele>
        <time>2011-03-27T10:18:53Z</time>
      </trkpt>
      <trkpt lat="45.44993" lon="5.55756">
        <ele>586.9</ele>
        <time>2011-03-27T10:18:55Z</time>
      </trkpt>
      <trkpt lat="45.44997" lon="5.55763">
        <ele>587.2</ele>
        <time>2011-03-27T10:18:57Z</time>
      </trkpt>
      <trkpt lat="45.45002" lon="5.55772">
        <ele>587.1</ele>
        <time>2011-03-27T10:18:59Z</time>
      </trkpt>
      <trkpt lat="45.45006" lon="5.5578">
        <ele>586.9</ele>
        <time>2011-03-27T10:19:01Z</time>
      </trkpt>
      <trkpt lat="45.45009" lon="5.55789">
        <ele>586.7</ele>
        <time>2011-03-27T10:19:03Z</time>
      </trkpt>
      <trkpt lat="45.4501" lon="5.55793">
        <ele>586.4</ele>
        <time>2011-03-27T10:19:04Z</time>
      </trkpt>
      <trkpt lat="45.45017" lon="5.55807">
        <ele>586.5</ele>
        <time>2011-03-27T10:19:08Z</time>
      </trkpt>
      <trkpt lat="45.45021" lon="5.55811">
        <ele>586.6</ele>
        <time>2011-03-27T10:19:09Z</time>
      </trkpt>
      <trkpt lat="45.45026" lon="5.55814">
        <ele>586.7</ele>
        <time>2011-03-27T10:19:10Z</time>
      </trkpt>
      <trkpt lat="45.45031" lon="5.55817">
        <ele>586.2</ele>
        <time>2011-03-27T10:19:11Z</time>
      </trkpt>
      <trkpt lat="45.45037" lon="5.5582">
        <ele>585.7</ele>
        <time>2011-03-27T10:19:12Z</time>
      </trkpt>
      <trkpt lat="45.45041" lon="5.55824">
        <ele>585.4</ele>
        <time>2011-03-27T10:19:13Z</time>
      </trkpt>
      <trkpt lat="45.45046" lon="5.55828">
        <ele>584.1</ele>
        <time>2011-03-27T10:19:14Z</time>
      </trkpt>
      <trkpt lat="45.45051" lon="5.55832">
        <ele>583.2</ele>
        <time>2011-03-27T10:19:15Z</time>
      </trkpt>
      <trkpt lat="45.45055" lon="5.55838">
        <ele>582.4</ele>
        <time>2011-03-27T10:19:16Z</time>
      </trkpt>
      <trkpt lat="45.4506" lon="5.55844">
        <ele>582</ele>
        <time>2011-03-27T10:19:17Z</time>
      </trkpt>
      <trkpt lat="45.45063" lon="5.55849">
        <ele>581.7</ele>
        <time>2011-03-27T10:19:18Z</time>
      </trkpt>
      <trkpt lat="45.45069" lon="5.55858">
        <ele>581.4</ele>
        <time>2011-03-27T10:19:20Z</time>
      </trkpt>
      <trkpt lat="45.45075" lon="5.55863">
        <ele>581.3</ele>
        <time>2011-03-27T10:19:22Z</time>
      </trkpt>
      <trkpt lat="45.45082" lon="5.55868">
        <ele>581.8</ele>
        <time>2011-03-27T10:19:25Z</time>
      </trkpt>
      <trkpt lat="45.45089" lon="5.55875">
        <ele>584.6</ele>
        <time>2011-03-27T10:19:31Z</time>
      </trkpt>
      <trkpt lat="45.45094" lon="5.55882">
        <ele>585.6</ele>
        <time>2011-03-27T10:19:35Z</time>
      </trkpt>
      <trkpt lat="45.451" lon="5.55892">
        <ele>587.3</ele>
        <time>2011-03-27T10:19:40Z</time>
      </trkpt>
      <trkpt lat="45.45106" lon="5.559">
        <ele>587.9</ele>
        <time>2011-03-27T10:19:45Z</time>
      </trkpt>
      <trkpt lat="45.45113" lon="5.55907">
        <ele>589.2</ele>
        <time>2011-03-27T10:19:51Z</time>
      </trkpt>
      <trkpt lat="45.45118" lon="5.55918">
        <ele>590.1</ele>
        <time>2011-03-27T10:19:57Z</time>
      </trkpt>
      <trkpt lat="45.45123" lon="5.55928">
        <ele>591</ele>
        <time>2011-03-27T10:20:04Z</time>
      </trkpt>
      <trkpt lat="45.45123" lon="5.55929">
        <ele>591.6</ele>
        <time>2011-03-27T10:20:05Z</time>
      </trkpt>
      <trkpt lat="45.45136" lon="5.55943">
        <ele>595.1</ele>
        <time>2011-03-27T10:20:20Z</time>
      </trkpt>
      <trkpt lat="45.45144" lon="5.55946">
        <ele>596.1</ele>
        <time>2011-03-27T10:20:27Z</time>
      </trkpt>
      <trkpt lat="45.45151" lon="5.55947">
        <ele>597.2</ele>
        <time>2011-03-27T10:20:34Z</time>
      </trkpt>
      <trkpt lat="45.4516" lon="5.55946">
        <ele>598.4</ele>
        <time>2011-03-27T10:20:41Z</time>
      </trkpt>
      <trkpt lat="45.45168" lon="5.55944">
        <ele>599.8</ele>
        <time>2011-03-27T10:20:47Z</time>
      </trkpt>
      <trkpt lat="45.45176" lon="5.55944">
        <ele>601</ele>
        <time>2011-03-27T10:20:55Z</time>
      </trkpt>
      <trkpt lat="45.45185" lon="5.55941">
        <ele>603.1</ele>
        <time>2011-03-27T10:21:06Z</time>
      </trkpt>
      <trkpt lat="45.45186" lon="5.55941">
        <ele>603.2</ele>
        <time>2011-03-27T10:21:07Z</time>
      </trkpt>
      <trkpt lat="45.45201" lon="5.55934">
        <ele>604.8</ele>
        <time>2011-03-27T10:21:21Z</time>
      </trkpt>
      <trkpt lat="45.45209" lon="5.55933">
        <ele>606.7</ele>
        <time>2011-03-27T10:21:30Z</time>
      </trkpt>
      <trkpt lat="45.45218" lon="5.55936">
        <ele>607.7</ele>
        <time>2011-03-27T10:21:40Z</time>
      </trkpt>
      <trkpt lat="45.45225" lon="5.5594">
        <ele>609.6</ele>
        <time>2011-03-27T10:21:49Z</time>
      </trkpt>
      <trkpt lat="45.45233" lon="5.55946">
        <ele>610.4</ele>
        <time>2011-03-27T10:21:57Z</time>
      </trkpt>
      <trkpt lat="45.45241" lon="5.55953">
        <ele>612.5</ele>
        <time>2011-03-27T10:22:07Z</time>
      </trkpt>
      <trkpt lat="45.45241" lon="5.55953">
        <ele>612.6</ele>
        <time>2011-03-27T10:22:08Z</time>
      </trkpt>
      <trkpt lat="45.45253" lon="5.5597">
        <ele>615.9</ele>
        <time>2011-03-27T10:22:25Z</time>
      </trkpt>
      <trkpt lat="45.45259" lon="5.5598">
        <ele>617.9</ele>
        <time>2011-03-27T10:22:34Z</time>
      </trkpt>
      <trkpt lat="45.45262" lon="5.55992">
        <ele>617.8</ele>
        <time>2011-03-27T10:22:51Z</time>
      </trkpt>
      <trkpt lat="45.45264" lon="5.56003">
        <ele>618.9</ele>
        <time>2011-03-27T10:22:59Z</time>
      </trkpt>
      <trkpt lat="45.45264" lon="5.56015">
        <ele>620.4</ele>
        <time>2011-03-27T10:23:06Z</time>
      </trkpt>
      <trkpt lat="45.45264" lon="5.56026">
        <ele>621.6</ele>
        <time>2011-03-27T10:23:13Z</time>
      </trkpt>
      <trkpt lat="45.45264" lon="5.56029">
        <ele>621.8</ele>
        <time>2011-03-27T10:23:14Z</time>
      </trkpt>
      <trkpt lat="45.45265" lon="5.5605">
        <ele>622.3</ele>
        <time>2011-03-27T10:23:25Z</time>
      </trkpt>
      <trkpt lat="45.45266" lon="5.56061">
        <ele>622.3</ele>
        <time>2011-03-27T10:23:31Z</time>
      </trkpt>
      <trkpt lat="45.45266" lon="5.56073">
        <ele>623.4</ele>
        <time>2011-03-27T10:23:35Z</time>
      </trkpt>
      <trkpt lat="45.45265" lon="5.56086">
        <ele>623.2</ele>
        <time>2011-03-27T10:23:39Z</time>
      </trkpt>
      <trkpt lat="45.45264" lon="5.56096">
        <ele>624</ele>
        <time>2011-03-27T10:23:43Z</time>
      </trkpt>
      <trkpt lat="45.45264" lon="5.56108">
        <ele>624.1</ele>
        <time>2011-03-27T10:23:48Z</time>
      </trkpt>
      <trkpt lat="45.45267" lon="5.56118">
        <ele>624.4</ele>
        <time>2011-03-27T10:23:52Z</time>
      </trkpt>
      <trkpt lat="45.45271" lon="5.56128">
        <ele>625.4</ele>
        <time>2011-03-27T10:23:56Z</time>
      </trkpt>
      <trkpt lat="45.45276" lon="5.56135">
        <ele>626.1</ele>
        <time>2011-03-27T10:24:01Z</time>
      </trkpt>
      <trkpt lat="45.45282" lon="5.56144">
        <ele>626.4</ele>
        <time>2011-03-27T10:24:06Z</time>
      </trkpt>
      <trkpt lat="45.45287" lon="5.56153">
        <ele>627.3</ele>
        <time>2011-03-27T10:24:11Z</time>
      </trkpt>
      <trkpt lat="45.45291" lon="5.56163">
        <ele>628.5</ele>
        <time>2011-03-27T10:24:16Z</time>
      </trkpt>
      <trkpt lat="45.45292" lon="5.56165">
        <ele>628.7</ele>
        <time>2011-03-27T10:24:17Z</time>
      </trkpt>
      <trkpt lat="45.453" lon="5.56183">
        <ele>630.6</ele>
        <time>2011-03-27T10:24:28Z</time>
      </trkpt>
      <trkpt lat="45.45307" lon="5.5619">
        <ele>632.9</ele>
        <time>2011-03-27T10:24:34Z</time>
      </trkpt>
      <trkpt lat="45.45314" lon="5.56197">
        <ele>634.1</ele>
        <time>2011-03-27T10:24:40Z</time>
      </trkpt>
      <trkpt lat="45.45321" lon="5.56204">
        <ele>635.3</ele>
        <time>2011-03-27T10:24:46Z</time>
      </trkpt>
      <trkpt lat="45.45328" lon="5.56209">
        <ele>635.7</ele>
        <time>2011-03-27T10:24:52Z</time>
      </trkpt>
      <trkpt lat="45.45336" lon="5.56211">
        <ele>637.6</ele>
        <time>2011-03-27T10:24:59Z</time>
      </trkpt>
      <trkpt lat="45.45345" lon="5.56212">
        <ele>639.5</ele>
        <time>2011-03-27T10:25:06Z</time>
      </trkpt>
      <trkpt lat="45.45354" lon="5.56214">
        <ele>640</ele>
        <time>2011-03-27T10:25:13Z</time>
      </trkpt>
      <trkpt lat="45.45362" lon="5.56214">
        <ele>640.9</ele>
        <time>2011-03-27T10:25:20Z</time>
      </trkpt>
      <trkpt lat="45.45364" lon="5.56215">
        <ele>641.2</ele>
        <time>2011-03-27T10:25:21Z</time>
      </trkpt>
      <trkpt lat="45.45379" lon="5.56213">
        <ele>643.7</ele>
        <time>2011-03-27T10:25:33Z</time>
      </trkpt>
      <trkpt lat="45.45387" lon="5.56214">
        <ele>645.1</ele>
        <time>2011-03-27T10:25:39Z</time>
      </trkpt>
      <trkpt lat="45.45394" lon="5.56217">
        <ele>646</ele>
        <time>2011-03-27T10:25:45Z</time>
      </trkpt>
      <trkpt lat="45.45402" lon="5.56223">
        <ele>646.9</ele>
        <time>2011-03-27T10:25:52Z</time>
      </trkpt>
      <trkpt lat="45.45408" lon="5.5623">
        <ele>648.8</ele>
        <time>2011-03-27T10:25:58Z</time>
      </trkpt>
      <trkpt lat="45.45414" lon="5.56239">
        <ele>650.8</ele>
        <time>2011-03-27T10:26:05Z</time>
      </trkpt>
      <trkpt lat="45.45419" lon="5.56247">
        <ele>650.9</ele>
        <time>2011-03-27T10:26:12Z</time>
      </trkpt>
      <trkpt lat="45.45426" lon="5.56255">
        <ele>651.7</ele>
        <time>2011-03-27T10:26:19Z</time>
      </trkpt>
      <trkpt lat="45.45433" lon="5.56261">
        <ele>652.2</ele>
        <time>2011-03-27T10:26:26Z</time>
      </trkpt>
      <trkpt lat="45.45434" lon="5.56262">
        <ele>652.6</ele>
        <time>2011-03-27T10:26:27Z</time>
      </trkpt>
      <trkpt lat="45.45449" lon="5.56269">
        <ele>654.7</ele>
        <time>2011-03-27T10:26:40Z</time>
      </trkpt>
      <trkpt lat="45.45458" lon="5.56272">
        <ele>655.7</ele>
        <time>2011-03-27T10:26:47Z</time>
      </trkpt>
      <trkpt lat="45.45466" lon="5.56276">
        <ele>656.8</ele>
        <time>2011-03-27T10:26:54Z</time>
      </trkpt>
      <trkpt lat="45.45474" lon="5.56279">
        <ele>658.8</ele>
        <time>2011-03-27T10:27:02Z</time>
      </trkpt>
      <trkpt lat="45.45482" lon="5.56281">
        <ele>659.9</ele>
        <time>2011-03-27T10:27:08Z</time>
      </trkpt>
      <trkpt lat="45.45489" lon="5.56283">
        <ele>659.7</ele>
        <time>2011-03-27T10:27:13Z</time>
      </trkpt>
      <trkpt lat="45.45497" lon="5.5629">
        <ele>659.6</ele>
        <time>2011-03-27T10:27:18Z</time>
      </trkpt>
      <trkpt lat="45.45501" lon="5.56299">
        <ele>660.4</ele>
        <time>2011-03-27T10:27:22Z</time>
      </trkpt>
      <trkpt lat="45.45506" lon="5.56309">
        <ele>660.7</ele>
        <time>2011-03-27T10:27:27Z</time>
      </trkpt>
      <trkpt lat="45.45507" lon="5.5631">
        <ele>660.9</ele>
        <time>2011-03-27T10:27:28Z</time>
      </trkpt>
      <trkpt lat="45.4552" lon="5.56324">
        <ele>662</ele>
        <time>2011-03-27T10:27:37Z</time>
      </trkpt>
      <trkpt lat="45.45527" lon="5.5633">
        <ele>663.7</ele>
        <time>2011-03-27T10:27:42Z</time>
      </trkpt>
      <trkpt lat="45.45535" lon="5.56335">
        <ele>664.5</ele>
        <time>2011-03-27T10:27:47Z</time>
      </trkpt>
      <trkpt lat="45.45542" lon="5.56338">
        <ele>665.3</ele>
        <time>2011-03-27T10:27:51Z</time>
      </trkpt>
      <trkpt lat="45.4555" lon="5.56342">
        <ele>665.5</ele>
        <time>2011-03-27T10:27:55Z</time>
      </trkpt>
      <trkpt lat="45.45556" lon="5.56347">
        <ele>664</ele>
        <time>2011-03-27T10:28:00Z</time>
      </trkpt>
      <trkpt lat="45.45564" lon="5.56353">
        <ele>664.9</ele>
        <time>2011-03-27T10:28:05Z</time>
      </trkpt>
      <trkpt lat="45.45572" lon="5.56357">
        <ele>665</ele>
        <time>2011-03-27T10:28:10Z</time>
      </trkpt>
      <trkpt lat="45.4558" lon="5.56362">
        <ele>665.6</ele>
        <time>2011-03-27T10:28:14Z</time>
      </trkpt>
      <trkpt lat="45.45588" lon="5.56366">
        <ele>665.1</ele>
        <time>2011-03-27T10:28:18Z</time>
      </trkpt>
      <trkpt lat="45.45594" lon="5.5637">
        <ele>665.1</ele>
        <time>2011-03-27T10:28:20Z</time>
      </trkpt>
      <trkpt lat="45.45603" lon="5.56373">
        <ele>665.2</ele>
        <time>2011-03-27T10:28:22Z</time>
      </trkpt>
      <trkpt lat="45.45608" lon="5.56376">
        <ele>665</ele>
        <time>2011-03-27T10:28:23Z</time>
      </trkpt>
      <trkpt lat="45.45613" lon="5.56378">
        <ele>664.8</ele>
        <time>2011-03-27T10:28:24Z</time>
      </trkpt>
      <trkpt lat="45.45619" lon="5.5638">
        <ele>664.6</ele>
        <time>2011-03-27T10:28:25Z</time>
      </trkpt>
      <trkpt lat="45.45624" lon="5.56382">
        <ele>663.6</ele>
        <time>2011-03-27T10:28:26Z</time>
      </trkpt>
      <trkpt lat="45.4563" lon="5.56384">
        <ele>662.9</ele>
        <time>2011-03-27T10:28:27Z</time>
      </trkpt>
      <trkpt lat="45.45636" lon="5.56386">
        <ele>662.3</ele>
        <time>2011-03-27T10:28:28Z</time>
      </trkpt>
      <trkpt lat="45.45642" lon="5.56388">
        <ele>661.6</ele>
        <time>2011-03-27T10:28:29Z</time>
      </trkpt>
      <trkpt lat="45.45649" lon="5.5639">
        <ele>661</ele>
        <time>2011-03-27T10:28:30Z</time>
      </trkpt>
      <trkpt lat="45.45656" lon="5.56393">
        <ele>660.6</ele>
        <time>2011-03-27T10:28:31Z</time>
      </trkpt>
      <trkpt lat="45.45663" lon="5.56395">
        <ele>660</ele>
        <time>2011-03-27T10:28:32Z</time>
      </trkpt>
      <trkpt lat="45.45669" lon="5.56397">
        <ele>659.6</ele>
        <time>2011-03-27T10:28:33Z</time>
      </trkpt>
      <trkpt lat="45.45676" lon="5.564">
        <ele>659.2</ele>
        <time>2011-03-27T10:28:34Z</time>
      </trkpt>
      <trkpt lat="45.45682" lon="5.56402">
        <ele>658.6</ele>
        <time>2011-03-27T10:28:35Z</time>
      </trkpt>
      <trkpt lat="45.45689" lon="5.56405">
        <ele>658.2</ele>
        <time>2011-03-27T10:28:36Z</time>
      </trkpt>
      <trkpt lat="45.45695" lon="5.56409">
        <ele>657.9</ele>
        <time>2011-03-27T10:28:37Z</time>
      </trkpt>
      <trkpt lat="45.45702" lon="5.56412">
        <ele>657.6</ele>
        <time>2011-03-27T10:28:38Z</time>
      </trkpt>
      <trkpt lat="45.45708" lon="5.56415">
        <ele>656.9</ele>
        <time>2011-03-27T10:28:39Z</time>
      </trkpt>
      <trkpt lat="45.45715" lon="5.56418">
        <ele>656.4</ele>
        <time>2011-03-27T10:28:40Z</time>
      </trkpt>
      <trkpt lat="45.45723" lon="5.56418">
        <ele>656</ele>
        <time>2011-03-27T10:28:41Z</time>
      </trkpt>
      <trkpt lat="45.4573" lon="5.56418">
        <ele>655.9</ele>
        <time>2011-03-27T10:28:42Z</time>
      </trkpt>
      <trkpt lat="45.45737" lon="5.56416">
        <ele>655.9</ele>
        <time>2011-03-27T10:28:43Z</time>
      </trkpt>
      <trkpt lat="45.45744" lon="5.56414">
        <ele>655.9</ele>
        <time>2011-03-27T10:28:44Z</time>
      </trkpt>
      <trkpt lat="45.45751" lon="5.56411">
        <ele>654.8</ele>
        <time>2011-03-27T10:28:45Z</time>
      </trkpt>
      <trkpt lat="45.45757" lon="5.56408">
        <ele>654</ele>
        <time>2011-03-27T10:28:46Z</time>
      </trkpt>
      <trkpt lat="45.45762" lon="5.56402">
        <ele>653.5</ele>
        <time>2011-03-27T10:28:47Z</time>
      </trkpt>
      <trkpt lat="45.45766" lon="5.56395">
        <ele>653</ele>
        <time>2011-03-27T10:28:48Z</time>
      </trkpt>
      <trkpt lat="45.45769" lon="5.56388">
        <ele>652.7</ele>
        <time>2011-03-27T10:28:49Z</time>
      </trkpt>
      <trkpt lat="45.45773" lon="5.56379">
        <ele>652.9</ele>
        <time>2011-03-27T10:28:51Z</time>
      </trkpt>
      <trkpt lat="45.45781" lon="5.56374">
        <ele>653.8</ele>
        <time>2011-03-27T10:28:54Z</time>
      </trkpt>
      <trkpt lat="45.45789" lon="5.56372">
        <ele>654.5</ele>
        <time>2011-03-27T10:28:57Z</time>
      </trkpt>
      <trkpt lat="45.45798" lon="5.56371">
        <ele>655.5</ele>
        <time>2011-03-27T10:29:00Z</time>
      </trkpt>
      <trkpt lat="45.45807" lon="5.5637">
        <ele>656.4</ele>
        <time>2011-03-27T10:29:03Z</time>
      </trkpt>
      <trkpt lat="45.45815" lon="5.56369">
        <ele>656.6</ele>
        <time>2011-03-27T10:29:06Z</time>
      </trkpt>
      <trkpt lat="45.45822" lon="5.56368">
        <ele>657.6</ele>
        <time>2011-03-27T10:29:09Z</time>
      </trkpt>
      <trkpt lat="45.4583" lon="5.56367">
        <ele>658.4</ele>
        <time>2011-03-27T10:29:13Z</time>
      </trkpt>
      <trkpt lat="45.45839" lon="5.56365">
        <ele>658.5</ele>
        <time>2011-03-27T10:29:17Z</time>
      </trkpt>
      <trkpt lat="45.45846" lon="5.56365">
        <ele>659.2</ele>
        <time>2011-03-27T10:29:20Z</time>
      </trkpt>
      <trkpt lat="45.45854" lon="5.56365">
        <ele>659.7</ele>
        <time>2011-03-27T10:29:23Z</time>
      </trkpt>
      <trkpt lat="45.45862" lon="5.56363">
        <ele>660</ele>
        <time>2011-03-27T10:29:26Z</time>
      </trkpt>
      <trkpt lat="45.45869" lon="5.56362">
        <ele>660.3</ele>
        <time>2011-03-27T10:29:28Z</time>
      </trkpt>
      <trkpt lat="45.45875" lon="5.56362">
        <ele>660.4</ele>
        <time>2011-03-27T10:29:30Z</time>
      </trkpt>
      <trkpt lat="45.45878" lon="5.56361">
        <ele>660.4</ele>
        <time>2011-03-27T10:29:31Z</time>
      </trkpt>
      <trkpt lat="45.4589" lon="5.56358">
        <ele>660.8</ele>
        <time>2011-03-27T10:29:35Z</time>
      </trkpt>
      <trkpt lat="45.45896" lon="5.56356">
        <ele>660.6</ele>
        <time>2011-03-27T10:29:37Z</time>
      </trkpt>
      <trkpt lat="45.45902" lon="5.56352">
        <ele>660.5</ele>
        <time>2011-03-27T10:29:39Z</time>
      </trkpt>
      <trkpt lat="45.45908" lon="5.56348">
        <ele>660.4</ele>
        <time>2011-03-27T10:29:41Z</time>
      </trkpt>
      <trkpt lat="45.45913" lon="5.56345">
        <ele>661.2</ele>
        <time>2011-03-27T10:29:43Z</time>
      </trkpt>
      <trkpt lat="45.4592" lon="5.56346">
        <ele>661.6</ele>
        <time>2011-03-27T10:29:45Z</time>
      </trkpt>
      <trkpt lat="45.45924" lon="5.56353">
        <ele>661.8</ele>
        <time>2011-03-27T10:29:47Z</time>
      </trkpt>
      <trkpt lat="45.45926" lon="5.56361">
        <ele>661.8</ele>
        <time>2011-03-27T10:29:49Z</time>
      </trkpt>
      <trkpt lat="45.4593" lon="5.56368">
        <ele>661.9</ele>
        <time>2011-03-27T10:29:51Z</time>
      </trkpt>
      <trkpt lat="45.45933" lon="5.56376">
        <ele>661.7</ele>
        <time>2011-03-27T10:29:53Z</time>
      </trkpt>
      <trkpt lat="45.45936" lon="5.56383">
        <ele>661.6</ele>
        <time>2011-03-27T10:29:55Z</time>
      </trkpt>
      <trkpt lat="45.45939" lon="5.56391">
        <ele>661.5</ele>
        <time>2011-03-27T10:29:57Z</time>
      </trkpt>
      <trkpt lat="45.45943" lon="5.56398">
        <ele>662</ele>
        <time>2011-03-27T10:29:59Z</time>
      </trkpt>
      <trkpt lat="45.45946" lon="5.56405">
        <ele>662.4</ele>
        <time>2011-03-27T10:30:01Z</time>
      </trkpt>
      <trkpt lat="45.45949" lon="5.56413">
        <ele>662.7</ele>
        <time>2011-03-27T10:30:03Z</time>
      </trkpt>
      <trkpt lat="45.45952" lon="5.56421">
        <ele>662.8</ele>
        <time>2011-03-27T10:30:05Z</time>
      </trkpt>
      <trkpt lat="45.45955" lon="5.56429">
        <ele>662.8</ele>
        <time>2011-03-27T10:30:07Z</time>
      </trkpt>
      <trkpt lat="45.45958" lon="5.56436">
        <ele>662.7</ele>
        <time>2011-03-27T10:30:09Z</time>
      </trkpt>
      <trkpt lat="45.45961" lon="5.56445">
        <ele>662.9</ele>
        <time>2011-03-27T10:30:11Z</time>
      </trkpt>
      <trkpt lat="45.45964" lon="5.56452">
        <ele>663.1</ele>
        <time>2011-03-27T10:30:13Z</time>
      </trkpt>
      <trkpt lat="45.45967" lon="5.5646">
        <ele>663.6</ele>
        <time>2011-03-27T10:30:15Z</time>
      </trkpt>
      <trkpt lat="45.45971" lon="5.56468">
        <ele>664</ele>
        <time>2011-03-27T10:30:17Z</time>
      </trkpt>
      <trkpt lat="45.45974" lon="5.56476">
        <ele>664.4</ele>
        <time>2011-03-27T10:30:19Z</time>
      </trkpt>
      <trkpt lat="45.45977" lon="5.56484">
        <ele>664.7</ele>
        <time>2011-03-27T10:30:21Z</time>
      </trkpt>
      <trkpt lat="45.45981" lon="5.56496">
        <ele>665.4</ele>
        <time>2011-03-27T10:30:24Z</time>
      </trkpt>
      <trkpt lat="45.45982" lon="5.56504">
        <ele>665.8</ele>
        <time>2011-03-27T10:30:26Z</time>
      </trkpt>
      <trkpt lat="45.45986" lon="5.56516">
        <ele>665.5</ele>
        <time>2011-03-27T10:30:29Z</time>
      </trkpt>
      <trkpt lat="45.45993" lon="5.56521">
        <ele>666.2</ele>
        <time>2011-03-27T10:30:32Z</time>
      </trkpt>
      <trkpt lat="45.45996" lon="5.56522">
        <ele>666.3</ele>
        <time>2011-03-27T10:30:33Z</time>
      </trkpt>
      <trkpt lat="45.46008" lon="5.56522">
        <ele>667.2</ele>
        <time>2011-03-27T10:30:37Z</time>
      </trkpt>
      <trkpt lat="45.46015" lon="5.56523">
        <ele>667</ele>
        <time>2011-03-27T10:30:39Z</time>
      </trkpt>
      <trkpt lat="45.46022" lon="5.56524">
        <ele>666.4</ele>
        <time>2011-03-27T10:30:41Z</time>
      </trkpt>
      <trkpt lat="45.46027" lon="5.56526">
        <ele>666.1</ele>
        <time>2011-03-27T10:30:42Z</time>
      </trkpt>
      <trkpt lat="45.46031" lon="5.56528">
        <ele>665.8</ele>
        <time>2011-03-27T10:30:43Z</time>
      </trkpt>
      <trkpt lat="45.46036" lon="5.56531">
        <ele>665.6</ele>
        <time>2011-03-27T10:30:44Z</time>
      </trkpt>
      <trkpt lat="45.46042" lon="5.56533">
        <ele>665.5</ele>
        <time>2011-03-27T10:30:45Z</time>
      </trkpt>
      <trkpt lat="45.46047" lon="5.56535">
        <ele>664.7</ele>
        <time>2011-03-27T10:30:46Z</time>
      </trkpt>
      <trkpt lat="45.46053" lon="5.56538">
        <ele>664.1</ele>
        <time>2011-03-27T10:30:47Z</time>
      </trkpt>
      <trkpt lat="45.4606" lon="5.56541">
        <ele>663.6</ele>
        <time>2011-03-27T10:30:48Z</time>
      </trkpt>
      <trkpt lat="45.46066" lon="5.56545">
        <ele>662.9</ele>
        <time>2011-03-27T10:30:49Z</time>
      </trkpt>
      <trkpt lat="45.46072" lon="5.56549">
        <ele>662.4</ele>
        <time>2011-03-27T10:30:50Z</time>
      </trkpt>
      <trkpt lat="45.46078" lon="5.56554">
        <ele>662</ele>
        <time>2011-03-27T10:30:51Z</time>
      </trkpt>
      <trkpt lat="45.46084" lon="5.56558">
        <ele>661.6</ele>
        <time>2011-03-27T10:30:52Z</time>
      </trkpt>
      <trkpt lat="45.4609" lon="5.56563">
        <ele>661.2</ele>
        <time>2011-03-27T10:30:53Z</time>
      </trkpt>
      <trkpt lat="45.46095" lon="5.56568">
        <ele>661</ele>
        <time>2011-03-27T10:30:54Z</time>
      </trkpt>
      <trkpt lat="45.461" lon="5.56574">
        <ele>660.1</ele>
        <time>2011-03-27T10:30:55Z</time>
      </trkpt>
      <trkpt lat="45.46105" lon="5.5658">
        <ele>659.4</ele>
        <time>2011-03-27T10:30:56Z</time>
      </trkpt>
      <trkpt lat="45.46109" lon="5.56586">
        <ele>658.9</ele>
        <time>2011-03-27T10:30:57Z</time>
      </trkpt>
      <trkpt lat="45.46115" lon="5.56591">
        <ele>658.1</ele>
        <time>2011-03-27T10:30:58Z</time>
      </trkpt>
      <trkpt lat="45.46121" lon="5.56597">
        <ele>657.6</ele>
        <time>2011-03-27T10:30:59Z</time>
      </trkpt>
      <trkpt lat="45.46127" lon="5.56602">
        <ele>657.1</ele>
        <time>2011-03-27T10:31:00Z</time>
      </trkpt>
      <trkpt lat="45.46135" lon="5.56607">
        <ele>655.6</ele>
        <time>2011-03-27T10:31:01Z</time>
      </trkpt>
      <trkpt lat="45.46143" lon="5.56612">
        <ele>654.5</ele>
        <time>2011-03-27T10:31:02Z</time>
      </trkpt>
      <trkpt lat="45.46151" lon="5.56617">
        <ele>653.6</ele>
        <time>2011-03-27T10:31:03Z</time>
      </trkpt>
      <trkpt lat="45.4616" lon="5.56622">
        <ele>653</ele>
        <time>2011-03-27T10:31:04Z</time>
      </trkpt>
      <trkpt lat="45.46169" lon="5.56626">
        <ele>651.8</ele>
        <time>2011-03-27T10:31:05Z</time>
      </trkpt>
      <trkpt lat="45.46179" lon="5.56629">
        <ele>650.9</ele>
        <time>2011-03-27T10:31:06Z</time>
      </trkpt>
      <trkpt lat="45.46189" lon="5.56633">
        <ele>650.3</ele>
        <time>2011-03-27T10:31:07Z</time>
      </trkpt>
      <trkpt lat="45.46198" lon="5.56638">
        <ele>648.8</ele>
        <time>2011-03-27T10:31:08Z</time>
      </trkpt>
      <trkpt lat="45.46208" lon="5.56644">
        <ele>647.6</ele>
        <time>2011-03-27T10:31:09Z</time>
      </trkpt>
      <trkpt lat="45.46217" lon="5.56651">
        <ele>646.7</ele>
        <time>2011-03-27T10:31:10Z</time>
      </trkpt>
      <trkpt lat="45.46226" lon="5.56657">
        <ele>645.5</ele>
        <time>2011-03-27T10:31:11Z</time>
      </trkpt>
      <trkpt lat="45.46236" lon="5.56663">
        <ele>644.5</ele>
        <time>2011-03-27T10:31:12Z</time>
      </trkpt>
      <trkpt lat="45.46245" lon="5.56667">
        <ele>643.8</ele>
        <time>2011-03-27T10:31:13Z</time>
      </trkpt>
      <trkpt lat="45.46254" lon="5.56673">
        <ele>642.7</ele>
        <time>2011-03-27T10:31:14Z</time>
      </trkpt>
      <trkpt lat="45.46263" lon="5.56678">
        <ele>641.8</ele>
        <time>2011-03-27T10:31:15Z</time>
      </trkpt>
      <trkpt lat="45.46271" lon="5.56684">
        <ele>641.1</ele>
        <time>2011-03-27T10:31:16Z</time>
      </trkpt>
      <trkpt lat="45.46279" lon="5.56692">
        <ele>640.5</ele>
        <time>2011-03-27T10:31:17Z</time>
      </trkpt>
      <trkpt lat="45.46286" lon="5.567">
        <ele>640</ele>
        <time>2011-03-27T10:31:18Z</time>
      </trkpt>
      <trkpt lat="45.46292" lon="5.56708">
        <ele>639.6</ele>
        <time>2011-03-27T10:31:19Z</time>
      </trkpt>
      <trkpt lat="45.46299" lon="5.56715">
        <ele>639.7</ele>
        <time>2011-03-27T10:31:20Z</time>
      </trkpt>
      <trkpt lat="45.46306" lon="5.56722">
        <ele>639.8</ele>
        <time>2011-03-27T10:31:21Z</time>
      </trkpt>
      <trkpt lat="45.46312" lon="5.56727">
        <ele>639.8</ele>
        <time>2011-03-27T10:31:22Z</time>
      </trkpt>
      <trkpt lat="45.46319" lon="5.56732">
        <ele>639.9</ele>
        <time>2011-03-27T10:31:23Z</time>
      </trkpt>
      <trkpt lat="45.46325" lon="5.56738">
        <ele>639.7</ele>
        <time>2011-03-27T10:31:24Z</time>
      </trkpt>
      <trkpt lat="45.4633" lon="5.56743">
        <ele>639.5</ele>
        <time>2011-03-27T10:31:25Z</time>
      </trkpt>
      <trkpt lat="45.46336" lon="5.56748">
        <ele>639.4</ele>
        <time>2011-03-27T10:31:26Z</time>
      </trkpt>
      <trkpt lat="45.46341" lon="5.56752">
        <ele>639.7</ele>
        <time>2011-03-27T10:31:27Z</time>
      </trkpt>
      <trkpt lat="45.46345" lon="5.56757">
        <ele>639.9</ele>
        <time>2011-03-27T10:31:28Z</time>
      </trkpt>
      <trkpt lat="45.4635" lon="5.56762">
        <ele>640</ele>
        <time>2011-03-27T10:31:29Z</time>
      </trkpt>
      <trkpt lat="45.46354" lon="5.56767">
        <ele>640.3</ele>
        <time>2011-03-27T10:31:30Z</time>
      </trkpt>
      <trkpt lat="45.46358" lon="5.56773">
        <ele>640.5</ele>
        <time>2011-03-27T10:31:31Z</time>
      </trkpt>
      <trkpt lat="45.46362" lon="5.5678">
        <ele>640.7</ele>
        <time>2011-03-27T10:31:32Z</time>
      </trkpt>
      <trkpt lat="45.46365" lon="5.56787">
        <ele>640.4</ele>
        <time>2011-03-27T10:31:33Z</time>
      </trkpt>
      <trkpt lat="45.46368" lon="5.56793">
        <ele>640.1</ele>
        <time>2011-03-27T10:31:34Z</time>
      </trkpt>
      <trkpt lat="45.46372" lon="5.56798">
        <ele>640</ele>
        <time>2011-03-27T10:31:35Z</time>
      </trkpt>
      <trkpt lat="45.46377" lon="5.56803">
        <ele>639</ele>
        <time>2011-03-27T10:31:36Z</time>
      </trkpt>
      <trkpt lat="45.46384" lon="5.56807">
        <ele>638.2</ele>
        <time>2011-03-27T10:31:37Z</time>
      </trkpt>
      <trkpt lat="45.46392" lon="5.5681">
        <ele>637.6</ele>
        <time>2011-03-27T10:31:38Z</time>
      </trkpt>
      <trkpt lat="45.464" lon="5.56811">
        <ele>637.2</ele>
        <time>2011-03-27T10:31:39Z</time>
      </trkpt>
      <trkpt lat="45.46408" lon="5.5681">
        <ele>636</ele>
        <time>2011-03-27T10:31:40Z</time>
      </trkpt>
      <trkpt lat="45.46416" lon="5.56808">
        <ele>635.1</ele>
        <time>2011-03-27T10:31:41Z</time>
      </trkpt>
      <trkpt lat="45.46425" lon="5.56804">
        <ele>634.4</ele>
        <time>2011-03-27T10:31:42Z</time>
      </trkpt>
      <trkpt lat="45.46434" lon="5.56799">
        <ele>632.7</ele>
        <time>2011-03-27T10:31:43Z</time>
      </trkpt>
      <trkpt lat="45.46443" lon="5.56792">
        <ele>631.5</ele>
        <time>2011-03-27T10:31:44Z</time>
      </trkpt>
      <trkpt lat="45.46452" lon="5.56785">
        <ele>630.6</ele>
        <time>2011-03-27T10:31:45Z</time>
      </trkpt>
      <trkpt lat="45.46461" lon="5.56776">
        <ele>628.4</ele>
        <time>2011-03-27T10:31:46Z</time>
      </trkpt>
      <trkpt lat="45.4647" lon="5.56768">
        <ele>626.8</ele>
        <time>2011-03-27T10:31:47Z</time>
      </trkpt>
      <trkpt lat="45.4648" lon="5.5676">
        <ele>625.6</ele>
        <time>2011-03-27T10:31:48Z</time>
      </trkpt>
      <trkpt lat="45.4649" lon="5.56754">
        <ele>623.5</ele>
        <time>2011-03-27T10:31:49Z</time>
      </trkpt>
      <trkpt lat="45.46499" lon="5.5675">
        <ele>621.9</ele>
        <time>2011-03-27T10:31:50Z</time>
      </trkpt>
      <trkpt lat="45.46507" lon="5.56747">
        <ele>620.7</ele>
        <time>2011-03-27T10:31:51Z</time>
      </trkpt>
      <trkpt lat="45.46514" lon="5.56744">
        <ele>619.5</ele>
        <time>2011-03-27T10:31:52Z</time>
      </trkpt>
      <trkpt lat="45.46521" lon="5.56743">
        <ele>618.6</ele>
        <time>2011-03-27T10:31:53Z</time>
      </trkpt>
      <trkpt lat="45.46528" lon="5.56744">
        <ele>617.9</ele>
        <time>2011-03-27T10:31:54Z</time>
      </trkpt>
      <trkpt lat="45.46535" lon="5.56747">
        <ele>617.1</ele>
        <time>2011-03-27T10:31:55Z</time>
      </trkpt>
      <trkpt lat="45.46541" lon="5.56751">
        <ele>616.5</ele>
        <time>2011-03-27T10:31:56Z</time>
      </trkpt>
      <trkpt lat="45.46548" lon="5.56757">
        <ele>616</ele>
        <time>2011-03-27T10:31:57Z</time>
      </trkpt>
      <trkpt lat="45.46553" lon="5.56763">
        <ele>615.7</ele>
        <time>2011-03-27T10:31:58Z</time>
      </trkpt>
      <trkpt lat="45.4656" lon="5.56769">
        <ele>614.3</ele>
        <time>2011-03-27T10:31:59Z</time>
      </trkpt>
      <trkpt lat="45.46565" lon="5.56778">
        <ele>613.2</ele>
        <time>2011-03-27T10:32:00Z</time>
      </trkpt>
      <trkpt lat="45.46571" lon="5.56786">
        <ele>612.5</ele>
        <time>2011-03-27T10:32:01Z</time>
      </trkpt>
      <trkpt lat="45.46579" lon="5.56793">
        <ele>611</ele>
        <time>2011-03-27T10:32:02Z</time>
      </trkpt>
      <trkpt lat="45.46587" lon="5.56797">
        <ele>609.9</ele>
        <time>2011-03-27T10:32:03Z</time>
      </trkpt>
      <trkpt lat="45.46597" lon="5.56802">
        <ele>609</ele>
        <time>2011-03-27T10:32:04Z</time>
      </trkpt>
      <trkpt lat="45.46606" lon="5.56805">
        <ele>607.9</ele>
        <time>2011-03-27T10:32:05Z</time>
      </trkpt>
      <trkpt lat="45.46616" lon="5.56808">
        <ele>607.1</ele>
        <time>2011-03-27T10:32:06Z</time>
      </trkpt>
      <trkpt lat="45.46625" lon="5.5681">
        <ele>606.5</ele>
        <time>2011-03-27T10:32:07Z</time>
      </trkpt>
      <trkpt lat="45.46634" lon="5.56814">
        <ele>605.2</ele>
        <time>2011-03-27T10:32:08Z</time>
      </trkpt>
      <trkpt lat="45.46643" lon="5.56817">
        <ele>604.1</ele>
        <time>2011-03-27T10:32:09Z</time>
      </trkpt>
      <trkpt lat="45.46652" lon="5.56822">
        <ele>603.4</ele>
        <time>2011-03-27T10:32:10Z</time>
      </trkpt>
      <trkpt lat="45.4666" lon="5.56829">
        <ele>602.3</ele>
        <time>2011-03-27T10:32:11Z</time>
      </trkpt>
      <trkpt lat="45.46668" lon="5.56837">
        <ele>601.6</ele>
        <time>2011-03-27T10:32:12Z</time>
      </trkpt>
      <trkpt lat="45.46674" lon="5.56847">
        <ele>601</ele>
        <time>2011-03-27T10:32:13Z</time>
      </trkpt>
      <trkpt lat="45.4668" lon="5.56858">
        <ele>600.5</ele>
        <time>2011-03-27T10:32:14Z</time>
      </trkpt>
      <trkpt lat="45.46685" lon="5.56869">
        <ele>600.1</ele>
        <time>2011-03-27T10:32:15Z</time>
      </trkpt>
      <trkpt lat="45.46691" lon="5.56881">
        <ele>599.9</ele>
        <time>2011-03-27T10:32:16Z</time>
      </trkpt>
      <trkpt lat="45.46696" lon="5.56893">
        <ele>599.6</ele>
        <time>2011-03-27T10:32:17Z</time>
      </trkpt>
      <trkpt lat="45.46702" lon="5.56906">
        <ele>598.3</ele>
        <time>2011-03-27T10:32:18Z</time>
      </trkpt>
      <trkpt lat="45.46708" lon="5.56919">
        <ele>597.3</ele>
        <time>2011-03-27T10:32:19Z</time>
      </trkpt>
      <trkpt lat="45.46715" lon="5.56931">
        <ele>596.6</ele>
        <time>2011-03-27T10:32:20Z</time>
      </trkpt>
      <trkpt lat="45.46723" lon="5.56942">
        <ele>594.9</ele>
        <time>2011-03-27T10:32:21Z</time>
      </trkpt>
      <trkpt lat="45.46731" lon="5.56951">
        <ele>593.7</ele>
        <time>2011-03-27T10:32:22Z</time>
      </trkpt>
      <trkpt lat="45.46739" lon="5.56957">
        <ele>592.8</ele>
        <time>2011-03-27T10:32:23Z</time>
      </trkpt>
      <trkpt lat="45.46747" lon="5.56962">
        <ele>591.8</ele>
        <time>2011-03-27T10:32:24Z</time>
      </trkpt>
      <trkpt lat="45.46753" lon="5.56966">
        <ele>591.1</ele>
        <time>2011-03-27T10:32:25Z</time>
      </trkpt>
      <trkpt lat="45.46758" lon="5.56971">
        <ele>590.6</ele>
        <time>2011-03-27T10:32:26Z</time>
      </trkpt>
      <trkpt lat="45.46766" lon="5.56975">
        <ele>588.1</ele>
        <time>2011-03-27T10:32:28Z</time>
      </trkpt>
      <trkpt lat="45.46772" lon="5.56967">
        <ele>587.7</ele>
        <time>2011-03-27T10:32:57Z</time>
      </trkpt>
      <trkpt lat="45.46774" lon="5.56965">
        <ele>587.8</ele>
        <time>2011-03-27T10:32:58Z</time>
      </trkpt>
      <trkpt lat="45.46783" lon="5.56957">
        <ele>586.8</ele>
        <time>2011-03-27T10:33:01Z</time>
      </trkpt>
      <trkpt lat="45.46787" lon="5.56953">
        <ele>586.2</ele>
        <time>2011-03-27T10:33:02Z</time>
      </trkpt>
      <trkpt lat="45.46791" lon="5.56948">
        <ele>585.8</ele>
        <time>2011-03-27T10:33:03Z</time>
      </trkpt>
      <trkpt lat="45.46796" lon="5.56944">
        <ele>585.4</ele>
        <time>2011-03-27T10:33:04Z</time>
      </trkpt>
      <trkpt lat="45.46802" lon="5.5694">
        <ele>584.5</ele>
        <time>2011-03-27T10:33:05Z</time>
      </trkpt>
      <trkpt lat="45.46808" lon="5.56936">
        <ele>583.8</ele>
        <time>2011-03-27T10:33:06Z</time>
      </trkpt>
      <trkpt lat="45.46814" lon="5.56933">
        <ele>583.3</ele>
        <time>2011-03-27T10:33:07Z</time>
      </trkpt>
      <trkpt lat="45.4682" lon="5.56931">
        <ele>582.6</ele>
        <time>2011-03-27T10:33:08Z</time>
      </trkpt>
      <trkpt lat="45.46827" lon="5.56929">
        <ele>581.6</ele>
        <time>2011-03-27T10:33:10Z</time>
      </trkpt>
      <trkpt lat="45.46819" lon="5.56931">
        <ele>580.3</ele>
        <time>2011-03-27T10:33:32Z</time>
      </trkpt>
      <trkpt lat="45.46813" lon="5.56934">
        <ele>579.9</ele>
        <time>2011-03-27T10:33:35Z</time>
      </trkpt>
      <trkpt lat="45.46806" lon="5.56939">
        <ele>581.4</ele>
        <time>2011-03-27T10:33:38Z</time>
      </trkpt>
      <trkpt lat="45.468" lon="5.56943">
        <ele>582.5</ele>
        <time>2011-03-27T10:33:41Z</time>
      </trkpt>
      <trkpt lat="45.46794" lon="5.56947">
        <ele>583.1</ele>
        <time>2011-03-27T10:33:44Z</time>
      </trkpt>
      <trkpt lat="45.46787" lon="5.56953">
        <ele>583.9</ele>
        <time>2011-03-27T10:33:47Z</time>
      </trkpt>
      <trkpt lat="45.46781" lon="5.56959">
        <ele>585</ele>
        <time>2011-03-27T10:33:50Z</time>
      </trkpt>
      <trkpt lat="45.46775" lon="5.56964">
        <ele>585.5</ele>
        <time>2011-03-27T10:33:53Z</time>
      </trkpt>
      <trkpt lat="45.46767" lon="5.56969">
        <ele>587.2</ele>
        <time>2011-03-27T10:33:59Z</time>
      </trkpt>
      <trkpt lat="45.46767" lon="5.56971">
        <ele>587.3</ele>
        <time>2011-03-27T10:34:00Z</time>
      </trkpt>
      <trkpt lat="45.46779" lon="5.56961">
        <ele>587.1</ele>
        <time>2011-03-27T10:34:06Z</time>
      </trkpt>
      <trkpt lat="45.46783" lon="5.56957">
        <ele>587</ele>
        <time>2011-03-27T10:34:07Z</time>
      </trkpt>
      <trkpt lat="45.46788" lon="5.56953">
        <ele>586.9</ele>
        <time>2011-03-27T10:34:08Z</time>
      </trkpt>
      <trkpt lat="45.46793" lon="5.56948">
        <ele>585.9</ele>
        <time>2011-03-27T10:34:09Z</time>
      </trkpt>
      <trkpt lat="45.46799" lon="5.56944">
        <ele>585.2</ele>
        <time>2011-03-27T10:34:10Z</time>
      </trkpt>
      <trkpt lat="45.46806" lon="5.5694">
        <ele>584.6</ele>
        <time>2011-03-27T10:34:11Z</time>
      </trkpt>
      <trkpt lat="45.46813" lon="5.56936">
        <ele>583.5</ele>
        <time>2011-03-27T10:34:12Z</time>
      </trkpt>
      <trkpt lat="45.46819" lon="5.56934">
        <ele>582.7</ele>
        <time>2011-03-27T10:34:13Z</time>
      </trkpt>
      <trkpt lat="45.46824" lon="5.56932">
        <ele>582.1</ele>
        <time>2011-03-27T10:34:14Z</time>
      </trkpt>
      <trkpt lat="45.46832" lon="5.5693">
        <ele>580.6</ele>
        <time>2011-03-27T10:34:16Z</time>
      </trkpt>
      <trkpt lat="45.46839" lon="5.56936">
        <ele>579.3</ele>
        <time>2011-03-27T10:36:12Z</time>
      </trkpt>
      <trkpt lat="45.46841" lon="5.56937">
        <ele>579.6</ele>
        <time>2011-03-27T10:36:13Z</time>
      </trkpt>
      <trkpt lat="45.46852" lon="5.5694">
        <ele>579.9</ele>
        <time>2011-03-27T10:36:16Z</time>
      </trkpt>
      <trkpt lat="45.46857" lon="5.56941">
        <ele>579.8</ele>
        <time>2011-03-27T10:36:17Z</time>
      </trkpt>
      <trkpt lat="45.46861" lon="5.56942">
        <ele>579.8</ele>
        <time>2011-03-27T10:36:18Z</time>
      </trkpt>
      <trkpt lat="45.46866" lon="5.56943">
        <ele>578.5</ele>
        <time>2011-03-27T10:36:19Z</time>
      </trkpt>
      <trkpt lat="45.46872" lon="5.56944">
        <ele>577.5</ele>
        <time>2011-03-27T10:36:20Z</time>
      </trkpt>
      <trkpt lat="45.46877" lon="5.56944">
        <ele>576.8</ele>
        <time>2011-03-27T10:36:21Z</time>
      </trkpt>
      <trkpt lat="45.46882" lon="5.56945">
        <ele>575.8</ele>
        <time>2011-03-27T10:36:22Z</time>
      </trkpt>
      <trkpt lat="45.46887" lon="5.56945">
        <ele>575.1</ele>
        <time>2011-03-27T10:36:23Z</time>
      </trkpt>
      <trkpt lat="45.46893" lon="5.56946">
        <ele>574.5</ele>
        <time>2011-03-27T10:36:24Z</time>
      </trkpt>
      <trkpt lat="45.46901" lon="5.56945">
        <ele>573.4</ele>
        <time>2011-03-27T10:36:25Z</time>
      </trkpt>
      <trkpt lat="45.46909" lon="5.56945">
        <ele>572.5</ele>
        <time>2011-03-27T10:36:26Z</time>
      </trkpt>
      <trkpt lat="45.46917" lon="5.56944">
        <ele>571.8</ele>
        <time>2011-03-27T10:36:27Z</time>
      </trkpt>
      <trkpt lat="45.46927" lon="5.56943">
        <ele>569.8</ele>
        <time>2011-03-27T10:36:28Z</time>
      </trkpt>
      <trkpt lat="45.46936" lon="5.56941">
        <ele>568.3</ele>
        <time>2011-03-27T10:36:29Z</time>
      </trkpt>
      <trkpt lat="45.46946" lon="5.56938">
        <ele>567.2</ele>
        <time>2011-03-27T10:36:30Z</time>
      </trkpt>
      <trkpt lat="45.46956" lon="5.56937">
        <ele>565</ele>
        <time>2011-03-27T10:36:31Z</time>
      </trkpt>
      <trkpt lat="45.46967" lon="5.56938">
        <ele>563.4</ele>
        <time>2011-03-27T10:36:32Z</time>
      </trkpt>
      <trkpt lat="45.46978" lon="5.5694">
        <ele>562.2</ele>
        <time>2011-03-27T10:36:33Z</time>
      </trkpt>
      <trkpt lat="45.4699" lon="5.56943">
        <ele>561.2</ele>
        <time>2011-03-27T10:36:34Z</time>
      </trkpt>
      <trkpt lat="45.47" lon="5.56947">
        <ele>558.8</ele>
        <time>2011-03-27T10:36:35Z</time>
      </trkpt>
      <trkpt lat="45.4701" lon="5.56953">
        <ele>557</ele>
        <time>2011-03-27T10:36:36Z</time>
      </trkpt>
      <trkpt lat="45.4702" lon="5.56962">
        <ele>555.6</ele>
        <time>2011-03-27T10:36:37Z</time>
      </trkpt>
      <trkpt lat="45.47029" lon="5.56972">
        <ele>553.5</ele>
        <time>2011-03-27T10:36:38Z</time>
      </trkpt>
      <trkpt lat="45.47038" lon="5.56981">
        <ele>551.9</ele>
        <time>2011-03-27T10:36:39Z</time>
      </trkpt>
      <trkpt lat="45.47046" lon="5.56989">
        <ele>550.6</ele>
        <time>2011-03-27T10:36:40Z</time>
      </trkpt>
      <trkpt lat="45.47055" lon="5.56995">
        <ele>548.7</ele>
        <time>2011-03-27T10:36:41Z</time>
      </trkpt>
      <trkpt lat="45.47064" lon="5.56997">
        <ele>547.2</ele>
        <time>2011-03-27T10:36:42Z</time>
      </trkpt>
      <trkpt lat="45.47073" lon="5.56995">
        <ele>546.2</ele>
        <time>2011-03-27T10:36:43Z</time>
      </trkpt>
      <trkpt lat="45.47081" lon="5.56992">
        <ele>544.6</ele>
        <time>2011-03-27T10:36:44Z</time>
      </trkpt>
      <trkpt lat="45.47088" lon="5.56992">
        <ele>543.5</ele>
        <time>2011-03-27T10:36:45Z</time>
      </trkpt>
      <trkpt lat="45.47095" lon="5.56997">
        <ele>542.6</ele>
        <time>2011-03-27T10:36:46Z</time>
      </trkpt>
      <trkpt lat="45.47102" lon="5.57001">
        <ele>541.1</ele>
        <time>2011-03-27T10:36:47Z</time>
      </trkpt>
      <trkpt lat="45.4711" lon="5.57005">
        <ele>539.9</ele>
        <time>2011-03-27T10:36:48Z</time>
      </trkpt>
      <trkpt lat="45.47116" lon="5.57008">
        <ele>539.1</ele>
        <time>2011-03-27T10:36:49Z</time>
      </trkpt>
      <trkpt lat="45.47122" lon="5.57011">
        <ele>538.4</ele>
        <time>2011-03-27T10:36:50Z</time>
      </trkpt>
      <trkpt lat="45.47127" lon="5.57013">
        <ele>536.9</ele>
        <time>2011-03-27T10:36:51Z</time>
      </trkpt>
      <trkpt lat="45.47133" lon="5.57016">
        <ele>535.7</ele>
        <time>2011-03-27T10:36:52Z</time>
      </trkpt>
      <trkpt lat="45.47138" lon="5.57018">
        <ele>534.8</ele>
        <time>2011-03-27T10:36:53Z</time>
      </trkpt>
      <trkpt lat="45.47144" lon="5.5702">
        <ele>533.7</ele>
        <time>2011-03-27T10:36:54Z</time>
      </trkpt>
      <trkpt lat="45.4715" lon="5.57021">
        <ele>532.8</ele>
        <time>2011-03-27T10:36:55Z</time>
      </trkpt>
      <trkpt lat="45.47155" lon="5.57022">
        <ele>532.2</ele>
        <time>2011-03-27T10:36:56Z</time>
      </trkpt>
      <trkpt lat="45.47161" lon="5.57023">
        <ele>531.4</ele>
        <time>2011-03-27T10:36:57Z</time>
      </trkpt>
      <trkpt lat="45.47167" lon="5.57024">
        <ele>530.9</ele>
        <time>2011-03-27T10:36:58Z</time>
      </trkpt>
      <trkpt lat="45.47174" lon="5.57025">
        <ele>530.4</ele>
        <time>2011-03-27T10:36:59Z</time>
      </trkpt>
      <trkpt lat="45.4718" lon="5.57027">
        <ele>529.6</ele>
        <time>2011-03-27T10:37:00Z</time>
      </trkpt>
      <trkpt lat="45.47186" lon="5.5703">
        <ele>529</ele>
        <time>2011-03-27T10:37:01Z</time>
      </trkpt>
      <trkpt lat="45.47192" lon="5.57033">
        <ele>528.6</ele>
        <time>2011-03-27T10:37:02Z</time>
      </trkpt>
      <trkpt lat="45.47198" lon="5.57037">
        <ele>527.5</ele>
        <time>2011-03-27T10:37:03Z</time>
      </trkpt>
      <trkpt lat="45.47204" lon="5.57041">
        <ele>526.7</ele>
        <time>2011-03-27T10:37:04Z</time>
      </trkpt>
      <trkpt lat="45.47209" lon="5.57046">
        <ele>526.1</ele>
        <time>2011-03-27T10:37:05Z</time>
      </trkpt>
      <trkpt lat="45.47215" lon="5.5705">
        <ele>525.7</ele>
        <time>2011-03-27T10:37:06Z</time>
      </trkpt>
      <trkpt lat="45.47221" lon="5.57054">
        <ele>525.3</ele>
        <time>2011-03-27T10:37:07Z</time>
      </trkpt>
      <trkpt lat="45.47228" lon="5.57057">
        <ele>525</ele>
        <time>2011-03-27T10:37:08Z</time>
      </trkpt>
      <trkpt lat="45.47234" lon="5.57059">
        <ele>524.8</ele>
        <time>2011-03-27T10:37:09Z</time>
      </trkpt>
      <trkpt lat="45.47241" lon="5.5706">
        <ele>524.6</ele>
        <time>2011-03-27T10:37:10Z</time>
      </trkpt>
      <trkpt lat="45.47248" lon="5.57061">
        <ele>524.4</ele>
        <time>2011-03-27T10:37:11Z</time>
      </trkpt>
      <trkpt lat="45.47254" lon="5.57062">
        <ele>524.3</ele>
        <time>2011-03-27T10:37:12Z</time>
      </trkpt>
      <trkpt lat="45.47261" lon="5.57063">
        <ele>523.9</ele>
        <time>2011-03-27T10:37:13Z</time>
      </trkpt>
      <trkpt lat="45.47268" lon="5.57063">
        <ele>523.6</ele>
        <time>2011-03-27T10:37:14Z</time>
      </trkpt>
      <trkpt lat="45.47274" lon="5.57063">
        <ele>523.4</ele>
        <time>2011-03-27T10:37:15Z</time>
      </trkpt>
      <trkpt lat="45.47281" lon="5.57063">
        <ele>522.8</ele>
        <time>2011-03-27T10:37:16Z</time>
      </trkpt>
      <trkpt lat="45.47287" lon="5.57063">
        <ele>522.4</ele>
        <time>2011-03-27T10:37:17Z</time>
      </trkpt>
      <trkpt lat="45.47293" lon="5.57063">
        <ele>522</ele>
        <time>2011-03-27T10:37:18Z</time>
      </trkpt>
      <trkpt lat="45.47299" lon="5.57063">
        <ele>521.7</ele>
        <time>2011-03-27T10:37:19Z</time>
      </trkpt>
      <trkpt lat="45.47305" lon="5.57062">
        <ele>521.5</ele>
        <time>2011-03-27T10:37:20Z</time>
      </trkpt>
      <trkpt lat="45.47311" lon="5.57061">
        <ele>521.3</ele>
        <time>2011-03-27T10:37:21Z</time>
      </trkpt>
      <trkpt lat="45.47316" lon="5.5706">
        <ele>521.7</ele>
        <time>2011-03-27T10:37:22Z</time>
      </trkpt>
      <trkpt lat="45.47321" lon="5.5706">
        <ele>522</ele>
        <time>2011-03-27T10:37:23Z</time>
      </trkpt>
      <trkpt lat="45.47329" lon="5.57057">
        <ele>522.4</ele>
        <time>2011-03-27T10:37:25Z</time>
      </trkpt>
      <trkpt lat="45.47333" lon="5.57047">
        <ele>522.8</ele>
        <time>2011-03-27T10:37:28Z</time>
      </trkpt>
      <trkpt lat="45.4733" lon="5.57038">
        <ele>522.3</ele>
        <time>2011-03-27T10:37:33Z</time>
      </trkpt>
      <trkpt lat="45.47328" lon="5.57028">
        <ele>522.5</ele>
        <time>2011-03-27T10:37:36Z</time>
      </trkpt>
      <trkpt lat="45.47324" lon="5.57018">
        <ele>521.8</ele>
        <time>2011-03-27T10:37:39Z</time>
      </trkpt>
      <trkpt lat="45.4732" lon="5.57008">
        <ele>521.2</ele>
        <time>2011-03-27T10:37:42Z</time>
      </trkpt>
      <trkpt lat="45.47317" lon="5.56998">
        <ele>520.7</ele>
        <time>2011-03-27T10:37:46Z</time>
      </trkpt>
      <trkpt lat="45.47313" lon="5.56989">
        <ele>520.4</ele>
        <time>2011-03-27T10:37:49Z</time>
      </trkpt>
      <trkpt lat="45.47309" lon="5.56978">
        <ele>520.5</ele>
        <time>2011-03-27T10:37:52Z</time>
      </trkpt>
      <trkpt lat="45.47306" lon="5.5697">
        <ele>520.3</ele>
        <time>2011-03-27T10:37:54Z</time>
      </trkpt>
      <trkpt lat="45.47303" lon="5.56961">
        <ele>520</ele>
        <time>2011-03-27T10:37:56Z</time>
      </trkpt>
      <trkpt lat="45.473" lon="5.56951">
        <ele>519.8</ele>
        <time>2011-03-27T10:37:58Z</time>
      </trkpt>
      <trkpt lat="45.47297" lon="5.56946">
        <ele>519.7</ele>
        <time>2011-03-27T10:37:59Z</time>
      </trkpt>
      <trkpt lat="45.47295" lon="5.56939">
        <ele>519.1</ele>
        <time>2011-03-27T10:38:00Z</time>
      </trkpt>
      <trkpt lat="45.47294" lon="5.56932">
        <ele>518.7</ele>
        <time>2011-03-27T10:38:01Z</time>
      </trkpt>
      <trkpt lat="45.47293" lon="5.56924">
        <ele>518.4</ele>
        <time>2011-03-27T10:38:02Z</time>
      </trkpt>
      <trkpt lat="45.47292" lon="5.56914">
        <ele>517.4</ele>
        <time>2011-03-27T10:38:03Z</time>
      </trkpt>
      <trkpt lat="45.47292" lon="5.56904">
        <ele>516.5</ele>
        <time>2011-03-27T10:38:04Z</time>
      </trkpt>
      <trkpt lat="45.47292" lon="5.56893">
        <ele>515.9</ele>
        <time>2011-03-27T10:38:05Z</time>
      </trkpt>
      <trkpt lat="45.47293" lon="5.56882">
        <ele>515.5</ele>
        <time>2011-03-27T10:38:06Z</time>
      </trkpt>
      <trkpt lat="45.47294" lon="5.56869">
        <ele>514.4</ele>
        <time>2011-03-27T10:38:07Z</time>
      </trkpt>
      <trkpt lat="45.47295" lon="5.56856">
        <ele>513.7</ele>
        <time>2011-03-27T10:38:08Z</time>
      </trkpt>
      <trkpt lat="45.47297" lon="5.56843">
        <ele>513.1</ele>
        <time>2011-03-27T10:38:09Z</time>
      </trkpt>
      <trkpt lat="45.473" lon="5.5683">
        <ele>511.9</ele>
        <time>2011-03-27T10:38:10Z</time>
      </trkpt>
      <trkpt lat="45.47304" lon="5.56819">
        <ele>511</ele>
        <time>2011-03-27T10:38:11Z</time>
      </trkpt>
      <trkpt lat="45.47309" lon="5.56807">
        <ele>510.3</ele>
        <time>2011-03-27T10:38:12Z</time>
      </trkpt>
      <trkpt lat="45.47315" lon="5.56797">
        <ele>509.2</ele>
        <time>2011-03-27T10:38:13Z</time>
      </trkpt>
      <trkpt lat="45.47321" lon="5.56787">
        <ele>508.4</ele>
        <time>2011-03-27T10:38:14Z</time>
      </trkpt>
      <trkpt lat="45.47328" lon="5.56778">
        <ele>507.8</ele>
        <time>2011-03-27T10:38:15Z</time>
      </trkpt>
      <trkpt lat="45.47335" lon="5.56772">
        <ele>507.3</ele>
        <time>2011-03-27T10:38:16Z</time>
      </trkpt>
      <trkpt lat="45.47343" lon="5.56765">
        <ele>507</ele>
        <time>2011-03-27T10:38:17Z</time>
      </trkpt>
      <trkpt lat="45.47351" lon="5.56759">
        <ele>506.7</ele>
        <time>2011-03-27T10:38:18Z</time>
      </trkpt>
      <trkpt lat="45.47358" lon="5.56752">
        <ele>506.2</ele>
        <time>2011-03-27T10:38:19Z</time>
      </trkpt>
      <trkpt lat="45.47366" lon="5.56745">
        <ele>505.8</ele>
        <time>2011-03-27T10:38:20Z</time>
      </trkpt>
      <trkpt lat="45.47373" lon="5.56738">
        <ele>505.5</ele>
        <time>2011-03-27T10:38:21Z</time>
      </trkpt>
      <trkpt lat="45.4738" lon="5.56732">
        <ele>505.2</ele>
        <time>2011-03-27T10:38:22Z</time>
      </trkpt>
      <trkpt lat="45.47387" lon="5.56724">
        <ele>504.8</ele>
        <time>2011-03-27T10:38:23Z</time>
      </trkpt>
      <trkpt lat="45.47393" lon="5.56716">
        <ele>504.5</ele>
        <time>2011-03-27T10:38:24Z</time>
      </trkpt>
      <trkpt lat="45.47398" lon="5.56707">
        <ele>504.3</ele>
        <time>2011-03-27T10:38:25Z</time>
      </trkpt>
      <trkpt lat="45.47403" lon="5.56697">
        <ele>503.9</ele>
        <time>2011-03-27T10:38:26Z</time>
      </trkpt>
      <trkpt lat="45.47407" lon="5.56687">
        <ele>503.5</ele>
        <time>2011-03-27T10:38:27Z</time>
      </trkpt>
      <trkpt lat="45.4741" lon="5.56677">
        <ele>503.3</ele>
        <time>2011-03-27T10:38:28Z</time>
      </trkpt>
      <trkpt lat="45.47412" lon="5.56668">
        <ele>503.2</ele>
        <time>2011-03-27T10:38:29Z</time>
      </trkpt>
      <trkpt lat="45.47413" lon="5.56661">
        <ele>503.2</ele>
        <time>2011-03-27T10:38:30Z</time>
      </trkpt>
      <trkpt lat="45.47413" lon="5.56648">
        <ele>502.9</ele>
        <time>2011-03-27T10:38:32Z</time>
      </trkpt>
      <trkpt lat="45.47407" lon="5.56642">
        <ele>502.7</ele>
        <time>2011-03-27T10:38:34Z</time>
      </trkpt>
      <trkpt lat="45.474" lon="5.56642">
        <ele>502.7</ele>
        <time>2011-03-27T10:38:36Z</time>
      </trkpt>
      <trkpt lat="45.47393" lon="5.56642">
        <ele>502.7</ele>
        <time>2011-03-27T10:38:38Z</time>
      </trkpt>
      <trkpt lat="45.47386" lon="5.56641">
        <ele>502.8</ele>
        <time>2011-03-27T10:38:40Z</time>
      </trkpt>
      <trkpt lat="45.47379" lon="5.5664">
        <ele>502.9</ele>
        <time>2011-03-27T10:38:42Z</time>
      </trkpt>
      <trkpt lat="45.47372" lon="5.56638">
        <ele>503.1</ele>
        <time>2011-03-27T10:38:44Z</time>
      </trkpt>
      <trkpt lat="45.47364" lon="5.56636">
        <ele>502.3</ele>
        <time>2011-03-27T10:38:46Z</time>
      </trkpt>
      <trkpt lat="45.47357" lon="5.56633">
        <ele>502.2</ele>
        <time>2011-03-27T10:38:48Z</time>
      </trkpt>
      <trkpt lat="45.47351" lon="5.5663">
        <ele>502.4</ele>
        <time>2011-03-27T10:38:50Z</time>
      </trkpt>
      <trkpt lat="45.47344" lon="5.56628">
        <ele>502.9</ele>
        <time>2011-03-27T10:38:52Z</time>
      </trkpt>
      <trkpt lat="45.47337" lon="5.56624">
        <ele>502.8</ele>
        <time>2011-03-27T10:38:54Z</time>
      </trkpt>
      <trkpt lat="45.47329" lon="5.5662">
        <ele>502.3</ele>
        <time>2011-03-27T10:38:56Z</time>
      </trkpt>
      <trkpt lat="45.47322" lon="5.56615">
        <ele>502.9</ele>
        <time>2011-03-27T10:38:58Z</time>
      </trkpt>
      <trkpt lat="45.47315" lon="5.5661">
        <ele>503.3</ele>
        <time>2011-03-27T10:39:00Z</time>
      </trkpt>
      <trkpt lat="45.47307" lon="5.56606">
        <ele>503.7</ele>
        <time>2011-03-27T10:39:02Z</time>
      </trkpt>
      <trkpt lat="45.47299" lon="5.56602">
        <ele>503.6</ele>
        <time>2011-03-27T10:39:04Z</time>
      </trkpt>
      <trkpt lat="45.47291" lon="5.56597">
        <ele>503.3</ele>
        <time>2011-03-27T10:39:06Z</time>
      </trkpt>
      <trkpt lat="45.47283" lon="5.56592">
        <ele>503.2</ele>
        <time>2011-03-27T10:39:08Z</time>
      </trkpt>
      <trkpt lat="45.47279" lon="5.5659">
        <ele>503.1</ele>
        <time>2011-03-27T10:39:09Z</time>
      </trkpt>
      <trkpt lat="45.47274" lon="5.56588">
        <ele>502.8</ele>
        <time>2011-03-27T10:39:10Z</time>
      </trkpt>
      <trkpt lat="45.4727" lon="5.56586">
        <ele>502.6</ele>
        <time>2011-03-27T10:39:11Z</time>
      </trkpt>
      <trkpt lat="45.47266" lon="5.56583">
        <ele>502.4</ele>
        <time>2011-03-27T10:39:12Z</time>
      </trkpt>
      <trkpt lat="45.47261" lon="5.56581">
        <ele>502.1</ele>
        <time>2011-03-27T10:39:13Z</time>
      </trkpt>
      <trkpt lat="45.47257" lon="5.56579">
        <ele>501.9</ele>
        <time>2011-03-27T10:39:14Z</time>
      </trkpt>
      <trkpt lat="45.47253" lon="5.56576">
        <ele>501.7</ele>
        <time>2011-03-27T10:39:15Z</time>
      </trkpt>
      <trkpt lat="45.47248" lon="5.56574">
        <ele>501.6</ele>
        <time>2011-03-27T10:39:16Z</time>
      </trkpt>
      <trkpt lat="45.47244" lon="5.56571">
        <ele>501.7</ele>
        <time>2011-03-27T10:39:17Z</time>
      </trkpt>
      <trkpt lat="45.4724" lon="5.56569">
        <ele>501.8</ele>
        <time>2011-03-27T10:39:18Z</time>
      </trkpt>
      <trkpt lat="45.47235" lon="5.56567">
        <ele>501.9</ele>
        <time>2011-03-27T10:39:19Z</time>
      </trkpt>
      <trkpt lat="45.47231" lon="5.56564">
        <ele>502</ele>
        <time>2011-03-27T10:39:20Z</time>
      </trkpt>
      <trkpt lat="45.47227" lon="5.56562">
        <ele>502.1</ele>
        <time>2011-03-27T10:39:21Z</time>
      </trkpt>
      <trkpt lat="45.47222" lon="5.56559">
        <ele>502.2</ele>
        <time>2011-03-27T10:39:22Z</time>
      </trkpt>
      <trkpt lat="45.47218" lon="5.56557">
        <ele>501.9</ele>
        <time>2011-03-27T10:39:23Z</time>
      </trkpt>
      <trkpt lat="45.47213" lon="5.56555">
        <ele>501.7</ele>
        <time>2011-03-27T10:39:24Z</time>
      </trkpt>
      <trkpt lat="45.47209" lon="5.56552">
        <ele>501.5</ele>
        <time>2011-03-27T10:39:25Z</time>
      </trkpt>
      <trkpt lat="45.47204" lon="5.5655">
        <ele>501.6</ele>
        <time>2011-03-27T10:39:26Z</time>
      </trkpt>
      <trkpt lat="45.47199" lon="5.56547">
        <ele>501.6</ele>
        <time>2011-03-27T10:39:27Z</time>
      </trkpt>
      <trkpt lat="45.47194" lon="5.56544">
        <ele>501.6</ele>
        <time>2011-03-27T10:39:28Z</time>
      </trkpt>
      <trkpt lat="45.47189" lon="5.56541">
        <ele>501.6</ele>
        <time>2011-03-27T10:39:29Z</time>
      </trkpt>
      <trkpt lat="45.47183" lon="5.56538">
        <ele>501.6</ele>
        <time>2011-03-27T10:39:30Z</time>
      </trkpt>
      <trkpt lat="45.47178" lon="5.56535">
        <ele>501.6</ele>
        <time>2011-03-27T10:39:31Z</time>
      </trkpt>
      <trkpt lat="45.47172" lon="5.56532">
        <ele>501.9</ele>
        <time>2011-03-27T10:39:32Z</time>
      </trkpt>
      <trkpt lat="45.47167" lon="5.56529">
        <ele>502.1</ele>
        <time>2011-03-27T10:39:33Z</time>
      </trkpt>
      <trkpt lat="45.47161" lon="5.56527">
        <ele>502.3</ele>
        <time>2011-03-27T10:39:34Z</time>
      </trkpt>
      <trkpt lat="45.47156" lon="5.56524">
        <ele>502.4</ele>
        <time>2011-03-27T10:39:35Z</time>
      </trkpt>
      <trkpt lat="45.4715" lon="5.56521">
        <ele>502.1</ele>
        <time>2011-03-27T10:39:36Z</time>
      </trkpt>
      <trkpt lat="45.47145" lon="5.56517">
        <ele>501.9</ele>
        <time>2011-03-27T10:39:37Z</time>
      </trkpt>
      <trkpt lat="45.47139" lon="5.56515">
        <ele>501.8</ele>
        <time>2011-03-27T10:39:38Z</time>
      </trkpt>
      <trkpt lat="45.47134" lon="5.56512">
        <ele>501.4</ele>
        <time>2011-03-27T10:39:39Z</time>
      </trkpt>
      <trkpt lat="45.47128" lon="5.56509">
        <ele>501.1</ele>
        <time>2011-03-27T10:39:40Z</time>
      </trkpt>
      <trkpt lat="45.47123" lon="5.56506">
        <ele>500.8</ele>
        <time>2011-03-27T10:39:41Z</time>
      </trkpt>
      <trkpt lat="45.47117" lon="5.56503">
        <ele>500.7</ele>
        <time>2011-03-27T10:39:42Z</time>
      </trkpt>
      <trkpt lat="45.47112" lon="5.565">
        <ele>500.7</ele>
        <time>2011-03-27T10:39:43Z</time>
      </trkpt>
      <trkpt lat="45.47106" lon="5.56497">
        <ele>500.6</ele>
        <time>2011-03-27T10:39:44Z</time>
      </trkpt>
      <trkpt lat="45.47101" lon="5.56495">
        <ele>500.5</ele>
        <time>2011-03-27T10:39:45Z</time>
      </trkpt>
      <trkpt lat="45.47096" lon="5.56492">
        <ele>500.5</ele>
        <time>2011-03-27T10:39:46Z</time>
      </trkpt>
      <trkpt lat="45.47094" lon="5.56483">
        <ele>500.5</ele>
        <time>2011-03-27T10:39:48Z</time>
      </trkpt>
      <trkpt lat="45.47101" lon="5.56476">
        <ele>500.7</ele>
        <time>2011-03-27T10:39:50Z</time>
      </trkpt>
      <trkpt lat="45.47105" lon="5.56474">
        <ele>500.8</ele>
        <time>2011-03-27T10:39:51Z</time>
      </trkpt>
      <trkpt lat="45.4711" lon="5.56472">
        <ele>500.6</ele>
        <time>2011-03-27T10:39:52Z</time>
      </trkpt>
      <trkpt lat="45.47115" lon="5.5647">
        <ele>500.5</ele>
        <time>2011-03-27T10:39:53Z</time>
      </trkpt>
      <trkpt lat="45.47121" lon="5.56468">
        <ele>500.3</ele>
        <time>2011-03-27T10:39:54Z</time>
      </trkpt>
      <trkpt lat="45.47126" lon="5.56466">
        <ele>500.1</ele>
        <time>2011-03-27T10:39:55Z</time>
      </trkpt>
      <trkpt lat="45.47132" lon="5.56463">
        <ele>499.9</ele>
        <time>2011-03-27T10:39:56Z</time>
      </trkpt>
      <trkpt lat="45.47138" lon="5.56461">
        <ele>499.7</ele>
        <time>2011-03-27T10:39:57Z</time>
      </trkpt>
      <trkpt lat="45.47144" lon="5.56458">
        <ele>499.8</ele>
        <time>2011-03-27T10:39:58Z</time>
      </trkpt>
      <trkpt lat="45.47151" lon="5.56456">
        <ele>499.9</ele>
        <time>2011-03-27T10:39:59Z</time>
      </trkpt>
      <trkpt lat="45.47157" lon="5.56453">
        <ele>499.9</ele>
        <time>2011-03-27T10:40:00Z</time>
      </trkpt>
      <trkpt lat="45.47164" lon="5.5645">
        <ele>500</ele>
        <time>2011-03-27T10:40:01Z</time>
      </trkpt>
      <trkpt lat="45.47171" lon="5.56446">
        <ele>500</ele>
        <time>2011-03-27T10:40:02Z</time>
      </trkpt>
      <trkpt lat="45.47178" lon="5.56443">
        <ele>500</ele>
        <time>2011-03-27T10:40:03Z</time>
      </trkpt>
      <trkpt lat="45.47184" lon="5.56439">
        <ele>499.2</ele>
        <time>2011-03-27T10:40:04Z</time>
      </trkpt>
      <trkpt lat="45.47191" lon="5.56434">
        <ele>498.6</ele>
        <time>2011-03-27T10:40:05Z</time>
      </trkpt>
      <trkpt lat="45.47198" lon="5.56429">
        <ele>498.1</ele>
        <time>2011-03-27T10:40:06Z</time>
      </trkpt>
      <trkpt lat="45.47204" lon="5.56423">
        <ele>497.6</ele>
        <time>2011-03-27T10:40:07Z</time>
      </trkpt>
      <trkpt lat="45.47211" lon="5.56417">
        <ele>497.2</ele>
        <time>2011-03-27T10:40:08Z</time>
      </trkpt>
      <trkpt lat="45.47217" lon="5.56411">
        <ele>496.9</ele>
        <time>2011-03-27T10:40:09Z</time>
      </trkpt>
      <trkpt lat="45.47224" lon="5.56406">
        <ele>496.6</ele>
        <time>2011-03-27T10:40:10Z</time>
      </trkpt>
      <trkpt lat="45.4723" lon="5.56401">
        <ele>496.8</ele>
        <time>2011-03-27T10:40:11Z</time>
      </trkpt>
      <trkpt lat="45.47236" lon="5.56395">
        <ele>497</ele>
        <time>2011-03-27T10:40:12Z</time>
      </trkpt>
      <trkpt lat="45.47243" lon="5.5639">
        <ele>497.1</ele>
        <time>2011-03-27T10:40:13Z</time>
      </trkpt>
      <trkpt lat="45.47248" lon="5.56385">
        <ele>496.9</ele>
        <time>2011-03-27T10:40:14Z</time>
      </trkpt>
      <trkpt lat="45.47254" lon="5.5638">
        <ele>496.8</ele>
        <time>2011-03-27T10:40:15Z</time>
      </trkpt>
      <trkpt lat="45.4726" lon="5.56375">
        <ele>496.8</ele>
        <time>2011-03-27T10:40:16Z</time>
      </trkpt>
      <trkpt lat="45.47265" lon="5.5637">
        <ele>496.6</ele>
        <time>2011-03-27T10:40:17Z</time>
      </trkpt>
      <trkpt lat="45.47271" lon="5.56365">
        <ele>496.5</ele>
        <time>2011-03-27T10:40:18Z</time>
      </trkpt>
      <trkpt lat="45.47276" lon="5.56361">
        <ele>496.4</ele>
        <time>2011-03-27T10:40:19Z</time>
      </trkpt>
      <trkpt lat="45.47281" lon="5.56356">
        <ele>496.6</ele>
        <time>2011-03-27T10:40:20Z</time>
      </trkpt>
      <trkpt lat="45.47286" lon="5.56352">
        <ele>496.8</ele>
        <time>2011-03-27T10:40:21Z</time>
      </trkpt>
      <trkpt lat="45.47291" lon="5.56348">
        <ele>496.9</ele>
        <time>2011-03-27T10:40:22Z</time>
      </trkpt>
      <trkpt lat="45.47296" lon="5.56343">
        <ele>496.6</ele>
        <time>2011-03-27T10:40:23Z</time>
      </trkpt>
      <trkpt lat="45.47302" lon="5.56339">
        <ele>496.4</ele>
        <time>2011-03-27T10:40:24Z</time>
      </trkpt>
      <trkpt lat="45.47307" lon="5.56335">
        <ele>496.2</ele>
        <time>2011-03-27T10:40:25Z</time>
      </trkpt>
      <trkpt lat="45.47312" lon="5.5633">
        <ele>496.4</ele>
        <time>2011-03-27T10:40:26Z</time>
      </trkpt>
      <trkpt lat="45.47317" lon="5.56326">
        <ele>496.5</ele>
        <time>2011-03-27T10:40:27Z</time>
      </trkpt>
      <trkpt lat="45.47322" lon="5.56321">
        <ele>496.6</ele>
        <time>2011-03-27T10:40:28Z</time>
      </trkpt>
      <trkpt lat="45.47327" lon="5.56316">
        <ele>496.7</ele>
        <time>2011-03-27T10:40:29Z</time>
      </trkpt>
      <trkpt lat="45.47333" lon="5.56312">
        <ele>496</ele>
        <time>2011-03-27T10:40:30Z</time>
      </trkpt>
      <trkpt lat="45.47338" lon="5.56307">
        <ele>495.5</ele>
        <time>2011-03-27T10:40:31Z</time>
      </trkpt>
      <trkpt lat="45.47343" lon="5.56302">
        <ele>495.2</ele>
        <time>2011-03-27T10:40:32Z</time>
      </trkpt>
      <trkpt lat="45.47348" lon="5.56297">
        <ele>495</ele>
        <time>2011-03-27T10:40:33Z</time>
      </trkpt>
      <trkpt lat="45.47353" lon="5.56292">
        <ele>494.9</ele>
        <time>2011-03-27T10:40:34Z</time>
      </trkpt>
      <trkpt lat="45.47358" lon="5.56287">
        <ele>494.9</ele>
        <time>2011-03-27T10:40:35Z</time>
      </trkpt>
      <trkpt lat="45.47362" lon="5.56282">
        <ele>495.2</ele>
        <time>2011-03-27T10:40:36Z</time>
      </trkpt>
      <trkpt lat="45.47366" lon="5.56277">
        <ele>495.4</ele>
        <time>2011-03-27T10:40:37Z</time>
      </trkpt>
      <trkpt lat="45.4737" lon="5.56271">
        <ele>495.5</ele>
        <time>2011-03-27T10:40:38Z</time>
      </trkpt>
      <trkpt lat="45.47374" lon="5.56266">
        <ele>495.5</ele>
        <time>2011-03-27T10:40:39Z</time>
      </trkpt>
      <trkpt lat="45.47378" lon="5.56261">
        <ele>495.5</ele>
        <time>2011-03-27T10:40:40Z</time>
      </trkpt>
      <trkpt lat="45.47381" lon="5.56256">
        <ele>495.5</ele>
        <time>2011-03-27T10:40:41Z</time>
      </trkpt>
      <trkpt lat="45.47384" lon="5.5625">
        <ele>495.6</ele>
        <time>2011-03-27T10:40:42Z</time>
      </trkpt>
      <trkpt lat="45.47391" lon="5.56242">
        <ele>495.7</ele>
        <time>2011-03-27T10:40:44Z</time>
      </trkpt>
      <trkpt lat="45.47397" lon="5.56236">
        <ele>495.8</ele>
        <time>2011-03-27T10:40:46Z</time>
      </trkpt>
      <trkpt lat="45.47403" lon="5.56232">
        <ele>495.8</ele>
        <time>2011-03-27T10:40:48Z</time>
      </trkpt>
      <trkpt lat="45.4741" lon="5.56226">
        <ele>495.7</ele>
        <time>2011-03-27T10:40:50Z</time>
      </trkpt>
      <trkpt lat="45.47417" lon="5.56221">
        <ele>495.5</ele>
        <time>2011-03-27T10:40:52Z</time>
      </trkpt>
      <trkpt lat="45.47424" lon="5.56216">
        <ele>495.3</ele>
        <time>2011-03-27T10:40:54Z</time>
      </trkpt>
      <trkpt lat="45.47431" lon="5.56209">
        <ele>496</ele>
        <time>2011-03-27T10:40:56Z</time>
      </trkpt>
      <trkpt lat="45.47434" lon="5.56204">
        <ele>496.3</ele>
        <time>2011-03-27T10:40:57Z</time>
      </trkpt>
      <trkpt lat="45.47436" lon="5.56198">
        <ele>495.8</ele>
        <time>2011-03-27T10:40:58Z</time>
      </trkpt>
      <trkpt lat="45.47437" lon="5.56192">
        <ele>495.5</ele>
        <time>2011-03-27T10:40:59Z</time>
      </trkpt>
      <trkpt lat="45.47436" lon="5.56185">
        <ele>495.3</ele>
        <time>2011-03-27T10:41:00Z</time>
      </trkpt>
      <trkpt lat="45.47435" lon="5.56178">
        <ele>495.2</ele>
        <time>2011-03-27T10:41:01Z</time>
      </trkpt>
      <trkpt lat="45.47434" lon="5.56171">
        <ele>495.1</ele>
        <time>2011-03-27T10:41:02Z</time>
      </trkpt>
      <trkpt lat="45.47432" lon="5.56163">
        <ele>495</ele>
        <time>2011-03-27T10:41:03Z</time>
      </trkpt>
      <trkpt lat="45.47431" lon="5.56156">
        <ele>494.8</ele>
        <time>2011-03-27T10:41:04Z</time>
      </trkpt>
      <trkpt lat="45.47429" lon="5.56149">
        <ele>494.6</ele>
        <time>2011-03-27T10:41:05Z</time>
      </trkpt>
      <trkpt lat="45.47428" lon="5.56142">
        <ele>494.4</ele>
        <time>2011-03-27T10:41:06Z</time>
      </trkpt>
      <trkpt lat="45.47426" lon="5.56135">
        <ele>494.3</ele>
        <time>2011-03-27T10:41:07Z</time>
      </trkpt>
      <trkpt lat="45.47425" lon="5.56127">
        <ele>494.6</ele>
        <time>2011-03-27T10:41:08Z</time>
      </trkpt>
      <trkpt lat="45.47424" lon="5.5612">
        <ele>494.7</ele>
        <time>2011-03-27T10:41:09Z</time>
      </trkpt>
      <trkpt lat="45.47423" lon="5.56112">
        <ele>494.9</ele>
        <time>2011-03-27T10:41:10Z</time>
      </trkpt>
      <trkpt lat="45.47422" lon="5.56104">
        <ele>495.1</ele>
        <time>2011-03-27T10:41:11Z</time>
      </trkpt>
      <trkpt lat="45.47421" lon="5.56096">
        <ele>495.3</ele>
        <time>2011-03-27T10:41:12Z</time>
      </trkpt>
      <trkpt lat="45.4742" lon="5.56089">
        <ele>495.5</ele>
        <time>2011-03-27T10:41:13Z</time>
      </trkpt>
      <trkpt lat="45.47419" lon="5.56081">
        <ele>495.1</ele>
        <time>2011-03-27T10:41:14Z</time>
      </trkpt>
      <trkpt lat="45.47418" lon="5.56074">
        <ele>494.8</ele>
        <time>2011-03-27T10:41:15Z</time>
      </trkpt>
      <trkpt lat="45.47416" lon="5.56061">
        <ele>494</ele>
        <time>2011-03-27T10:41:17Z</time>
      </trkpt>
      <trkpt lat="45.47415" lon="5.5605">
        <ele>493.2</ele>
        <time>2011-03-27T10:41:19Z</time>
      </trkpt>
      <trkpt lat="45.47416" lon="5.56044">
        <ele>493.2</ele>
        <time>2011-03-27T10:41:20Z</time>
      </trkpt>
      <trkpt lat="45.47418" lon="5.56028">
        <ele>493.3</ele>
        <time>2011-03-27T10:41:23Z</time>
      </trkpt>
      <trkpt lat="45.47419" lon="5.56022">
        <ele>493.3</ele>
        <time>2011-03-27T10:41:24Z</time>
      </trkpt>
      <trkpt lat="45.4742" lon="5.56015">
        <ele>493.3</ele>
        <time>2011-03-27T10:41:25Z</time>
      </trkpt>
      <trkpt lat="45.47421" lon="5.56009">
        <ele>493.3</ele>
        <time>2011-03-27T10:41:26Z</time>
      </trkpt>
      <trkpt lat="45.47422" lon="5.56002">
        <ele>493.2</ele>
        <time>2011-03-27T10:41:27Z</time>
      </trkpt>
      <trkpt lat="45.47422" lon="5.55995">
        <ele>493.2</ele>
        <time>2011-03-27T10:41:28Z</time>
      </trkpt>
      <trkpt lat="45.47423" lon="5.55988">
        <ele>493.2</ele>
        <time>2011-03-27T10:41:29Z</time>
      </trkpt>
      <trkpt lat="45.47423" lon="5.55981">
        <ele>493.1</ele>
        <time>2011-03-27T10:41:30Z</time>
      </trkpt>
      <trkpt lat="45.47423" lon="5.55975">
        <ele>493.1</ele>
        <time>2011-03-27T10:41:31Z</time>
      </trkpt>
      <trkpt lat="45.47424" lon="5.55962">
        <ele>493.2</ele>
        <time>2011-03-27T10:41:33Z</time>
      </trkpt>
      <trkpt lat="45.47425" lon="5.55956">
        <ele>493.3</ele>
        <time>2011-03-27T10:41:34Z</time>
      </trkpt>
      <trkpt lat="45.47425" lon="5.55949">
        <ele>493.4</ele>
        <time>2011-03-27T10:41:35Z</time>
      </trkpt>
      <trkpt lat="45.47425" lon="5.55936">
        <ele>493.2</ele>
        <time>2011-03-27T10:41:37Z</time>
      </trkpt>
      <trkpt lat="45.47425" lon="5.55924">
        <ele>493.3</ele>
        <time>2011-03-27T10:41:39Z</time>
      </trkpt>
      <trkpt lat="45.47424" lon="5.55918">
        <ele>493.5</ele>
        <time>2011-03-27T10:41:40Z</time>
      </trkpt>
      <trkpt lat="45.47423" lon="5.55911">
        <ele>493.5</ele>
        <time>2011-03-27T10:41:41Z</time>
      </trkpt>
      <trkpt lat="45.47422" lon="5.55905">
        <ele>493.6</ele>
        <time>2011-03-27T10:41:42Z</time>
      </trkpt>
      <trkpt lat="45.4742" lon="5.55898">
        <ele>493.4</ele>
        <time>2011-03-27T10:41:43Z</time>
      </trkpt>
      <trkpt lat="45.47419" lon="5.55892">
        <ele>493.3</ele>
        <time>2011-03-27T10:41:44Z</time>
      </trkpt>
      <trkpt lat="45.47417" lon="5.55886">
        <ele>493.2</ele>
        <time>2011-03-27T10:41:45Z</time>
      </trkpt>
      <trkpt lat="45.47416" lon="5.55879">
        <ele>492.6</ele>
        <time>2011-03-27T10:41:46Z</time>
      </trkpt>
      <trkpt lat="45.47414" lon="5.55873">
        <ele>492.2</ele>
        <time>2011-03-27T10:41:47Z</time>
      </trkpt>
      <trkpt lat="45.47412" lon="5.55866">
        <ele>491.8</ele>
        <time>2011-03-27T10:41:48Z</time>
      </trkpt>
      <trkpt lat="45.4741" lon="5.55861">
        <ele>491.6</ele>
        <time>2011-03-27T10:41:49Z</time>
      </trkpt>
      <trkpt lat="45.47408" lon="5.55855">
        <ele>491.4</ele>
        <time>2011-03-27T10:41:50Z</time>
      </trkpt>
      <trkpt lat="45.47406" lon="5.55849">
        <ele>491.3</ele>
        <time>2011-03-27T10:41:51Z</time>
      </trkpt>
      <trkpt lat="45.47404" lon="5.55843">
        <ele>492.1</ele>
        <time>2011-03-27T10:41:52Z</time>
      </trkpt>
      <trkpt lat="45.47402" lon="5.55837">
        <ele>492.7</ele>
        <time>2011-03-27T10:41:53Z</time>
      </trkpt>
      <trkpt lat="45.47401" lon="5.55831">
        <ele>493.1</ele>
        <time>2011-03-27T10:41:54Z</time>
      </trkpt>
      <trkpt lat="45.47399" lon="5.55825">
        <ele>492.6</ele>
        <time>2011-03-27T10:41:55Z</time>
      </trkpt>
      <trkpt lat="45.47397" lon="5.55819">
        <ele>492.2</ele>
        <time>2011-03-27T10:41:56Z</time>
      </trkpt>
      <trkpt lat="45.47394" lon="5.55807">
        <ele>492.1</ele>
        <time>2011-03-27T10:41:58Z</time>
      </trkpt>
      <trkpt lat="45.47392" lon="5.55801">
        <ele>492.3</ele>
        <time>2011-03-27T10:41:59Z</time>
      </trkpt>
      <trkpt lat="45.4739" lon="5.55795">
        <ele>492.4</ele>
        <time>2011-03-27T10:42:00Z</time>
      </trkpt>
      <trkpt lat="45.47388" lon="5.55789">
        <ele>492.5</ele>
        <time>2011-03-27T10:42:01Z</time>
      </trkpt>
      <trkpt lat="45.47386" lon="5.55783">
        <ele>492.1</ele>
        <time>2011-03-27T10:42:02Z</time>
      </trkpt>
      <trkpt lat="45.47385" lon="5.55777">
        <ele>491.8</ele>
        <time>2011-03-27T10:42:03Z</time>
      </trkpt>
      <trkpt lat="45.47383" lon="5.55771">
        <ele>491.7</ele>
        <time>2011-03-27T10:42:04Z</time>
      </trkpt>
      <trkpt lat="45.47381" lon="5.55765">
        <ele>491.5</ele>
        <time>2011-03-27T10:42:05Z</time>
      </trkpt>
      <trkpt lat="45.4738" lon="5.55759">
        <ele>491.4</ele>
        <time>2011-03-27T10:42:06Z</time>
      </trkpt>
      <trkpt lat="45.47376" lon="5.55747">
        <ele>491.5</ele>
        <time>2011-03-27T10:42:08Z</time>
      </trkpt>
      <trkpt lat="45.47374" lon="5.55735">
        <ele>491.9</ele>
        <time>2011-03-27T10:42:10Z</time>
      </trkpt>
      <trkpt lat="45.47372" lon="5.55723">
        <ele>492</ele>
        <time>2011-03-27T10:42:12Z</time>
      </trkpt>
      <trkpt lat="45.47372" lon="5.55712">
        <ele>492.2</ele>
        <time>2011-03-27T10:42:14Z</time>
      </trkpt>
      <trkpt lat="45.47375" lon="5.55701">
        <ele>492.5</ele>
        <time>2011-03-27T10:42:16Z</time>
      </trkpt>
      <trkpt lat="45.47381" lon="5.55692">
        <ele>492.8</ele>
        <time>2011-03-27T10:42:18Z</time>
      </trkpt>
      <trkpt lat="45.47387" lon="5.55682">
        <ele>493.1</ele>
        <time>2011-03-27T10:42:20Z</time>
      </trkpt>
      <trkpt lat="45.47389" lon="5.55678">
        <ele>493</ele>
        <time>2011-03-27T10:42:21Z</time>
      </trkpt>
      <trkpt lat="45.47398" lon="5.55666">
        <ele>492.8</ele>
        <time>2011-03-27T10:42:24Z</time>
      </trkpt>
      <trkpt lat="45.47403" lon="5.55659">
        <ele>493</ele>
        <time>2011-03-27T10:42:26Z</time>
      </trkpt>
      <trkpt lat="45.47409" lon="5.55651">
        <ele>493.2</ele>
        <time>2011-03-27T10:42:28Z</time>
      </trkpt>
      <trkpt lat="45.47415" lon="5.55643">
        <ele>493.2</ele>
        <time>2011-03-27T10:42:30Z</time>
      </trkpt>
      <trkpt lat="45.47421" lon="5.55635">
        <ele>493.1</ele>
        <time>2011-03-27T10:42:32Z</time>
      </trkpt>
      <trkpt lat="45.47425" lon="5.55628">
        <ele>493.9</ele>
        <time>2011-03-27T10:42:34Z</time>
      </trkpt>
      <trkpt lat="45.4743" lon="5.55623">
        <ele>494.7</ele>
        <time>2011-03-27T10:42:36Z</time>
      </trkpt>
      <trkpt lat="45.47435" lon="5.55617">
        <ele>495.4</ele>
        <time>2011-03-27T10:42:38Z</time>
      </trkpt>
      <trkpt lat="45.4744" lon="5.5561">
        <ele>495.8</ele>
        <time>2011-03-27T10:42:40Z</time>
      </trkpt>
      <trkpt lat="45.47445" lon="5.55603">
        <ele>496</ele>
        <time>2011-03-27T10:42:42Z</time>
      </trkpt>
      <trkpt lat="45.4745" lon="5.55595">
        <ele>496.4</ele>
        <time>2011-03-27T10:42:44Z</time>
      </trkpt>
      <trkpt lat="45.47454" lon="5.55587">
        <ele>496.5</ele>
        <time>2011-03-27T10:42:46Z</time>
      </trkpt>
      <trkpt lat="45.47459" lon="5.55579">
        <ele>496.4</ele>
        <time>2011-03-27T10:42:48Z</time>
      </trkpt>
      <trkpt lat="45.47463" lon="5.55571">
        <ele>496.6</ele>
        <time>2011-03-27T10:42:50Z</time>
      </trkpt>
      <trkpt lat="45.47468" lon="5.55564">
        <ele>496.9</ele>
        <time>2011-03-27T10:42:52Z</time>
      </trkpt>
      <trkpt lat="45.47472" lon="5.55556">
        <ele>497.1</ele>
        <time>2011-03-27T10:42:54Z</time>
      </trkpt>
      <trkpt lat="45.47477" lon="5.55549">
        <ele>497.1</ele>
        <time>2011-03-27T10:42:56Z</time>
      </trkpt>
      <trkpt lat="45.47482" lon="5.55542">
        <ele>496.9</ele>
        <time>2011-03-27T10:42:58Z</time>
      </trkpt>
      <trkpt lat="45.47487" lon="5.55535">
        <ele>497.3</ele>
        <time>2011-03-27T10:43:00Z</time>
      </trkpt>
      <trkpt lat="45.47492" lon="5.55528">
        <ele>497.4</ele>
        <time>2011-03-27T10:43:02Z</time>
      </trkpt>
      <trkpt lat="45.47498" lon="5.55522">
        <ele>497.5</ele>
        <time>2011-03-27T10:43:04Z</time>
      </trkpt>
      <trkpt lat="45.47503" lon="5.55516">
        <ele>497.9</ele>
        <time>2011-03-27T10:43:06Z</time>
      </trkpt>
      <trkpt lat="45.47509" lon="5.5551">
        <ele>498.4</ele>
        <time>2011-03-27T10:43:08Z</time>
      </trkpt>
      <trkpt lat="45.47514" lon="5.55505">
        <ele>499</ele>
        <time>2011-03-27T10:43:10Z</time>
      </trkpt>
      <trkpt lat="45.47518" lon="5.55498">
        <ele>499.7</ele>
        <time>2011-03-27T10:43:12Z</time>
      </trkpt>
      <trkpt lat="45.47522" lon="5.55492">
        <ele>500.1</ele>
        <time>2011-03-27T10:43:14Z</time>
      </trkpt>
      <trkpt lat="45.47526" lon="5.55485">
        <ele>499.9</ele>
        <time>2011-03-27T10:43:16Z</time>
      </trkpt>
      <trkpt lat="45.4753" lon="5.55478">
        <ele>499.9</ele>
        <time>2011-03-27T10:43:18Z</time>
      </trkpt>
      <trkpt lat="45.47533" lon="5.55471">
        <ele>500</ele>
        <time>2011-03-27T10:43:20Z</time>
      </trkpt>
      <trkpt lat="45.47536" lon="5.55463">
        <ele>501.2</ele>
        <time>2011-03-27T10:43:22Z</time>
      </trkpt>
      <trkpt lat="45.47538" lon="5.55459">
        <ele>501.6</ele>
        <time>2011-03-27T10:43:23Z</time>
      </trkpt>
      <trkpt lat="45.47543" lon="5.55449">
        <ele>502</ele>
        <time>2011-03-27T10:43:26Z</time>
      </trkpt>
      <trkpt lat="45.47548" lon="5.55438">
        <ele>502.8</ele>
        <time>2011-03-27T10:43:29Z</time>
      </trkpt>
      <trkpt lat="45.47553" lon="5.55429">
        <ele>503.2</ele>
        <time>2011-03-27T10:43:32Z</time>
      </trkpt>
      <trkpt lat="45.47559" lon="5.55421">
        <ele>503.6</ele>
        <time>2011-03-27T10:43:35Z</time>
      </trkpt>
      <trkpt lat="45.47565" lon="5.55414">
        <ele>504.1</ele>
        <time>2011-03-27T10:43:38Z</time>
      </trkpt>
      <trkpt lat="45.47572" lon="5.55409">
        <ele>505.2</ele>
        <time>2011-03-27T10:43:41Z</time>
      </trkpt>
      <trkpt lat="45.47578" lon="5.55403">
        <ele>506.4</ele>
        <time>2011-03-27T10:43:44Z</time>
      </trkpt>
      <trkpt lat="45.47585" lon="5.55397">
        <ele>506.6</ele>
        <time>2011-03-27T10:43:50Z</time>
      </trkpt>
      <trkpt lat="45.47584" lon="5.55385">
        <ele>506</ele>
        <time>2011-03-27T10:43:56Z</time>
      </trkpt>
      <trkpt lat="45.47579" lon="5.55378">
        <ele>506.2</ele>
        <time>2011-03-27T10:43:59Z</time>
      </trkpt>
      <trkpt lat="45.47573" lon="5.55373">
        <ele>506.6</ele>
        <time>2011-03-27T10:44:01Z</time>
      </trkpt>
      <trkpt lat="45.47567" lon="5.55368">
        <ele>506.1</ele>
        <time>2011-03-27T10:44:03Z</time>
      </trkpt>
      <trkpt lat="45.47561" lon="5.55362">
        <ele>505.5</ele>
        <time>2011-03-27T10:44:05Z</time>
      </trkpt>
      <trkpt lat="45.47554" lon="5.55355">
        <ele>504.8</ele>
        <time>2011-03-27T10:44:07Z</time>
      </trkpt>
      <trkpt lat="45.47549" lon="5.55348">
        <ele>504.9</ele>
        <time>2011-03-27T10:44:09Z</time>
      </trkpt>
      <trkpt lat="45.47542" lon="5.55341">
        <ele>504.9</ele>
        <time>2011-03-27T10:44:11Z</time>
      </trkpt>
      <trkpt lat="45.47535" lon="5.55333">
        <ele>504.7</ele>
        <time>2011-03-27T10:44:13Z</time>
      </trkpt>
      <trkpt lat="45.47532" lon="5.5533">
        <ele>504.6</ele>
        <time>2011-03-27T10:44:14Z</time>
      </trkpt>
      <trkpt lat="45.47528" lon="5.55325">
        <ele>504.1</ele>
        <time>2011-03-27T10:44:15Z</time>
      </trkpt>
      <trkpt lat="45.47524" lon="5.55321">
        <ele>503.7</ele>
        <time>2011-03-27T10:44:16Z</time>
      </trkpt>
      <trkpt lat="45.4752" lon="5.55317">
        <ele>503.5</ele>
        <time>2011-03-27T10:44:17Z</time>
      </trkpt>
      <trkpt lat="45.47516" lon="5.55313">
        <ele>503.6</ele>
        <time>2011-03-27T10:44:18Z</time>
      </trkpt>
      <trkpt lat="45.47512" lon="5.55309">
        <ele>503.6</ele>
        <time>2011-03-27T10:44:19Z</time>
      </trkpt>
      <trkpt lat="45.47509" lon="5.55304">
        <ele>503.7</ele>
        <time>2011-03-27T10:44:20Z</time>
      </trkpt>
      <trkpt lat="45.47505" lon="5.55299">
        <ele>503.8</ele>
        <time>2011-03-27T10:44:21Z</time>
      </trkpt>
      <trkpt lat="45.47501" lon="5.55294">
        <ele>503.9</ele>
        <time>2011-03-27T10:44:22Z</time>
      </trkpt>
      <trkpt lat="45.47497" lon="5.5529">
        <ele>503.9</ele>
        <time>2011-03-27T10:44:23Z</time>
      </trkpt>
      <trkpt lat="45.47493" lon="5.55285">
        <ele>503.4</ele>
        <time>2011-03-27T10:44:24Z</time>
      </trkpt>
      <trkpt lat="45.47489" lon="5.55281">
        <ele>503</ele>
        <time>2011-03-27T10:44:25Z</time>
      </trkpt>
      <trkpt lat="45.47485" lon="5.55276">
        <ele>502.7</ele>
        <time>2011-03-27T10:44:26Z</time>
      </trkpt>
      <trkpt lat="45.47481" lon="5.55272">
        <ele>502.4</ele>
        <time>2011-03-27T10:44:27Z</time>
      </trkpt>
      <trkpt lat="45.47477" lon="5.55267">
        <ele>502.4</ele>
        <time>2011-03-27T10:44:28Z</time>
      </trkpt>
      <trkpt lat="45.47472" lon="5.55262">
        <ele>502.4</ele>
        <time>2011-03-27T10:44:29Z</time>
      </trkpt>
      <trkpt lat="45.47468" lon="5.55258">
        <ele>502.3</ele>
        <time>2011-03-27T10:44:30Z</time>
      </trkpt>
      <trkpt lat="45.47464" lon="5.55253">
        <ele>502.4</ele>
        <time>2011-03-27T10:44:31Z</time>
      </trkpt>
      <trkpt lat="45.4746" lon="5.55248">
        <ele>502.4</ele>
        <time>2011-03-27T10:44:32Z</time>
      </trkpt>
      <trkpt lat="45.47456" lon="5.55242">
        <ele>502.5</ele>
        <time>2011-03-27T10:44:33Z</time>
      </trkpt>
      <trkpt lat="45.47452" lon="5.55237">
        <ele>502</ele>
        <time>2011-03-27T10:44:34Z</time>
      </trkpt>
      <trkpt lat="45.47448" lon="5.5523">
        <ele>501.6</ele>
        <time>2011-03-27T10:44:35Z</time>
      </trkpt>
      <trkpt lat="45.47445" lon="5.55223">
        <ele>501.3</ele>
        <time>2011-03-27T10:44:36Z</time>
      </trkpt>
      <trkpt lat="45.47442" lon="5.55216">
        <ele>501.2</ele>
        <time>2011-03-27T10:44:37Z</time>
      </trkpt>
      <trkpt lat="45.47439" lon="5.55209">
        <ele>501</ele>
        <time>2011-03-27T10:44:38Z</time>
      </trkpt>
      <trkpt lat="45.47436" lon="5.55201">
        <ele>501</ele>
        <time>2011-03-27T10:44:39Z</time>
      </trkpt>
      <trkpt lat="45.47433" lon="5.55194">
        <ele>500.7</ele>
        <time>2011-03-27T10:44:40Z</time>
      </trkpt>
      <trkpt lat="45.4743" lon="5.55187">
        <ele>500.4</ele>
        <time>2011-03-27T10:44:41Z</time>
      </trkpt>
      <trkpt lat="45.47427" lon="5.55179">
        <ele>500.3</ele>
        <time>2011-03-27T10:44:42Z</time>
      </trkpt>
      <trkpt lat="45.47425" lon="5.55172">
        <ele>500</ele>
        <time>2011-03-27T10:44:43Z</time>
      </trkpt>
      <trkpt lat="45.47421" lon="5.55165">
        <ele>499.9</ele>
        <time>2011-03-27T10:44:44Z</time>
      </trkpt>
      <trkpt lat="45.47418" lon="5.55159">
        <ele>499.7</ele>
        <time>2011-03-27T10:44:45Z</time>
      </trkpt>
      <trkpt lat="45.47415" lon="5.55152">
        <ele>499.6</ele>
        <time>2011-03-27T10:44:46Z</time>
      </trkpt>
      <trkpt lat="45.47412" lon="5.55146">
        <ele>499.7</ele>
        <time>2011-03-27T10:44:47Z</time>
      </trkpt>
      <trkpt lat="45.47408" lon="5.5514">
        <ele>499.7</ele>
        <time>2011-03-27T10:44:48Z</time>
      </trkpt>
      <trkpt lat="45.47405" lon="5.55135">
        <ele>499.7</ele>
        <time>2011-03-27T10:44:49Z</time>
      </trkpt>
      <trkpt lat="45.47401" lon="5.5513">
        <ele>499.4</ele>
        <time>2011-03-27T10:44:50Z</time>
      </trkpt>
      <trkpt lat="45.47398" lon="5.55125">
        <ele>499.1</ele>
        <time>2011-03-27T10:44:51Z</time>
      </trkpt>
      <trkpt lat="45.47394" lon="5.5512">
        <ele>498.9</ele>
        <time>2011-03-27T10:44:52Z</time>
      </trkpt>
      <trkpt lat="45.47391" lon="5.55115">
        <ele>499.2</ele>
        <time>2011-03-27T10:44:53Z</time>
      </trkpt>
      <trkpt lat="45.47388" lon="5.5511">
        <ele>499.4</ele>
        <time>2011-03-27T10:44:54Z</time>
      </trkpt>
      <trkpt lat="45.47384" lon="5.55105">
        <ele>499.6</ele>
        <time>2011-03-27T10:44:55Z</time>
      </trkpt>
      <trkpt lat="45.47381" lon="5.551">
        <ele>500.1</ele>
        <time>2011-03-27T10:44:56Z</time>
      </trkpt>
      <trkpt lat="45.47378" lon="5.55095">
        <ele>500.4</ele>
        <time>2011-03-27T10:44:57Z</time>
      </trkpt>
      <trkpt lat="45.47375" lon="5.5509">
        <ele>500.7</ele>
        <time>2011-03-27T10:44:58Z</time>
      </trkpt>
      <trkpt lat="45.47371" lon="5.55085">
        <ele>500.5</ele>
        <time>2011-03-27T10:44:59Z</time>
      </trkpt>
      <trkpt lat="45.47368" lon="5.5508">
        <ele>500.3</ele>
        <time>2011-03-27T10:45:00Z</time>
      </trkpt>
      <trkpt lat="45.47365" lon="5.55075">
        <ele>500.2</ele>
        <time>2011-03-27T10:45:01Z</time>
      </trkpt>
      <trkpt lat="45.47362" lon="5.5507">
        <ele>500</ele>
        <time>2011-03-27T10:45:02Z</time>
      </trkpt>
      <trkpt lat="45.47359" lon="5.55065">
        <ele>499.9</ele>
        <time>2011-03-27T10:45:03Z</time>
      </trkpt>
      <trkpt lat="45.47356" lon="5.5506">
        <ele>499.7</ele>
        <time>2011-03-27T10:45:04Z</time>
      </trkpt>
      <trkpt lat="45.47353" lon="5.55056">
        <ele>499.7</ele>
        <time>2011-03-27T10:45:05Z</time>
      </trkpt>
      <trkpt lat="45.4735" lon="5.55051">
        <ele>499.9</ele>
        <time>2011-03-27T10:45:06Z</time>
      </trkpt>
      <trkpt lat="45.47347" lon="5.55046">
        <ele>500.1</ele>
        <time>2011-03-27T10:45:07Z</time>
      </trkpt>
      <trkpt lat="45.47344" lon="5.55041">
        <ele>500.2</ele>
        <time>2011-03-27T10:45:08Z</time>
      </trkpt>
      <trkpt lat="45.47341" lon="5.55037">
        <ele>500.6</ele>
        <time>2011-03-27T10:45:09Z</time>
      </trkpt>
      <trkpt lat="45.47337" lon="5.55032">
        <ele>500.8</ele>
        <time>2011-03-27T10:45:10Z</time>
      </trkpt>
      <trkpt lat="45.47331" lon="5.55023">
        <ele>501.1</ele>
        <time>2011-03-27T10:45:12Z</time>
      </trkpt>
      <trkpt lat="45.47328" lon="5.55019">
        <ele>501.2</ele>
        <time>2011-03-27T10:45:13Z</time>
      </trkpt>
      <trkpt lat="45.47324" lon="5.55015">
        <ele>501.3</ele>
        <time>2011-03-27T10:45:14Z</time>
      </trkpt>
      <trkpt lat="45.4732" lon="5.5501">
        <ele>501.4</ele>
        <time>2011-03-27T10:45:15Z</time>
      </trkpt>
      <trkpt lat="45.47316" lon="5.55005">
        <ele>501.5</ele>
        <time>2011-03-27T10:45:16Z</time>
      </trkpt>
      <trkpt lat="45.47312" lon="5.55">
        <ele>501.6</ele>
        <time>2011-03-27T10:45:17Z</time>
      </trkpt>
      <trkpt lat="45.47308" lon="5.54995">
        <ele>501.3</ele>
        <time>2011-03-27T10:45:18Z</time>
      </trkpt>
      <trkpt lat="45.47304" lon="5.5499">
        <ele>501.1</ele>
        <time>2011-03-27T10:45:19Z</time>
      </trkpt>
      <trkpt lat="45.47301" lon="5.54985">
        <ele>501</ele>
        <time>2011-03-27T10:45:20Z</time>
      </trkpt>
      <trkpt lat="45.47297" lon="5.5498">
        <ele>500.9</ele>
        <time>2011-03-27T10:45:21Z</time>
      </trkpt>
      <trkpt lat="45.47293" lon="5.54975">
        <ele>500.6</ele>
        <time>2011-03-27T10:45:22Z</time>
      </trkpt>
      <trkpt lat="45.47289" lon="5.54969">
        <ele>500.3</ele>
        <time>2011-03-27T10:45:23Z</time>
      </trkpt>
      <trkpt lat="45.47285" lon="5.54964">
        <ele>500.1</ele>
        <time>2011-03-27T10:45:24Z</time>
      </trkpt>
      <trkpt lat="45.47281" lon="5.54959">
        <ele>500.1</ele>
        <time>2011-03-27T10:45:25Z</time>
      </trkpt>
      <trkpt lat="45.47278" lon="5.54954">
        <ele>500</ele>
        <time>2011-03-27T10:45:26Z</time>
      </trkpt>
      <trkpt lat="45.47274" lon="5.54949">
        <ele>500</ele>
        <time>2011-03-27T10:45:27Z</time>
      </trkpt>
      <trkpt lat="45.47271" lon="5.54944">
        <ele>499.8</ele>
        <time>2011-03-27T10:45:28Z</time>
      </trkpt>
      <trkpt lat="45.47267" lon="5.54939">
        <ele>499.6</ele>
        <time>2011-03-27T10:45:29Z</time>
      </trkpt>
      <trkpt lat="45.47264" lon="5.54935">
        <ele>499.5</ele>
        <time>2011-03-27T10:45:30Z</time>
      </trkpt>
      <trkpt lat="45.47261" lon="5.5493">
        <ele>499.8</ele>
        <time>2011-03-27T10:45:31Z</time>
      </trkpt>
      <trkpt lat="45.47254" lon="5.54922">
        <ele>500.1</ele>
        <time>2011-03-27T10:45:33Z</time>
      </trkpt>
      <trkpt lat="45.4725" lon="5.54913">
        <ele>500.8</ele>
        <time>2011-03-27T10:45:35Z</time>
      </trkpt>
      <trkpt lat="45.4725" lon="5.54903">
        <ele>501.3</ele>
        <time>2011-03-27T10:45:37Z</time>
      </trkpt>
      <trkpt lat="45.47253" lon="5.54894">
        <ele>501.9</ele>
        <time>2011-03-27T10:45:40Z</time>
      </trkpt>
      <trkpt lat="45.47257" lon="5.54885">
        <ele>501.9</ele>
        <time>2011-03-27T10:45:43Z</time>
      </trkpt>
      <trkpt lat="45.47263" lon="5.54876">
        <ele>502</ele>
        <time>2011-03-27T10:45:46Z</time>
      </trkpt>
      <trkpt lat="45.47267" lon="5.54865">
        <ele>504.1</ele>
        <time>2011-03-27T10:45:49Z</time>
      </trkpt>
      <trkpt lat="45.47272" lon="5.54856">
        <ele>504.5</ele>
        <time>2011-03-27T10:45:52Z</time>
      </trkpt>
      <trkpt lat="45.47278" lon="5.54847">
        <ele>505.3</ele>
        <time>2011-03-27T10:45:55Z</time>
      </trkpt>
      <trkpt lat="45.47284" lon="5.54839">
        <ele>505.4</ele>
        <time>2011-03-27T10:45:58Z</time>
      </trkpt>
      <trkpt lat="45.47289" lon="5.54831">
        <ele>505.9</ele>
        <time>2011-03-27T10:46:01Z</time>
      </trkpt>
      <trkpt lat="45.47296" lon="5.54824">
        <ele>507</ele>
        <time>2011-03-27T10:46:04Z</time>
      </trkpt>
      <trkpt lat="45.47301" lon="5.54816">
        <ele>507.5</ele>
        <time>2011-03-27T10:46:07Z</time>
      </trkpt>
      <trkpt lat="45.47307" lon="5.54808">
        <ele>508</ele>
        <time>2011-03-27T10:46:10Z</time>
      </trkpt>
      <trkpt lat="45.47312" lon="5.548">
        <ele>508.5</ele>
        <time>2011-03-27T10:46:13Z</time>
      </trkpt>
      <trkpt lat="45.47317" lon="5.54791">
        <ele>509.1</ele>
        <time>2011-03-27T10:46:16Z</time>
      </trkpt>
      <trkpt lat="45.47322" lon="5.54782">
        <ele>509.6</ele>
        <time>2011-03-27T10:46:19Z</time>
      </trkpt>
      <trkpt lat="45.47326" lon="5.54773">
        <ele>510.3</ele>
        <time>2011-03-27T10:46:22Z</time>
      </trkpt>
      <trkpt lat="45.4733" lon="5.54764">
        <ele>511</ele>
        <time>2011-03-27T10:46:25Z</time>
      </trkpt>
      <trkpt lat="45.47334" lon="5.54755">
        <ele>511.5</ele>
        <time>2011-03-27T10:46:28Z</time>
      </trkpt>
      <trkpt lat="45.47335" lon="5.54751">
        <ele>511.6</ele>
        <time>2011-03-27T10:46:29Z</time>
      </trkpt>
      <trkpt lat="45.47344" lon="5.54739">
        <ele>512.7</ele>
        <time>2011-03-27T10:46:34Z</time>
      </trkpt>
      <trkpt lat="45.47351" lon="5.5473">
        <ele>513.2</ele>
        <time>2011-03-27T10:46:38Z</time>
      </trkpt>
      <trkpt lat="45.47358" lon="5.54722">
        <ele>514.5</ele>
        <time>2011-03-27T10:46:42Z</time>
      </trkpt>
      <trkpt lat="45.47364" lon="5.54716">
        <ele>515.5</ele>
        <time>2011-03-27T10:46:46Z</time>
      </trkpt>
      <trkpt lat="45.4737" lon="5.54708">
        <ele>516.4</ele>
        <time>2011-03-27T10:46:51Z</time>
      </trkpt>
      <trkpt lat="45.47376" lon="5.54701">
        <ele>517.2</ele>
        <time>2011-03-27T10:46:56Z</time>
      </trkpt>
      <trkpt lat="45.47383" lon="5.54694">
        <ele>518.7</ele>
        <time>2011-03-27T10:47:01Z</time>
      </trkpt>
      <trkpt lat="45.4739" lon="5.54686">
        <ele>519.8</ele>
        <time>2011-03-27T10:47:06Z</time>
      </trkpt>
      <trkpt lat="45.47395" lon="5.5468">
        <ele>520.4</ele>
        <time>2011-03-27T10:47:10Z</time>
      </trkpt>
      <trkpt lat="45.47401" lon="5.54673">
        <ele>521.4</ele>
        <time>2011-03-27T10:47:14Z</time>
      </trkpt>
      <trkpt lat="45.47408" lon="5.54667">
        <ele>522.1</ele>
        <time>2011-03-27T10:47:18Z</time>
      </trkpt>
      <trkpt lat="45.47413" lon="5.5466">
        <ele>523</ele>
        <time>2011-03-27T10:47:22Z</time>
      </trkpt>
      <trkpt lat="45.4742" lon="5.54653">
        <ele>523.7</ele>
        <time>2011-03-27T10:47:27Z</time>
      </trkpt>
      <trkpt lat="45.47426" lon="5.54645">
        <ele>524.1</ele>
        <time>2011-03-27T10:47:32Z</time>
      </trkpt>
      <trkpt lat="45.47427" lon="5.54644">
        <ele>524.1</ele>
        <time>2011-03-27T10:47:33Z</time>
      </trkpt>
      <trkpt lat="45.47439" lon="5.5463">
        <ele>526.1</ele>
        <time>2011-03-27T10:47:43Z</time>
      </trkpt>
      <trkpt lat="45.47446" lon="5.54621">
        <ele>527.5</ele>
        <time>2011-03-27T10:47:49Z</time>
      </trkpt>
      <trkpt lat="45.4745" lon="5.54612">
        <ele>528.7</ele>
        <time>2011-03-27T10:47:54Z</time>
      </trkpt>
      <trkpt lat="45.47456" lon="5.54603">
        <ele>529.5</ele>
        <time>2011-03-27T10:48:00Z</time>
      </trkpt>
      <trkpt lat="45.47461" lon="5.54593">
        <ele>531.5</ele>
        <time>2011-03-27T10:48:06Z</time>
      </trkpt>
      <trkpt lat="45.47465" lon="5.54584">
        <ele>532.9</ele>
        <time>2011-03-27T10:48:12Z</time>
      </trkpt>
      <trkpt lat="45.4747" lon="5.54573">
        <ele>533</ele>
        <time>2011-03-27T10:48:19Z</time>
      </trkpt>
      <trkpt lat="45.47462" lon="5.54566">
        <ele>535.1</ele>
        <time>2011-03-27T10:48:30Z</time>
      </trkpt>
      <trkpt lat="45.47454" lon="5.54568">
        <ele>537.8</ele>
        <time>2011-03-27T10:48:40Z</time>
      </trkpt>
      <trkpt lat="45.47453" lon="5.54568">
        <ele>537.6</ele>
        <time>2011-03-27T10:48:41Z</time>
      </trkpt>
      <trkpt lat="45.47437" lon="5.5457">
        <ele>540.7</ele>
        <time>2011-03-27T10:48:56Z</time>
      </trkpt>
      <trkpt lat="45.47429" lon="5.54569">
        <ele>542.4</ele>
        <time>2011-03-27T10:49:03Z</time>
      </trkpt>
      <trkpt lat="45.4742" lon="5.54566">
        <ele>543.2</ele>
        <time>2011-03-27T10:49:10Z</time>
      </trkpt>
      <trkpt lat="45.47412" lon="5.54563">
        <ele>544.5</ele>
        <time>2011-03-27T10:49:16Z</time>
      </trkpt>
      <trkpt lat="45.47406" lon="5.54555">
        <ele>545.8</ele>
        <time>2011-03-27T10:49:22Z</time>
      </trkpt>
      <trkpt lat="45.47405" lon="5.54543">
        <ele>546.9</ele>
        <time>2011-03-27T10:49:30Z</time>
      </trkpt>
      <trkpt lat="45.47408" lon="5.54532">
        <ele>548.1</ele>
        <time>2011-03-27T10:49:38Z</time>
      </trkpt>
      <trkpt lat="45.47414" lon="5.54522">
        <ele>550.9</ele>
        <time>2011-03-27T10:49:47Z</time>
      </trkpt>
      <trkpt lat="45.47414" lon="5.54521">
        <ele>550.9</ele>
        <time>2011-03-27T10:49:48Z</time>
      </trkpt>
      <trkpt lat="45.47424" lon="5.54503">
        <ele>553.2</ele>
        <time>2011-03-27T10:50:03Z</time>
      </trkpt>
      <trkpt lat="45.4743" lon="5.54493">
        <ele>555.2</ele>
        <time>2011-03-27T10:50:12Z</time>
      </trkpt>
      <trkpt lat="45.47436" lon="5.54485">
        <ele>557.9</ele>
        <time>2011-03-27T10:50:21Z</time>
      </trkpt>
      <trkpt lat="45.47442" lon="5.54477">
        <ele>558.1</ele>
        <time>2011-03-27T10:50:29Z</time>
      </trkpt>
      <trkpt lat="45.47447" lon="5.54467">
        <ele>559.9</ele>
        <time>2011-03-27T10:50:37Z</time>
      </trkpt>
      <trkpt lat="45.47452" lon="5.54457">
        <ele>560.9</ele>
        <time>2011-03-27T10:50:45Z</time>
      </trkpt>
      <trkpt lat="45.47457" lon="5.54446">
        <ele>561.4</ele>
        <time>2011-03-27T10:50:53Z</time>
      </trkpt>
      <trkpt lat="45.47457" lon="5.54445">
        <ele>561.2</ele>
        <time>2011-03-27T10:50:54Z</time>
      </trkpt>
      <trkpt lat="45.47465" lon="5.54426">
        <ele>564.7</ele>
        <time>2011-03-27T10:51:08Z</time>
      </trkpt>
      <trkpt lat="45.47471" lon="5.54417">
        <ele>565.6</ele>
        <time>2011-03-27T10:51:15Z</time>
      </trkpt>
      <trkpt lat="45.47476" lon="5.54408">
        <ele>566.1</ele>
        <time>2011-03-27T10:51:22Z</time>
      </trkpt>
      <trkpt lat="45.4748" lon="5.54397">
        <ele>567</ele>
        <time>2011-03-27T10:51:29Z</time>
      </trkpt>
      <trkpt lat="45.47485" lon="5.54387">
        <ele>568.2</ele>
        <time>2011-03-27T10:51:36Z</time>
      </trkpt>
      <trkpt lat="45.4749" lon="5.54378">
        <ele>570</ele>
        <time>2011-03-27T10:51:43Z</time>
      </trkpt>
      <trkpt lat="45.47495" lon="5.54368">
        <ele>571</ele>
        <time>2011-03-27T10:51:51Z</time>
      </trkpt>
      <trkpt lat="45.47501" lon="5.54359">
        <ele>571.5</ele>
        <time>2011-03-27T10:51:58Z</time>
      </trkpt>
      <trkpt lat="45.47501" lon="5.54357">
        <ele>571.6</ele>
        <time>2011-03-27T10:51:59Z</time>
      </trkpt>
      <trkpt lat="45.47511" lon="5.5434">
        <ele>575.2</ele>
        <time>2011-03-27T10:52:15Z</time>
      </trkpt>
      <trkpt lat="45.47515" lon="5.5433">
        <ele>577.6</ele>
        <time>2011-03-27T10:52:22Z</time>
      </trkpt>
      <trkpt lat="45.4752" lon="5.54321">
        <ele>577.6</ele>
        <time>2011-03-27T10:52:29Z</time>
      </trkpt>
      <trkpt lat="45.47526" lon="5.54313">
        <ele>578.6</ele>
        <time>2011-03-27T10:52:35Z</time>
      </trkpt>
      <trkpt lat="45.47531" lon="5.54303">
        <ele>580</ele>
        <time>2011-03-27T10:52:42Z</time>
      </trkpt>
      <trkpt lat="45.47537" lon="5.54296">
        <ele>580.1</ele>
        <time>2011-03-27T10:52:48Z</time>
      </trkpt>
      <trkpt lat="45.47544" lon="5.54289">
        <ele>580.8</ele>
        <time>2011-03-27T10:52:53Z</time>
      </trkpt>
      <trkpt lat="45.4755" lon="5.54282">
        <ele>581.4</ele>
        <time>2011-03-27T10:52:58Z</time>
      </trkpt>
      <trkpt lat="45.47555" lon="5.54274">
        <ele>582.2</ele>
        <time>2011-03-27T10:53:03Z</time>
      </trkpt>
      <trkpt lat="45.47556" lon="5.54273">
        <ele>582.4</ele>
        <time>2011-03-27T10:53:04Z</time>
      </trkpt>
      <trkpt lat="45.47567" lon="5.54258">
        <ele>582.3</ele>
        <time>2011-03-27T10:53:13Z</time>
      </trkpt>
      <trkpt lat="45.47573" lon="5.5425">
        <ele>583.4</ele>
        <time>2011-03-27T10:53:19Z</time>
      </trkpt>
      <trkpt lat="45.47577" lon="5.54239">
        <ele>583.8</ele>
        <time>2011-03-27T10:53:25Z</time>
      </trkpt>
      <trkpt lat="45.47582" lon="5.5423">
        <ele>585.1</ele>
        <time>2011-03-27T10:53:32Z</time>
      </trkpt>
      <trkpt lat="45.47583" lon="5.54218">
        <ele>587.1</ele>
        <time>2011-03-27T10:53:39Z</time>
      </trkpt>
      <trkpt lat="45.47582" lon="5.54205">
        <ele>588.2</ele>
        <time>2011-03-27T10:53:46Z</time>
      </trkpt>
      <trkpt lat="45.4758" lon="5.54194">
        <ele>589.6</ele>
        <time>2011-03-27T10:53:52Z</time>
      </trkpt>
      <trkpt lat="45.47577" lon="5.54183">
        <ele>590.4</ele>
        <time>2011-03-27T10:53:59Z</time>
      </trkpt>
      <trkpt lat="45.47573" lon="5.54173">
        <ele>591.6</ele>
        <time>2011-03-27T10:54:06Z</time>
      </trkpt>
      <trkpt lat="45.47573" lon="5.54171">
        <ele>591.6</ele>
        <time>2011-03-27T10:54:07Z</time>
      </trkpt>
      <trkpt lat="45.47571" lon="5.5415">
        <ele>594.2</ele>
        <time>2011-03-27T10:54:19Z</time>
      </trkpt>
      <trkpt lat="45.47573" lon="5.54139">
        <ele>594.9</ele>
        <time>2011-03-27T10:54:25Z</time>
      </trkpt>
      <trkpt lat="45.47575" lon="5.54128">
        <ele>595.8</ele>
        <time>2011-03-27T10:54:31Z</time>
      </trkpt>
      <trkpt lat="45.47578" lon="5.54116">
        <ele>596.1</ele>
        <time>2011-03-27T10:54:37Z</time>
      </trkpt>
      <trkpt lat="45.47582" lon="5.54105">
        <ele>596.4</ele>
        <time>2011-03-27T10:54:42Z</time>
      </trkpt>
      <trkpt lat="45.47589" lon="5.54096">
        <ele>596.8</ele>
        <time>2011-03-27T10:54:46Z</time>
      </trkpt>
      <trkpt lat="45.47595" lon="5.54092">
        <ele>596.7</ele>
        <time>2011-03-27T10:54:49Z</time>
      </trkpt>
      <trkpt lat="45.47602" lon="5.54089">
        <ele>597.4</ele>
        <time>2011-03-27T10:54:52Z</time>
      </trkpt>
      <trkpt lat="45.4761" lon="5.54085">
        <ele>597.8</ele>
        <time>2011-03-27T10:54:56Z</time>
      </trkpt>
      <trkpt lat="45.47618" lon="5.54081">
        <ele>598.3</ele>
        <time>2011-03-27T10:55:00Z</time>
      </trkpt>
      <trkpt lat="45.47625" lon="5.54076">
        <ele>598.1</ele>
        <time>2011-03-27T10:55:03Z</time>
      </trkpt>
      <trkpt lat="45.47631" lon="5.5407">
        <ele>598.1</ele>
        <time>2011-03-27T10:55:06Z</time>
      </trkpt>
      <trkpt lat="45.47637" lon="5.54062">
        <ele>597.9</ele>
        <time>2011-03-27T10:55:09Z</time>
      </trkpt>
      <trkpt lat="45.47638" lon="5.54059">
        <ele>597.7</ele>
        <time>2011-03-27T10:55:10Z</time>
      </trkpt>
      <trkpt lat="45.47646" lon="5.54042">
        <ele>598.5</ele>
        <time>2011-03-27T10:55:15Z</time>
      </trkpt>
      <trkpt lat="45.47649" lon="5.54031">
        <ele>598.7</ele>
        <time>2011-03-27T10:55:18Z</time>
      </trkpt>
      <trkpt lat="45.47651" lon="5.54022">
        <ele>599.1</ele>
        <time>2011-03-27T10:55:21Z</time>
      </trkpt>
      <trkpt lat="45.47653" lon="5.5401">
        <ele>599.7</ele>
        <time>2011-03-27T10:55:25Z</time>
      </trkpt>
      <trkpt lat="45.47655" lon="5.53999">
        <ele>599.3</ele>
        <time>2011-03-27T10:55:29Z</time>
      </trkpt>
      <trkpt lat="45.47657" lon="5.53987">
        <ele>600.2</ele>
        <time>2011-03-27T10:55:34Z</time>
      </trkpt>
      <trkpt lat="45.47659" lon="5.53975">
        <ele>601.3</ele>
        <time>2011-03-27T10:55:40Z</time>
      </trkpt>
      <trkpt lat="45.4766" lon="5.53964">
        <ele>602.7</ele>
        <time>2011-03-27T10:55:46Z</time>
      </trkpt>
      <trkpt lat="45.47663" lon="5.53952">
        <ele>604</ele>
        <time>2011-03-27T10:55:53Z</time>
      </trkpt>
      <trkpt lat="45.47665" lon="5.53941">
        <ele>605.4</ele>
        <time>2011-03-27T10:55:59Z</time>
      </trkpt>
      <trkpt lat="45.47667" lon="5.53929">
        <ele>606.5</ele>
        <time>2011-03-27T10:56:05Z</time>
      </trkpt>
      <trkpt lat="45.47669" lon="5.53917">
        <ele>606.8</ele>
        <time>2011-03-27T10:56:11Z</time>
      </trkpt>
      <trkpt lat="45.47669" lon="5.53915">
        <ele>606.9</ele>
        <time>2011-03-27T10:56:12Z</time>
      </trkpt>
      <trkpt lat="45.47672" lon="5.53894">
        <ele>608.6</ele>
        <time>2011-03-27T10:56:23Z</time>
      </trkpt>
      <trkpt lat="45.47674" lon="5.53883">
        <ele>609.7</ele>
        <time>2011-03-27T10:56:28Z</time>
      </trkpt>
      <trkpt lat="45.47674" lon="5.53872">
        <ele>610</ele>
        <time>2011-03-27T10:56:33Z</time>
      </trkpt>
      <trkpt lat="45.47673" lon="5.53861">
        <ele>611.1</ele>
        <time>2011-03-27T10:56:39Z</time>
      </trkpt>
      <trkpt lat="45.47669" lon="5.5385">
        <ele>612.4</ele>
        <time>2011-03-27T10:56:45Z</time>
      </trkpt>
      <trkpt lat="45.47667" lon="5.53837">
        <ele>612.3</ele>
        <time>2011-03-27T10:56:50Z</time>
      </trkpt>
      <trkpt lat="45.47666" lon="5.53825">
        <ele>613.4</ele>
        <time>2011-03-27T10:56:55Z</time>
      </trkpt>
      <trkpt lat="45.47665" lon="5.53815">
        <ele>613.4</ele>
        <time>2011-03-27T10:57:00Z</time>
      </trkpt>
      <trkpt lat="45.47666" lon="5.53802">
        <ele>614.1</ele>
        <time>2011-03-27T10:57:06Z</time>
      </trkpt>
      <trkpt lat="45.47666" lon="5.53791">
        <ele>616.4</ele>
        <time>2011-03-27T10:57:12Z</time>
      </trkpt>
      <trkpt lat="45.47666" lon="5.53789">
        <ele>616.7</ele>
        <time>2011-03-27T10:57:13Z</time>
      </trkpt>
      <trkpt lat="45.47666" lon="5.53768">
        <ele>618.1</ele>
        <time>2011-03-27T10:57:24Z</time>
      </trkpt>
      <trkpt lat="45.47666" lon="5.53756">
        <ele>621.1</ele>
        <time>2011-03-27T10:57:30Z</time>
      </trkpt>
      <trkpt lat="45.47666" lon="5.53745">
        <ele>622.7</ele>
        <time>2011-03-27T10:57:36Z</time>
      </trkpt>
      <trkpt lat="45.47665" lon="5.53733">
        <ele>623.8</ele>
        <time>2011-03-27T10:57:42Z</time>
      </trkpt>
      <trkpt lat="45.47665" lon="5.53722">
        <ele>625.6</ele>
        <time>2011-03-27T10:57:48Z</time>
      </trkpt>
      <trkpt lat="45.47665" lon="5.53709">
        <ele>627.4</ele>
        <time>2011-03-27T10:57:55Z</time>
      </trkpt>
      <trkpt lat="45.47665" lon="5.53698">
        <ele>628.9</ele>
        <time>2011-03-27T10:58:01Z</time>
      </trkpt>
      <trkpt lat="45.47665" lon="5.53685">
        <ele>629.7</ele>
        <time>2011-03-27T10:58:08Z</time>
      </trkpt>
      <trkpt lat="45.47667" lon="5.53675">
        <ele>629.9</ele>
        <time>2011-03-27T11:02:18Z</time>
      </trkpt>
      <trkpt lat="45.47667" lon="5.53672">
        <ele>629.6</ele>
        <time>2011-03-27T11:02:19Z</time>
      </trkpt>
      <trkpt lat="45.47671" lon="5.53652">
        <ele>630.3</ele>
        <time>2011-03-27T11:02:27Z</time>
      </trkpt>
      <trkpt lat="45.47674" lon="5.5364">
        <ele>631.4</ele>
        <time>2011-03-27T11:02:32Z</time>
      </trkpt>
      <trkpt lat="45.47678" lon="5.5363">
        <ele>631.5</ele>
        <time>2011-03-27T11:02:37Z</time>
      </trkpt>
      <trkpt lat="45.47681" lon="5.5362">
        <ele>632</ele>
        <time>2011-03-27T11:02:42Z</time>
      </trkpt>
      <trkpt lat="45.47684" lon="5.53609">
        <ele>632.6</ele>
        <time>2011-03-27T11:02:47Z</time>
      </trkpt>
      <trkpt lat="45.47686" lon="5.53598">
        <ele>633.6</ele>
        <time>2011-03-27T11:02:52Z</time>
      </trkpt>
      <trkpt lat="45.47688" lon="5.53587">
        <ele>635.8</ele>
        <time>2011-03-27T11:02:57Z</time>
      </trkpt>
      <trkpt lat="45.47691" lon="5.53576">
        <ele>636</ele>
        <time>2011-03-27T11:03:02Z</time>
      </trkpt>
      <trkpt lat="45.47692" lon="5.53565">
        <ele>636.9</ele>
        <time>2011-03-27T11:03:07Z</time>
      </trkpt>
      <trkpt lat="45.47692" lon="5.53554">
        <ele>637.6</ele>
        <time>2011-03-27T11:03:13Z</time>
      </trkpt>
      <trkpt lat="45.47687" lon="5.53546">
        <ele>638.6</ele>
        <time>2011-03-27T11:03:17Z</time>
      </trkpt>
      <trkpt lat="45.47683" lon="5.53538">
        <ele>638.5</ele>
        <time>2011-03-27T11:03:20Z</time>
      </trkpt>
      <trkpt lat="45.47681" lon="5.53535">
        <ele>638.8</ele>
        <time>2011-03-27T11:03:21Z</time>
      </trkpt>
      <trkpt lat="45.47674" lon="5.5352">
        <ele>638.3</ele>
        <time>2011-03-27T11:03:26Z</time>
      </trkpt>
      <trkpt lat="45.4767" lon="5.53511">
        <ele>638.1</ele>
        <time>2011-03-27T11:03:29Z</time>
      </trkpt>
      <trkpt lat="45.47666" lon="5.53502">
        <ele>638.8</ele>
        <time>2011-03-27T11:03:32Z</time>
      </trkpt>
      <trkpt lat="45.47662" lon="5.53492">
        <ele>637.8</ele>
        <time>2011-03-27T11:03:35Z</time>
      </trkpt>
      <trkpt lat="45.47656" lon="5.53483">
        <ele>638.1</ele>
        <time>2011-03-27T11:03:38Z</time>
      </trkpt>
      <trkpt lat="45.47651" lon="5.53477">
        <ele>638.3</ele>
        <time>2011-03-27T11:03:40Z</time>
      </trkpt>
      <trkpt lat="45.47646" lon="5.53472">
        <ele>638.5</ele>
        <time>2011-03-27T11:03:42Z</time>
      </trkpt>
      <trkpt lat="45.4764" lon="5.53467">
        <ele>638.9</ele>
        <time>2011-03-27T11:03:44Z</time>
      </trkpt>
      <trkpt lat="45.47635" lon="5.53458">
        <ele>638.9</ele>
        <time>2011-03-27T11:03:47Z</time>
      </trkpt>
      <trkpt lat="45.47638" lon="5.53449">
        <ele>639.7</ele>
        <time>2011-03-27T11:03:51Z</time>
      </trkpt>
      <trkpt lat="45.47644" lon="5.53442">
        <ele>639.8</ele>
        <time>2011-03-27T11:03:55Z</time>
      </trkpt>
      <trkpt lat="45.4765" lon="5.53434">
        <ele>640.4</ele>
        <time>2011-03-27T11:03:59Z</time>
      </trkpt>
      <trkpt lat="45.47655" lon="5.53427">
        <ele>641.8</ele>
        <time>2011-03-27T11:04:03Z</time>
      </trkpt>
      <trkpt lat="45.47661" lon="5.5342">
        <ele>642.7</ele>
        <time>2011-03-27T11:04:07Z</time>
      </trkpt>
      <trkpt lat="45.47666" lon="5.53412">
        <ele>643.5</ele>
        <time>2011-03-27T11:04:11Z</time>
      </trkpt>
      <trkpt lat="45.47671" lon="5.53405">
        <ele>643.9</ele>
        <time>2011-03-27T11:04:15Z</time>
      </trkpt>
      <trkpt lat="45.47677" lon="5.53396">
        <ele>644.4</ele>
        <time>2011-03-27T11:04:19Z</time>
      </trkpt>
      <trkpt lat="45.47682" lon="5.53388">
        <ele>645.2</ele>
        <time>2011-03-27T11:04:23Z</time>
      </trkpt>
      <trkpt lat="45.47684" lon="5.53386">
        <ele>645.4</ele>
        <time>2011-03-27T11:04:24Z</time>
      </trkpt>
      <trkpt lat="45.47693" lon="5.53369">
        <ele>646</ele>
        <time>2011-03-27T11:04:31Z</time>
      </trkpt>
      <trkpt lat="45.47697" lon="5.53361">
        <ele>646.3</ele>
        <time>2011-03-27T11:04:34Z</time>
      </trkpt>
      <trkpt lat="45.47702" lon="5.53351">
        <ele>646.4</ele>
        <time>2011-03-27T11:04:38Z</time>
      </trkpt>
      <trkpt lat="45.47708" lon="5.53341">
        <ele>646.3</ele>
        <time>2011-03-27T11:04:42Z</time>
      </trkpt>
      <trkpt lat="45.47714" lon="5.53333">
        <ele>647</ele>
        <time>2011-03-27T11:04:46Z</time>
      </trkpt>
      <trkpt lat="45.47721" lon="5.53332">
        <ele>646.9</ele>
        <time>2011-03-27T11:04:49Z</time>
      </trkpt>
      <trkpt lat="45.47727" lon="5.53335">
        <ele>646.7</ele>
        <time>2011-03-27T11:04:51Z</time>
      </trkpt>
      <trkpt lat="45.47732" lon="5.5334">
        <ele>646.8</ele>
        <time>2011-03-27T11:04:53Z</time>
      </trkpt>
      <trkpt lat="45.47737" lon="5.53344">
        <ele>647.1</ele>
        <time>2011-03-27T11:04:55Z</time>
      </trkpt>
      <trkpt lat="45.47743" lon="5.53349">
        <ele>647.1</ele>
        <time>2011-03-27T11:04:57Z</time>
      </trkpt>
      <trkpt lat="45.47748" lon="5.53354">
        <ele>647.2</ele>
        <time>2011-03-27T11:04:59Z</time>
      </trkpt>
      <trkpt lat="45.47754" lon="5.53358">
        <ele>647.5</ele>
        <time>2011-03-27T11:05:01Z</time>
      </trkpt>
      <trkpt lat="45.4776" lon="5.53364">
        <ele>647.5</ele>
        <time>2011-03-27T11:05:03Z</time>
      </trkpt>
      <trkpt lat="45.47767" lon="5.53371">
        <ele>647.2</ele>
        <time>2011-03-27T11:05:05Z</time>
      </trkpt>
      <trkpt lat="45.4777" lon="5.53375">
        <ele>647</ele>
        <time>2011-03-27T11:05:06Z</time>
      </trkpt>
      <trkpt lat="45.47774" lon="5.53379">
        <ele>646.9</ele>
        <time>2011-03-27T11:05:07Z</time>
      </trkpt>
      <trkpt lat="45.47778" lon="5.53383">
        <ele>646.2</ele>
        <time>2011-03-27T11:05:08Z</time>
      </trkpt>
      <trkpt lat="45.47783" lon="5.53388">
        <ele>645.7</ele>
        <time>2011-03-27T11:05:09Z</time>
      </trkpt>
      <trkpt lat="45.47788" lon="5.53393">
        <ele>645.3</ele>
        <time>2011-03-27T11:05:10Z</time>
      </trkpt>
      <trkpt lat="45.47792" lon="5.53397">
        <ele>645</ele>
        <time>2011-03-27T11:05:11Z</time>
      </trkpt>
      <trkpt lat="45.47797" lon="5.53401">
        <ele>644.7</ele>
        <time>2011-03-27T11:05:12Z</time>
      </trkpt>
      <trkpt lat="45.47801" lon="5.53405">
        <ele>644.4</ele>
        <time>2011-03-27T11:05:13Z</time>
      </trkpt>
      <trkpt lat="45.47806" lon="5.53409">
        <ele>644.2</ele>
        <time>2011-03-27T11:05:14Z</time>
      </trkpt>
      <trkpt lat="45.4781" lon="5.53412">
        <ele>644.5</ele>
        <time>2011-03-27T11:05:15Z</time>
      </trkpt>
      <trkpt lat="45.47815" lon="5.53415">
        <ele>644.7</ele>
        <time>2011-03-27T11:05:16Z</time>
      </trkpt>
      <trkpt lat="45.47819" lon="5.53418">
        <ele>644.8</ele>
        <time>2011-03-27T11:05:17Z</time>
      </trkpt>
      <trkpt lat="45.47827" lon="5.53424">
        <ele>644.5</ele>
        <time>2011-03-27T11:05:19Z</time>
      </trkpt>
      <trkpt lat="45.47835" lon="5.5343">
        <ele>644.6</ele>
        <time>2011-03-27T11:05:21Z</time>
      </trkpt>
      <trkpt lat="45.47842" lon="5.53435">
        <ele>644.8</ele>
        <time>2011-03-27T11:05:23Z</time>
      </trkpt>
      <trkpt lat="45.4785" lon="5.53441">
        <ele>644.9</ele>
        <time>2011-03-27T11:05:25Z</time>
      </trkpt>
      <trkpt lat="45.47854" lon="5.53443">
        <ele>645</ele>
        <time>2011-03-27T11:05:26Z</time>
      </trkpt>
      <trkpt lat="45.47863" lon="5.53448">
        <ele>644.9</ele>
        <time>2011-03-27T11:05:28Z</time>
      </trkpt>
      <trkpt lat="45.47871" lon="5.5345">
        <ele>644.8</ele>
        <time>2011-03-27T11:05:30Z</time>
      </trkpt>
      <trkpt lat="45.47878" lon="5.53451">
        <ele>645.9</ele>
        <time>2011-03-27T11:05:32Z</time>
      </trkpt>
      <trkpt lat="45.47884" lon="5.53452">
        <ele>646.5</ele>
        <time>2011-03-27T11:05:34Z</time>
      </trkpt>
      <trkpt lat="45.4789" lon="5.53453">
        <ele>646.8</ele>
        <time>2011-03-27T11:05:36Z</time>
      </trkpt>
      <trkpt lat="45.47897" lon="5.53451">
        <ele>646.6</ele>
        <time>2011-03-27T11:05:38Z</time>
      </trkpt>
      <trkpt lat="45.47903" lon="5.53445">
        <ele>647.8</ele>
        <time>2011-03-27T11:05:41Z</time>
      </trkpt>
      <trkpt lat="45.47909" lon="5.53438">
        <ele>648.5</ele>
        <time>2011-03-27T11:05:44Z</time>
      </trkpt>
      <trkpt lat="45.47915" lon="5.53437">
        <ele>649.1</ele>
        <time>2011-03-27T11:05:47Z</time>
      </trkpt>
      <trkpt lat="45.47923" lon="5.53438">
        <ele>650</ele>
        <time>2011-03-27T11:05:50Z</time>
      </trkpt>
      <trkpt lat="45.47931" lon="5.5344">
        <ele>650.4</ele>
        <time>2011-03-27T11:05:53Z</time>
      </trkpt>
      <trkpt lat="45.47939" lon="5.53441">
        <ele>650.7</ele>
        <time>2011-03-27T11:05:56Z</time>
      </trkpt>
      <trkpt lat="45.47947" lon="5.53443">
        <ele>651.5</ele>
        <time>2011-03-27T11:05:59Z</time>
      </trkpt>
      <trkpt lat="45.47954" lon="5.53444">
        <ele>652.3</ele>
        <time>2011-03-27T11:06:02Z</time>
      </trkpt>
      <trkpt lat="45.47961" lon="5.53444">
        <ele>652.9</ele>
        <time>2011-03-27T11:06:05Z</time>
      </trkpt>
      <trkpt lat="45.4797" lon="5.53443">
        <ele>653.2</ele>
        <time>2011-03-27T11:06:09Z</time>
      </trkpt>
      <trkpt lat="45.47972" lon="5.53432">
        <ele>653.4</ele>
        <time>2011-03-27T11:06:14Z</time>
      </trkpt>
      <trkpt lat="45.4797" lon="5.53421">
        <ele>654.3</ele>
        <time>2011-03-27T11:06:19Z</time>
      </trkpt>
      <trkpt lat="45.47968" lon="5.5341">
        <ele>654.2</ele>
        <time>2011-03-27T11:06:24Z</time>
      </trkpt>
      <trkpt lat="45.47965" lon="5.534">
        <ele>655.6</ele>
        <time>2011-03-27T11:06:29Z</time>
      </trkpt>
      <trkpt lat="45.47965" lon="5.53398">
        <ele>655.9</ele>
        <time>2011-03-27T11:06:30Z</time>
      </trkpt>
      <trkpt lat="45.47959" lon="5.53378">
        <ele>658.5</ele>
        <time>2011-03-27T11:06:40Z</time>
      </trkpt>
      <trkpt lat="45.47955" lon="5.53368">
        <ele>659.3</ele>
        <time>2011-03-27T11:06:45Z</time>
      </trkpt>
      <trkpt lat="45.47951" lon="5.53359">
        <ele>659.8</ele>
        <time>2011-03-27T11:06:50Z</time>
      </trkpt>
      <trkpt lat="45.47945" lon="5.5335">
        <ele>660.6</ele>
        <time>2011-03-27T11:06:55Z</time>
      </trkpt>
      <trkpt lat="45.4794" lon="5.53342">
        <ele>660.8</ele>
        <time>2011-03-27T11:07:00Z</time>
      </trkpt>
      <trkpt lat="45.47935" lon="5.53333">
        <ele>661.7</ele>
        <time>2011-03-27T11:07:05Z</time>
      </trkpt>
      <trkpt lat="45.4793" lon="5.53324">
        <ele>662.3</ele>
        <time>2011-03-27T11:07:10Z</time>
      </trkpt>
      <trkpt lat="45.47926" lon="5.53315">
        <ele>663.8</ele>
        <time>2011-03-27T11:07:15Z</time>
      </trkpt>
      <trkpt lat="45.47922" lon="5.53305">
        <ele>664.9</ele>
        <time>2011-03-27T11:07:20Z</time>
      </trkpt>
      <trkpt lat="45.47918" lon="5.53293">
        <ele>665.1</ele>
        <time>2011-03-27T11:07:26Z</time>
      </trkpt>
      <trkpt lat="45.47915" lon="5.53283">
        <ele>666.4</ele>
        <time>2011-03-27T11:07:31Z</time>
      </trkpt>
      <trkpt lat="45.47914" lon="5.5328">
        <ele>666.6</ele>
        <time>2011-03-27T11:07:32Z</time>
      </trkpt>
      <trkpt lat="45.47911" lon="5.53259">
        <ele>667.1</ele>
        <time>2011-03-27T11:07:41Z</time>
      </trkpt>
      <trkpt lat="45.47908" lon="5.53248">
        <ele>667.1</ele>
        <time>2011-03-27T11:07:46Z</time>
      </trkpt>
      <trkpt lat="45.47905" lon="5.53236">
        <ele>667.9</ele>
        <time>2011-03-27T11:07:52Z</time>
      </trkpt>
      <trkpt lat="45.47903" lon="5.53225">
        <ele>669.6</ele>
        <time>2011-03-27T11:07:57Z</time>
      </trkpt>
      <trkpt lat="45.47901" lon="5.53214">
        <ele>670.8</ele>
        <time>2011-03-27T11:08:02Z</time>
      </trkpt>
      <trkpt lat="45.479" lon="5.53202">
        <ele>670.7</ele>
        <time>2011-03-27T11:08:07Z</time>
      </trkpt>
      <trkpt lat="45.47899" lon="5.5319">
        <ele>672</ele>
        <time>2011-03-27T11:08:12Z</time>
      </trkpt>
      <trkpt lat="45.47898" lon="5.53179">
        <ele>673.3</ele>
        <time>2011-03-27T11:08:17Z</time>
      </trkpt>
      <trkpt lat="45.47897" lon="5.53167">
        <ele>675.1</ele>
        <time>2011-03-27T11:08:22Z</time>
      </trkpt>
      <trkpt lat="45.47895" lon="5.53155">
        <ele>674.8</ele>
        <time>2011-03-27T11:08:27Z</time>
      </trkpt>
      <trkpt lat="45.47894" lon="5.53143">
        <ele>674.3</ele>
        <time>2011-03-27T11:08:32Z</time>
      </trkpt>
      <trkpt lat="45.47893" lon="5.53141">
        <ele>674.6</ele>
        <time>2011-03-27T11:08:33Z</time>
      </trkpt>
      <trkpt lat="45.4789" lon="5.53122">
        <ele>675.7</ele>
        <time>2011-03-27T11:08:42Z</time>
      </trkpt>
      <trkpt lat="45.47888" lon="5.53109">
        <ele>677.2</ele>
        <time>2011-03-27T11:08:47Z</time>
      </trkpt>
      <trkpt lat="45.47886" lon="5.53097">
        <ele>677.3</ele>
        <time>2011-03-27T11:08:51Z</time>
      </trkpt>
      <trkpt lat="45.47884" lon="5.53085">
        <ele>677.3</ele>
        <time>2011-03-27T11:08:55Z</time>
      </trkpt>
      <trkpt lat="45.47882" lon="5.53073">
        <ele>677.2</ele>
        <time>2011-03-27T11:08:59Z</time>
      </trkpt>
      <trkpt lat="45.47881" lon="5.53062">
        <ele>678.5</ele>
        <time>2011-03-27T11:09:02Z</time>
      </trkpt>
      <trkpt lat="45.47879" lon="5.53052">
        <ele>678.2</ele>
        <time>2011-03-27T11:09:05Z</time>
      </trkpt>
      <trkpt lat="45.47876" lon="5.53041">
        <ele>678.7</ele>
        <time>2011-03-27T11:09:08Z</time>
      </trkpt>
      <trkpt lat="45.47874" lon="5.53029">
        <ele>678.9</ele>
        <time>2011-03-27T11:09:11Z</time>
      </trkpt>
      <trkpt lat="45.47871" lon="5.53018">
        <ele>679.2</ele>
        <time>2011-03-27T11:09:14Z</time>
      </trkpt>
      <trkpt lat="45.47869" lon="5.53008">
        <ele>678.9</ele>
        <time>2011-03-27T11:09:17Z</time>
      </trkpt>
      <trkpt lat="45.47866" lon="5.52997">
        <ele>679.2</ele>
        <time>2011-03-27T11:09:20Z</time>
      </trkpt>
      <trkpt lat="45.47863" lon="5.52985">
        <ele>679.1</ele>
        <time>2011-03-27T11:09:23Z</time>
      </trkpt>
      <trkpt lat="45.47861" lon="5.52975">
        <ele>679.5</ele>
        <time>2011-03-27T11:09:26Z</time>
      </trkpt>
      <trkpt lat="45.47857" lon="5.52963">
        <ele>680.1</ele>
        <time>2011-03-27T11:09:29Z</time>
      </trkpt>
      <trkpt lat="45.47854" lon="5.52952">
        <ele>680.3</ele>
        <time>2011-03-27T11:09:32Z</time>
      </trkpt>
      <trkpt lat="45.47851" lon="5.52942">
        <ele>680.6</ele>
        <time>2011-03-27T11:09:35Z</time>
      </trkpt>
      <trkpt lat="45.4785" lon="5.52938">
        <ele>680.4</ele>
        <time>2011-03-27T11:09:36Z</time>
      </trkpt>
      <trkpt lat="45.47844" lon="5.5292">
        <ele>681.3</ele>
        <time>2011-03-27T11:09:41Z</time>
      </trkpt>
      <trkpt lat="45.47839" lon="5.52909">
        <ele>681.1</ele>
        <time>2011-03-27T11:09:45Z</time>
      </trkpt>
      <trkpt lat="45.47837" lon="5.52899">
        <ele>681.6</ele>
        <time>2011-03-27T11:09:49Z</time>
      </trkpt>
      <trkpt lat="45.47833" lon="5.52889">
        <ele>682</ele>
        <time>2011-03-27T11:09:52Z</time>
      </trkpt>
      <trkpt lat="45.47829" lon="5.52879">
        <ele>683</ele>
        <time>2011-03-27T11:09:55Z</time>
      </trkpt>
      <trkpt lat="45.47825" lon="5.5287">
        <ele>683.4</ele>
        <time>2011-03-27T11:09:58Z</time>
      </trkpt>
      <trkpt lat="45.4782" lon="5.52861">
        <ele>683.7</ele>
        <time>2011-03-27T11:10:01Z</time>
      </trkpt>
      <trkpt lat="45.47814" lon="5.52854">
        <ele>683.9</ele>
        <time>2011-03-27T11:10:05Z</time>
      </trkpt>
      <trkpt lat="45.47806" lon="5.52852">
        <ele>685.3</ele>
        <time>2011-03-27T11:10:10Z</time>
      </trkpt>
      <trkpt lat="45.47798" lon="5.5285">
        <ele>685.9</ele>
        <time>2011-03-27T11:10:14Z</time>
      </trkpt>
      <trkpt lat="45.47791" lon="5.52848">
        <ele>686.9</ele>
        <time>2011-03-27T11:10:18Z</time>
      </trkpt>
      <trkpt lat="45.47784" lon="5.52847">
        <ele>687.6</ele>
        <time>2011-03-27T11:10:22Z</time>
      </trkpt>
      <trkpt lat="45.47775" lon="5.52844">
        <ele>688.8</ele>
        <time>2011-03-27T11:10:27Z</time>
      </trkpt>
      <trkpt lat="45.47766" lon="5.52842">
        <ele>690.5</ele>
        <time>2011-03-27T11:10:32Z</time>
      </trkpt>
      <trkpt lat="45.47757" lon="5.5284">
        <ele>690.2</ele>
        <time>2011-03-27T11:10:37Z</time>
      </trkpt>
      <trkpt lat="45.47755" lon="5.5284">
        <ele>690.7</ele>
        <time>2011-03-27T11:10:38Z</time>
      </trkpt>
      <trkpt lat="45.47741" lon="5.52836">
        <ele>692.3</ele>
        <time>2011-03-27T11:10:46Z</time>
      </trkpt>
      <trkpt lat="45.47732" lon="5.52834">
        <ele>692</ele>
        <time>2011-03-27T11:10:52Z</time>
      </trkpt>
      <trkpt lat="45.47726" lon="5.5283">
        <ele>693.1</ele>
        <time>2011-03-27T11:10:56Z</time>
      </trkpt>
      <trkpt lat="45.47719" lon="5.52824">
        <ele>694.1</ele>
        <time>2011-03-27T11:11:00Z</time>
      </trkpt>
      <trkpt lat="45.47712" lon="5.52818">
        <ele>694.3</ele>
        <time>2011-03-27T11:11:04Z</time>
      </trkpt>
      <trkpt lat="45.47706" lon="5.5281">
        <ele>693.9</ele>
        <time>2011-03-27T11:11:07Z</time>
      </trkpt>
      <trkpt lat="45.477" lon="5.52803">
        <ele>693.2</ele>
        <time>2011-03-27T11:11:10Z</time>
      </trkpt>
      <trkpt lat="45.47694" lon="5.52796">
        <ele>692.7</ele>
        <time>2011-03-27T11:11:13Z</time>
      </trkpt>
      <trkpt lat="45.47687" lon="5.52789">
        <ele>692.5</ele>
        <time>2011-03-27T11:11:16Z</time>
      </trkpt>
      <trkpt lat="45.4768" lon="5.52784">
        <ele>692.9</ele>
        <time>2011-03-27T11:11:19Z</time>
      </trkpt>
      <trkpt lat="45.47675" lon="5.5278">
        <ele>693.5</ele>
        <time>2011-03-27T11:11:21Z</time>
      </trkpt>
      <trkpt lat="45.47669" lon="5.52776">
        <ele>693.8</ele>
        <time>2011-03-27T11:11:23Z</time>
      </trkpt>
      <trkpt lat="45.47663" lon="5.52772">
        <ele>693.9</ele>
        <time>2011-03-27T11:11:25Z</time>
      </trkpt>
      <trkpt lat="45.47657" lon="5.52767">
        <ele>694</ele>
        <time>2011-03-27T11:11:27Z</time>
      </trkpt>
      <trkpt lat="45.4765" lon="5.52763">
        <ele>694.4</ele>
        <time>2011-03-27T11:11:29Z</time>
      </trkpt>
      <trkpt lat="45.47643" lon="5.52759">
        <ele>694.9</ele>
        <time>2011-03-27T11:11:31Z</time>
      </trkpt>
      <trkpt lat="45.47636" lon="5.52755">
        <ele>693.7</ele>
        <time>2011-03-27T11:11:33Z</time>
      </trkpt>
      <trkpt lat="45.47629" lon="5.52752">
        <ele>693.1</ele>
        <time>2011-03-27T11:11:35Z</time>
      </trkpt>
      <trkpt lat="45.47623" lon="5.5275">
        <ele>693.7</ele>
        <time>2011-03-27T11:11:37Z</time>
      </trkpt>
      <trkpt lat="45.47617" lon="5.52748">
        <ele>693.5</ele>
        <time>2011-03-27T11:11:39Z</time>
      </trkpt>
      <trkpt lat="45.47614" lon="5.52747">
        <ele>693.3</ele>
        <time>2011-03-27T11:11:40Z</time>
      </trkpt>
      <trkpt lat="45.47604" lon="5.52742">
        <ele>693.1</ele>
        <time>2011-03-27T11:11:43Z</time>
      </trkpt>
      <trkpt lat="45.47596" lon="5.52738">
        <ele>693.3</ele>
        <time>2011-03-27T11:11:45Z</time>
      </trkpt>
      <trkpt lat="45.4759" lon="5.52734">
        <ele>693.6</ele>
        <time>2011-03-27T11:11:47Z</time>
      </trkpt>
      <trkpt lat="45.47582" lon="5.52729">
        <ele>693.3</ele>
        <time>2011-03-27T11:11:49Z</time>
      </trkpt>
      <trkpt lat="45.47575" lon="5.52723">
        <ele>693</ele>
        <time>2011-03-27T11:11:51Z</time>
      </trkpt>
      <trkpt lat="45.47569" lon="5.52718">
        <ele>692.4</ele>
        <time>2011-03-27T11:11:53Z</time>
      </trkpt>
      <trkpt lat="45.47561" lon="5.52712">
        <ele>692</ele>
        <time>2011-03-27T11:11:55Z</time>
      </trkpt>
      <trkpt lat="45.47555" lon="5.52706">
        <ele>691.9</ele>
        <time>2011-03-27T11:11:57Z</time>
      </trkpt>
      <trkpt lat="45.47548" lon="5.52701">
        <ele>692.2</ele>
        <time>2011-03-27T11:11:59Z</time>
      </trkpt>
      <trkpt lat="45.47541" lon="5.52696">
        <ele>692.4</ele>
        <time>2011-03-27T11:12:01Z</time>
      </trkpt>
      <trkpt lat="45.47534" lon="5.52693">
        <ele>692.4</ele>
        <time>2011-03-27T11:12:03Z</time>
      </trkpt>
      <trkpt lat="45.47527" lon="5.52692">
        <ele>692.7</ele>
        <time>2011-03-27T11:12:05Z</time>
      </trkpt>
      <trkpt lat="45.47521" lon="5.52691">
        <ele>692.9</ele>
        <time>2011-03-27T11:12:07Z</time>
      </trkpt>
      <trkpt lat="45.47514" lon="5.52692">
        <ele>693.1</ele>
        <time>2011-03-27T11:12:09Z</time>
      </trkpt>
      <trkpt lat="45.47505" lon="5.52693">
        <ele>693.9</ele>
        <time>2011-03-27T11:12:12Z</time>
      </trkpt>
      <trkpt lat="45.47497" lon="5.52695">
        <ele>694.4</ele>
        <time>2011-03-27T11:12:15Z</time>
      </trkpt>
      <trkpt lat="45.47488" lon="5.52695">
        <ele>694.3</ele>
        <time>2011-03-27T11:12:18Z</time>
      </trkpt>
      <trkpt lat="45.4748" lon="5.52693">
        <ele>695.2</ele>
        <time>2011-03-27T11:12:21Z</time>
      </trkpt>
      <trkpt lat="45.47472" lon="5.52689">
        <ele>695.6</ele>
        <time>2011-03-27T11:12:24Z</time>
      </trkpt>
      <trkpt lat="45.47464" lon="5.52685">
        <ele>695.7</ele>
        <time>2011-03-27T11:12:27Z</time>
      </trkpt>
      <trkpt lat="45.47456" lon="5.52681">
        <ele>695.7</ele>
        <time>2011-03-27T11:12:30Z</time>
      </trkpt>
      <trkpt lat="45.47449" lon="5.52676">
        <ele>696.2</ele>
        <time>2011-03-27T11:12:33Z</time>
      </trkpt>
      <trkpt lat="45.47441" lon="5.52674">
        <ele>697.3</ele>
        <time>2011-03-27T11:12:37Z</time>
      </trkpt>
      <trkpt lat="45.47434" lon="5.52673">
        <ele>697.6</ele>
        <time>2011-03-27T11:12:40Z</time>
      </trkpt>
      <trkpt lat="45.47431" lon="5.52672">
        <ele>697.6</ele>
        <time>2011-03-27T11:12:41Z</time>
      </trkpt>
      <trkpt lat="45.4742" lon="5.5267">
        <ele>698</ele>
        <time>2011-03-27T11:12:46Z</time>
      </trkpt>
      <trkpt lat="45.47413" lon="5.52666">
        <ele>698.4</ele>
        <time>2011-03-27T11:12:49Z</time>
      </trkpt>
      <trkpt lat="45.47405" lon="5.52663">
        <ele>699.7</ele>
        <time>2011-03-27T11:12:53Z</time>
      </trkpt>
      <trkpt lat="45.47398" lon="5.5266">
        <ele>699.9</ele>
        <time>2011-03-27T11:12:56Z</time>
      </trkpt>
      <trkpt lat="45.4739" lon="5.52659">
        <ele>699.6</ele>
        <time>2011-03-27T11:12:59Z</time>
      </trkpt>
      <trkpt lat="45.47382" lon="5.52657">
        <ele>699.8</ele>
        <time>2011-03-27T11:13:02Z</time>
      </trkpt>
      <trkpt lat="45.47374" lon="5.52656">
        <ele>700</ele>
        <time>2011-03-27T11:13:05Z</time>
      </trkpt>
      <trkpt lat="45.47366" lon="5.52653">
        <ele>700.3</ele>
        <time>2011-03-27T11:13:08Z</time>
      </trkpt>
      <trkpt lat="45.47358" lon="5.52652">
        <ele>700.5</ele>
        <time>2011-03-27T11:13:11Z</time>
      </trkpt>
      <trkpt lat="45.4735" lon="5.52648">
        <ele>700.3</ele>
        <time>2011-03-27T11:13:14Z</time>
      </trkpt>
      <trkpt lat="45.47342" lon="5.52643">
        <ele>700.6</ele>
        <time>2011-03-27T11:13:17Z</time>
      </trkpt>
      <trkpt lat="45.47334" lon="5.52638">
        <ele>701</ele>
        <time>2011-03-27T11:13:20Z</time>
      </trkpt>
      <trkpt lat="45.47329" lon="5.52633">
        <ele>701.1</ele>
        <time>2011-03-27T11:13:22Z</time>
      </trkpt>
      <trkpt lat="45.47324" lon="5.52629">
        <ele>701</ele>
        <time>2011-03-27T11:13:24Z</time>
      </trkpt>
      <trkpt lat="45.47315" lon="5.52625">
        <ele>701.1</ele>
        <time>2011-03-27T11:13:27Z</time>
      </trkpt>
      <trkpt lat="45.47307" lon="5.52621">
        <ele>701.7</ele>
        <time>2011-03-27T11:13:30Z</time>
      </trkpt>
      <trkpt lat="45.47299" lon="5.52616">
        <ele>702.2</ele>
        <time>2011-03-27T11:13:33Z</time>
      </trkpt>
      <trkpt lat="45.4729" lon="5.52612">
        <ele>703</ele>
        <time>2011-03-27T11:13:36Z</time>
      </trkpt>
      <trkpt lat="45.47284" lon="5.52609">
        <ele>703.8</ele>
        <time>2011-03-27T11:13:38Z</time>
      </trkpt>
      <trkpt lat="45.47278" lon="5.52606">
        <ele>703.3</ele>
        <time>2011-03-27T11:13:40Z</time>
      </trkpt>
      <trkpt lat="45.47272" lon="5.52601">
        <ele>703</ele>
        <time>2011-03-27T11:13:42Z</time>
      </trkpt>
      <trkpt lat="45.4727" lon="5.52599">
        <ele>702.8</ele>
        <time>2011-03-27T11:13:43Z</time>
      </trkpt>
      <trkpt lat="45.4726" lon="5.52595">
        <ele>702.7</ele>
        <time>2011-03-27T11:13:46Z</time>
      </trkpt>
      <trkpt lat="45.47252" lon="5.52597">
        <ele>703.1</ele>
        <time>2011-03-27T11:13:49Z</time>
      </trkpt>
      <trkpt lat="45.47245" lon="5.52595">
        <ele>703.7</ele>
        <time>2011-03-27T11:13:52Z</time>
      </trkpt>
      <trkpt lat="45.47237" lon="5.52589">
        <ele>704.3</ele>
        <time>2011-03-27T11:13:55Z</time>
      </trkpt>
      <trkpt lat="45.4723" lon="5.52581">
        <ele>704.3</ele>
        <time>2011-03-27T11:13:58Z</time>
      </trkpt>
      <trkpt lat="45.47226" lon="5.52573">
        <ele>704</ele>
        <time>2011-03-27T11:14:00Z</time>
      </trkpt>
      <trkpt lat="45.47222" lon="5.52564">
        <ele>703.7</ele>
        <time>2011-03-27T11:14:02Z</time>
      </trkpt>
      <trkpt lat="45.47218" lon="5.52557">
        <ele>703.3</ele>
        <time>2011-03-27T11:14:04Z</time>
      </trkpt>
      <trkpt lat="45.47213" lon="5.52552">
        <ele>703.1</ele>
        <time>2011-03-27T11:14:06Z</time>
      </trkpt>
      <trkpt lat="45.47207" lon="5.52544">
        <ele>702.7</ele>
        <time>2011-03-27T11:14:09Z</time>
      </trkpt>
      <trkpt lat="45.47202" lon="5.52539">
        <ele>702.9</ele>
        <time>2011-03-27T11:14:11Z</time>
      </trkpt>
      <trkpt lat="45.47196" lon="5.52533">
        <ele>703.2</ele>
        <time>2011-03-27T11:14:13Z</time>
      </trkpt>
      <trkpt lat="45.4719" lon="5.52527">
        <ele>703.4</ele>
        <time>2011-03-27T11:14:15Z</time>
      </trkpt>
      <trkpt lat="45.47183" lon="5.52521">
        <ele>703.4</ele>
        <time>2011-03-27T11:14:17Z</time>
      </trkpt>
      <trkpt lat="45.47177" lon="5.52516">
        <ele>703.3</ele>
        <time>2011-03-27T11:14:19Z</time>
      </trkpt>
      <trkpt lat="45.47171" lon="5.5251">
        <ele>702.9</ele>
        <time>2011-03-27T11:14:21Z</time>
      </trkpt>
      <trkpt lat="45.47163" lon="5.52504">
        <ele>702.4</ele>
        <time>2011-03-27T11:14:23Z</time>
      </trkpt>
      <trkpt lat="45.47156" lon="5.52498">
        <ele>702</ele>
        <time>2011-03-27T11:14:25Z</time>
      </trkpt>
      <trkpt lat="45.47148" lon="5.52492">
        <ele>701.4</ele>
        <time>2011-03-27T11:14:27Z</time>
      </trkpt>
      <trkpt lat="45.47142" lon="5.52485">
        <ele>700.7</ele>
        <time>2011-03-27T11:14:29Z</time>
      </trkpt>
      <trkpt lat="45.47138" lon="5.52476">
        <ele>700.7</ele>
        <time>2011-03-27T11:14:31Z</time>
      </trkpt>
      <trkpt lat="45.47133" lon="5.52468">
        <ele>700.6</ele>
        <time>2011-03-27T11:14:33Z</time>
      </trkpt>
      <trkpt lat="45.47127" lon="5.52464">
        <ele>700.6</ele>
        <time>2011-03-27T11:14:35Z</time>
      </trkpt>
      <trkpt lat="45.47119" lon="5.52459">
        <ele>700.2</ele>
        <time>2011-03-27T11:14:37Z</time>
      </trkpt>
      <trkpt lat="45.47112" lon="5.52457">
        <ele>699.8</ele>
        <time>2011-03-27T11:14:39Z</time>
      </trkpt>
      <trkpt lat="45.47104" lon="5.52456">
        <ele>700</ele>
        <time>2011-03-27T11:14:41Z</time>
      </trkpt>
      <trkpt lat="45.47098" lon="5.52456">
        <ele>700.4</ele>
        <time>2011-03-27T11:14:43Z</time>
      </trkpt>
      <trkpt lat="45.47095" lon="5.52456">
        <ele>700.6</ele>
        <time>2011-03-27T11:14:44Z</time>
      </trkpt>
      <trkpt lat="45.47084" lon="5.52456">
        <ele>701.8</ele>
        <time>2011-03-27T11:14:48Z</time>
      </trkpt>
      <trkpt lat="45.47077" lon="5.52459">
        <ele>703.1</ele>
        <time>2011-03-27T11:14:51Z</time>
      </trkpt>
      <trkpt lat="45.4707" lon="5.52466">
        <ele>702.9</ele>
        <time>2011-03-27T11:14:55Z</time>
      </trkpt>
      <trkpt lat="45.47064" lon="5.5247">
        <ele>703.2</ele>
        <time>2011-03-27T11:14:57Z</time>
      </trkpt>
      <trkpt lat="45.47057" lon="5.52473">
        <ele>703.4</ele>
        <time>2011-03-27T11:14:59Z</time>
      </trkpt>
      <trkpt lat="45.47049" lon="5.52477">
        <ele>703.6</ele>
        <time>2011-03-27T11:15:01Z</time>
      </trkpt>
      <trkpt lat="45.47043" lon="5.52481">
        <ele>703.9</ele>
        <time>2011-03-27T11:15:03Z</time>
      </trkpt>
      <trkpt lat="45.47037" lon="5.52487">
        <ele>703.4</ele>
        <time>2011-03-27T11:15:05Z</time>
      </trkpt>
      <trkpt lat="45.47034" lon="5.52496">
        <ele>702.7</ele>
        <time>2011-03-27T11:15:07Z</time>
      </trkpt>
      <trkpt lat="45.4703" lon="5.52505">
        <ele>702.9</ele>
        <time>2011-03-27T11:15:09Z</time>
      </trkpt>
      <trkpt lat="45.47026" lon="5.52514">
        <ele>703</ele>
        <time>2011-03-27T11:15:11Z</time>
      </trkpt>
      <trkpt lat="45.47024" lon="5.52523">
        <ele>703.6</ele>
        <time>2011-03-27T11:15:13Z</time>
      </trkpt>
      <trkpt lat="45.47021" lon="5.52533">
        <ele>704.2</ele>
        <time>2011-03-27T11:15:15Z</time>
      </trkpt>
      <trkpt lat="45.47019" lon="5.52542">
        <ele>704.6</ele>
        <time>2011-03-27T11:15:17Z</time>
      </trkpt>
      <trkpt lat="45.47019" lon="5.52552">
        <ele>704.2</ele>
        <time>2011-03-27T11:15:19Z</time>
      </trkpt>
      <trkpt lat="45.47019" lon="5.52563">
        <ele>704.1</ele>
        <time>2011-03-27T11:15:21Z</time>
      </trkpt>
      <trkpt lat="45.47016" lon="5.52574">
        <ele>704.1</ele>
        <time>2011-03-27T11:15:29Z</time>
      </trkpt>
      <trkpt lat="45.47008" lon="5.52581">
        <ele>705</ele>
        <time>2011-03-27T11:15:45Z</time>
      </trkpt>
      <trkpt lat="45.47008" lon="5.52582">
        <ele>705.2</ele>
        <time>2011-03-27T11:15:46Z</time>
      </trkpt>
      <trkpt lat="45.47006" lon="5.52602">
        <ele>704.7</ele>
        <time>2011-03-27T11:15:51Z</time>
      </trkpt>
      <trkpt lat="45.47003" lon="5.52612">
        <ele>704.4</ele>
        <time>2011-03-27T11:15:52Z</time>
      </trkpt>
      <trkpt lat="45.47001" lon="5.52623">
        <ele>702.8</ele>
        <time>2011-03-27T11:15:53Z</time>
      </trkpt>
      <trkpt lat="45.46999" lon="5.52636">
        <ele>701.5</ele>
        <time>2011-03-27T11:15:54Z</time>
      </trkpt>
      <trkpt lat="45.47" lon="5.5265">
        <ele>700.6</ele>
        <time>2011-03-27T11:15:55Z</time>
      </trkpt>
      <trkpt lat="45.47002" lon="5.52664">
        <ele>697.6</ele>
        <time>2011-03-27T11:15:56Z</time>
      </trkpt>
      <trkpt lat="45.47004" lon="5.52677">
        <ele>695.4</ele>
        <time>2011-03-27T11:15:57Z</time>
      </trkpt>
      <trkpt lat="45.47008" lon="5.52691">
        <ele>693.7</ele>
        <time>2011-03-27T11:15:58Z</time>
      </trkpt>
      <trkpt lat="45.47009" lon="5.52703">
        <ele>691.8</ele>
        <time>2011-03-27T11:15:59Z</time>
      </trkpt>
      <trkpt lat="45.47008" lon="5.52714">
        <ele>689.9</ele>
        <time>2011-03-27T11:16:04Z</time>
      </trkpt>
      <trkpt lat="45.47001" lon="5.52716">
        <ele>689.8</ele>
        <time>2011-03-27T11:16:07Z</time>
      </trkpt>
      <trkpt lat="45.46995" lon="5.52718">
        <ele>689.6</ele>
        <time>2011-03-27T11:16:09Z</time>
      </trkpt>
      <trkpt lat="45.46988" lon="5.52719">
        <ele>689.2</ele>
        <time>2011-03-27T11:16:11Z</time>
      </trkpt>
      <trkpt lat="45.46981" lon="5.5272">
        <ele>689.1</ele>
        <time>2011-03-27T11:16:13Z</time>
      </trkpt>
      <trkpt lat="45.46975" lon="5.52721">
        <ele>688.8</ele>
        <time>2011-03-27T11:16:15Z</time>
      </trkpt>
      <trkpt lat="45.46966" lon="5.52724">
        <ele>688.3</ele>
        <time>2011-03-27T11:16:18Z</time>
      </trkpt>
      <trkpt lat="45.46958" lon="5.52726">
        <ele>688.1</ele>
        <time>2011-03-27T11:16:21Z</time>
      </trkpt>
      <trkpt lat="45.46951" lon="5.52727">
        <ele>688.4</ele>
        <time>2011-03-27T11:16:24Z</time>
      </trkpt>
      <trkpt lat="45.46943" lon="5.52729">
        <ele>688.5</ele>
        <time>2011-03-27T11:16:27Z</time>
      </trkpt>
      <trkpt lat="45.46935" lon="5.52729">
        <ele>688.8</ele>
        <time>2011-03-27T11:16:30Z</time>
      </trkpt>
      <trkpt lat="45.46928" lon="5.5273">
        <ele>689.8</ele>
        <time>2011-03-27T11:16:32Z</time>
      </trkpt>
      <trkpt lat="45.46922" lon="5.5273">
        <ele>690.6</ele>
        <time>2011-03-27T11:16:34Z</time>
      </trkpt>
      <trkpt lat="45.46915" lon="5.52732">
        <ele>691.1</ele>
        <time>2011-03-27T11:16:36Z</time>
      </trkpt>
      <trkpt lat="45.46908" lon="5.52736">
        <ele>690.7</ele>
        <time>2011-03-27T11:16:38Z</time>
      </trkpt>
      <trkpt lat="45.46902" lon="5.5274">
        <ele>690.5</ele>
        <time>2011-03-27T11:16:40Z</time>
      </trkpt>
      <trkpt lat="45.46896" lon="5.52745">
        <ele>690.5</ele>
        <time>2011-03-27T11:16:42Z</time>
      </trkpt>
      <trkpt lat="45.46889" lon="5.52749">
        <ele>690.9</ele>
        <time>2011-03-27T11:16:44Z</time>
      </trkpt>
      <trkpt lat="45.46883" lon="5.52751">
        <ele>691.1</ele>
        <time>2011-03-27T11:16:46Z</time>
      </trkpt>
      <trkpt lat="45.46875" lon="5.52755">
        <ele>691.6</ele>
        <time>2011-03-27T11:16:48Z</time>
      </trkpt>
      <trkpt lat="45.4687" lon="5.52756">
        <ele>691.8</ele>
        <time>2011-03-27T11:16:49Z</time>
      </trkpt>
      <trkpt lat="45.46866" lon="5.52758">
        <ele>691.1</ele>
        <time>2011-03-27T11:16:50Z</time>
      </trkpt>
      <trkpt lat="45.4686" lon="5.52759">
        <ele>690.6</ele>
        <time>2011-03-27T11:16:51Z</time>
      </trkpt>
      <trkpt lat="45.46855" lon="5.5276">
        <ele>690.2</ele>
        <time>2011-03-27T11:16:52Z</time>
      </trkpt>
      <trkpt lat="45.46849" lon="5.5276">
        <ele>689.9</ele>
        <time>2011-03-27T11:16:53Z</time>
      </trkpt>
      <trkpt lat="45.46844" lon="5.5276">
        <ele>689.7</ele>
        <time>2011-03-27T11:16:54Z</time>
      </trkpt>
      <trkpt lat="45.46838" lon="5.52759">
        <ele>689.6</ele>
        <time>2011-03-27T11:16:55Z</time>
      </trkpt>
      <trkpt lat="45.46833" lon="5.52758">
        <ele>689.5</ele>
        <time>2011-03-27T11:16:56Z</time>
      </trkpt>
      <trkpt lat="45.46827" lon="5.52756">
        <ele>689.4</ele>
        <time>2011-03-27T11:16:57Z</time>
      </trkpt>
      <trkpt lat="45.46822" lon="5.52754">
        <ele>689.3</ele>
        <time>2011-03-27T11:16:58Z</time>
      </trkpt>
      <trkpt lat="45.46818" lon="5.52753">
        <ele>688.8</ele>
        <time>2011-03-27T11:16:59Z</time>
      </trkpt>
      <trkpt lat="45.46813" lon="5.52752">
        <ele>688.5</ele>
        <time>2011-03-27T11:17:00Z</time>
      </trkpt>
      <trkpt lat="45.46808" lon="5.52752">
        <ele>688.2</ele>
        <time>2011-03-27T11:17:01Z</time>
      </trkpt>
      <trkpt lat="45.46804" lon="5.5275">
        <ele>688</ele>
        <time>2011-03-27T11:17:02Z</time>
      </trkpt>
      <trkpt lat="45.46799" lon="5.52749">
        <ele>688.2</ele>
        <time>2011-03-27T11:17:03Z</time>
      </trkpt>
      <trkpt lat="45.46794" lon="5.52747">
        <ele>688.3</ele>
        <time>2011-03-27T11:17:04Z</time>
      </trkpt>
      <trkpt lat="45.46789" lon="5.52745">
        <ele>688.4</ele>
        <time>2011-03-27T11:17:05Z</time>
      </trkpt>
      <trkpt lat="45.46785" lon="5.52743">
        <ele>688.7</ele>
        <time>2011-03-27T11:17:06Z</time>
      </trkpt>
      <trkpt lat="45.46781" lon="5.5274">
        <ele>688.9</ele>
        <time>2011-03-27T11:17:07Z</time>
      </trkpt>
      <trkpt lat="45.46776" lon="5.52738">
        <ele>689.1</ele>
        <time>2011-03-27T11:17:08Z</time>
      </trkpt>
      <trkpt lat="45.46768" lon="5.52734">
        <ele>689</ele>
        <time>2011-03-27T11:17:10Z</time>
      </trkpt>
      <trkpt lat="45.46763" lon="5.52733">
        <ele>689</ele>
        <time>2011-03-27T11:17:11Z</time>
      </trkpt>
      <trkpt lat="45.46759" lon="5.52732">
        <ele>688.9</ele>
        <time>2011-03-27T11:17:12Z</time>
      </trkpt>
      <trkpt lat="45.46754" lon="5.52731">
        <ele>688.8</ele>
        <time>2011-03-27T11:17:13Z</time>
      </trkpt>
      <trkpt lat="45.46748" lon="5.5273">
        <ele>688.7</ele>
        <time>2011-03-27T11:17:14Z</time>
      </trkpt>
      <trkpt lat="45.46743" lon="5.52729">
        <ele>688.5</ele>
        <time>2011-03-27T11:17:15Z</time>
      </trkpt>
      <trkpt lat="45.46737" lon="5.52729">
        <ele>688.4</ele>
        <time>2011-03-27T11:17:16Z</time>
      </trkpt>
      <trkpt lat="45.46731" lon="5.52729">
        <ele>688.3</ele>
        <time>2011-03-27T11:17:17Z</time>
      </trkpt>
      <trkpt lat="45.46725" lon="5.5273">
        <ele>687.8</ele>
        <time>2011-03-27T11:17:18Z</time>
      </trkpt>
      <trkpt lat="45.46718" lon="5.52732">
        <ele>687.4</ele>
        <time>2011-03-27T11:17:19Z</time>
      </trkpt>
      <trkpt lat="45.46712" lon="5.52733">
        <ele>687.1</ele>
        <time>2011-03-27T11:17:20Z</time>
      </trkpt>
      <trkpt lat="45.46705" lon="5.52735">
        <ele>686.8</ele>
        <time>2011-03-27T11:17:21Z</time>
      </trkpt>
      <trkpt lat="45.46698" lon="5.52736">
        <ele>686.1</ele>
        <time>2011-03-27T11:17:22Z</time>
      </trkpt>
      <trkpt lat="45.4669" lon="5.52736">
        <ele>685.5</ele>
        <time>2011-03-27T11:17:23Z</time>
      </trkpt>
      <trkpt lat="45.46683" lon="5.52734">
        <ele>685</ele>
        <time>2011-03-27T11:17:24Z</time>
      </trkpt>
      <trkpt lat="45.46676" lon="5.5273">
        <ele>684</ele>
        <time>2011-03-27T11:17:25Z</time>
      </trkpt>
      <trkpt lat="45.46669" lon="5.52727">
        <ele>683.3</ele>
        <time>2011-03-27T11:17:26Z</time>
      </trkpt>
      <trkpt lat="45.46662" lon="5.52724">
        <ele>682.7</ele>
        <time>2011-03-27T11:17:27Z</time>
      </trkpt>
      <trkpt lat="45.46655" lon="5.5272">
        <ele>682</ele>
        <time>2011-03-27T11:17:28Z</time>
      </trkpt>
      <trkpt lat="45.46649" lon="5.52718">
        <ele>681.5</ele>
        <time>2011-03-27T11:17:29Z</time>
      </trkpt>
      <trkpt lat="45.46642" lon="5.52717">
        <ele>681.1</ele>
        <time>2011-03-27T11:17:30Z</time>
      </trkpt>
      <trkpt lat="45.46634" lon="5.52716">
        <ele>680.3</ele>
        <time>2011-03-27T11:17:31Z</time>
      </trkpt>
      <trkpt lat="45.46625" lon="5.52716">
        <ele>679.7</ele>
        <time>2011-03-27T11:17:32Z</time>
      </trkpt>
      <trkpt lat="45.46617" lon="5.52716">
        <ele>679.3</ele>
        <time>2011-03-27T11:17:33Z</time>
      </trkpt>
      <trkpt lat="45.46609" lon="5.52717">
        <ele>678</ele>
        <time>2011-03-27T11:17:34Z</time>
      </trkpt>
      <trkpt lat="45.466" lon="5.52716">
        <ele>677</ele>
        <time>2011-03-27T11:17:35Z</time>
      </trkpt>
      <trkpt lat="45.46592" lon="5.52717">
        <ele>676.3</ele>
        <time>2011-03-27T11:17:36Z</time>
      </trkpt>
      <trkpt lat="45.46583" lon="5.52716">
        <ele>675.3</ele>
        <time>2011-03-27T11:17:37Z</time>
      </trkpt>
      <trkpt lat="45.46575" lon="5.52713">
        <ele>674.6</ele>
        <time>2011-03-27T11:17:38Z</time>
      </trkpt>
      <trkpt lat="45.46565" lon="5.52708">
        <ele>674</ele>
        <time>2011-03-27T11:17:39Z</time>
      </trkpt>
      <trkpt lat="45.46557" lon="5.52701">
        <ele>673.6</ele>
        <time>2011-03-27T11:17:40Z</time>
      </trkpt>
      <trkpt lat="45.4655" lon="5.52694">
        <ele>671.5</ele>
        <time>2011-03-27T11:17:43Z</time>
      </trkpt>
      <trkpt lat="45.46548" lon="5.52706">
        <ele>671.9</ele>
        <time>2011-03-27T11:17:50Z</time>
      </trkpt>
      <trkpt lat="45.46549" lon="5.52709">
        <ele>671.5</ele>
        <time>2011-03-27T11:17:51Z</time>
      </trkpt>
      <trkpt lat="45.46557" lon="5.52723">
        <ele>671.8</ele>
        <time>2011-03-27T11:17:54Z</time>
      </trkpt>
      <trkpt lat="45.4656" lon="5.52728">
        <ele>672</ele>
        <time>2011-03-27T11:17:55Z</time>
      </trkpt>
      <trkpt lat="45.46564" lon="5.52734">
        <ele>672.2</ele>
        <time>2011-03-27T11:17:56Z</time>
      </trkpt>
      <trkpt lat="45.46567" lon="5.52741">
        <ele>671.6</ele>
        <time>2011-03-27T11:17:57Z</time>
      </trkpt>
      <trkpt lat="45.46571" lon="5.52747">
        <ele>671.2</ele>
        <time>2011-03-27T11:17:58Z</time>
      </trkpt>
      <trkpt lat="45.46575" lon="5.52754">
        <ele>670.9</ele>
        <time>2011-03-27T11:17:59Z</time>
      </trkpt>
      <trkpt lat="45.46578" lon="5.5276">
        <ele>670.3</ele>
        <time>2011-03-27T11:18:00Z</time>
      </trkpt>
      <trkpt lat="45.46581" lon="5.52766">
        <ele>669.9</ele>
        <time>2011-03-27T11:18:01Z</time>
      </trkpt>
      <trkpt lat="45.46585" lon="5.52772">
        <ele>669.6</ele>
        <time>2011-03-27T11:18:02Z</time>
      </trkpt>
      <trkpt lat="45.46588" lon="5.52777">
        <ele>669</ele>
        <time>2011-03-27T11:18:03Z</time>
      </trkpt>
      <trkpt lat="45.46591" lon="5.52782">
        <ele>668.5</ele>
        <time>2011-03-27T11:18:04Z</time>
      </trkpt>
      <trkpt lat="45.46594" lon="5.52788">
        <ele>668.1</ele>
        <time>2011-03-27T11:18:05Z</time>
      </trkpt>
      <trkpt lat="45.46599" lon="5.52798">
        <ele>667.5</ele>
        <time>2011-03-27T11:18:07Z</time>
      </trkpt>
      <trkpt lat="45.46602" lon="5.52803">
        <ele>667.3</ele>
        <time>2011-03-27T11:18:08Z</time>
      </trkpt>
      <trkpt lat="45.46608" lon="5.52812">
        <ele>667.7</ele>
        <time>2011-03-27T11:18:10Z</time>
      </trkpt>
      <trkpt lat="45.46613" lon="5.52822">
        <ele>668.2</ele>
        <time>2011-03-27T11:18:12Z</time>
      </trkpt>
      <trkpt lat="45.46619" lon="5.52832">
        <ele>668.7</ele>
        <time>2011-03-27T11:18:14Z</time>
      </trkpt>
      <trkpt lat="45.46624" lon="5.52842">
        <ele>668.8</ele>
        <time>2011-03-27T11:18:16Z</time>
      </trkpt>
      <trkpt lat="45.46629" lon="5.52849">
        <ele>668.7</ele>
        <time>2011-03-27T11:18:18Z</time>
      </trkpt>
      <trkpt lat="45.46635" lon="5.52856">
        <ele>668.4</ele>
        <time>2011-03-27T11:18:20Z</time>
      </trkpt>
      <trkpt lat="45.46642" lon="5.52862">
        <ele>668.5</ele>
        <time>2011-03-27T11:18:22Z</time>
      </trkpt>
      <trkpt lat="45.46649" lon="5.52869">
        <ele>668.7</ele>
        <time>2011-03-27T11:18:24Z</time>
      </trkpt>
      <trkpt lat="45.46656" lon="5.52874">
        <ele>669.4</ele>
        <time>2011-03-27T11:18:26Z</time>
      </trkpt>
      <trkpt lat="45.46662" lon="5.52879">
        <ele>670</ele>
        <time>2011-03-27T11:18:28Z</time>
      </trkpt>
      <trkpt lat="45.46669" lon="5.52885">
        <ele>670.5</ele>
        <time>2011-03-27T11:18:30Z</time>
      </trkpt>
      <trkpt lat="45.46677" lon="5.52891">
        <ele>670.7</ele>
        <time>2011-03-27T11:18:32Z</time>
      </trkpt>
      <trkpt lat="45.46681" lon="5.52895">
        <ele>670.8</ele>
        <time>2011-03-27T11:18:33Z</time>
      </trkpt>
      <trkpt lat="45.46685" lon="5.52899">
        <ele>670.9</ele>
        <time>2011-03-27T11:18:34Z</time>
      </trkpt>
      <trkpt lat="45.46689" lon="5.52904">
        <ele>670.5</ele>
        <time>2011-03-27T11:18:35Z</time>
      </trkpt>
      <trkpt lat="45.46693" lon="5.52909">
        <ele>670.1</ele>
        <time>2011-03-27T11:18:36Z</time>
      </trkpt>
      <trkpt lat="45.46698" lon="5.52916">
        <ele>669.9</ele>
        <time>2011-03-27T11:18:37Z</time>
      </trkpt>
      <trkpt lat="45.46702" lon="5.52923">
        <ele>669</ele>
        <time>2011-03-27T11:18:38Z</time>
      </trkpt>
      <trkpt lat="45.46706" lon="5.52931">
        <ele>668.2</ele>
        <time>2011-03-27T11:18:39Z</time>
      </trkpt>
      <trkpt lat="45.46711" lon="5.52939">
        <ele>667.7</ele>
        <time>2011-03-27T11:18:40Z</time>
      </trkpt>
      <trkpt lat="45.46716" lon="5.52948">
        <ele>667</ele>
        <time>2011-03-27T11:18:41Z</time>
      </trkpt>
      <trkpt lat="45.46721" lon="5.52956">
        <ele>666.5</ele>
        <time>2011-03-27T11:18:42Z</time>
      </trkpt>
      <trkpt lat="45.46727" lon="5.52964">
        <ele>666.2</ele>
        <time>2011-03-27T11:18:43Z</time>
      </trkpt>
      <trkpt lat="45.46733" lon="5.52971">
        <ele>664.8</ele>
        <time>2011-03-27T11:18:44Z</time>
      </trkpt>
      <trkpt lat="45.46739" lon="5.52977">
        <ele>663.8</ele>
        <time>2011-03-27T11:18:45Z</time>
      </trkpt>
      <trkpt lat="45.46746" lon="5.52984">
        <ele>663.1</ele>
        <time>2011-03-27T11:18:46Z</time>
      </trkpt>
      <trkpt lat="45.46752" lon="5.52991">
        <ele>662.3</ele>
        <time>2011-03-27T11:18:47Z</time>
      </trkpt>
      <trkpt lat="45.46758" lon="5.52997">
        <ele>661.7</ele>
        <time>2011-03-27T11:18:48Z</time>
      </trkpt>
      <trkpt lat="45.46764" lon="5.53004">
        <ele>661.3</ele>
        <time>2011-03-27T11:18:49Z</time>
      </trkpt>
      <trkpt lat="45.4677" lon="5.5301">
        <ele>660.8</ele>
        <time>2011-03-27T11:18:50Z</time>
      </trkpt>
      <trkpt lat="45.46777" lon="5.53016">
        <ele>660.5</ele>
        <time>2011-03-27T11:18:51Z</time>
      </trkpt>
      <trkpt lat="45.46784" lon="5.53021">
        <ele>660.2</ele>
        <time>2011-03-27T11:18:52Z</time>
      </trkpt>
      <trkpt lat="45.46791" lon="5.53027">
        <ele>660</ele>
        <time>2011-03-27T11:18:53Z</time>
      </trkpt>
      <trkpt lat="45.46797" lon="5.53032">
        <ele>659.3</ele>
        <time>2011-03-27T11:18:54Z</time>
      </trkpt>
      <trkpt lat="45.46804" lon="5.53037">
        <ele>658.7</ele>
        <time>2011-03-27T11:18:55Z</time>
      </trkpt>
      <trkpt lat="45.46811" lon="5.53042">
        <ele>658.2</ele>
        <time>2011-03-27T11:18:56Z</time>
      </trkpt>
      <trkpt lat="45.46818" lon="5.53046">
        <ele>657.7</ele>
        <time>2011-03-27T11:18:57Z</time>
      </trkpt>
      <trkpt lat="45.46825" lon="5.53051">
        <ele>657.3</ele>
        <time>2011-03-27T11:18:58Z</time>
      </trkpt>
      <trkpt lat="45.46832" lon="5.53055">
        <ele>657</ele>
        <time>2011-03-27T11:18:59Z</time>
      </trkpt>
      <trkpt lat="45.46838" lon="5.5306">
        <ele>656.3</ele>
        <time>2011-03-27T11:19:00Z</time>
      </trkpt>
      <trkpt lat="45.46845" lon="5.53064">
        <ele>655.7</ele>
        <time>2011-03-27T11:19:01Z</time>
      </trkpt>
      <trkpt lat="45.46851" lon="5.53067">
        <ele>655.3</ele>
        <time>2011-03-27T11:19:02Z</time>
      </trkpt>
      <trkpt lat="45.46857" lon="5.5307">
        <ele>655.9</ele>
        <time>2011-03-27T11:19:03Z</time>
      </trkpt>
      <trkpt lat="45.46864" lon="5.53074">
        <ele>656.3</ele>
        <time>2011-03-27T11:19:04Z</time>
      </trkpt>
      <trkpt lat="45.4687" lon="5.53077">
        <ele>656.6</ele>
        <time>2011-03-27T11:19:05Z</time>
      </trkpt>
      <trkpt lat="45.46877" lon="5.53082">
        <ele>656.3</ele>
        <time>2011-03-27T11:19:06Z</time>
      </trkpt>
      <trkpt lat="45.46883" lon="5.53086">
        <ele>656.1</ele>
        <time>2011-03-27T11:19:07Z</time>
      </trkpt>
      <trkpt lat="45.46889" lon="5.5309">
        <ele>655.9</ele>
        <time>2011-03-27T11:19:08Z</time>
      </trkpt>
      <trkpt lat="45.46896" lon="5.53094">
        <ele>655.8</ele>
        <time>2011-03-27T11:19:09Z</time>
      </trkpt>
      <trkpt lat="45.46902" lon="5.53098">
        <ele>655.4</ele>
        <time>2011-03-27T11:19:10Z</time>
      </trkpt>
      <trkpt lat="45.46908" lon="5.53102">
        <ele>655</ele>
        <time>2011-03-27T11:19:11Z</time>
      </trkpt>
      <trkpt lat="45.46915" lon="5.53105">
        <ele>654.8</ele>
        <time>2011-03-27T11:19:12Z</time>
      </trkpt>
      <trkpt lat="45.4692" lon="5.53109">
        <ele>654.6</ele>
        <time>2011-03-27T11:19:13Z</time>
      </trkpt>
      <trkpt lat="45.46925" lon="5.53116">
        <ele>654.4</ele>
        <time>2011-03-27T11:19:14Z</time>
      </trkpt>
      <trkpt lat="45.46926" lon="5.53125">
        <ele>654.3</ele>
        <time>2011-03-27T11:19:15Z</time>
      </trkpt>
      <trkpt lat="45.46925" lon="5.53135">
        <ele>653.8</ele>
        <time>2011-03-27T11:19:16Z</time>
      </trkpt>
      <trkpt lat="45.46921" lon="5.53144">
        <ele>653.4</ele>
        <time>2011-03-27T11:19:17Z</time>
      </trkpt>
      <trkpt lat="45.46914" lon="5.53151">
        <ele>653.1</ele>
        <time>2011-03-27T11:19:18Z</time>
      </trkpt>
      <trkpt lat="45.46906" lon="5.53157">
        <ele>651.7</ele>
        <time>2011-03-27T11:19:19Z</time>
      </trkpt>
      <trkpt lat="45.46897" lon="5.5316">
        <ele>650.7</ele>
        <time>2011-03-27T11:19:20Z</time>
      </trkpt>
      <trkpt lat="45.46888" lon="5.53163">
        <ele>649.9</ele>
        <time>2011-03-27T11:19:21Z</time>
      </trkpt>
      <trkpt lat="45.46878" lon="5.53167">
        <ele>647.6</ele>
        <time>2011-03-27T11:19:22Z</time>
      </trkpt>
      <trkpt lat="45.46867" lon="5.53169">
        <ele>645.9</ele>
        <time>2011-03-27T11:19:23Z</time>
      </trkpt>
      <trkpt lat="45.46857" lon="5.53172">
        <ele>644.6</ele>
        <time>2011-03-27T11:19:24Z</time>
      </trkpt>
      <trkpt lat="45.46847" lon="5.53176">
        <ele>642.8</ele>
        <time>2011-03-27T11:19:25Z</time>
      </trkpt>
      <trkpt lat="45.46836" lon="5.5318">
        <ele>641.4</ele>
        <time>2011-03-27T11:19:26Z</time>
      </trkpt>
      <trkpt lat="45.46826" lon="5.53184">
        <ele>640.4</ele>
        <time>2011-03-27T11:19:27Z</time>
      </trkpt>
      <trkpt lat="45.46815" lon="5.53187">
        <ele>638.6</ele>
        <time>2011-03-27T11:19:28Z</time>
      </trkpt>
      <trkpt lat="45.46804" lon="5.5319">
        <ele>637.3</ele>
        <time>2011-03-27T11:19:29Z</time>
      </trkpt>
      <trkpt lat="45.46793" lon="5.53192">
        <ele>636.4</ele>
        <time>2011-03-27T11:19:30Z</time>
      </trkpt>
      <trkpt lat="45.46784" lon="5.53196">
        <ele>635.6</ele>
        <time>2011-03-27T11:19:31Z</time>
      </trkpt>
      <trkpt lat="45.46777" lon="5.532">
        <ele>634.5</ele>
        <time>2011-03-27T11:19:32Z</time>
      </trkpt>
      <trkpt lat="45.4677" lon="5.53203">
        <ele>633.7</ele>
        <time>2011-03-27T11:19:33Z</time>
      </trkpt>
      <trkpt lat="45.46764" lon="5.53204">
        <ele>633</ele>
        <time>2011-03-27T11:19:34Z</time>
      </trkpt>
      <trkpt lat="45.46758" lon="5.53201">
        <ele>632.2</ele>
        <time>2011-03-27T11:19:35Z</time>
      </trkpt>
      <trkpt lat="45.46755" lon="5.53196">
        <ele>631.6</ele>
        <time>2011-03-27T11:19:36Z</time>
      </trkpt>
      <trkpt lat="45.46751" lon="5.53186">
        <ele>631.5</ele>
        <time>2011-03-27T11:19:38Z</time>
      </trkpt>
      <trkpt lat="45.46747" lon="5.53176">
        <ele>632.1</ele>
        <time>2011-03-27T11:19:40Z</time>
      </trkpt>
      <trkpt lat="45.46742" lon="5.53167">
        <ele>632.4</ele>
        <time>2011-03-27T11:19:42Z</time>
      </trkpt>
      <trkpt lat="45.46738" lon="5.5316">
        <ele>633.1</ele>
        <time>2011-03-27T11:19:44Z</time>
      </trkpt>
      <trkpt lat="45.46733" lon="5.53154">
        <ele>633.9</ele>
        <time>2011-03-27T11:19:46Z</time>
      </trkpt>
      <trkpt lat="45.46726" lon="5.53149">
        <ele>634.8</ele>
        <time>2011-03-27T11:19:48Z</time>
      </trkpt>
      <trkpt lat="45.46719" lon="5.53144">
        <ele>635.7</ele>
        <time>2011-03-27T11:19:50Z</time>
      </trkpt>
      <trkpt lat="45.46712" lon="5.53141">
        <ele>636.6</ele>
        <time>2011-03-27T11:19:52Z</time>
      </trkpt>
      <trkpt lat="45.46708" lon="5.5314">
        <ele>636.9</ele>
        <time>2011-03-27T11:19:53Z</time>
      </trkpt>
      <trkpt lat="45.46698" lon="5.53135">
        <ele>637.2</ele>
        <time>2011-03-27T11:19:56Z</time>
      </trkpt>
      <trkpt lat="45.4669" lon="5.53131">
        <ele>637.6</ele>
        <time>2011-03-27T11:19:58Z</time>
      </trkpt>
      <trkpt lat="45.46682" lon="5.53127">
        <ele>637.6</ele>
        <time>2011-03-27T11:20:00Z</time>
      </trkpt>
      <trkpt lat="45.46674" lon="5.53122">
        <ele>637.4</ele>
        <time>2011-03-27T11:20:02Z</time>
      </trkpt>
      <trkpt lat="45.46666" lon="5.53119">
        <ele>637.4</ele>
        <time>2011-03-27T11:20:04Z</time>
      </trkpt>
      <trkpt lat="45.46658" lon="5.53116">
        <ele>637.4</ele>
        <time>2011-03-27T11:20:06Z</time>
      </trkpt>
      <trkpt lat="45.4665" lon="5.53114">
        <ele>637.6</ele>
        <time>2011-03-27T11:20:08Z</time>
      </trkpt>
      <trkpt lat="45.46642" lon="5.53112">
        <ele>637.8</ele>
        <time>2011-03-27T11:20:10Z</time>
      </trkpt>
      <trkpt lat="45.46634" lon="5.53108">
        <ele>638.1</ele>
        <time>2011-03-27T11:20:12Z</time>
      </trkpt>
      <trkpt lat="45.46625" lon="5.53106">
        <ele>638.1</ele>
        <time>2011-03-27T11:20:14Z</time>
      </trkpt>
      <trkpt lat="45.46621" lon="5.53105">
        <ele>638</ele>
        <time>2011-03-27T11:20:15Z</time>
      </trkpt>
      <trkpt lat="45.46616" lon="5.53104">
        <ele>637.8</ele>
        <time>2011-03-27T11:20:16Z</time>
      </trkpt>
      <trkpt lat="45.46611" lon="5.53103">
        <ele>637.6</ele>
        <time>2011-03-27T11:20:17Z</time>
      </trkpt>
      <trkpt lat="45.46607" lon="5.53103">
        <ele>637.5</ele>
        <time>2011-03-27T11:20:18Z</time>
      </trkpt>
      <trkpt lat="45.46602" lon="5.53103">
        <ele>637.5</ele>
        <time>2011-03-27T11:20:19Z</time>
      </trkpt>
      <trkpt lat="45.46597" lon="5.53103">
        <ele>637.4</ele>
        <time>2011-03-27T11:20:20Z</time>
      </trkpt>
      <trkpt lat="45.46592" lon="5.53104">
        <ele>637.4</ele>
        <time>2011-03-27T11:20:21Z</time>
      </trkpt>
      <trkpt lat="45.46586" lon="5.53104">
        <ele>637.4</ele>
        <time>2011-03-27T11:20:22Z</time>
      </trkpt>
      <trkpt lat="45.46581" lon="5.53104">
        <ele>637.2</ele>
        <time>2011-03-27T11:20:23Z</time>
      </trkpt>
      <trkpt lat="45.46576" lon="5.53105">
        <ele>637.1</ele>
        <time>2011-03-27T11:20:24Z</time>
      </trkpt>
      <trkpt lat="45.46572" lon="5.53105">
        <ele>637</ele>
        <time>2011-03-27T11:20:25Z</time>
      </trkpt>
      <trkpt lat="45.46563" lon="5.53104">
        <ele>636.9</ele>
        <time>2011-03-27T11:20:27Z</time>
      </trkpt>
      <trkpt lat="45.46555" lon="5.53102">
        <ele>637.3</ele>
        <time>2011-03-27T11:20:29Z</time>
      </trkpt>
      <trkpt lat="45.46547" lon="5.53099">
        <ele>637.8</ele>
        <time>2011-03-27T11:20:31Z</time>
      </trkpt>
      <trkpt lat="45.46539" lon="5.53094">
        <ele>637.6</ele>
        <time>2011-03-27T11:20:33Z</time>
      </trkpt>
      <trkpt lat="45.46535" lon="5.53091">
        <ele>637.6</ele>
        <time>2011-03-27T11:20:34Z</time>
      </trkpt>
      <trkpt lat="45.46531" lon="5.53088">
        <ele>637.3</ele>
        <time>2011-03-27T11:20:35Z</time>
      </trkpt>
      <trkpt lat="45.46526" lon="5.53085">
        <ele>637.2</ele>
        <time>2011-03-27T11:20:36Z</time>
      </trkpt>
      <trkpt lat="45.46521" lon="5.53082">
        <ele>637.1</ele>
        <time>2011-03-27T11:20:37Z</time>
      </trkpt>
      <trkpt lat="45.46516" lon="5.53078">
        <ele>636.4</ele>
        <time>2011-03-27T11:20:38Z</time>
      </trkpt>
      <trkpt lat="45.46511" lon="5.53074">
        <ele>635.8</ele>
        <time>2011-03-27T11:20:39Z</time>
      </trkpt>
      <trkpt lat="45.46506" lon="5.53071">
        <ele>635.4</ele>
        <time>2011-03-27T11:20:40Z</time>
      </trkpt>
      <trkpt lat="45.465" lon="5.53067">
        <ele>635.1</ele>
        <time>2011-03-27T11:20:41Z</time>
      </trkpt>
      <trkpt lat="45.46494" lon="5.53063">
        <ele>634.6</ele>
        <time>2011-03-27T11:20:42Z</time>
      </trkpt>
      <trkpt lat="45.46488" lon="5.5306">
        <ele>634.2</ele>
        <time>2011-03-27T11:20:43Z</time>
      </trkpt>
      <trkpt lat="45.46481" lon="5.53057">
        <ele>633.9</ele>
        <time>2011-03-27T11:20:44Z</time>
      </trkpt>
      <trkpt lat="45.46475" lon="5.53054">
        <ele>633.5</ele>
        <time>2011-03-27T11:20:45Z</time>
      </trkpt>
      <trkpt lat="45.46469" lon="5.53051">
        <ele>633.1</ele>
        <time>2011-03-27T11:20:46Z</time>
      </trkpt>
      <trkpt lat="45.46462" lon="5.53048">
        <ele>632.8</ele>
        <time>2011-03-27T11:20:47Z</time>
      </trkpt>
      <trkpt lat="45.46456" lon="5.53045">
        <ele>632.4</ele>
        <time>2011-03-27T11:20:48Z</time>
      </trkpt>
      <trkpt lat="45.46449" lon="5.53042">
        <ele>632</ele>
        <time>2011-03-27T11:20:49Z</time>
      </trkpt>
      <trkpt lat="45.46443" lon="5.5304">
        <ele>631.8</ele>
        <time>2011-03-27T11:20:50Z</time>
      </trkpt>
      <trkpt lat="45.46436" lon="5.53039">
        <ele>630.9</ele>
        <time>2011-03-27T11:20:51Z</time>
      </trkpt>
      <trkpt lat="45.46429" lon="5.53039">
        <ele>630.2</ele>
        <time>2011-03-27T11:20:52Z</time>
      </trkpt>
      <trkpt lat="45.46422" lon="5.5304">
        <ele>629.7</ele>
        <time>2011-03-27T11:20:53Z</time>
      </trkpt>
      <trkpt lat="45.46415" lon="5.53041">
        <ele>629</ele>
        <time>2011-03-27T11:20:54Z</time>
      </trkpt>
      <trkpt lat="45.46406" lon="5.53041">
        <ele>628.4</ele>
        <time>2011-03-27T11:20:55Z</time>
      </trkpt>
      <trkpt lat="45.46397" lon="5.53042">
        <ele>628</ele>
        <time>2011-03-27T11:20:56Z</time>
      </trkpt>
      <trkpt lat="45.46388" lon="5.53044">
        <ele>625.8</ele>
        <time>2011-03-27T11:20:57Z</time>
      </trkpt>
      <trkpt lat="45.46379" lon="5.53048">
        <ele>624.1</ele>
        <time>2011-03-27T11:20:58Z</time>
      </trkpt>
      <trkpt lat="45.46369" lon="5.53051">
        <ele>622.9</ele>
        <time>2011-03-27T11:20:59Z</time>
      </trkpt>
      <trkpt lat="45.4636" lon="5.53055">
        <ele>621.9</ele>
        <time>2011-03-27T11:21:00Z</time>
      </trkpt>
      <trkpt lat="45.46351" lon="5.53057">
        <ele>621.2</ele>
        <time>2011-03-27T11:21:01Z</time>
      </trkpt>
      <trkpt lat="45.46343" lon="5.53058">
        <ele>620.6</ele>
        <time>2011-03-27T11:21:02Z</time>
      </trkpt>
      <trkpt lat="45.46334" lon="5.53058">
        <ele>620.2</ele>
        <time>2011-03-27T11:21:03Z</time>
      </trkpt>
      <trkpt lat="45.46327" lon="5.53057">
        <ele>619.7</ele>
        <time>2011-03-27T11:21:04Z</time>
      </trkpt>
      <trkpt lat="45.46321" lon="5.53054">
        <ele>619.2</ele>
        <time>2011-03-27T11:21:05Z</time>
      </trkpt>
      <trkpt lat="45.46316" lon="5.53054">
        <ele>618.9</ele>
        <time>2011-03-27T11:21:06Z</time>
      </trkpt>
      <trkpt lat="45.46309" lon="5.53053">
        <ele>618.4</ele>
        <time>2011-03-27T11:21:07Z</time>
      </trkpt>
      <trkpt lat="45.46302" lon="5.53055">
        <ele>618</ele>
        <time>2011-03-27T11:21:08Z</time>
      </trkpt>
      <trkpt lat="45.46297" lon="5.53059">
        <ele>617.7</ele>
        <time>2011-03-27T11:21:09Z</time>
      </trkpt>
      <trkpt lat="45.46292" lon="5.53062">
        <ele>618.1</ele>
        <time>2011-03-27T11:21:10Z</time>
      </trkpt>
      <trkpt lat="45.46287" lon="5.53066">
        <ele>618.4</ele>
        <time>2011-03-27T11:21:11Z</time>
      </trkpt>
      <trkpt lat="45.46283" lon="5.53069">
        <ele>618.6</ele>
        <time>2011-03-27T11:21:12Z</time>
      </trkpt>
      <trkpt lat="45.46279" lon="5.53073">
        <ele>619.1</ele>
        <time>2011-03-27T11:21:13Z</time>
      </trkpt>
      <trkpt lat="45.46275" lon="5.53077">
        <ele>619.5</ele>
        <time>2011-03-27T11:21:14Z</time>
      </trkpt>
      <trkpt lat="45.46271" lon="5.53081">
        <ele>619.8</ele>
        <time>2011-03-27T11:21:15Z</time>
      </trkpt>
      <trkpt lat="45.46267" lon="5.53085">
        <ele>620.1</ele>
        <time>2011-03-27T11:21:16Z</time>
      </trkpt>
      <trkpt lat="45.4626" lon="5.53093">
        <ele>620.5</ele>
        <time>2011-03-27T11:21:18Z</time>
      </trkpt>
      <trkpt lat="45.46254" lon="5.53099">
        <ele>620.9</ele>
        <time>2011-03-27T11:21:20Z</time>
      </trkpt>
      <trkpt lat="45.46251" lon="5.53103">
        <ele>621</ele>
        <time>2011-03-27T11:21:21Z</time>
      </trkpt>
      <trkpt lat="45.46247" lon="5.53107">
        <ele>621.1</ele>
        <time>2011-03-27T11:21:22Z</time>
      </trkpt>
      <trkpt lat="45.46242" lon="5.5311">
        <ele>621.3</ele>
        <time>2011-03-27T11:21:23Z</time>
      </trkpt>
      <trkpt lat="45.46237" lon="5.53112">
        <ele>621.4</ele>
        <time>2011-03-27T11:21:24Z</time>
      </trkpt>
      <trkpt lat="45.46231" lon="5.53114">
        <ele>621.5</ele>
        <time>2011-03-27T11:21:25Z</time>
      </trkpt>
      <trkpt lat="45.46226" lon="5.53116">
        <ele>620.6</ele>
        <time>2011-03-27T11:21:26Z</time>
      </trkpt>
      <trkpt lat="45.4622" lon="5.53117">
        <ele>620</ele>
        <time>2011-03-27T11:21:27Z</time>
      </trkpt>
      <trkpt lat="45.46213" lon="5.53119">
        <ele>619.5</ele>
        <time>2011-03-27T11:21:28Z</time>
      </trkpt>
      <trkpt lat="45.46205" lon="5.53122">
        <ele>618.9</ele>
        <time>2011-03-27T11:21:29Z</time>
      </trkpt>
      <trkpt lat="45.46198" lon="5.53124">
        <ele>618.4</ele>
        <time>2011-03-27T11:21:30Z</time>
      </trkpt>
      <trkpt lat="45.46191" lon="5.53126">
        <ele>618.1</ele>
        <time>2011-03-27T11:21:31Z</time>
      </trkpt>
      <trkpt lat="45.46184" lon="5.53127">
        <ele>616.9</ele>
        <time>2011-03-27T11:21:32Z</time>
      </trkpt>
      <trkpt lat="45.46177" lon="5.53126">
        <ele>616</ele>
        <time>2011-03-27T11:21:33Z</time>
      </trkpt>
      <trkpt lat="45.46172" lon="5.53124">
        <ele>615.4</ele>
        <time>2011-03-27T11:21:34Z</time>
      </trkpt>
      <trkpt lat="45.46166" lon="5.53121">
        <ele>614.9</ele>
        <time>2011-03-27T11:21:35Z</time>
      </trkpt>
      <trkpt lat="45.4616" lon="5.53118">
        <ele>614.4</ele>
        <time>2011-03-27T11:21:36Z</time>
      </trkpt>
      <trkpt lat="45.46155" lon="5.53115">
        <ele>614.1</ele>
        <time>2011-03-27T11:21:37Z</time>
      </trkpt>
      <trkpt lat="45.4615" lon="5.53111">
        <ele>613.8</ele>
        <time>2011-03-27T11:21:38Z</time>
      </trkpt>
      <trkpt lat="45.46146" lon="5.53107">
        <ele>613.9</ele>
        <time>2011-03-27T11:21:39Z</time>
      </trkpt>
      <trkpt lat="45.46142" lon="5.53102">
        <ele>614</ele>
        <time>2011-03-27T11:21:40Z</time>
      </trkpt>
      <trkpt lat="45.46138" lon="5.53098">
        <ele>614.1</ele>
        <time>2011-03-27T11:21:41Z</time>
      </trkpt>
      <trkpt lat="45.46131" lon="5.5309">
        <ele>614.2</ele>
        <time>2011-03-27T11:21:43Z</time>
      </trkpt>
      <trkpt lat="45.46125" lon="5.53084">
        <ele>614.9</ele>
        <time>2011-03-27T11:21:45Z</time>
      </trkpt>
      <trkpt lat="45.46119" lon="5.53078">
        <ele>615.6</ele>
        <time>2011-03-27T11:21:47Z</time>
      </trkpt>
      <trkpt lat="45.46113" lon="5.53072">
        <ele>616.1</ele>
        <time>2011-03-27T11:21:49Z</time>
      </trkpt>
      <trkpt lat="45.46108" lon="5.53067">
        <ele>616.9</ele>
        <time>2011-03-27T11:21:51Z</time>
      </trkpt>
      <trkpt lat="45.46103" lon="5.53061">
        <ele>617.6</ele>
        <time>2011-03-27T11:21:53Z</time>
      </trkpt>
      <trkpt lat="45.46099" lon="5.53055">
        <ele>618.6</ele>
        <time>2011-03-27T11:21:55Z</time>
      </trkpt>
      <trkpt lat="45.46096" lon="5.53052">
        <ele>618.9</ele>
        <time>2011-03-27T11:21:56Z</time>
      </trkpt>
      <trkpt lat="45.46088" lon="5.53044">
        <ele>619.2</ele>
        <time>2011-03-27T11:21:59Z</time>
      </trkpt>
      <trkpt lat="45.46082" lon="5.53036">
        <ele>619.3</ele>
        <time>2011-03-27T11:22:01Z</time>
      </trkpt>
      <trkpt lat="45.46077" lon="5.53029">
        <ele>619.2</ele>
        <time>2011-03-27T11:22:03Z</time>
      </trkpt>
      <trkpt lat="45.46073" lon="5.53021">
        <ele>619</ele>
        <time>2011-03-27T11:22:05Z</time>
      </trkpt>
      <trkpt lat="45.46068" lon="5.53013">
        <ele>619.5</ele>
        <time>2011-03-27T11:22:07Z</time>
      </trkpt>
      <trkpt lat="45.46063" lon="5.53005">
        <ele>620.2</ele>
        <time>2011-03-27T11:22:09Z</time>
      </trkpt>
      <trkpt lat="45.46059" lon="5.52997">
        <ele>620</ele>
        <time>2011-03-27T11:22:11Z</time>
      </trkpt>
      <trkpt lat="45.46055" lon="5.52988">
        <ele>620</ele>
        <time>2011-03-27T11:22:13Z</time>
      </trkpt>
      <trkpt lat="45.46052" lon="5.5298">
        <ele>620.6</ele>
        <time>2011-03-27T11:22:15Z</time>
      </trkpt>
      <trkpt lat="45.46048" lon="5.52973">
        <ele>620.7</ele>
        <time>2011-03-27T11:22:17Z</time>
      </trkpt>
      <trkpt lat="45.46043" lon="5.52962">
        <ele>620.8</ele>
        <time>2011-03-27T11:22:20Z</time>
      </trkpt>
      <trkpt lat="45.46039" lon="5.52953">
        <ele>621.2</ele>
        <time>2011-03-27T11:22:23Z</time>
      </trkpt>
      <trkpt lat="45.46035" lon="5.52943">
        <ele>621.8</ele>
        <time>2011-03-27T11:22:26Z</time>
      </trkpt>
      <trkpt lat="45.4603" lon="5.52934">
        <ele>622.7</ele>
        <time>2011-03-27T11:22:29Z</time>
      </trkpt>
      <trkpt lat="45.46025" lon="5.52924">
        <ele>623.1</ele>
        <time>2011-03-27T11:22:32Z</time>
      </trkpt>
      <trkpt lat="45.46019" lon="5.52916">
        <ele>623.3</ele>
        <time>2011-03-27T11:22:35Z</time>
      </trkpt>
      <trkpt lat="45.46015" lon="5.52908">
        <ele>623.1</ele>
        <time>2011-03-27T11:22:38Z</time>
      </trkpt>
      <trkpt lat="45.46011" lon="5.529">
        <ele>624.2</ele>
        <time>2011-03-27T11:22:41Z</time>
      </trkpt>
      <trkpt lat="45.46007" lon="5.52891">
        <ele>625.4</ele>
        <time>2011-03-27T11:22:44Z</time>
      </trkpt>
      <trkpt lat="45.46004" lon="5.52884">
        <ele>625.3</ele>
        <time>2011-03-27T11:22:47Z</time>
      </trkpt>
      <trkpt lat="45.45998" lon="5.52875">
        <ele>625.1</ele>
        <time>2011-03-27T11:22:50Z</time>
      </trkpt>
      <trkpt lat="45.45993" lon="5.52867">
        <ele>624.5</ele>
        <time>2011-03-27T11:22:52Z</time>
      </trkpt>
      <trkpt lat="45.45987" lon="5.5286">
        <ele>623.8</ele>
        <time>2011-03-27T11:22:54Z</time>
      </trkpt>
      <trkpt lat="45.45982" lon="5.52852">
        <ele>623.8</ele>
        <time>2011-03-27T11:22:56Z</time>
      </trkpt>
      <trkpt lat="45.45979" lon="5.52848">
        <ele>623.8</ele>
        <time>2011-03-27T11:22:57Z</time>
      </trkpt>
      <trkpt lat="45.45972" lon="5.52836">
        <ele>623</ele>
        <time>2011-03-27T11:23:00Z</time>
      </trkpt>
      <trkpt lat="45.45968" lon="5.52827">
        <ele>622.8</ele>
        <time>2011-03-27T11:23:02Z</time>
      </trkpt>
      <trkpt lat="45.45964" lon="5.52818">
        <ele>622.9</ele>
        <time>2011-03-27T11:23:04Z</time>
      </trkpt>
      <trkpt lat="45.45961" lon="5.52809">
        <ele>623.1</ele>
        <time>2011-03-27T11:23:06Z</time>
      </trkpt>
      <trkpt lat="45.4596" lon="5.528">
        <ele>622.8</ele>
        <time>2011-03-27T11:23:08Z</time>
      </trkpt>
      <trkpt lat="45.45958" lon="5.52794">
        <ele>622.6</ele>
        <time>2011-03-27T11:23:09Z</time>
      </trkpt>
      <trkpt lat="45.45956" lon="5.52787">
        <ele>622.4</ele>
        <time>2011-03-27T11:23:10Z</time>
      </trkpt>
      <trkpt lat="45.45955" lon="5.52781">
        <ele>622.4</ele>
        <time>2011-03-27T11:23:11Z</time>
      </trkpt>
      <trkpt lat="45.45954" lon="5.52774">
        <ele>622.4</ele>
        <time>2011-03-27T11:23:12Z</time>
      </trkpt>
      <trkpt lat="45.45953" lon="5.52767">
        <ele>622.4</ele>
        <time>2011-03-27T11:23:13Z</time>
      </trkpt>
      <trkpt lat="45.45953" lon="5.5276">
        <ele>622</ele>
        <time>2011-03-27T11:23:14Z</time>
      </trkpt>
      <trkpt lat="45.45952" lon="5.52753">
        <ele>621.7</ele>
        <time>2011-03-27T11:23:15Z</time>
      </trkpt>
      <trkpt lat="45.45953" lon="5.52746">
        <ele>621.5</ele>
        <time>2011-03-27T11:23:16Z</time>
      </trkpt>
      <trkpt lat="45.45953" lon="5.52739">
        <ele>621.3</ele>
        <time>2011-03-27T11:23:17Z</time>
      </trkpt>
      <trkpt lat="45.45954" lon="5.52732">
        <ele>621.1</ele>
        <time>2011-03-27T11:23:18Z</time>
      </trkpt>
      <trkpt lat="45.45955" lon="5.52725">
        <ele>620.9</ele>
        <time>2011-03-27T11:23:19Z</time>
      </trkpt>
      <trkpt lat="45.45956" lon="5.52717">
        <ele>620.3</ele>
        <time>2011-03-27T11:23:20Z</time>
      </trkpt>
      <trkpt lat="45.45956" lon="5.52709">
        <ele>619.8</ele>
        <time>2011-03-27T11:23:21Z</time>
      </trkpt>
      <trkpt lat="45.45955" lon="5.527">
        <ele>619.4</ele>
        <time>2011-03-27T11:23:22Z</time>
      </trkpt>
      <trkpt lat="45.45954" lon="5.52691">
        <ele>618.5</ele>
        <time>2011-03-27T11:23:23Z</time>
      </trkpt>
      <trkpt lat="45.45953" lon="5.52681">
        <ele>617.8</ele>
        <time>2011-03-27T11:23:24Z</time>
      </trkpt>
      <trkpt lat="45.45953" lon="5.52673">
        <ele>617.3</ele>
        <time>2011-03-27T11:23:25Z</time>
      </trkpt>
      <trkpt lat="45.45951" lon="5.52665">
        <ele>616.9</ele>
        <time>2011-03-27T11:23:26Z</time>
      </trkpt>
      <trkpt lat="45.45948" lon="5.52657">
        <ele>616.3</ele>
        <time>2011-03-27T11:23:27Z</time>
      </trkpt>
      <trkpt lat="45.45944" lon="5.52649">
        <ele>615.9</ele>
        <time>2011-03-27T11:23:28Z</time>
      </trkpt>
      <trkpt lat="45.45939" lon="5.5264">
        <ele>615.6</ele>
        <time>2011-03-27T11:23:29Z</time>
      </trkpt>
      <trkpt lat="45.45934" lon="5.52631">
        <ele>614.1</ele>
        <time>2011-03-27T11:23:30Z</time>
      </trkpt>
      <trkpt lat="45.45929" lon="5.52622">
        <ele>613</ele>
        <time>2011-03-27T11:23:31Z</time>
      </trkpt>
      <trkpt lat="45.45926" lon="5.52612">
        <ele>612.2</ele>
        <time>2011-03-27T11:23:32Z</time>
      </trkpt>
      <trkpt lat="45.45923" lon="5.52602">
        <ele>611</ele>
        <time>2011-03-27T11:23:33Z</time>
      </trkpt>
      <trkpt lat="45.45922" lon="5.52592">
        <ele>610.1</ele>
        <time>2011-03-27T11:23:34Z</time>
      </trkpt>
      <trkpt lat="45.45922" lon="5.5258">
        <ele>609.4</ele>
        <time>2011-03-27T11:23:35Z</time>
      </trkpt>
      <trkpt lat="45.45922" lon="5.52567">
        <ele>607.6</ele>
        <time>2011-03-27T11:23:36Z</time>
      </trkpt>
      <trkpt lat="45.45922" lon="5.52555">
        <ele>606.2</ele>
        <time>2011-03-27T11:23:37Z</time>
      </trkpt>
      <trkpt lat="45.45922" lon="5.52541">
        <ele>605.2</ele>
        <time>2011-03-27T11:23:38Z</time>
      </trkpt>
      <trkpt lat="45.45921" lon="5.52528">
        <ele>603.6</ele>
        <time>2011-03-27T11:23:39Z</time>
      </trkpt>
      <trkpt lat="45.4592" lon="5.52515">
        <ele>602.5</ele>
        <time>2011-03-27T11:23:40Z</time>
      </trkpt>
      <trkpt lat="45.4592" lon="5.52505">
        <ele>601.7</ele>
        <time>2011-03-27T11:23:41Z</time>
      </trkpt>
      <trkpt lat="45.4592" lon="5.52496">
        <ele>600.5</ele>
        <time>2011-03-27T11:23:42Z</time>
      </trkpt>
      <trkpt lat="45.4592" lon="5.52489">
        <ele>599.7</ele>
        <time>2011-03-27T11:23:43Z</time>
      </trkpt>
      <trkpt lat="45.45921" lon="5.52478">
        <ele>598.6</ele>
        <time>2011-03-27T11:23:45Z</time>
      </trkpt>
      <trkpt lat="45.45923" lon="5.52469">
        <ele>598.3</ele>
        <time>2011-03-27T11:23:47Z</time>
      </trkpt>
      <trkpt lat="45.45924" lon="5.52458">
        <ele>598</ele>
        <time>2011-03-27T11:23:49Z</time>
      </trkpt>
      <trkpt lat="45.45927" lon="5.52447">
        <ele>597.8</ele>
        <time>2011-03-27T11:23:51Z</time>
      </trkpt>
      <trkpt lat="45.4593" lon="5.52442">
        <ele>597.4</ele>
        <time>2011-03-27T11:23:52Z</time>
      </trkpt>
      <trkpt lat="45.45934" lon="5.52436">
        <ele>597</ele>
        <time>2011-03-27T11:23:53Z</time>
      </trkpt>
      <trkpt lat="45.45939" lon="5.52431">
        <ele>596.8</ele>
        <time>2011-03-27T11:23:54Z</time>
      </trkpt>
      <trkpt lat="45.45944" lon="5.52426">
        <ele>596</ele>
        <time>2011-03-27T11:23:55Z</time>
      </trkpt>
      <trkpt lat="45.45948" lon="5.5242">
        <ele>595.4</ele>
        <time>2011-03-27T11:23:56Z</time>
      </trkpt>
      <trkpt lat="45.4595" lon="5.52412">
        <ele>594.9</ele>
        <time>2011-03-27T11:23:57Z</time>
      </trkpt>
      <trkpt lat="45.45949" lon="5.52406">
        <ele>594.8</ele>
        <time>2011-03-27T11:23:58Z</time>
      </trkpt>
      <trkpt lat="45.45945" lon="5.52392">
        <ele>594.7</ele>
        <time>2011-03-27T11:24:01Z</time>
      </trkpt>
      <trkpt lat="45.45941" lon="5.52381">
        <ele>596.9</ele>
        <time>2011-03-27T11:24:04Z</time>
      </trkpt>
      <trkpt lat="45.45937" lon="5.52372">
        <ele>597</ele>
        <time>2011-03-27T11:24:07Z</time>
      </trkpt>
      <trkpt lat="45.45932" lon="5.52364">
        <ele>598.3</ele>
        <time>2011-03-27T11:24:10Z</time>
      </trkpt>
      <trkpt lat="45.45927" lon="5.52357">
        <ele>598.4</ele>
        <time>2011-03-27T11:24:13Z</time>
      </trkpt>
      <trkpt lat="45.45921" lon="5.52349">
        <ele>600</ele>
        <time>2011-03-27T11:24:17Z</time>
      </trkpt>
      <trkpt lat="45.45916" lon="5.52342">
        <ele>601.1</ele>
        <time>2011-03-27T11:24:20Z</time>
      </trkpt>
      <trkpt lat="45.45912" lon="5.52336">
        <ele>601.3</ele>
        <time>2011-03-27T11:24:22Z</time>
      </trkpt>
      <trkpt lat="45.45906" lon="5.52331">
        <ele>601.2</ele>
        <time>2011-03-27T11:24:24Z</time>
      </trkpt>
      <trkpt lat="45.45901" lon="5.52326">
        <ele>600.9</ele>
        <time>2011-03-27T11:24:26Z</time>
      </trkpt>
      <trkpt lat="45.45894" lon="5.52321">
        <ele>600.6</ele>
        <time>2011-03-27T11:24:28Z</time>
      </trkpt>
      <trkpt lat="45.45887" lon="5.52317">
        <ele>600.3</ele>
        <time>2011-03-27T11:24:30Z</time>
      </trkpt>
      <trkpt lat="45.4588" lon="5.52312">
        <ele>600.1</ele>
        <time>2011-03-27T11:24:32Z</time>
      </trkpt>
      <trkpt lat="45.45872" lon="5.52307">
        <ele>599.3</ele>
        <time>2011-03-27T11:24:34Z</time>
      </trkpt>
      <trkpt lat="45.45864" lon="5.52302">
        <ele>598.9</ele>
        <time>2011-03-27T11:24:36Z</time>
      </trkpt>
      <trkpt lat="45.45857" lon="5.52296">
        <ele>598.6</ele>
        <time>2011-03-27T11:24:38Z</time>
      </trkpt>
      <trkpt lat="45.45849" lon="5.52291">
        <ele>598</ele>
        <time>2011-03-27T11:24:40Z</time>
      </trkpt>
      <trkpt lat="45.45842" lon="5.52285">
        <ele>597.2</ele>
        <time>2011-03-27T11:24:42Z</time>
      </trkpt>
      <trkpt lat="45.45835" lon="5.5228">
        <ele>596.6</ele>
        <time>2011-03-27T11:24:44Z</time>
      </trkpt>
      <trkpt lat="45.45828" lon="5.52276">
        <ele>596.7</ele>
        <time>2011-03-27T11:24:46Z</time>
      </trkpt>
      <trkpt lat="45.45821" lon="5.52274">
        <ele>597.1</ele>
        <time>2011-03-27T11:24:48Z</time>
      </trkpt>
      <trkpt lat="45.45814" lon="5.52273">
        <ele>597</ele>
        <time>2011-03-27T11:24:50Z</time>
      </trkpt>
      <trkpt lat="45.45806" lon="5.52272">
        <ele>596.7</ele>
        <time>2011-03-27T11:24:52Z</time>
      </trkpt>
      <trkpt lat="45.45798" lon="5.5227">
        <ele>596.3</ele>
        <time>2011-03-27T11:24:54Z</time>
      </trkpt>
      <trkpt lat="45.4579" lon="5.52269">
        <ele>596.6</ele>
        <time>2011-03-27T11:24:56Z</time>
      </trkpt>
      <trkpt lat="45.45781" lon="5.52267">
        <ele>596.7</ele>
        <time>2011-03-27T11:24:58Z</time>
      </trkpt>
      <trkpt lat="45.45776" lon="5.52266">
        <ele>596.6</ele>
        <time>2011-03-27T11:24:59Z</time>
      </trkpt>
      <trkpt lat="45.45771" lon="5.52264">
        <ele>596.5</ele>
        <time>2011-03-27T11:25:00Z</time>
      </trkpt>
      <trkpt lat="45.45764" lon="5.52263">
        <ele>596.4</ele>
        <time>2011-03-27T11:25:01Z</time>
      </trkpt>
      <trkpt lat="45.45758" lon="5.52263">
        <ele>595.7</ele>
        <time>2011-03-27T11:25:02Z</time>
      </trkpt>
      <trkpt lat="45.45751" lon="5.52261">
        <ele>595.2</ele>
        <time>2011-03-27T11:25:03Z</time>
      </trkpt>
      <trkpt lat="45.45743" lon="5.52257">
        <ele>594.8</ele>
        <time>2011-03-27T11:25:04Z</time>
      </trkpt>
      <trkpt lat="45.45736" lon="5.52253">
        <ele>593.4</ele>
        <time>2011-03-27T11:25:05Z</time>
      </trkpt>
      <trkpt lat="45.45729" lon="5.52247">
        <ele>592.4</ele>
        <time>2011-03-27T11:25:06Z</time>
      </trkpt>
      <trkpt lat="45.45722" lon="5.52241">
        <ele>591.6</ele>
        <time>2011-03-27T11:25:07Z</time>
      </trkpt>
      <trkpt lat="45.45715" lon="5.52235">
        <ele>590.7</ele>
        <time>2011-03-27T11:25:08Z</time>
      </trkpt>
      <trkpt lat="45.45709" lon="5.52229">
        <ele>590.1</ele>
        <time>2011-03-27T11:25:09Z</time>
      </trkpt>
      <trkpt lat="45.45702" lon="5.52222">
        <ele>589.6</ele>
        <time>2011-03-27T11:25:10Z</time>
      </trkpt>
      <trkpt lat="45.45695" lon="5.52216">
        <ele>589.3</ele>
        <time>2011-03-27T11:25:11Z</time>
      </trkpt>
      <trkpt lat="45.45688" lon="5.5221">
        <ele>589.1</ele>
        <time>2011-03-27T11:25:12Z</time>
      </trkpt>
      <trkpt lat="45.4568" lon="5.52204">
        <ele>589</ele>
        <time>2011-03-27T11:25:13Z</time>
      </trkpt>
      <trkpt lat="45.45673" lon="5.52199">
        <ele>588.9</ele>
        <time>2011-03-27T11:25:14Z</time>
      </trkpt>
      <trkpt lat="45.45665" lon="5.52193">
        <ele>588.4</ele>
        <time>2011-03-27T11:25:15Z</time>
      </trkpt>
      <trkpt lat="45.45657" lon="5.52186">
        <ele>588.1</ele>
        <time>2011-03-27T11:25:16Z</time>
      </trkpt>
      <trkpt lat="45.45649" lon="5.5218">
        <ele>587.8</ele>
        <time>2011-03-27T11:25:17Z</time>
      </trkpt>
      <trkpt lat="45.45642" lon="5.52172">
        <ele>587.3</ele>
        <time>2011-03-27T11:25:18Z</time>
      </trkpt>
      <trkpt lat="45.45635" lon="5.52163">
        <ele>586.9</ele>
        <time>2011-03-27T11:25:19Z</time>
      </trkpt>
      <trkpt lat="45.45629" lon="5.52154">
        <ele>586.6</ele>
        <time>2011-03-27T11:25:20Z</time>
      </trkpt>
      <trkpt lat="45.45623" lon="5.52146">
        <ele>586.8</ele>
        <time>2011-03-27T11:25:21Z</time>
      </trkpt>
      <trkpt lat="45.45617" lon="5.52136">
        <ele>586.9</ele>
        <time>2011-03-27T11:25:22Z</time>
      </trkpt>
      <trkpt lat="45.45613" lon="5.52126">
        <ele>587.1</ele>
        <time>2011-03-27T11:25:23Z</time>
      </trkpt>
      <trkpt lat="45.4561" lon="5.52116">
        <ele>586.6</ele>
        <time>2011-03-27T11:25:24Z</time>
      </trkpt>
      <trkpt lat="45.45609" lon="5.52105">
        <ele>586.2</ele>
        <time>2011-03-27T11:25:25Z</time>
      </trkpt>
      <trkpt lat="45.45608" lon="5.52096">
        <ele>585.9</ele>
        <time>2011-03-27T11:25:26Z</time>
      </trkpt>
      <trkpt lat="45.45607" lon="5.52087">
        <ele>586</ele>
        <time>2011-03-27T11:25:27Z</time>
      </trkpt>
      <trkpt lat="45.45606" lon="5.52079">
        <ele>586.1</ele>
        <time>2011-03-27T11:25:28Z</time>
      </trkpt>
      <trkpt lat="45.45605" lon="5.52072">
        <ele>586.1</ele>
        <time>2011-03-27T11:25:29Z</time>
      </trkpt>
      <trkpt lat="45.45604" lon="5.52065">
        <ele>586.1</ele>
        <time>2011-03-27T11:25:30Z</time>
      </trkpt>
      <trkpt lat="45.45603" lon="5.52052">
        <ele>586.2</ele>
        <time>2011-03-27T11:25:32Z</time>
      </trkpt>
      <trkpt lat="45.45602" lon="5.52046">
        <ele>585.9</ele>
        <time>2011-03-27T11:25:33Z</time>
      </trkpt>
      <trkpt lat="45.45601" lon="5.5204">
        <ele>585.7</ele>
        <time>2011-03-27T11:25:34Z</time>
      </trkpt>
      <trkpt lat="45.456" lon="5.52033">
        <ele>585.5</ele>
        <time>2011-03-27T11:25:35Z</time>
      </trkpt>
      <trkpt lat="45.45599" lon="5.52026">
        <ele>585.4</ele>
        <time>2011-03-27T11:25:36Z</time>
      </trkpt>
      <trkpt lat="45.45599" lon="5.5202">
        <ele>585.9</ele>
        <time>2011-03-27T11:25:37Z</time>
      </trkpt>
      <trkpt lat="45.45598" lon="5.52013">
        <ele>586.3</ele>
        <time>2011-03-27T11:25:38Z</time>
      </trkpt>
      <trkpt lat="45.45598" lon="5.52006">
        <ele>586.6</ele>
        <time>2011-03-27T11:25:39Z</time>
      </trkpt>
      <trkpt lat="45.45598" lon="5.51998">
        <ele>586.4</ele>
        <time>2011-03-27T11:25:40Z</time>
      </trkpt>
      <trkpt lat="45.45597" lon="5.51991">
        <ele>586.2</ele>
        <time>2011-03-27T11:25:41Z</time>
      </trkpt>
      <trkpt lat="45.45597" lon="5.51983">
        <ele>586.1</ele>
        <time>2011-03-27T11:25:42Z</time>
      </trkpt>
      <trkpt lat="45.45597" lon="5.51975">
        <ele>586.2</ele>
        <time>2011-03-27T11:25:43Z</time>
      </trkpt>
      <trkpt lat="45.45597" lon="5.51966">
        <ele>586.3</ele>
        <time>2011-03-27T11:25:44Z</time>
      </trkpt>
      <trkpt lat="45.45597" lon="5.51958">
        <ele>586.4</ele>
        <time>2011-03-27T11:25:45Z</time>
      </trkpt>
      <trkpt lat="45.45597" lon="5.51949">
        <ele>586.3</ele>
        <time>2011-03-27T11:25:46Z</time>
      </trkpt>
      <trkpt lat="45.45597" lon="5.51941">
        <ele>586.2</ele>
        <time>2011-03-27T11:25:47Z</time>
      </trkpt>
      <trkpt lat="45.45597" lon="5.51932">
        <ele>586.2</ele>
        <time>2011-03-27T11:25:48Z</time>
      </trkpt>
      <trkpt lat="45.45597" lon="5.51923">
        <ele>586.3</ele>
        <time>2011-03-27T11:25:49Z</time>
      </trkpt>
      <trkpt lat="45.45598" lon="5.51915">
        <ele>586.4</ele>
        <time>2011-03-27T11:25:50Z</time>
      </trkpt>
      <trkpt lat="45.45599" lon="5.51906">
        <ele>586.4</ele>
        <time>2011-03-27T11:25:51Z</time>
      </trkpt>
      <trkpt lat="45.456" lon="5.51898">
        <ele>586.5</ele>
        <time>2011-03-27T11:25:52Z</time>
      </trkpt>
      <trkpt lat="45.45601" lon="5.5189">
        <ele>586.3</ele>
        <time>2011-03-27T11:25:53Z</time>
      </trkpt>
      <trkpt lat="45.45602" lon="5.51882">
        <ele>586.2</ele>
        <time>2011-03-27T11:25:54Z</time>
      </trkpt>
      <trkpt lat="45.45604" lon="5.51874">
        <ele>586.1</ele>
        <time>2011-03-27T11:25:55Z</time>
      </trkpt>
      <trkpt lat="45.45605" lon="5.51866">
        <ele>586.5</ele>
        <time>2011-03-27T11:25:56Z</time>
      </trkpt>
      <trkpt lat="45.45606" lon="5.51859">
        <ele>586.8</ele>
        <time>2011-03-27T11:25:57Z</time>
      </trkpt>
      <trkpt lat="45.45607" lon="5.51851">
        <ele>587.1</ele>
        <time>2011-03-27T11:25:58Z</time>
      </trkpt>
      <trkpt lat="45.45607" lon="5.51843">
        <ele>586.9</ele>
        <time>2011-03-27T11:25:59Z</time>
      </trkpt>
      <trkpt lat="45.45606" lon="5.51835">
        <ele>586.8</ele>
        <time>2011-03-27T11:26:00Z</time>
      </trkpt>
      <trkpt lat="45.45606" lon="5.51828">
        <ele>586.7</ele>
        <time>2011-03-27T11:26:01Z</time>
      </trkpt>
      <trkpt lat="45.45605" lon="5.51821">
        <ele>586.4</ele>
        <time>2011-03-27T11:26:02Z</time>
      </trkpt>
      <trkpt lat="45.45604" lon="5.51809">
        <ele>586</ele>
        <time>2011-03-27T11:26:04Z</time>
      </trkpt>
      <trkpt lat="45.45604" lon="5.51799">
        <ele>586.6</ele>
        <time>2011-03-27T11:26:06Z</time>
      </trkpt>
      <trkpt lat="45.45603" lon="5.51789">
        <ele>586.8</ele>
        <time>2011-03-27T11:26:08Z</time>
      </trkpt>
      <trkpt lat="45.45603" lon="5.51777">
        <ele>586.9</ele>
        <time>2011-03-27T11:26:10Z</time>
      </trkpt>
      <trkpt lat="45.45604" lon="5.5177">
        <ele>586.9</ele>
        <time>2011-03-27T11:26:11Z</time>
      </trkpt>
      <trkpt lat="45.45604" lon="5.51762">
        <ele>586.5</ele>
        <time>2011-03-27T11:26:12Z</time>
      </trkpt>
      <trkpt lat="45.45606" lon="5.51755">
        <ele>586.1</ele>
        <time>2011-03-27T11:26:13Z</time>
      </trkpt>
      <trkpt lat="45.45607" lon="5.51746">
        <ele>585.9</ele>
        <time>2011-03-27T11:26:14Z</time>
      </trkpt>
      <trkpt lat="45.45609" lon="5.51738">
        <ele>586</ele>
        <time>2011-03-27T11:26:15Z</time>
      </trkpt>
      <trkpt lat="45.45611" lon="5.5173">
        <ele>586.2</ele>
        <time>2011-03-27T11:26:16Z</time>
      </trkpt>
      <trkpt lat="45.45613" lon="5.51723">
        <ele>586.3</ele>
        <time>2011-03-27T11:26:17Z</time>
      </trkpt>
      <trkpt lat="45.45613" lon="5.51716">
        <ele>586.6</ele>
        <time>2011-03-27T11:26:18Z</time>
      </trkpt>
      <trkpt lat="45.45616" lon="5.51704">
        <ele>587.1</ele>
        <time>2011-03-27T11:26:20Z</time>
      </trkpt>
      <trkpt lat="45.45618" lon="5.51698">
        <ele>586.9</ele>
        <time>2011-03-27T11:26:21Z</time>
      </trkpt>
      <trkpt lat="45.45621" lon="5.51692">
        <ele>586.7</ele>
        <time>2011-03-27T11:26:22Z</time>
      </trkpt>
      <trkpt lat="45.45624" lon="5.51686">
        <ele>586.5</ele>
        <time>2011-03-27T11:26:23Z</time>
      </trkpt>
      <trkpt lat="45.45628" lon="5.51681">
        <ele>586.3</ele>
        <time>2011-03-27T11:26:24Z</time>
      </trkpt>
      <trkpt lat="45.45632" lon="5.51676">
        <ele>586.2</ele>
        <time>2011-03-27T11:26:25Z</time>
      </trkpt>
      <trkpt lat="45.45638" lon="5.5167">
        <ele>586.1</ele>
        <time>2011-03-27T11:26:26Z</time>
      </trkpt>
      <trkpt lat="45.45644" lon="5.51664">
        <ele>586.4</ele>
        <time>2011-03-27T11:26:27Z</time>
      </trkpt>
      <trkpt lat="45.4565" lon="5.51657">
        <ele>586.5</ele>
        <time>2011-03-27T11:26:28Z</time>
      </trkpt>
      <trkpt lat="45.45655" lon="5.51648">
        <ele>586.7</ele>
        <time>2011-03-27T11:26:29Z</time>
      </trkpt>
      <trkpt lat="45.45661" lon="5.51639">
        <ele>586.8</ele>
        <time>2011-03-27T11:26:30Z</time>
      </trkpt>
      <trkpt lat="45.45666" lon="5.51631">
        <ele>586.4</ele>
        <time>2011-03-27T11:26:31Z</time>
      </trkpt>
      <trkpt lat="45.4567" lon="5.51623">
        <ele>586</ele>
        <time>2011-03-27T11:26:32Z</time>
      </trkpt>
      <trkpt lat="45.45673" lon="5.51616">
        <ele>585.8</ele>
        <time>2011-03-27T11:26:33Z</time>
      </trkpt>
      <trkpt lat="45.45677" lon="5.5161">
        <ele>585.6</ele>
        <time>2011-03-27T11:26:34Z</time>
      </trkpt>
      <trkpt lat="45.4568" lon="5.51603">
        <ele>585.5</ele>
        <time>2011-03-27T11:26:35Z</time>
      </trkpt>
      <trkpt lat="45.45686" lon="5.51595">
        <ele>585.6</ele>
        <time>2011-03-27T11:26:37Z</time>
      </trkpt>
      <trkpt lat="45.45692" lon="5.51592">
        <ele>585.7</ele>
        <time>2011-03-27T11:26:39Z</time>
      </trkpt>
      <trkpt lat="45.45699" lon="5.51589">
        <ele>585.3</ele>
        <time>2011-03-27T11:26:42Z</time>
      </trkpt>
      <trkpt lat="45.45707" lon="5.51586">
        <ele>585.3</ele>
        <time>2011-03-27T11:26:47Z</time>
      </trkpt>
      <trkpt lat="45.45715" lon="5.51581">
        <ele>584.4</ele>
        <time>2011-03-27T11:27:02Z</time>
      </trkpt>
      <trkpt lat="45.45716" lon="5.51579">
        <ele>584.2</ele>
        <time>2011-03-27T11:27:03Z</time>
      </trkpt>
      <trkpt lat="45.4573" lon="5.51572">
        <ele>582.5</ele>
        <time>2011-03-27T11:27:10Z</time>
      </trkpt>
      <trkpt lat="45.45738" lon="5.51569">
        <ele>582</ele>
        <time>2011-03-27T11:27:13Z</time>
      </trkpt>
      <trkpt lat="45.45744" lon="5.51567">
        <ele>581.8</ele>
        <time>2011-03-27T11:27:15Z</time>
      </trkpt>
      <trkpt lat="45.45752" lon="5.51563">
        <ele>580.9</ele>
        <time>2011-03-27T11:27:18Z</time>
      </trkpt>
      <trkpt lat="45.4576" lon="5.51559">
        <ele>579.7</ele>
        <time>2011-03-27T11:27:21Z</time>
      </trkpt>
      <trkpt lat="45.45768" lon="5.51556">
        <ele>579.5</ele>
        <time>2011-03-27T11:27:24Z</time>
      </trkpt>
      <trkpt lat="45.45774" lon="5.51552">
        <ele>579</ele>
        <time>2011-03-27T11:27:26Z</time>
      </trkpt>
      <trkpt lat="45.4578" lon="5.51548">
        <ele>578.5</ele>
        <time>2011-03-27T11:27:28Z</time>
      </trkpt>
      <trkpt lat="45.45788" lon="5.51544">
        <ele>578</ele>
        <time>2011-03-27T11:27:30Z</time>
      </trkpt>
      <trkpt lat="45.45795" lon="5.51539">
        <ele>576.9</ele>
        <time>2011-03-27T11:27:32Z</time>
      </trkpt>
      <trkpt lat="45.45803" lon="5.51534">
        <ele>576.7</ele>
        <time>2011-03-27T11:27:34Z</time>
      </trkpt>
      <trkpt lat="45.45806" lon="5.51532">
        <ele>576.8</ele>
        <time>2011-03-27T11:27:35Z</time>
      </trkpt>
      <trkpt lat="45.45811" lon="5.51528">
        <ele>576.8</ele>
        <time>2011-03-27T11:27:36Z</time>
      </trkpt>
      <trkpt lat="45.45816" lon="5.51524">
        <ele>576.3</ele>
        <time>2011-03-27T11:27:37Z</time>
      </trkpt>
      <trkpt lat="45.45822" lon="5.5152">
        <ele>576</ele>
        <time>2011-03-27T11:27:38Z</time>
      </trkpt>
      <trkpt lat="45.45828" lon="5.51515">
        <ele>575.7</ele>
        <time>2011-03-27T11:27:39Z</time>
      </trkpt>
      <trkpt lat="45.45833" lon="5.51509">
        <ele>575.4</ele>
        <time>2011-03-27T11:27:40Z</time>
      </trkpt>
      <trkpt lat="45.45836" lon="5.51501">
        <ele>575.2</ele>
        <time>2011-03-27T11:27:41Z</time>
      </trkpt>
      <trkpt lat="45.45836" lon="5.5149">
        <ele>575</ele>
        <time>2011-03-27T11:27:42Z</time>
      </trkpt>
      <trkpt lat="45.45833" lon="5.51477">
        <ele>574.9</ele>
        <time>2011-03-27T11:27:43Z</time>
      </trkpt>
      <trkpt lat="45.45829" lon="5.51464">
        <ele>574.7</ele>
        <time>2011-03-27T11:27:44Z</time>
      </trkpt>
      <trkpt lat="45.45824" lon="5.5145">
        <ele>574.6</ele>
        <time>2011-03-27T11:27:45Z</time>
      </trkpt>
      <trkpt lat="45.4582" lon="5.51434">
        <ele>574.6</ele>
        <time>2011-03-27T11:27:46Z</time>
      </trkpt>
      <trkpt lat="45.45815" lon="5.51419">
        <ele>573.7</ele>
        <time>2011-03-27T11:27:47Z</time>
      </trkpt>
      <trkpt lat="45.45808" lon="5.51407">
        <ele>573</ele>
        <time>2011-03-27T11:27:48Z</time>
      </trkpt>
      <trkpt lat="45.458" lon="5.51395">
        <ele>572.5</ele>
        <time>2011-03-27T11:27:49Z</time>
      </trkpt>
      <trkpt lat="45.45793" lon="5.51384">
        <ele>572.8</ele>
        <time>2011-03-27T11:27:50Z</time>
      </trkpt>
      <trkpt lat="45.45786" lon="5.51374">
        <ele>573</ele>
        <time>2011-03-27T11:27:51Z</time>
      </trkpt>
      <trkpt lat="45.45781" lon="5.51363">
        <ele>573.1</ele>
        <time>2011-03-27T11:27:52Z</time>
      </trkpt>
      <trkpt lat="45.45778" lon="5.51351">
        <ele>572.4</ele>
        <time>2011-03-27T11:27:53Z</time>
      </trkpt>
      <trkpt lat="45.45778" lon="5.51338">
        <ele>571.9</ele>
        <time>2011-03-27T11:27:54Z</time>
      </trkpt>
      <trkpt lat="45.45777" lon="5.51327">
        <ele>571.5</ele>
        <time>2011-03-27T11:27:55Z</time>
      </trkpt>
      <trkpt lat="45.45774" lon="5.51316">
        <ele>571.5</ele>
        <time>2011-03-27T11:27:56Z</time>
      </trkpt>
      <trkpt lat="45.4577" lon="5.51308">
        <ele>571.6</ele>
        <time>2011-03-27T11:27:57Z</time>
      </trkpt>
      <trkpt lat="45.45764" lon="5.513">
        <ele>571.7</ele>
        <time>2011-03-27T11:27:58Z</time>
      </trkpt>
      <trkpt lat="45.45758" lon="5.51293">
        <ele>571.1</ele>
        <time>2011-03-27T11:27:59Z</time>
      </trkpt>
      <trkpt lat="45.45752" lon="5.51286">
        <ele>570.6</ele>
        <time>2011-03-27T11:28:00Z</time>
      </trkpt>
      <trkpt lat="45.45745" lon="5.51279">
        <ele>570.3</ele>
        <time>2011-03-27T11:28:01Z</time>
      </trkpt>
      <trkpt lat="45.45738" lon="5.51272">
        <ele>570</ele>
        <time>2011-03-27T11:28:02Z</time>
      </trkpt>
      <trkpt lat="45.45732" lon="5.51265">
        <ele>569.7</ele>
        <time>2011-03-27T11:28:03Z</time>
      </trkpt>
      <trkpt lat="45.45725" lon="5.51258">
        <ele>569.5</ele>
        <time>2011-03-27T11:28:04Z</time>
      </trkpt>
      <trkpt lat="45.45719" lon="5.51252">
        <ele>569.3</ele>
        <time>2011-03-27T11:28:05Z</time>
      </trkpt>
      <trkpt lat="45.45712" lon="5.51245">
        <ele>569</ele>
        <time>2011-03-27T11:28:06Z</time>
      </trkpt>
      <trkpt lat="45.45706" lon="5.51238">
        <ele>568.9</ele>
        <time>2011-03-27T11:28:07Z</time>
      </trkpt>
      <trkpt lat="45.457" lon="5.51232">
        <ele>568.7</ele>
        <time>2011-03-27T11:28:08Z</time>
      </trkpt>
      <trkpt lat="45.45694" lon="5.51226">
        <ele>568.3</ele>
        <time>2011-03-27T11:28:09Z</time>
      </trkpt>
      <trkpt lat="45.45689" lon="5.51218">
        <ele>568</ele>
        <time>2011-03-27T11:28:10Z</time>
      </trkpt>
      <trkpt lat="45.45687" lon="5.51209">
        <ele>567.7</ele>
        <time>2011-03-27T11:28:11Z</time>
      </trkpt>
      <trkpt lat="45.45686" lon="5.51199">
        <ele>567.2</ele>
        <time>2011-03-27T11:28:12Z</time>
      </trkpt>
      <trkpt lat="45.45688" lon="5.51189">
        <ele>566.7</ele>
        <time>2011-03-27T11:28:13Z</time>
      </trkpt>
      <trkpt lat="45.45691" lon="5.5118">
        <ele>566.4</ele>
        <time>2011-03-27T11:28:14Z</time>
      </trkpt>
      <trkpt lat="45.45694" lon="5.51171">
        <ele>566.6</ele>
        <time>2011-03-27T11:28:15Z</time>
      </trkpt>
      <trkpt lat="45.45697" lon="5.51163">
        <ele>566.8</ele>
        <time>2011-03-27T11:28:16Z</time>
      </trkpt>
      <trkpt lat="45.45701" lon="5.51155">
        <ele>567</ele>
        <time>2011-03-27T11:28:17Z</time>
      </trkpt>
      <trkpt lat="45.45705" lon="5.51148">
        <ele>567.1</ele>
        <time>2011-03-27T11:28:18Z</time>
      </trkpt>
      <trkpt lat="45.45709" lon="5.51141">
        <ele>566.6</ele>
        <time>2011-03-27T11:28:19Z</time>
      </trkpt>
      <trkpt lat="45.45712" lon="5.51133">
        <ele>566.2</ele>
        <time>2011-03-27T11:28:20Z</time>
      </trkpt>
      <trkpt lat="45.45716" lon="5.51126">
        <ele>566</ele>
        <time>2011-03-27T11:28:21Z</time>
      </trkpt>
      <trkpt lat="45.4572" lon="5.51118">
        <ele>565.3</ele>
        <time>2011-03-27T11:28:22Z</time>
      </trkpt>
      <trkpt lat="45.45724" lon="5.51111">
        <ele>564.8</ele>
        <time>2011-03-27T11:28:23Z</time>
      </trkpt>
      <trkpt lat="45.45728" lon="5.51104">
        <ele>564.5</ele>
        <time>2011-03-27T11:28:24Z</time>
      </trkpt>
      <trkpt lat="45.45732" lon="5.51097">
        <ele>563.9</ele>
        <time>2011-03-27T11:28:25Z</time>
      </trkpt>
      <trkpt lat="45.45736" lon="5.5109">
        <ele>563.5</ele>
        <time>2011-03-27T11:28:26Z</time>
      </trkpt>
      <trkpt lat="45.4574" lon="5.51083">
        <ele>563.1</ele>
        <time>2011-03-27T11:28:27Z</time>
      </trkpt>
      <trkpt lat="45.45744" lon="5.51076">
        <ele>562.5</ele>
        <time>2011-03-27T11:28:28Z</time>
      </trkpt>
      <trkpt lat="45.45748" lon="5.51069">
        <ele>562</ele>
        <time>2011-03-27T11:28:29Z</time>
      </trkpt>
      <trkpt lat="45.45752" lon="5.51062">
        <ele>561.7</ele>
        <time>2011-03-27T11:28:30Z</time>
      </trkpt>
      <trkpt lat="45.45756" lon="5.51055">
        <ele>561.9</ele>
        <time>2011-03-27T11:28:31Z</time>
      </trkpt>
      <trkpt lat="45.45761" lon="5.51048">
        <ele>562</ele>
        <time>2011-03-27T11:28:32Z</time>
      </trkpt>
      <trkpt lat="45.45765" lon="5.5104">
        <ele>562.1</ele>
        <time>2011-03-27T11:28:33Z</time>
      </trkpt>
      <trkpt lat="45.45769" lon="5.51032">
        <ele>561.6</ele>
        <time>2011-03-27T11:28:34Z</time>
      </trkpt>
      <trkpt lat="45.45774" lon="5.51025">
        <ele>561.3</ele>
        <time>2011-03-27T11:28:35Z</time>
      </trkpt>
      <trkpt lat="45.45778" lon="5.51018">
        <ele>561.1</ele>
        <time>2011-03-27T11:28:36Z</time>
      </trkpt>
      <trkpt lat="45.45782" lon="5.5101">
        <ele>560.9</ele>
        <time>2011-03-27T11:28:37Z</time>
      </trkpt>
      <trkpt lat="45.45786" lon="5.51003">
        <ele>560.5</ele>
        <time>2011-03-27T11:28:38Z</time>
      </trkpt>
      <trkpt lat="45.4579" lon="5.50996">
        <ele>560.3</ele>
        <time>2011-03-27T11:28:39Z</time>
      </trkpt>
      <trkpt lat="45.45793" lon="5.50988">
        <ele>560.1</ele>
        <time>2011-03-27T11:28:40Z</time>
      </trkpt>
      <trkpt lat="45.45796" lon="5.5098">
        <ele>560.1</ele>
        <time>2011-03-27T11:28:41Z</time>
      </trkpt>
      <trkpt lat="45.45799" lon="5.50973">
        <ele>560</ele>
        <time>2011-03-27T11:28:42Z</time>
      </trkpt>
      <trkpt lat="45.45802" lon="5.50965">
        <ele>560</ele>
        <time>2011-03-27T11:28:43Z</time>
      </trkpt>
      <trkpt lat="45.45805" lon="5.50956">
        <ele>559.4</ele>
        <time>2011-03-27T11:28:44Z</time>
      </trkpt>
      <trkpt lat="45.45807" lon="5.50947">
        <ele>559</ele>
        <time>2011-03-27T11:28:45Z</time>
      </trkpt>
      <trkpt lat="45.45806" lon="5.50939">
        <ele>558.7</ele>
        <time>2011-03-27T11:28:46Z</time>
      </trkpt>
      <trkpt lat="45.45802" lon="5.50933">
        <ele>558.7</ele>
        <time>2011-03-27T11:28:47Z</time>
      </trkpt>
      <trkpt lat="45.45797" lon="5.50929">
        <ele>558.7</ele>
        <time>2011-03-27T11:28:48Z</time>
      </trkpt>
      <trkpt lat="45.45792" lon="5.50925">
        <ele>558.7</ele>
        <time>2011-03-27T11:28:49Z</time>
      </trkpt>
      <trkpt lat="45.45787" lon="5.50921">
        <ele>557.9</ele>
        <time>2011-03-27T11:28:50Z</time>
      </trkpt>
      <trkpt lat="45.45781" lon="5.50917">
        <ele>557.3</ele>
        <time>2011-03-27T11:28:51Z</time>
      </trkpt>
      <trkpt lat="45.45775" lon="5.50913">
        <ele>556.9</ele>
        <time>2011-03-27T11:28:52Z</time>
      </trkpt>
      <trkpt lat="45.4577" lon="5.50909">
        <ele>556.6</ele>
        <time>2011-03-27T11:28:53Z</time>
      </trkpt>
      <trkpt lat="45.45765" lon="5.50903">
        <ele>556.4</ele>
        <time>2011-03-27T11:28:54Z</time>
      </trkpt>
      <trkpt lat="45.4576" lon="5.50897">
        <ele>556.2</ele>
        <time>2011-03-27T11:28:55Z</time>
      </trkpt>
      <trkpt lat="45.45756" lon="5.50891">
        <ele>556.1</ele>
        <time>2011-03-27T11:28:56Z</time>
      </trkpt>
      <trkpt lat="45.45752" lon="5.50885">
        <ele>555.7</ele>
        <time>2011-03-27T11:28:57Z</time>
      </trkpt>
      <trkpt lat="45.45748" lon="5.50878">
        <ele>555.4</ele>
        <time>2011-03-27T11:28:58Z</time>
      </trkpt>
      <trkpt lat="45.45744" lon="5.50871">
        <ele>555.1</ele>
        <time>2011-03-27T11:28:59Z</time>
      </trkpt>
      <trkpt lat="45.4574" lon="5.50864">
        <ele>554.4</ele>
        <time>2011-03-27T11:29:00Z</time>
      </trkpt>
      <trkpt lat="45.45736" lon="5.50858">
        <ele>553.9</ele>
        <time>2011-03-27T11:29:01Z</time>
      </trkpt>
      <trkpt lat="45.45731" lon="5.50851">
        <ele>553.4</ele>
        <time>2011-03-27T11:29:02Z</time>
      </trkpt>
      <trkpt lat="45.45727" lon="5.50844">
        <ele>553.4</ele>
        <time>2011-03-27T11:29:03Z</time>
      </trkpt>
      <trkpt lat="45.45723" lon="5.50838">
        <ele>553.4</ele>
        <time>2011-03-27T11:29:04Z</time>
      </trkpt>
      <trkpt lat="45.45719" lon="5.50832">
        <ele>553.4</ele>
        <time>2011-03-27T11:29:05Z</time>
      </trkpt>
      <trkpt lat="45.45716" lon="5.50826">
        <ele>553.3</ele>
        <time>2011-03-27T11:29:06Z</time>
      </trkpt>
      <trkpt lat="45.45712" lon="5.5082">
        <ele>553.2</ele>
        <time>2011-03-27T11:29:07Z</time>
      </trkpt>
      <trkpt lat="45.45709" lon="5.50815">
        <ele>553.2</ele>
        <time>2011-03-27T11:29:08Z</time>
      </trkpt>
      <trkpt lat="45.45706" lon="5.50809">
        <ele>553.1</ele>
        <time>2011-03-27T11:29:09Z</time>
      </trkpt>
      <trkpt lat="45.45701" lon="5.50799">
        <ele>553.1</ele>
        <time>2011-03-27T11:29:11Z</time>
      </trkpt>
      <trkpt lat="45.45698" lon="5.50789">
        <ele>553</ele>
        <time>2011-03-27T11:29:13Z</time>
      </trkpt>
      <trkpt lat="45.45696" lon="5.50778">
        <ele>552.9</ele>
        <time>2011-03-27T11:29:15Z</time>
      </trkpt>
      <trkpt lat="45.45695" lon="5.50769">
        <ele>552.8</ele>
        <time>2011-03-27T11:29:17Z</time>
      </trkpt>
      <trkpt lat="45.45694" lon="5.50759">
        <ele>552.8</ele>
        <time>2011-03-27T11:29:19Z</time>
      </trkpt>
      <trkpt lat="45.45693" lon="5.5075">
        <ele>552.9</ele>
        <time>2011-03-27T11:29:21Z</time>
      </trkpt>
      <trkpt lat="45.45693" lon="5.50741">
        <ele>553.2</ele>
        <time>2011-03-27T11:29:23Z</time>
      </trkpt>
      <trkpt lat="45.45692" lon="5.50728">
        <ele>553.4</ele>
        <time>2011-03-27T11:29:26Z</time>
      </trkpt>
      <trkpt lat="45.45692" lon="5.50716">
        <ele>553.3</ele>
        <time>2011-03-27T11:29:29Z</time>
      </trkpt>
      <trkpt lat="45.4569" lon="5.50704">
        <ele>553.4</ele>
        <time>2011-03-27T11:29:32Z</time>
      </trkpt>
      <trkpt lat="45.45689" lon="5.50695">
        <ele>553.5</ele>
        <time>2011-03-27T11:29:34Z</time>
      </trkpt>
      <trkpt lat="45.45687" lon="5.50686">
        <ele>553.7</ele>
        <time>2011-03-27T11:29:36Z</time>
      </trkpt>
      <trkpt lat="45.45686" lon="5.50678">
        <ele>553.8</ele>
        <time>2011-03-27T11:29:38Z</time>
      </trkpt>
      <trkpt lat="45.45684" lon="5.5067">
        <ele>553.8</ele>
        <time>2011-03-27T11:29:40Z</time>
      </trkpt>
      <trkpt lat="45.45682" lon="5.50662">
        <ele>553.6</ele>
        <time>2011-03-27T11:29:42Z</time>
      </trkpt>
      <trkpt lat="45.45681" lon="5.50653">
        <ele>553.7</ele>
        <time>2011-03-27T11:29:44Z</time>
      </trkpt>
      <trkpt lat="45.4568" lon="5.5064">
        <ele>554.1</ele>
        <time>2011-03-27T11:29:47Z</time>
      </trkpt>
      <trkpt lat="45.45677" lon="5.50628">
        <ele>554.5</ele>
        <time>2011-03-27T11:29:50Z</time>
      </trkpt>
      <trkpt lat="45.45676" lon="5.5062">
        <ele>553.8</ele>
        <time>2011-03-27T11:29:52Z</time>
      </trkpt>
      <trkpt lat="45.45675" lon="5.50611">
        <ele>553.4</ele>
        <time>2011-03-27T11:29:54Z</time>
      </trkpt>
      <trkpt lat="45.45673" lon="5.50603">
        <ele>553.2</ele>
        <time>2011-03-27T11:29:56Z</time>
      </trkpt>
      <trkpt lat="45.45672" lon="5.50594">
        <ele>553.5</ele>
        <time>2011-03-27T11:29:58Z</time>
      </trkpt>
      <trkpt lat="45.45671" lon="5.50585">
        <ele>553.2</ele>
        <time>2011-03-27T11:30:00Z</time>
      </trkpt>
      <trkpt lat="45.4567" lon="5.50576">
        <ele>552.7</ele>
        <time>2011-03-27T11:30:02Z</time>
      </trkpt>
      <trkpt lat="45.45669" lon="5.50567">
        <ele>551.4</ele>
        <time>2011-03-27T11:30:04Z</time>
      </trkpt>
      <trkpt lat="45.45667" lon="5.50558">
        <ele>550.9</ele>
        <time>2011-03-27T11:30:06Z</time>
      </trkpt>
      <trkpt lat="45.45666" lon="5.50553">
        <ele>550.9</ele>
        <time>2011-03-27T11:30:07Z</time>
      </trkpt>
      <trkpt lat="45.45662" lon="5.50537">
        <ele>549.7</ele>
        <time>2011-03-27T11:30:11Z</time>
      </trkpt>
      <trkpt lat="45.45656" lon="5.50528">
        <ele>550</ele>
        <time>2011-03-27T11:30:15Z</time>
      </trkpt>
      <trkpt lat="45.45648" lon="5.5053">
        <ele>548.9</ele>
        <time>2011-03-27T11:30:18Z</time>
      </trkpt>
      <trkpt lat="45.45643" lon="5.50535">
        <ele>548.3</ele>
        <time>2011-03-27T11:30:20Z</time>
      </trkpt>
      <trkpt lat="45.45637" lon="5.50542">
        <ele>547.7</ele>
        <time>2011-03-27T11:30:22Z</time>
      </trkpt>
      <trkpt lat="45.45631" lon="5.50548">
        <ele>547.1</ele>
        <time>2011-03-27T11:30:24Z</time>
      </trkpt>
      <trkpt lat="45.45625" lon="5.50555">
        <ele>546.2</ele>
        <time>2011-03-27T11:30:26Z</time>
      </trkpt>
      <trkpt lat="45.45619" lon="5.50562">
        <ele>545.2</ele>
        <time>2011-03-27T11:30:28Z</time>
      </trkpt>
      <trkpt lat="45.45612" lon="5.50568">
        <ele>545.6</ele>
        <time>2011-03-27T11:30:30Z</time>
      </trkpt>
      <trkpt lat="45.45606" lon="5.50572">
        <ele>545.4</ele>
        <time>2011-03-27T11:30:32Z</time>
      </trkpt>
      <trkpt lat="45.45599" lon="5.50575">
        <ele>544.9</ele>
        <time>2011-03-27T11:30:34Z</time>
      </trkpt>
      <trkpt lat="45.45594" lon="5.50577">
        <ele>544.9</ele>
        <time>2011-03-27T11:30:35Z</time>
      </trkpt>
      <trkpt lat="45.4559" lon="5.5058">
        <ele>545</ele>
        <time>2011-03-27T11:30:36Z</time>
      </trkpt>
      <trkpt lat="45.45585" lon="5.50582">
        <ele>545</ele>
        <time>2011-03-27T11:30:37Z</time>
      </trkpt>
      <trkpt lat="45.45581" lon="5.50585">
        <ele>544.6</ele>
        <time>2011-03-27T11:30:38Z</time>
      </trkpt>
      <trkpt lat="45.45576" lon="5.50588">
        <ele>544.3</ele>
        <time>2011-03-27T11:30:39Z</time>
      </trkpt>
      <trkpt lat="45.45571" lon="5.50591">
        <ele>544.1</ele>
        <time>2011-03-27T11:30:40Z</time>
      </trkpt>
      <trkpt lat="45.45567" lon="5.50595">
        <ele>544.2</ele>
        <time>2011-03-27T11:30:41Z</time>
      </trkpt>
      <trkpt lat="45.45562" lon="5.50598">
        <ele>544.3</ele>
        <time>2011-03-27T11:30:42Z</time>
      </trkpt>
      <trkpt lat="45.45558" lon="5.50602">
        <ele>544.3</ele>
        <time>2011-03-27T11:30:43Z</time>
      </trkpt>
      <trkpt lat="45.45553" lon="5.50606">
        <ele>544.4</ele>
        <time>2011-03-27T11:30:44Z</time>
      </trkpt>
      <trkpt lat="45.45548" lon="5.50609">
        <ele>544.5</ele>
        <time>2011-03-27T11:30:45Z</time>
      </trkpt>
      <trkpt lat="45.45544" lon="5.50613">
        <ele>544.7</ele>
        <time>2011-03-27T11:30:46Z</time>
      </trkpt>
      <trkpt lat="45.45539" lon="5.50617">
        <ele>544.7</ele>
        <time>2011-03-27T11:30:47Z</time>
      </trkpt>
      <trkpt lat="45.45534" lon="5.50621">
        <ele>544.8</ele>
        <time>2011-03-27T11:30:48Z</time>
      </trkpt>
      <trkpt lat="45.4553" lon="5.50624">
        <ele>544.9</ele>
        <time>2011-03-27T11:30:49Z</time>
      </trkpt>
      <trkpt lat="45.45525" lon="5.50628">
        <ele>544.9</ele>
        <time>2011-03-27T11:30:50Z</time>
      </trkpt>
      <trkpt lat="45.4552" lon="5.50633">
        <ele>545.2</ele>
        <time>2011-03-27T11:30:51Z</time>
      </trkpt>
      <trkpt lat="45.45516" lon="5.50637">
        <ele>545.4</ele>
        <time>2011-03-27T11:30:52Z</time>
      </trkpt>
      <trkpt lat="45.45511" lon="5.50641">
        <ele>545.6</ele>
        <time>2011-03-27T11:30:53Z</time>
      </trkpt>
      <trkpt lat="45.45506" lon="5.50645">
        <ele>545.3</ele>
        <time>2011-03-27T11:30:54Z</time>
      </trkpt>
      <trkpt lat="45.45501" lon="5.50649">
        <ele>545.1</ele>
        <time>2011-03-27T11:30:55Z</time>
      </trkpt>
      <trkpt lat="45.45496" lon="5.50653">
        <ele>545</ele>
        <time>2011-03-27T11:30:56Z</time>
      </trkpt>
      <trkpt lat="45.45492" lon="5.50657">
        <ele>545.3</ele>
        <time>2011-03-27T11:30:57Z</time>
      </trkpt>
      <trkpt lat="45.45487" lon="5.50661">
        <ele>545.5</ele>
        <time>2011-03-27T11:30:58Z</time>
      </trkpt>
      <trkpt lat="45.45482" lon="5.50664">
        <ele>545.6</ele>
        <time>2011-03-27T11:30:59Z</time>
      </trkpt>
      <trkpt lat="45.45477" lon="5.50667">
        <ele>545.4</ele>
        <time>2011-03-27T11:31:00Z</time>
      </trkpt>
      <trkpt lat="45.45473" lon="5.5067">
        <ele>545.3</ele>
        <time>2011-03-27T11:31:01Z</time>
      </trkpt>
      <trkpt lat="45.45468" lon="5.50673">
        <ele>545.2</ele>
        <time>2011-03-27T11:31:02Z</time>
      </trkpt>
      <trkpt lat="45.45464" lon="5.50676">
        <ele>545.2</ele>
        <time>2011-03-27T11:31:03Z</time>
      </trkpt>
      <trkpt lat="45.4546" lon="5.5068">
        <ele>545.3</ele>
        <time>2011-03-27T11:31:04Z</time>
      </trkpt>
      <trkpt lat="45.45455" lon="5.50683">
        <ele>545.3</ele>
        <time>2011-03-27T11:31:05Z</time>
      </trkpt>
      <trkpt lat="45.45452" lon="5.50687">
        <ele>545.4</ele>
        <time>2011-03-27T11:31:06Z</time>
      </trkpt>
      <trkpt lat="45.45448" lon="5.50691">
        <ele>545.8</ele>
        <time>2011-03-27T11:31:07Z</time>
      </trkpt>
      <trkpt lat="45.45444" lon="5.50695">
        <ele>546.2</ele>
        <time>2011-03-27T11:31:08Z</time>
      </trkpt>
      <trkpt lat="45.4544" lon="5.50699">
        <ele>546.4</ele>
        <time>2011-03-27T11:31:09Z</time>
      </trkpt>
      <trkpt lat="45.45436" lon="5.50703">
        <ele>546.5</ele>
        <time>2011-03-27T11:31:10Z</time>
      </trkpt>
      <trkpt lat="45.45432" lon="5.50707">
        <ele>546.6</ele>
        <time>2011-03-27T11:31:11Z</time>
      </trkpt>
      <trkpt lat="45.45426" lon="5.50715">
        <ele>546.9</ele>
        <time>2011-03-27T11:31:13Z</time>
      </trkpt>
      <trkpt lat="45.45419" lon="5.50723">
        <ele>547.2</ele>
        <time>2011-03-27T11:31:15Z</time>
      </trkpt>
      <trkpt lat="45.45412" lon="5.50731">
        <ele>546.6</ele>
        <time>2011-03-27T11:31:17Z</time>
      </trkpt>
      <trkpt lat="45.45406" lon="5.50739">
        <ele>546.7</ele>
        <time>2011-03-27T11:31:19Z</time>
      </trkpt>
      <trkpt lat="45.454" lon="5.50745">
        <ele>547</ele>
        <time>2011-03-27T11:31:21Z</time>
      </trkpt>
      <trkpt lat="45.45393" lon="5.50748">
        <ele>546.8</ele>
        <time>2011-03-27T11:31:23Z</time>
      </trkpt>
      <trkpt lat="45.45386" lon="5.50751">
        <ele>546.5</ele>
        <time>2011-03-27T11:31:25Z</time>
      </trkpt>
      <trkpt lat="45.45378" lon="5.50753">
        <ele>545.9</ele>
        <time>2011-03-27T11:31:28Z</time>
      </trkpt>
      <trkpt lat="45.4537" lon="5.50752">
        <ele>545.2</ele>
        <time>2011-03-27T11:31:32Z</time>
      </trkpt>
      <trkpt lat="45.45362" lon="5.50752">
        <ele>545.5</ele>
        <time>2011-03-27T11:31:36Z</time>
      </trkpt>
      <trkpt lat="45.45355" lon="5.50751">
        <ele>544.8</ele>
        <time>2011-03-27T11:31:39Z</time>
      </trkpt>
      <trkpt lat="45.45347" lon="5.50751">
        <ele>544.2</ele>
        <time>2011-03-27T11:31:42Z</time>
      </trkpt>
      <trkpt lat="45.45339" lon="5.50754">
        <ele>543.7</ele>
        <time>2011-03-27T11:31:45Z</time>
      </trkpt>
      <trkpt lat="45.45332" lon="5.50757">
        <ele>542.9</ele>
        <time>2011-03-27T11:31:48Z</time>
      </trkpt>
      <trkpt lat="45.45324" lon="5.50763">
        <ele>542.3</ele>
        <time>2011-03-27T11:31:52Z</time>
      </trkpt>
      <trkpt lat="45.45318" lon="5.50769">
        <ele>542.9</ele>
        <time>2011-03-27T11:31:55Z</time>
      </trkpt>
      <trkpt lat="45.45313" lon="5.50776">
        <ele>543.2</ele>
        <time>2011-03-27T11:31:58Z</time>
      </trkpt>
      <trkpt lat="45.45308" lon="5.50784">
        <ele>543.3</ele>
        <time>2011-03-27T11:32:01Z</time>
      </trkpt>
      <trkpt lat="45.45303" lon="5.50792">
        <ele>543.5</ele>
        <time>2011-03-27T11:32:04Z</time>
      </trkpt>
      <trkpt lat="45.45297" lon="5.50799">
        <ele>543.4</ele>
        <time>2011-03-27T11:32:07Z</time>
      </trkpt>
      <trkpt lat="45.4529" lon="5.50807">
        <ele>543.2</ele>
        <time>2011-03-27T11:32:10Z</time>
      </trkpt>
      <trkpt lat="45.45288" lon="5.5081">
        <ele>543.2</ele>
        <time>2011-03-27T11:32:11Z</time>
      </trkpt>
      <trkpt lat="45.45278" lon="5.50819">
        <ele>543.9</ele>
        <time>2011-03-27T11:32:15Z</time>
      </trkpt>
      <trkpt lat="45.45273" lon="5.50824">
        <ele>544.1</ele>
        <time>2011-03-27T11:32:17Z</time>
      </trkpt>
      <trkpt lat="45.45267" lon="5.50828">
        <ele>544.2</ele>
        <time>2011-03-27T11:32:19Z</time>
      </trkpt>
      <trkpt lat="45.45262" lon="5.50832">
        <ele>544.5</ele>
        <time>2011-03-27T11:32:21Z</time>
      </trkpt>
      <trkpt lat="45.45256" lon="5.50836">
        <ele>544.3</ele>
        <time>2011-03-27T11:32:23Z</time>
      </trkpt>
      <trkpt lat="45.45249" lon="5.5084">
        <ele>544</ele>
        <time>2011-03-27T11:32:25Z</time>
      </trkpt>
      <trkpt lat="45.45243" lon="5.50844">
        <ele>544.6</ele>
        <time>2011-03-27T11:32:27Z</time>
      </trkpt>
      <trkpt lat="45.45235" lon="5.50847">
        <ele>544.7</ele>
        <time>2011-03-27T11:32:29Z</time>
      </trkpt>
      <trkpt lat="45.45228" lon="5.5085">
        <ele>544.6</ele>
        <time>2011-03-27T11:32:31Z</time>
      </trkpt>
      <trkpt lat="45.45221" lon="5.50852">
        <ele>545.1</ele>
        <time>2011-03-27T11:32:33Z</time>
      </trkpt>
      <trkpt lat="45.45213" lon="5.50855">
        <ele>545.4</ele>
        <time>2011-03-27T11:32:35Z</time>
      </trkpt>
      <trkpt lat="45.45206" lon="5.50857">
        <ele>545.7</ele>
        <time>2011-03-27T11:32:37Z</time>
      </trkpt>
      <trkpt lat="45.45199" lon="5.50859">
        <ele>546.1</ele>
        <time>2011-03-27T11:32:39Z</time>
      </trkpt>
      <trkpt lat="45.45192" lon="5.5086">
        <ele>546.5</ele>
        <time>2011-03-27T11:32:41Z</time>
      </trkpt>
      <trkpt lat="45.45186" lon="5.5086">
        <ele>547</ele>
        <time>2011-03-27T11:32:43Z</time>
      </trkpt>
      <trkpt lat="45.45179" lon="5.50861">
        <ele>547.1</ele>
        <time>2011-03-27T11:32:45Z</time>
      </trkpt>
      <trkpt lat="45.45173" lon="5.50862">
        <ele>547</ele>
        <time>2011-03-27T11:32:47Z</time>
      </trkpt>
      <trkpt lat="45.45167" lon="5.50862">
        <ele>547.2</ele>
        <time>2011-03-27T11:32:49Z</time>
      </trkpt>
      <trkpt lat="45.45161" lon="5.50863">
        <ele>547.2</ele>
        <time>2011-03-27T11:32:51Z</time>
      </trkpt>
      <trkpt lat="45.45155" lon="5.50863">
        <ele>547.2</ele>
        <time>2011-03-27T11:32:53Z</time>
      </trkpt>
      <trkpt lat="45.45148" lon="5.50864">
        <ele>546.8</ele>
        <time>2011-03-27T11:32:55Z</time>
      </trkpt>
      <trkpt lat="45.45141" lon="5.50867">
        <ele>546.4</ele>
        <time>2011-03-27T11:32:57Z</time>
      </trkpt>
      <trkpt lat="45.45133" lon="5.50868">
        <ele>546.9</ele>
        <time>2011-03-27T11:32:59Z</time>
      </trkpt>
      <trkpt lat="45.45125" lon="5.50868">
        <ele>547.2</ele>
        <time>2011-03-27T11:33:01Z</time>
      </trkpt>
      <trkpt lat="45.45117" lon="5.50869">
        <ele>547.5</ele>
        <time>2011-03-27T11:33:03Z</time>
      </trkpt>
      <trkpt lat="45.4511" lon="5.5087">
        <ele>547.9</ele>
        <time>2011-03-27T11:33:05Z</time>
      </trkpt>
      <trkpt lat="45.45102" lon="5.5087">
        <ele>547.9</ele>
        <time>2011-03-27T11:33:07Z</time>
      </trkpt>
      <trkpt lat="45.45094" lon="5.50869">
        <ele>547.7</ele>
        <time>2011-03-27T11:33:09Z</time>
      </trkpt>
      <trkpt lat="45.45086" lon="5.50869">
        <ele>548.3</ele>
        <time>2011-03-27T11:33:11Z</time>
      </trkpt>
      <trkpt lat="45.45082" lon="5.5087">
        <ele>548.7</ele>
        <time>2011-03-27T11:33:12Z</time>
      </trkpt>
      <trkpt lat="45.45071" lon="5.50869">
        <ele>549.4</ele>
        <time>2011-03-27T11:33:15Z</time>
      </trkpt>
      <trkpt lat="45.45064" lon="5.5087">
        <ele>548.9</ele>
        <time>2011-03-27T11:33:17Z</time>
      </trkpt>
      <trkpt lat="45.45055" lon="5.50872">
        <ele>548.1</ele>
        <time>2011-03-27T11:33:19Z</time>
      </trkpt>
      <trkpt lat="45.45051" lon="5.50874">
        <ele>547.8</ele>
        <time>2011-03-27T11:33:20Z</time>
      </trkpt>
      <trkpt lat="45.45046" lon="5.50877">
        <ele>547.6</ele>
        <time>2011-03-27T11:33:21Z</time>
      </trkpt>
      <trkpt lat="45.4504" lon="5.50881">
        <ele>547.5</ele>
        <time>2011-03-27T11:33:22Z</time>
      </trkpt>
      <trkpt lat="45.45035" lon="5.50885">
        <ele>547.5</ele>
        <time>2011-03-27T11:33:23Z</time>
      </trkpt>
      <trkpt lat="45.45029" lon="5.5089">
        <ele>547.5</ele>
        <time>2011-03-27T11:33:24Z</time>
      </trkpt>
      <trkpt lat="45.45023" lon="5.50894">
        <ele>547.5</ele>
        <time>2011-03-27T11:33:25Z</time>
      </trkpt>
      <trkpt lat="45.45016" lon="5.50897">
        <ele>546.9</ele>
        <time>2011-03-27T11:33:26Z</time>
      </trkpt>
      <trkpt lat="45.45009" lon="5.509">
        <ele>546.5</ele>
        <time>2011-03-27T11:33:27Z</time>
      </trkpt>
      <trkpt lat="45.45002" lon="5.50903">
        <ele>546.1</ele>
        <time>2011-03-27T11:33:28Z</time>
      </trkpt>
      <trkpt lat="45.44994" lon="5.50906">
        <ele>545.9</ele>
        <time>2011-03-27T11:33:29Z</time>
      </trkpt>
      <trkpt lat="45.44987" lon="5.50908">
        <ele>545.9</ele>
        <time>2011-03-27T11:33:30Z</time>
      </trkpt>
      <trkpt lat="45.4498" lon="5.50911">
        <ele>545.9</ele>
        <time>2011-03-27T11:33:31Z</time>
      </trkpt>
      <trkpt lat="45.44973" lon="5.50913">
        <ele>545.9</ele>
        <time>2011-03-27T11:33:32Z</time>
      </trkpt>
      <trkpt lat="45.44966" lon="5.50916">
        <ele>546.1</ele>
        <time>2011-03-27T11:33:33Z</time>
      </trkpt>
      <trkpt lat="45.44959" lon="5.50918">
        <ele>546.3</ele>
        <time>2011-03-27T11:33:34Z</time>
      </trkpt>
      <trkpt lat="45.44953" lon="5.50921">
        <ele>546.4</ele>
        <time>2011-03-27T11:33:35Z</time>
      </trkpt>
      <trkpt lat="45.44947" lon="5.50925">
        <ele>546.1</ele>
        <time>2011-03-27T11:33:36Z</time>
      </trkpt>
      <trkpt lat="45.44941" lon="5.50928">
        <ele>545.9</ele>
        <time>2011-03-27T11:33:37Z</time>
      </trkpt>
      <trkpt lat="45.44936" lon="5.50932">
        <ele>545.8</ele>
        <time>2011-03-27T11:33:38Z</time>
      </trkpt>
      <trkpt lat="45.44931" lon="5.50935">
        <ele>545.2</ele>
        <time>2011-03-27T11:33:39Z</time>
      </trkpt>
      <trkpt lat="45.44926" lon="5.50939">
        <ele>544.7</ele>
        <time>2011-03-27T11:33:40Z</time>
      </trkpt>
      <trkpt lat="45.44921" lon="5.50942">
        <ele>544.4</ele>
        <time>2011-03-27T11:33:41Z</time>
      </trkpt>
      <trkpt lat="45.44917" lon="5.50945">
        <ele>544.4</ele>
        <time>2011-03-27T11:33:42Z</time>
      </trkpt>
      <trkpt lat="45.44913" lon="5.50948">
        <ele>544.4</ele>
        <time>2011-03-27T11:33:43Z</time>
      </trkpt>
      <trkpt lat="45.44905" lon="5.50954">
        <ele>543.8</ele>
        <time>2011-03-27T11:33:45Z</time>
      </trkpt>
      <trkpt lat="45.44898" lon="5.50959">
        <ele>543</ele>
        <time>2011-03-27T11:33:47Z</time>
      </trkpt>
      <trkpt lat="45.4489" lon="5.50965">
        <ele>542.8</ele>
        <time>2011-03-27T11:33:49Z</time>
      </trkpt>
      <trkpt lat="45.44882" lon="5.50969">
        <ele>542.9</ele>
        <time>2011-03-27T11:33:51Z</time>
      </trkpt>
      <trkpt lat="45.44873" lon="5.5097">
        <ele>542.6</ele>
        <time>2011-03-27T11:33:53Z</time>
      </trkpt>
      <trkpt lat="45.44865" lon="5.50969">
        <ele>542.4</ele>
        <time>2011-03-27T11:33:55Z</time>
      </trkpt>
      <trkpt lat="45.4486" lon="5.50968">
        <ele>542.3</ele>
        <time>2011-03-27T11:33:56Z</time>
      </trkpt>
      <trkpt lat="45.44856" lon="5.50966">
        <ele>542.3</ele>
        <time>2011-03-27T11:33:57Z</time>
      </trkpt>
      <trkpt lat="45.44852" lon="5.50964">
        <ele>542.4</ele>
        <time>2011-03-27T11:33:58Z</time>
      </trkpt>
      <trkpt lat="45.44847" lon="5.5096">
        <ele>542.5</ele>
        <time>2011-03-27T11:33:59Z</time>
      </trkpt>
      <trkpt lat="45.44843" lon="5.50956">
        <ele>542.5</ele>
        <time>2011-03-27T11:34:00Z</time>
      </trkpt>
      <trkpt lat="45.44838" lon="5.50953">
        <ele>542.5</ele>
        <time>2011-03-27T11:34:01Z</time>
      </trkpt>
      <trkpt lat="45.44834" lon="5.50949">
        <ele>542.4</ele>
        <time>2011-03-27T11:34:02Z</time>
      </trkpt>
      <trkpt lat="45.4483" lon="5.50945">
        <ele>542.4</ele>
        <time>2011-03-27T11:34:03Z</time>
      </trkpt>
      <trkpt lat="45.44826" lon="5.5094">
        <ele>542.8</ele>
        <time>2011-03-27T11:34:04Z</time>
      </trkpt>
      <trkpt lat="45.44822" lon="5.50935">
        <ele>543.2</ele>
        <time>2011-03-27T11:34:05Z</time>
      </trkpt>
      <trkpt lat="45.44818" lon="5.5093">
        <ele>543.4</ele>
        <time>2011-03-27T11:34:06Z</time>
      </trkpt>
      <trkpt lat="45.44814" lon="5.50924">
        <ele>543.6</ele>
        <time>2011-03-27T11:34:07Z</time>
      </trkpt>
      <trkpt lat="45.44809" lon="5.50919">
        <ele>543.7</ele>
        <time>2011-03-27T11:34:08Z</time>
      </trkpt>
      <trkpt lat="45.44805" lon="5.50913">
        <ele>543.8</ele>
        <time>2011-03-27T11:34:09Z</time>
      </trkpt>
      <trkpt lat="45.448" lon="5.50907">
        <ele>543.8</ele>
        <time>2011-03-27T11:34:10Z</time>
      </trkpt>
      <trkpt lat="45.44796" lon="5.50902">
        <ele>544</ele>
        <time>2011-03-27T11:34:11Z</time>
      </trkpt>
      <trkpt lat="45.44792" lon="5.50898">
        <ele>544.1</ele>
        <time>2011-03-27T11:34:12Z</time>
      </trkpt>
      <trkpt lat="45.44787" lon="5.50895">
        <ele>544.2</ele>
        <time>2011-03-27T11:34:13Z</time>
      </trkpt>
      <trkpt lat="45.44782" lon="5.50892">
        <ele>544.2</ele>
        <time>2011-03-27T11:34:14Z</time>
      </trkpt>
      <trkpt lat="45.44778" lon="5.50889">
        <ele>544.3</ele>
        <time>2011-03-27T11:34:15Z</time>
      </trkpt>
      <trkpt lat="45.44772" lon="5.50887">
        <ele>544.4</ele>
        <time>2011-03-27T11:34:16Z</time>
      </trkpt>
      <trkpt lat="45.44767" lon="5.50884">
        <ele>544.1</ele>
        <time>2011-03-27T11:34:17Z</time>
      </trkpt>
      <trkpt lat="45.44762" lon="5.50882">
        <ele>543.9</ele>
        <time>2011-03-27T11:34:18Z</time>
      </trkpt>
      <trkpt lat="45.44756" lon="5.5088">
        <ele>543.7</ele>
        <time>2011-03-27T11:34:19Z</time>
      </trkpt>
      <trkpt lat="45.4475" lon="5.50878">
        <ele>543.9</ele>
        <time>2011-03-27T11:34:20Z</time>
      </trkpt>
      <trkpt lat="45.44744" lon="5.50878">
        <ele>544.1</ele>
        <time>2011-03-27T11:34:21Z</time>
      </trkpt>
      <trkpt lat="45.44738" lon="5.50878">
        <ele>544.2</ele>
        <time>2011-03-27T11:34:22Z</time>
      </trkpt>
      <trkpt lat="45.44732" lon="5.50879">
        <ele>544.2</ele>
        <time>2011-03-27T11:34:23Z</time>
      </trkpt>
      <trkpt lat="45.44726" lon="5.50881">
        <ele>544.1</ele>
        <time>2011-03-27T11:34:24Z</time>
      </trkpt>
      <trkpt lat="45.4472" lon="5.50883">
        <ele>544.1</ele>
        <time>2011-03-27T11:34:25Z</time>
      </trkpt>
      <trkpt lat="45.44713" lon="5.50886">
        <ele>544</ele>
        <time>2011-03-27T11:34:26Z</time>
      </trkpt>
      <trkpt lat="45.44708" lon="5.5089">
        <ele>544.2</ele>
        <time>2011-03-27T11:34:27Z</time>
      </trkpt>
      <trkpt lat="45.44702" lon="5.50895">
        <ele>544.3</ele>
        <time>2011-03-27T11:34:28Z</time>
      </trkpt>
      <trkpt lat="45.44697" lon="5.50899">
        <ele>544.4</ele>
        <time>2011-03-27T11:34:29Z</time>
      </trkpt>
      <trkpt lat="45.44692" lon="5.50904">
        <ele>544.2</ele>
        <time>2011-03-27T11:34:30Z</time>
      </trkpt>
      <trkpt lat="45.44688" lon="5.50908">
        <ele>544.2</ele>
        <time>2011-03-27T11:34:31Z</time>
      </trkpt>
      <trkpt lat="45.44684" lon="5.50913">
        <ele>544.1</ele>
        <time>2011-03-27T11:34:32Z</time>
      </trkpt>
      <trkpt lat="45.4468" lon="5.50918">
        <ele>544.1</ele>
        <time>2011-03-27T11:34:33Z</time>
      </trkpt>
      <trkpt lat="45.44676" lon="5.50923">
        <ele>544.1</ele>
        <time>2011-03-27T11:34:34Z</time>
      </trkpt>
      <trkpt lat="45.44671" lon="5.50928">
        <ele>544.1</ele>
        <time>2011-03-27T11:34:35Z</time>
      </trkpt>
      <trkpt lat="45.44667" lon="5.50932">
        <ele>544.2</ele>
        <time>2011-03-27T11:34:36Z</time>
      </trkpt>
      <trkpt lat="45.44663" lon="5.50937">
        <ele>544.3</ele>
        <time>2011-03-27T11:34:37Z</time>
      </trkpt>
      <trkpt lat="45.44659" lon="5.50941">
        <ele>544.4</ele>
        <time>2011-03-27T11:34:38Z</time>
      </trkpt>
      <trkpt lat="45.44655" lon="5.50946">
        <ele>544.9</ele>
        <time>2011-03-27T11:34:39Z</time>
      </trkpt>
      <trkpt lat="45.44651" lon="5.5095">
        <ele>545.2</ele>
        <time>2011-03-27T11:34:40Z</time>
      </trkpt>
      <trkpt lat="45.44647" lon="5.50954">
        <ele>545.4</ele>
        <time>2011-03-27T11:34:41Z</time>
      </trkpt>
      <trkpt lat="45.44643" lon="5.50958">
        <ele>545.6</ele>
        <time>2011-03-27T11:34:42Z</time>
      </trkpt>
      <trkpt lat="45.44639" lon="5.50962">
        <ele>545.2</ele>
        <time>2011-03-27T11:34:43Z</time>
      </trkpt>
      <trkpt lat="45.44635" lon="5.50966">
        <ele>544.8</ele>
        <time>2011-03-27T11:34:44Z</time>
      </trkpt>
      <trkpt lat="45.44631" lon="5.50971">
        <ele>544.6</ele>
        <time>2011-03-27T11:34:45Z</time>
      </trkpt>
      <trkpt lat="45.44627" lon="5.50975">
        <ele>544.8</ele>
        <time>2011-03-27T11:34:46Z</time>
      </trkpt>
      <trkpt lat="45.44624" lon="5.50979">
        <ele>545</ele>
        <time>2011-03-27T11:34:47Z</time>
      </trkpt>
      <trkpt lat="45.44617" lon="5.50986">
        <ele>545.2</ele>
        <time>2011-03-27T11:34:49Z</time>
      </trkpt>
      <trkpt lat="45.4461" lon="5.50991">
        <ele>545.3</ele>
        <time>2011-03-27T11:34:51Z</time>
      </trkpt>
      <trkpt lat="45.44604" lon="5.50995">
        <ele>544.8</ele>
        <time>2011-03-27T11:34:53Z</time>
      </trkpt>
      <trkpt lat="45.44597" lon="5.50999">
        <ele>545.4</ele>
        <time>2011-03-27T11:34:56Z</time>
      </trkpt>
      <trkpt lat="45.44589" lon="5.51">
        <ele>545.7</ele>
        <time>2011-03-27T11:34:59Z</time>
      </trkpt>
      <trkpt lat="45.44582" lon="5.50999">
        <ele>545.8</ele>
        <time>2011-03-27T11:35:02Z</time>
      </trkpt>
      <trkpt lat="45.44574" lon="5.50995">
        <ele>546.3</ele>
        <time>2011-03-27T11:35:05Z</time>
      </trkpt>
      <trkpt lat="45.44568" lon="5.50993">
        <ele>546.2</ele>
        <time>2011-03-27T11:35:08Z</time>
      </trkpt>
      <trkpt lat="45.44559" lon="5.50992">
        <ele>545.7</ele>
        <time>2011-03-27T11:35:12Z</time>
      </trkpt>
      <trkpt lat="45.44551" lon="5.5099">
        <ele>546.7</ele>
        <time>2011-03-27T11:35:16Z</time>
      </trkpt>
      <trkpt lat="45.44549" lon="5.50989">
        <ele>546.7</ele>
        <time>2011-03-27T11:35:17Z</time>
      </trkpt>
      <trkpt lat="45.44536" lon="5.50986">
        <ele>547.5</ele>
        <time>2011-03-27T11:35:25Z</time>
      </trkpt>
      <trkpt lat="45.44529" lon="5.50984">
        <ele>548</ele>
        <time>2011-03-27T11:35:30Z</time>
      </trkpt>
      <trkpt lat="45.4452" lon="5.50983">
        <ele>548.1</ele>
        <time>2011-03-27T11:35:36Z</time>
      </trkpt>
      <trkpt lat="45.44511" lon="5.50983">
        <ele>548.2</ele>
        <time>2011-03-27T11:35:42Z</time>
      </trkpt>
      <trkpt lat="45.44503" lon="5.50983">
        <ele>548.6</ele>
        <time>2011-03-27T11:35:47Z</time>
      </trkpt>
      <trkpt lat="45.44496" lon="5.50982">
        <ele>548.3</ele>
        <time>2011-03-27T11:35:51Z</time>
      </trkpt>
      <trkpt lat="45.44487" lon="5.50982">
        <ele>548</ele>
        <time>2011-03-27T11:35:55Z</time>
      </trkpt>
      <trkpt lat="45.44479" lon="5.50981">
        <ele>547.8</ele>
        <time>2011-03-27T11:35:59Z</time>
      </trkpt>
      <trkpt lat="45.44471" lon="5.5098">
        <ele>548.6</ele>
        <time>2011-03-27T11:36:03Z</time>
      </trkpt>
      <trkpt lat="45.44462" lon="5.50977">
        <ele>548</ele>
        <time>2011-03-27T11:36:08Z</time>
      </trkpt>
      <trkpt lat="45.44455" lon="5.50976">
        <ele>548</ele>
        <time>2011-03-27T11:36:12Z</time>
      </trkpt>
      <trkpt lat="45.44448" lon="5.50975">
        <ele>548.5</ele>
        <time>2011-03-27T11:36:16Z</time>
      </trkpt>
      <trkpt lat="45.44441" lon="5.50974">
        <ele>548.9</ele>
        <time>2011-03-27T11:36:20Z</time>
      </trkpt>
      <trkpt lat="45.44439" lon="5.50974">
        <ele>548.5</ele>
        <time>2011-03-27T11:36:21Z</time>
      </trkpt>
      <trkpt lat="45.44426" lon="5.50973">
        <ele>549.1</ele>
        <time>2011-03-27T11:36:28Z</time>
      </trkpt>
      <trkpt lat="45.44418" lon="5.50971">
        <ele>548.7</ele>
        <time>2011-03-27T11:36:32Z</time>
      </trkpt>
      <trkpt lat="45.4441" lon="5.5097">
        <ele>548.7</ele>
        <time>2011-03-27T11:36:36Z</time>
      </trkpt>
      <trkpt lat="45.44402" lon="5.50969">
        <ele>548.8</ele>
        <time>2011-03-27T11:36:40Z</time>
      </trkpt>
      <trkpt lat="45.44393" lon="5.50968">
        <ele>548.9</ele>
        <time>2011-03-27T11:36:44Z</time>
      </trkpt>
      <trkpt lat="45.44386" lon="5.50968">
        <ele>548.8</ele>
        <time>2011-03-27T11:36:47Z</time>
      </trkpt>
      <trkpt lat="45.44378" lon="5.50967">
        <ele>549</ele>
        <time>2011-03-27T11:36:50Z</time>
      </trkpt>
      <trkpt lat="45.44369" lon="5.50967">
        <ele>549.4</ele>
        <time>2011-03-27T11:36:53Z</time>
      </trkpt>
      <trkpt lat="45.44361" lon="5.50966">
        <ele>549.3</ele>
        <time>2011-03-27T11:36:56Z</time>
      </trkpt>
      <trkpt lat="45.44354" lon="5.50965">
        <ele>548.9</ele>
        <time>2011-03-27T11:36:58Z</time>
      </trkpt>
      <trkpt lat="45.44347" lon="5.50964">
        <ele>548.3</ele>
        <time>2011-03-27T11:37:00Z</time>
      </trkpt>
      <trkpt lat="45.4434" lon="5.50964">
        <ele>547.6</ele>
        <time>2011-03-27T11:37:02Z</time>
      </trkpt>
      <trkpt lat="45.44332" lon="5.50963">
        <ele>547</ele>
        <time>2011-03-27T11:37:04Z</time>
      </trkpt>
      <trkpt lat="45.44324" lon="5.50962">
        <ele>546.4</ele>
        <time>2011-03-27T11:37:06Z</time>
      </trkpt>
      <trkpt lat="45.44317" lon="5.50961">
        <ele>546.1</ele>
        <time>2011-03-27T11:37:08Z</time>
      </trkpt>
      <trkpt lat="45.44309" lon="5.50961">
        <ele>545.3</ele>
        <time>2011-03-27T11:37:10Z</time>
      </trkpt>
      <trkpt lat="45.44301" lon="5.50961">
        <ele>545.1</ele>
        <time>2011-03-27T11:37:12Z</time>
      </trkpt>
      <trkpt lat="45.44293" lon="5.50961">
        <ele>545</ele>
        <time>2011-03-27T11:37:14Z</time>
      </trkpt>
      <trkpt lat="45.44286" lon="5.50961">
        <ele>544.8</ele>
        <time>2011-03-27T11:37:16Z</time>
      </trkpt>
      <trkpt lat="45.44278" lon="5.5096">
        <ele>544.6</ele>
        <time>2011-03-27T11:37:18Z</time>
      </trkpt>
      <trkpt lat="45.44271" lon="5.5096">
        <ele>544.4</ele>
        <time>2011-03-27T11:37:20Z</time>
      </trkpt>
      <trkpt lat="45.44263" lon="5.50961">
        <ele>543.5</ele>
        <time>2011-03-27T11:37:22Z</time>
      </trkpt>
      <trkpt lat="45.44259" lon="5.50962">
        <ele>543.2</ele>
        <time>2011-03-27T11:37:23Z</time>
      </trkpt>
      <trkpt lat="45.44248" lon="5.50964">
        <ele>543.2</ele>
        <time>2011-03-27T11:37:26Z</time>
      </trkpt>
      <trkpt lat="45.44241" lon="5.50966">
        <ele>542.8</ele>
        <time>2011-03-27T11:37:28Z</time>
      </trkpt>
      <trkpt lat="45.44234" lon="5.50967">
        <ele>542.2</ele>
        <time>2011-03-27T11:37:30Z</time>
      </trkpt>
      <trkpt lat="45.44227" lon="5.50969">
        <ele>542</ele>
        <time>2011-03-27T11:37:32Z</time>
      </trkpt>
      <trkpt lat="45.4422" lon="5.50971">
        <ele>541.8</ele>
        <time>2011-03-27T11:37:34Z</time>
      </trkpt>
      <trkpt lat="45.44214" lon="5.50973">
        <ele>541.5</ele>
        <time>2011-03-27T11:37:36Z</time>
      </trkpt>
      <trkpt lat="45.44207" lon="5.50974">
        <ele>541.3</ele>
        <time>2011-03-27T11:37:38Z</time>
      </trkpt>
      <trkpt lat="45.442" lon="5.50975">
        <ele>541.7</ele>
        <time>2011-03-27T11:37:40Z</time>
      </trkpt>
      <trkpt lat="45.44192" lon="5.50976">
        <ele>542.3</ele>
        <time>2011-03-27T11:37:42Z</time>
      </trkpt>
      <trkpt lat="45.44183" lon="5.50979">
        <ele>542.1</ele>
        <time>2011-03-27T11:37:44Z</time>
      </trkpt>
      <trkpt lat="45.44174" lon="5.50981">
        <ele>542</ele>
        <time>2011-03-27T11:37:46Z</time>
      </trkpt>
      <trkpt lat="45.44166" lon="5.50982">
        <ele>542.2</ele>
        <time>2011-03-27T11:37:48Z</time>
      </trkpt>
      <trkpt lat="45.44158" lon="5.50984">
        <ele>542.2</ele>
        <time>2011-03-27T11:37:50Z</time>
      </trkpt>
      <trkpt lat="45.44149" lon="5.50986">
        <ele>542.2</ele>
        <time>2011-03-27T11:37:52Z</time>
      </trkpt>
      <trkpt lat="45.44144" lon="5.50987">
        <ele>542.2</ele>
        <time>2011-03-27T11:37:53Z</time>
      </trkpt>
      <trkpt lat="45.44139" lon="5.50988">
        <ele>542.2</ele>
        <time>2011-03-27T11:37:54Z</time>
      </trkpt>
      <trkpt lat="45.44133" lon="5.5099">
        <ele>542.1</ele>
        <time>2011-03-27T11:37:55Z</time>
      </trkpt>
      <trkpt lat="45.44127" lon="5.50991">
        <ele>542.2</ele>
        <time>2011-03-27T11:37:56Z</time>
      </trkpt>
      <trkpt lat="45.44121" lon="5.50993">
        <ele>542.3</ele>
        <time>2011-03-27T11:37:57Z</time>
      </trkpt>
      <trkpt lat="45.44115" lon="5.50995">
        <ele>542.3</ele>
        <time>2011-03-27T11:37:58Z</time>
      </trkpt>
      <trkpt lat="45.44109" lon="5.50997">
        <ele>542.4</ele>
        <time>2011-03-27T11:37:59Z</time>
      </trkpt>
      <trkpt lat="45.44103" lon="5.50999">
        <ele>542.5</ele>
        <time>2011-03-27T11:38:00Z</time>
      </trkpt>
      <trkpt lat="45.44097" lon="5.51001">
        <ele>542.6</ele>
        <time>2011-03-27T11:38:01Z</time>
      </trkpt>
      <trkpt lat="45.44091" lon="5.51003">
        <ele>542.7</ele>
        <time>2011-03-27T11:38:02Z</time>
      </trkpt>
      <trkpt lat="45.44086" lon="5.51005">
        <ele>542.4</ele>
        <time>2011-03-27T11:38:03Z</time>
      </trkpt>
      <trkpt lat="45.4408" lon="5.51006">
        <ele>542.2</ele>
        <time>2011-03-27T11:38:04Z</time>
      </trkpt>
      <trkpt lat="45.44075" lon="5.51008">
        <ele>542.1</ele>
        <time>2011-03-27T11:38:05Z</time>
      </trkpt>
      <trkpt lat="45.44069" lon="5.5101">
        <ele>542.2</ele>
        <time>2011-03-27T11:38:06Z</time>
      </trkpt>
      <trkpt lat="45.44063" lon="5.51012">
        <ele>542.3</ele>
        <time>2011-03-27T11:38:07Z</time>
      </trkpt>
      <trkpt lat="45.44058" lon="5.51013">
        <ele>542.4</ele>
        <time>2011-03-27T11:38:08Z</time>
      </trkpt>
      <trkpt lat="45.44052" lon="5.51015">
        <ele>542.5</ele>
        <time>2011-03-27T11:38:09Z</time>
      </trkpt>
      <trkpt lat="45.44046" lon="5.51016">
        <ele>542.6</ele>
        <time>2011-03-27T11:38:10Z</time>
      </trkpt>
      <trkpt lat="45.44039" lon="5.51017">
        <ele>542.6</ele>
        <time>2011-03-27T11:38:11Z</time>
      </trkpt>
      <trkpt lat="45.44033" lon="5.51018">
        <ele>543.1</ele>
        <time>2011-03-27T11:38:12Z</time>
      </trkpt>
      <trkpt lat="45.44027" lon="5.51018">
        <ele>543.5</ele>
        <time>2011-03-27T11:38:13Z</time>
      </trkpt>
      <trkpt lat="45.4402" lon="5.51019">
        <ele>543.7</ele>
        <time>2011-03-27T11:38:14Z</time>
      </trkpt>
      <trkpt lat="45.44014" lon="5.51019">
        <ele>543.5</ele>
        <time>2011-03-27T11:38:15Z</time>
      </trkpt>
      <trkpt lat="45.44008" lon="5.5102">
        <ele>543.3</ele>
        <time>2011-03-27T11:38:16Z</time>
      </trkpt>
      <trkpt lat="45.44003" lon="5.5102">
        <ele>543.2</ele>
        <time>2011-03-27T11:38:17Z</time>
      </trkpt>
      <trkpt lat="45.43998" lon="5.51019">
        <ele>543.1</ele>
        <time>2011-03-27T11:38:18Z</time>
      </trkpt>
      <trkpt lat="45.43993" lon="5.51019">
        <ele>543</ele>
        <time>2011-03-27T11:38:19Z</time>
      </trkpt>
      <trkpt lat="45.43988" lon="5.51017">
        <ele>542.9</ele>
        <time>2011-03-27T11:38:20Z</time>
      </trkpt>
      <trkpt lat="45.43983" lon="5.51016">
        <ele>542.8</ele>
        <time>2011-03-27T11:38:21Z</time>
      </trkpt>
      <trkpt lat="45.43978" lon="5.51014">
        <ele>542.8</ele>
        <time>2011-03-27T11:38:22Z</time>
      </trkpt>
      <trkpt lat="45.43974" lon="5.51013">
        <ele>542.7</ele>
        <time>2011-03-27T11:38:23Z</time>
      </trkpt>
      <trkpt lat="45.43969" lon="5.51011">
        <ele>542.7</ele>
        <time>2011-03-27T11:38:24Z</time>
      </trkpt>
      <trkpt lat="45.43958" lon="5.51007">
        <ele>542.9</ele>
        <time>2011-03-27T11:38:27Z</time>
      </trkpt>
      <trkpt lat="45.43952" lon="5.51005">
        <ele>543.4</ele>
        <time>2011-03-27T11:38:29Z</time>
      </trkpt>
      <trkpt lat="45.43946" lon="5.51004">
        <ele>544</ele>
        <time>2011-03-27T11:38:31Z</time>
      </trkpt>
      <trkpt lat="45.4394" lon="5.51003">
        <ele>544.6</ele>
        <time>2011-03-27T11:38:33Z</time>
      </trkpt>
      <trkpt lat="45.43933" lon="5.51003">
        <ele>545</ele>
        <time>2011-03-27T11:38:35Z</time>
      </trkpt>
      <trkpt lat="45.43924" lon="5.51004">
        <ele>544.8</ele>
        <time>2011-03-27T11:38:38Z</time>
      </trkpt>
      <trkpt lat="45.43916" lon="5.51004">
        <ele>545.4</ele>
        <time>2011-03-27T11:38:41Z</time>
      </trkpt>
      <trkpt lat="45.43909" lon="5.51005">
        <ele>546.1</ele>
        <time>2011-03-27T11:38:44Z</time>
      </trkpt>
      <trkpt lat="45.43902" lon="5.51007">
        <ele>546.2</ele>
        <time>2011-03-27T11:38:47Z</time>
      </trkpt>
      <trkpt lat="45.43895" lon="5.51009">
        <ele>546.3</ele>
        <time>2011-03-27T11:38:50Z</time>
      </trkpt>
      <trkpt lat="45.43888" lon="5.5101">
        <ele>546.2</ele>
        <time>2011-03-27T11:38:53Z</time>
      </trkpt>
      <trkpt lat="45.43881" lon="5.51012">
        <ele>546.5</ele>
        <time>2011-03-27T11:38:56Z</time>
      </trkpt>
      <trkpt lat="45.43873" lon="5.51014">
        <ele>545.9</ele>
        <time>2011-03-27T11:38:59Z</time>
      </trkpt>
      <trkpt lat="45.43866" lon="5.51018">
        <ele>546.3</ele>
        <time>2011-03-27T11:39:02Z</time>
      </trkpt>
      <trkpt lat="45.43858" lon="5.5102">
        <ele>546.4</ele>
        <time>2011-03-27T11:39:05Z</time>
      </trkpt>
      <trkpt lat="45.4385" lon="5.51023">
        <ele>546.4</ele>
        <time>2011-03-27T11:39:08Z</time>
      </trkpt>
      <trkpt lat="45.43841" lon="5.51027">
        <ele>547</ele>
        <time>2011-03-27T11:39:12Z</time>
      </trkpt>
      <trkpt lat="45.43833" lon="5.51029">
        <ele>547</ele>
        <time>2011-03-27T11:39:16Z</time>
      </trkpt>
      <trkpt lat="45.43825" lon="5.51033">
        <ele>546.7</ele>
        <time>2011-03-27T11:39:20Z</time>
      </trkpt>
      <trkpt lat="45.43817" lon="5.51037">
        <ele>547.2</ele>
        <time>2011-03-27T11:39:24Z</time>
      </trkpt>
      <trkpt lat="45.43815" lon="5.51038">
        <ele>547.4</ele>
        <time>2011-03-27T11:39:25Z</time>
      </trkpt>
      <trkpt lat="45.43804" lon="5.51047">
        <ele>547.1</ele>
        <time>2011-03-27T11:39:31Z</time>
      </trkpt>
      <trkpt lat="45.43796" lon="5.51052">
        <ele>547.3</ele>
        <time>2011-03-27T11:39:35Z</time>
      </trkpt>
      <trkpt lat="45.43789" lon="5.51058">
        <ele>546</ele>
        <time>2011-03-27T11:39:39Z</time>
      </trkpt>
      <trkpt lat="45.43781" lon="5.51063">
        <ele>547.2</ele>
        <time>2011-03-27T11:39:43Z</time>
      </trkpt>
      <trkpt lat="45.43775" lon="5.51068">
        <ele>547</ele>
        <time>2011-03-27T11:39:46Z</time>
      </trkpt>
      <trkpt lat="45.43767" lon="5.51072">
        <ele>546.7</ele>
        <time>2011-03-27T11:39:49Z</time>
      </trkpt>
      <trkpt lat="45.43761" lon="5.51076">
        <ele>546.6</ele>
        <time>2011-03-27T11:39:51Z</time>
      </trkpt>
      <trkpt lat="45.43754" lon="5.51082">
        <ele>546.6</ele>
        <time>2011-03-27T11:39:53Z</time>
      </trkpt>
      <trkpt lat="45.4375" lon="5.51086">
        <ele>547</ele>
        <time>2011-03-27T11:39:54Z</time>
      </trkpt>
      <trkpt lat="45.43747" lon="5.5109">
        <ele>547.2</ele>
        <time>2011-03-27T11:39:55Z</time>
      </trkpt>
      <trkpt lat="45.43743" lon="5.51095">
        <ele>547.5</ele>
        <time>2011-03-27T11:39:56Z</time>
      </trkpt>
      <trkpt lat="45.4374" lon="5.51101">
        <ele>547.3</ele>
        <time>2011-03-27T11:39:57Z</time>
      </trkpt>
      <trkpt lat="45.43737" lon="5.51108">
        <ele>547.1</ele>
        <time>2011-03-27T11:39:58Z</time>
      </trkpt>
      <trkpt lat="45.43734" lon="5.51115">
        <ele>547</ele>
        <time>2011-03-27T11:39:59Z</time>
      </trkpt>
      <trkpt lat="45.43731" lon="5.51122">
        <ele>547.2</ele>
        <time>2011-03-27T11:40:00Z</time>
      </trkpt>
      <trkpt lat="45.43728" lon="5.5113">
        <ele>547.4</ele>
        <time>2011-03-27T11:40:01Z</time>
      </trkpt>
      <trkpt lat="45.43725" lon="5.5114">
        <ele>547.5</ele>
        <time>2011-03-27T11:40:02Z</time>
      </trkpt>
      <trkpt lat="45.43722" lon="5.51149">
        <ele>547.4</ele>
        <time>2011-03-27T11:40:03Z</time>
      </trkpt>
      <trkpt lat="45.43718" lon="5.51158">
        <ele>547.4</ele>
        <time>2011-03-27T11:40:04Z</time>
      </trkpt>
      <trkpt lat="45.43713" lon="5.51167">
        <ele>547.3</ele>
        <time>2011-03-27T11:40:05Z</time>
      </trkpt>
      <trkpt lat="45.43708" lon="5.51175">
        <ele>547.5</ele>
        <time>2011-03-27T11:40:06Z</time>
      </trkpt>
      <trkpt lat="45.43701" lon="5.51183">
        <ele>547.6</ele>
        <time>2011-03-27T11:40:07Z</time>
      </trkpt>
      <trkpt lat="45.43694" lon="5.5119">
        <ele>547.7</ele>
        <time>2011-03-27T11:40:08Z</time>
      </trkpt>
      <trkpt lat="45.43685" lon="5.51196">
        <ele>547.8</ele>
        <time>2011-03-27T11:40:09Z</time>
      </trkpt>
      <trkpt lat="45.43677" lon="5.51202">
        <ele>547.9</ele>
        <time>2011-03-27T11:40:10Z</time>
      </trkpt>
      <trkpt lat="45.43668" lon="5.51208">
        <ele>548</ele>
        <time>2011-03-27T11:40:11Z</time>
      </trkpt>
      <trkpt lat="45.43659" lon="5.51212">
        <ele>548.1</ele>
        <time>2011-03-27T11:40:12Z</time>
      </trkpt>
      <trkpt lat="45.43651" lon="5.51217">
        <ele>548</ele>
        <time>2011-03-27T11:40:13Z</time>
      </trkpt>
      <trkpt lat="45.43642" lon="5.51221">
        <ele>548</ele>
        <time>2011-03-27T11:40:14Z</time>
      </trkpt>
      <trkpt lat="45.43633" lon="5.51226">
        <ele>547.9</ele>
        <time>2011-03-27T11:40:15Z</time>
      </trkpt>
      <trkpt lat="45.43625" lon="5.51231">
        <ele>547.4</ele>
        <time>2011-03-27T11:40:16Z</time>
      </trkpt>
      <trkpt lat="45.43616" lon="5.51235">
        <ele>547.1</ele>
        <time>2011-03-27T11:40:17Z</time>
      </trkpt>
      <trkpt lat="45.43606" lon="5.51239">
        <ele>546.8</ele>
        <time>2011-03-27T11:40:18Z</time>
      </trkpt>
      <trkpt lat="45.43597" lon="5.51243">
        <ele>546.6</ele>
        <time>2011-03-27T11:40:19Z</time>
      </trkpt>
      <trkpt lat="45.43587" lon="5.51245">
        <ele>546.4</ele>
        <time>2011-03-27T11:40:20Z</time>
      </trkpt>
      <trkpt lat="45.43577" lon="5.51246">
        <ele>546.3</ele>
        <time>2011-03-27T11:40:21Z</time>
      </trkpt>
      <trkpt lat="45.43566" lon="5.51246">
        <ele>546.1</ele>
        <time>2011-03-27T11:40:22Z</time>
      </trkpt>
      <trkpt lat="45.43555" lon="5.51247">
        <ele>545.9</ele>
        <time>2011-03-27T11:40:23Z</time>
      </trkpt>
      <trkpt lat="45.43544" lon="5.51247">
        <ele>545.8</ele>
        <time>2011-03-27T11:40:24Z</time>
      </trkpt>
      <trkpt lat="45.43534" lon="5.51248">
        <ele>545.2</ele>
        <time>2011-03-27T11:40:25Z</time>
      </trkpt>
      <trkpt lat="45.43523" lon="5.51249">
        <ele>544.8</ele>
        <time>2011-03-27T11:40:26Z</time>
      </trkpt>
      <trkpt lat="45.43512" lon="5.5125">
        <ele>544.5</ele>
        <time>2011-03-27T11:40:27Z</time>
      </trkpt>
      <trkpt lat="45.435" lon="5.51251">
        <ele>544.2</ele>
        <time>2011-03-27T11:40:28Z</time>
      </trkpt>
      <trkpt lat="45.43489" lon="5.5125">
        <ele>543.8</ele>
        <time>2011-03-27T11:40:29Z</time>
      </trkpt>
      <trkpt lat="45.43478" lon="5.51248">
        <ele>543.5</ele>
        <time>2011-03-27T11:40:30Z</time>
      </trkpt>
      <trkpt lat="45.43468" lon="5.51245">
        <ele>543.3</ele>
        <time>2011-03-27T11:40:31Z</time>
      </trkpt>
      <trkpt lat="45.43457" lon="5.51243">
        <ele>542.9</ele>
        <time>2011-03-27T11:40:32Z</time>
      </trkpt>
      <trkpt lat="45.43447" lon="5.5124">
        <ele>542.6</ele>
        <time>2011-03-27T11:40:33Z</time>
      </trkpt>
      <trkpt lat="45.43438" lon="5.51237">
        <ele>542.3</ele>
        <time>2011-03-27T11:40:34Z</time>
      </trkpt>
      <trkpt lat="45.43429" lon="5.51232">
        <ele>541.9</ele>
        <time>2011-03-27T11:40:35Z</time>
      </trkpt>
      <trkpt lat="45.4342" lon="5.51226">
        <ele>541.5</ele>
        <time>2011-03-27T11:40:36Z</time>
      </trkpt>
      <trkpt lat="45.43412" lon="5.51218">
        <ele>541.3</ele>
        <time>2011-03-27T11:40:37Z</time>
      </trkpt>
      <trkpt lat="45.43404" lon="5.51211">
        <ele>540.8</ele>
        <time>2011-03-27T11:40:38Z</time>
      </trkpt>
      <trkpt lat="45.43397" lon="5.51206">
        <ele>540.5</ele>
        <time>2011-03-27T11:40:39Z</time>
      </trkpt>
      <trkpt lat="45.4339" lon="5.51206">
        <ele>540.2</ele>
        <time>2011-03-27T11:40:40Z</time>
      </trkpt>
      <trkpt lat="45.43382" lon="5.51206">
        <ele>540.1</ele>
        <time>2011-03-27T11:40:41Z</time>
      </trkpt>
      <trkpt lat="45.43376" lon="5.51207">
        <ele>540.1</ele>
        <time>2011-03-27T11:40:42Z</time>
      </trkpt>
      <trkpt lat="45.4337" lon="5.51208">
        <ele>540</ele>
        <time>2011-03-27T11:40:43Z</time>
      </trkpt>
      <trkpt lat="45.43364" lon="5.51208">
        <ele>539.5</ele>
        <time>2011-03-27T11:40:44Z</time>
      </trkpt>
      <trkpt lat="45.43356" lon="5.51209">
        <ele>538.9</ele>
        <time>2011-03-27T11:40:46Z</time>
      </trkpt>
      <trkpt lat="45.4335" lon="5.51212">
        <ele>538.6</ele>
        <time>2011-03-27T11:40:48Z</time>
      </trkpt>
      <trkpt lat="45.43343" lon="5.51217">
        <ele>538.4</ele>
        <time>2011-03-27T11:40:50Z</time>
      </trkpt>
      <trkpt lat="45.43337" lon="5.51224">
        <ele>538.4</ele>
        <time>2011-03-27T11:40:52Z</time>
      </trkpt>
      <trkpt lat="45.43333" lon="5.51235">
        <ele>538.5</ele>
        <time>2011-03-27T11:40:54Z</time>
      </trkpt>
      <trkpt lat="45.43332" lon="5.51241">
        <ele>538.6</ele>
        <time>2011-03-27T11:40:55Z</time>
      </trkpt>
      <trkpt lat="45.43332" lon="5.51248">
        <ele>538.6</ele>
        <time>2011-03-27T11:40:56Z</time>
      </trkpt>
      <trkpt lat="45.43332" lon="5.51255">
        <ele>538.4</ele>
        <time>2011-03-27T11:40:57Z</time>
      </trkpt>
      <trkpt lat="45.43332" lon="5.51264">
        <ele>538.2</ele>
        <time>2011-03-27T11:40:58Z</time>
      </trkpt>
      <trkpt lat="45.43332" lon="5.51273">
        <ele>538.1</ele>
        <time>2011-03-27T11:40:59Z</time>
      </trkpt>
      <trkpt lat="45.43331" lon="5.51282">
        <ele>538.1</ele>
        <time>2011-03-27T11:41:00Z</time>
      </trkpt>
      <trkpt lat="45.4333" lon="5.51293">
        <ele>538.1</ele>
        <time>2011-03-27T11:41:01Z</time>
      </trkpt>
      <trkpt lat="45.4333" lon="5.51301">
        <ele>538.1</ele>
        <time>2011-03-27T11:41:02Z</time>
      </trkpt>
      <trkpt lat="45.43329" lon="5.51309">
        <ele>537.8</ele>
        <time>2011-03-27T11:41:03Z</time>
      </trkpt>
      <trkpt lat="45.43329" lon="5.51316">
        <ele>537.7</ele>
        <time>2011-03-27T11:41:04Z</time>
      </trkpt>
      <trkpt lat="45.43327" lon="5.51327">
        <ele>537.4</ele>
        <time>2011-03-27T11:41:06Z</time>
      </trkpt>
      <trkpt lat="45.43326" lon="5.51337">
        <ele>537.6</ele>
        <time>2011-03-27T11:41:09Z</time>
      </trkpt>
      <trkpt lat="45.43327" lon="5.51346">
        <ele>538.1</ele>
        <time>2011-03-27T11:41:11Z</time>
      </trkpt>
      <trkpt lat="45.43327" lon="5.51357">
        <ele>538</ele>
        <time>2011-03-27T11:41:13Z</time>
      </trkpt>
      <trkpt lat="45.43326" lon="5.51368">
        <ele>537.7</ele>
        <time>2011-03-27T11:41:15Z</time>
      </trkpt>
      <trkpt lat="45.43325" lon="5.51381">
        <ele>537.4</ele>
        <time>2011-03-27T11:41:17Z</time>
      </trkpt>
      <trkpt lat="45.43324" lon="5.51387">
        <ele>537.3</ele>
        <time>2011-03-27T11:41:18Z</time>
      </trkpt>
      <trkpt lat="45.43323" lon="5.51394">
        <ele>536.9</ele>
        <time>2011-03-27T11:41:19Z</time>
      </trkpt>
      <trkpt lat="45.43323" lon="5.51401">
        <ele>536.6</ele>
        <time>2011-03-27T11:41:20Z</time>
      </trkpt>
      <trkpt lat="45.43322" lon="5.51408">
        <ele>536.4</ele>
        <time>2011-03-27T11:41:21Z</time>
      </trkpt>
      <trkpt lat="45.43322" lon="5.51415">
        <ele>536.4</ele>
        <time>2011-03-27T11:41:22Z</time>
      </trkpt>
      <trkpt lat="45.43321" lon="5.51422">
        <ele>536.4</ele>
        <time>2011-03-27T11:41:23Z</time>
      </trkpt>
      <trkpt lat="45.43321" lon="5.51429">
        <ele>536.4</ele>
        <time>2011-03-27T11:41:24Z</time>
      </trkpt>
      <trkpt lat="45.4332" lon="5.51436">
        <ele>536.4</ele>
        <time>2011-03-27T11:41:25Z</time>
      </trkpt>
      <trkpt lat="45.4332" lon="5.51442">
        <ele>536.4</ele>
        <time>2011-03-27T11:41:26Z</time>
      </trkpt>
      <trkpt lat="45.43319" lon="5.51449">
        <ele>536.4</ele>
        <time>2011-03-27T11:41:27Z</time>
      </trkpt>
      <trkpt lat="45.43318" lon="5.51456">
        <ele>536.4</ele>
        <time>2011-03-27T11:41:28Z</time>
      </trkpt>
      <trkpt lat="45.43318" lon="5.51463">
        <ele>536.6</ele>
        <time>2011-03-27T11:41:29Z</time>
      </trkpt>
      <trkpt lat="45.43317" lon="5.5147">
        <ele>536.8</ele>
        <time>2011-03-27T11:41:30Z</time>
      </trkpt>
      <trkpt lat="45.43316" lon="5.51477">
        <ele>537</ele>
        <time>2011-03-27T11:41:31Z</time>
      </trkpt>
      <trkpt lat="45.43315" lon="5.51483">
        <ele>537</ele>
        <time>2011-03-27T11:41:32Z</time>
      </trkpt>
      <trkpt lat="45.43315" lon="5.51489">
        <ele>537.1</ele>
        <time>2011-03-27T11:41:33Z</time>
      </trkpt>
      <trkpt lat="45.43313" lon="5.51502">
        <ele>537.1</ele>
        <time>2011-03-27T11:41:35Z</time>
      </trkpt>
      <trkpt lat="45.43313" lon="5.51508">
        <ele>537.1</ele>
        <time>2011-03-27T11:41:36Z</time>
      </trkpt>
      <trkpt lat="45.43312" lon="5.51515">
        <ele>537.1</ele>
        <time>2011-03-27T11:41:37Z</time>
      </trkpt>
      <trkpt lat="45.43312" lon="5.51521">
        <ele>537</ele>
        <time>2011-03-27T11:41:38Z</time>
      </trkpt>
      <trkpt lat="45.43311" lon="5.51528">
        <ele>536.9</ele>
        <time>2011-03-27T11:41:39Z</time>
      </trkpt>
      <trkpt lat="45.43311" lon="5.51535">
        <ele>536.8</ele>
        <time>2011-03-27T11:41:40Z</time>
      </trkpt>
      <trkpt lat="45.43308" lon="5.51547">
        <ele>536.7</ele>
        <time>2011-03-27T11:41:42Z</time>
      </trkpt>
      <trkpt lat="45.43305" lon="5.51557">
        <ele>536.6</ele>
        <time>2011-03-27T11:41:44Z</time>
      </trkpt>
      <trkpt lat="45.43304" lon="5.51569">
        <ele>537.2</ele>
        <time>2011-03-27T11:41:46Z</time>
      </trkpt>
      <trkpt lat="45.43305" lon="5.51582">
        <ele>537.2</ele>
        <time>2011-03-27T11:41:48Z</time>
      </trkpt>
      <trkpt lat="45.43305" lon="5.51594">
        <ele>537</ele>
        <time>2011-03-27T11:41:50Z</time>
      </trkpt>
      <trkpt lat="45.43303" lon="5.51605">
        <ele>537</ele>
        <time>2011-03-27T11:41:52Z</time>
      </trkpt>
      <trkpt lat="45.43302" lon="5.51616">
        <ele>536.4</ele>
        <time>2011-03-27T11:41:54Z</time>
      </trkpt>
      <trkpt lat="45.43299" lon="5.51628">
        <ele>535.7</ele>
        <time>2011-03-27T11:41:57Z</time>
      </trkpt>
      <trkpt lat="45.43299" lon="5.51633">
        <ele>530</ele>
        <time>2011-03-27T11:42:15Z</time>
      </trkpt>
    </trkseg>
  </trk>
</gpx>